Wetterdaten: Donnerstag, 26.04.2018
Datum Zeit Temp. A. Pool Temp. Feuchte A. Luftdruck Regen Wind Richtung Richtung Sonnenschein ET UV Solar Taupunkt Windchill Windben Empfang
26.04.2018 00:00 17,9 C 19,4 C 54 % 1012,1 hPa 0,0 l/m 10,4 km/h (2 Bft) N-NW 329 0 min 0,000 mm 0,0 UV-I 0 W/m 8,5 C 16,2 C 19,3 km/h (3 Bft) 91,30 %
26.04.2018 00:02 17,9 C 19,4 C 55 % 1012,1 hPa 0,0 l/m 7,2 km/h (2 Bft) W-NW 290 0 min 0,000 mm 0,0 UV-I 0 W/m 8,7 C 17,5 C 19,3 km/h (3 Bft) 100,00 %
26.04.2018 00:03 17,9 C 19,4 C 55 % 1012,1 hPa 0,0 l/m 7,0 km/h (2 Bft) W 273 0 min 0,000 mm 0,0 UV-I 0 W/m 8,7 C 17,6 C 12,9 km/h (3 Bft) 95,83 %
26.04.2018 00:04 17,8 C 19,4 C 55 % 1012,2 hPa 0,0 l/m 6,6 km/h (2 Bft) SW 230 0 min 0,000 mm 0,0 UV-I 0 W/m 8,6 C 17,7 C 9,7 km/h (2 Bft) 96,15 %
26.04.2018 00:05 17,8 C 19,4 C 56 % 1012,2 hPa 0,0 l/m 13,3 km/h (3 Bft) NW 315 0 min 0,000 mm 0,0 UV-I 0 W/m 8,9 C 15,1 C 24,1 km/h (4 Bft) 95,83 %
26.04.2018 00:06 17,7 C 19,4 C 56 % 1012,1 hPa 0,0 l/m 6,1 km/h (2 Bft) W 279 0 min 0,000 mm 0,0 UV-I 0 W/m 8,8 C 17,7 C 14,5 km/h (3 Bft) 86,96 %
26.04.2018 00:07 17,6 C 19,4 C 56 % 1012,1 hPa 0,0 l/m 4,9 km/h (1 Bft) W 273 0 min 0,000 mm 0,0 UV-I 0 W/m 8,7 C 17,6 C 6,4 km/h (2 Bft) 95,83 %
26.04.2018 00:08 17,5 C 19,4 C 57 % 1012,1 hPa 0,0 l/m 6,4 km/h (2 Bft) NW 316 0 min 0,000 mm 0,0 UV-I 0 W/m 8,9 C 17,5 C 14,5 km/h (3 Bft) 92,31 %
26.04.2018 00:09 17,4 C 19,4 C 57 % 1012,1 hPa 0,0 l/m 8,2 km/h (2 Bft) W 266 0 min 0,000 mm 0,0 UV-I 0 W/m 8,8 C 16,5 C 11,3 km/h (2 Bft) 100,00 %
26.04.2018 00:10 17,3 C 19,4 C 57 % 1012,0 hPa 0,0 l/m 16,2 km/h (3 Bft) W-NW 287 0 min 0,000 mm 0,0 UV-I 0 W/m 8,7 C 13,6 C 22,5 km/h (4 Bft) 91,30 %
26.04.2018 00:11 17,3 C 19,4 C 58 % 1012,0 hPa 0,0 l/m 10,2 km/h (2 Bft) SW 227 0 min 0,000 mm 0,0 UV-I 0 W/m 9,0 C 15,6 C 16,1 km/h (3 Bft) 95,83 %
26.04.2018 00:12 17,2 C 19,4 C 58 % 1012,0 hPa 0,0 l/m 8,2 km/h (2 Bft) NW 317 0 min 0,000 mm 0,0 UV-I 0 W/m 8,9 C 16,3 C 16,1 km/h (3 Bft) 96,15 %
26.04.2018 00:13 17,2 C 19,4 C 58 % 1012,0 hPa 0,0 l/m 9,0 km/h (2 Bft) W-SW 250 0 min 0,000 mm 0,0 UV-I 0 W/m 8,9 C 16,0 C 12,9 km/h (3 Bft) 91,67 %
26.04.2018 00:14 17,2 C 19,4 C 59 % 1012,0 hPa 0,0 l/m 7,8 km/h (2 Bft) W 259 0 min 0,000 mm 0,0 UV-I 0 W/m 9,1 C 16,5 C 11,3 km/h (2 Bft) 100,00 %
26.04.2018 00:15 17,1 C 19,4 C 58 % 1012,0 hPa 0,0 l/m 5,0 km/h (1 Bft) N-NW 327 0 min 0,000 mm 0,0 UV-I 0 W/m 8,8 C 17,1 C 9,7 km/h (2 Bft) 91,67 %
26.04.2018 00:16 17,0 C 19,4 C 59 % 1012,0 hPa 0,0 l/m 4,1 km/h (1 Bft) NW 305 0 min 0,000 mm 0,0 UV-I 0 W/m 8,9 C 17,0 C 6,4 km/h (2 Bft) 100,00 %
26.04.2018 00:17 16,9 C 19,4 C 60 % 1012,1 hPa 0,0 l/m 8,9 km/h (2 Bft) W-NW 292 0 min 0,000 mm 0,0 UV-I 0 W/m 9,1 C 15,7 C 12,9 km/h (3 Bft) 88,46 %
26.04.2018 00:18 16,9 C 19,4 C 60 % 1012,1 hPa 0,0 l/m 4,8 km/h (1 Bft) W-NW 291 0 min 0,000 mm 0,0 UV-I 0 W/m 9,1 C 16,9 C 8,0 km/h (2 Bft) 100,00 %
26.04.2018 00:19 16,8 C 19,4 C 61 % 1012,1 hPa 0,0 l/m 2,4 km/h (1 Bft) W-NW 291 0 min 0,000 mm 0,0 UV-I 0 W/m 9,2 C 16,8 C 4,8 km/h (1 Bft) 87,50 %
26.04.2018 00:20 16,8 C 19,4 C 61 % 1012,1 hPa 0,0 l/m 1,5 km/h (1 Bft) W-NW 291 0 min 0,000 mm 0,0 UV-I 0 W/m 9,2 C 16,8 C 3,2 km/h (1 Bft) 95,83 %
26.04.2018 00:21 16,8 C 19,4 C 61 % 1012,1 hPa 0,0 l/m 6,4 km/h (2 Bft) NW 324 0 min 0,000 mm 0,0 UV-I 0 W/m 9,2 C 16,8 C 12,9 km/h (3 Bft) 91,30 %
26.04.2018 00:22 16,7 C 19,4 C 62 % 1012,1 hPa 0,0 l/m 9,8 km/h (2 Bft) W-NW 297 0 min 0,000 mm 0,0 UV-I 0 W/m 9,4 C 15,1 C 14,5 km/h (3 Bft) 100,00 %
26.04.2018 00:23 16,7 C 19,4 C 61 % 1012,2 hPa 0,0 l/m 6,5 km/h (2 Bft) W 271 0 min 0,000 mm 0,0 UV-I 0 W/m 9,1 C 16,7 C 17,7 km/h (3 Bft) 82,61 %
26.04.2018 00:24 16,7 C 19,4 C 62 % 1012,2 hPa 0,0 l/m 9,7 km/h (2 Bft) W 259 0 min 0,000 mm 0,0 UV-I 0 W/m 9,4 C 15,1 C 14,5 km/h (3 Bft) 91,67 %
26.04.2018 00:25 16,7 C 19,4 C 63 % 1012,2 hPa 0,0 l/m 7,5 km/h (2 Bft) W 279 0 min 0,000 mm 0,0 UV-I 0 W/m 9,6 C 16,1 C 11,3 km/h (2 Bft) 100,00 %
26.04.2018 00:26 16,6 C 19,4 C 63 % 1012,2 hPa 0,0 l/m 7,3 km/h (2 Bft) W-SW 256 0 min 0,000 mm 0,0 UV-I 0 W/m 9,5 C 16,1 C 11,3 km/h (2 Bft) 87,50 %
26.04.2018 00:27 16,6 C 19,4 C 64 % 1012,2 hPa 0,0 l/m 6,4 km/h (2 Bft) W-SW 247 0 min 0,000 mm 0,0 UV-I 0 W/m 9,8 C 16,6 C 9,7 km/h (2 Bft) 100,00 %
26.04.2018 00:28 16,6 C 19,4 C 65 % 1012,2 hPa 0,0 l/m 8,5 km/h (2 Bft) W 270 0 min 0,000 mm 0,0 UV-I 0 W/m 10,0 C 15,5 C 12,9 km/h (3 Bft) 93,33 %
26.04.2018 00:29 16,5 C 19,4 C 66 % 1012,2 hPa 0,0 l/m 12,1 km/h (2 Bft) W 267 0 min 0,000 mm 0,0 UV-I 0 W/m 10,1 C 14,0 C 16,1 km/h (3 Bft) 95,65 %
26.04.2018 00:30 16,4 C 19,4 C 66 % 1012,2 hPa 0,0 l/m 10,3 km/h (2 Bft) W 268 0 min 0,000 mm 0,0 UV-I 0 W/m 10,0 C 14,5 C 14,5 km/h (3 Bft) 87,50 %
26.04.2018 00:31 16,4 C 19,4 C 66 % 1012,3 hPa 0,0 l/m 10,1 km/h (2 Bft) W-NW 283 0 min 0,000 mm 0,0 UV-I 0 W/m 10,0 C 14,6 C 12,9 km/h (3 Bft) 91,30 %
26.04.2018 00:32 16,3 C 19,4 C 67 % 1012,3 hPa 0,0 l/m 9,2 km/h (2 Bft) W-SW 252 0 min 0,000 mm 0,0 UV-I 0 W/m 10,2 C 14,9 C 12,9 km/h (3 Bft) 100,00 %
26.04.2018 00:33 16,3 C 19,4 C 67 % 1012,2 hPa 0,0 l/m 9,7 km/h (2 Bft) W-SW 247 0 min 0,000 mm 0,0 UV-I 0 W/m 10,2 C 14,7 C 16,1 km/h (3 Bft) 100,00 %
26.04.2018 00:34 16,2 C 19,4 C 68 % 1012,2 hPa 0,0 l/m 10,8 km/h (2 Bft) W 266 0 min 0,000 mm 0,0 UV-I 0 W/m 10,3 C 14,1 C 14,5 km/h (3 Bft) 86,96 %
26.04.2018 00:35 16,1 C 19,4 C 68 % 1012,2 hPa 0,0 l/m 9,2 km/h (2 Bft) W 259 0 min 0,000 mm 0,0 UV-I 0 W/m 10,2 C 14,7 C 14,5 km/h (3 Bft) 91,67 %
26.04.2018 00:36 15,9 C 19,4 C 68 % 1012,2 hPa 0,0 l/m 10,1 km/h (2 Bft) W-SW 245 0 min 0,000 mm 0,0 UV-I 0 W/m 10,0 C 14,1 C 12,9 km/h (3 Bft) 100,00 %
26.04.2018 00:37 15,9 C 19,4 C 70 % 1012,3 hPa 0,0 l/m 8,9 km/h (2 Bft) W-SW 248 0 min 0,000 mm 0,0 UV-I 0 W/m 10,4 C 14,6 C 12,9 km/h (3 Bft) 92,00 %
26.04.2018 00:38 15,8 C 19,4 C 72 % 1012,3 hPa 0,0 l/m 10,2 km/h (2 Bft) W 266 0 min 0,000 mm 0,0 UV-I 0 W/m 10,8 C 13,9 C 12,9 km/h (3 Bft) 95,65 %
26.04.2018 00:39 15,7 C 19,4 C 72 % 1012,3 hPa 0,0 l/m 10,5 km/h (2 Bft) W-SW 240 0 min 0,000 mm 0,0 UV-I 0 W/m 10,7 C 13,7 C 12,9 km/h (3 Bft) 95,83 %
26.04.2018 00:40 15,6 C 19,4 C 72 % 1012,3 hPa 0,0 l/m 10,1 km/h (2 Bft) W-SW 237 0 min 0,000 mm 0,0 UV-I 0 W/m 10,6 C 13,7 C 16,1 km/h (3 Bft) 95,65 %
26.04.2018 00:41 15,5 C 19,4 C 73 % 1012,3 hPa 0,0 l/m 9,0 km/h (2 Bft) SW 220 0 min 0,000 mm 0,0 UV-I 0 W/m 10,7 C 14,1 C 14,5 km/h (3 Bft) 95,83 %
26.04.2018 00:42 15,4 C 19,4 C 73 % 1012,3 hPa 0,0 l/m 10,1 km/h (2 Bft) S-SW 212 0 min 0,000 mm 0,0 UV-I 0 W/m 10,6 C 13,5 C 14,5 km/h (3 Bft) 100,00 %
26.04.2018 00:43 15,4 C 19,4 C 73 % 1012,4 hPa 0,0 l/m 9,3 km/h (2 Bft) SW 231 0 min 0,000 mm 0,0 UV-I 0 W/m 10,6 C 13,9 C 12,9 km/h (3 Bft) 95,83 %
26.04.2018 00:44 15,3 C 19,4 C 73 % 1012,3 hPa 0,0 l/m 10,1 km/h (2 Bft) S-SW 207 0 min 0,000 mm 0,0 UV-I 0 W/m 10,5 C 13,4 C 12,9 km/h (3 Bft) 95,65 %
26.04.2018 00:45 15,3 C 19,4 C 74 % 1012,3 hPa 0,0 l/m 10,8 km/h (2 Bft) S-SW 207 0 min 0,000 mm 0,0 UV-I 0 W/m 10,7 C 13,1 C 14,5 km/h (3 Bft) 95,83 %
26.04.2018 00:46 15,2 C 19,4 C 74 % 1012,4 hPa 0,0 l/m 10,0 km/h (2 Bft) S-SW 205 0 min 0,000 mm 0,0 UV-I 0 W/m 10,6 C 13,3 C 14,5 km/h (3 Bft) 95,65 %
26.04.2018 00:47 15,2 C 19,4 C 74 % 1012,3 hPa 0,0 l/m 9,1 km/h (2 Bft) W-SW 252 0 min 0,000 mm 0,0 UV-I 0 W/m 10,6 C 13,8 C 12,9 km/h (3 Bft) 100,00 %
26.04.2018 00:48 15,2 C 19,4 C 75 % 1012,3 hPa 0,0 l/m 8,6 km/h (2 Bft) W-SW 257 0 min 0,000 mm 0,0 UV-I 0 W/m 10,8 C 14,0 C 14,5 km/h (3 Bft) 95,65 %
26.04.2018 00:49 15,1 C 19,4 C 75 % 1012,3 hPa 0,0 l/m 8,1 km/h (2 Bft) SW 223 0 min 0,000 mm 0,0 UV-I 0 W/m 10,7 C 14,2 C 12,9 km/h (3 Bft) 100,00 %
26.04.2018 00:50 15,1 C 19,4 C 76 % 1012,3 hPa 0,0 l/m 7,6 km/h (2 Bft) SW 219 0 min 0,000 mm 0,0 UV-I 0 W/m 10,9 C 14,4 C 11,3 km/h (2 Bft) 95,65 %
26.04.2018 00:51 15,0 C 19,4 C 76 % 1012,3 hPa 0,0 l/m 8,4 km/h (2 Bft) SW 218 0 min 0,000 mm 0,0 UV-I 0 W/m 10,8 C 13,9 C 11,3 km/h (2 Bft) 100,00 %
26.04.2018 00:52 14,9 C 19,4 C 76 % 1012,3 hPa 0,0 l/m 9,8 km/h (2 Bft) W-SW 254 0 min 0,000 mm 0,0 UV-I 0 W/m 10,7 C 13,1 C 12,9 km/h (3 Bft) 96,15 %
26.04.2018 00:53 14,9 C 19,4 C 76 % 1012,3 hPa 0,0 l/m 8,7 km/h (2 Bft) SW 229 0 min 0,000 mm 0,0 UV-I 0 W/m 10,7 C 13,6 C 12,9 km/h (3 Bft) 100,00 %
26.04.2018 00:54 14,9 C 19,4 C 77 % 1012,3 hPa 0,0 l/m 8,5 km/h (2 Bft) SW 231 0 min 0,000 mm 0,0 UV-I 0 W/m 10,9 C 13,7 C 14,5 km/h (3 Bft) 95,83 %
26.04.2018 00:55 14,8 C 19,4 C 77 % 1012,3 hPa 0,0 l/m 7,2 km/h (2 Bft) S-SW 204 0 min 0,000 mm 0,0 UV-I 0 W/m 10,8 C 14,3 C 11,3 km/h (2 Bft) 100,00 %
26.04.2018 00:56 14,8 C 19,4 C 77 % 1012,2 hPa 0,0 l/m 6,4 km/h (2 Bft) SW 220 0 min 0,000 mm 0,0 UV-I 0 W/m 10,8 C 14,8 C 11,3 km/h (2 Bft) 91,67 %
26.04.2018 00:57 14,8 C 19,4 C 78 % 1012,1 hPa 0,0 l/m 7,6 km/h (2 Bft) SW 232 0 min 0,000 mm 0,0 UV-I 0 W/m 11,0 C 14,1 C 11,3 km/h (2 Bft) 100,00 %
26.04.2018 00:58 14,8 C 19,4 C 78 % 1012,1 hPa 0,0 l/m 6,6 km/h (2 Bft) W-SW 238 0 min 0,000 mm 0,0 UV-I 0 W/m 11,0 C 14,7 C 11,3 km/h (2 Bft) 95,83 %
26.04.2018 00:59 14,8 C 19,4 C 78 % 1012,1 hPa 0,2 l/m 7,2 km/h (2 Bft) W-SW 244 0 min 0,000 mm 0,0 UV-I 0 W/m 11,0 C 14,3 C 12,9 km/h (3 Bft) 95,65 %
26.04.2018 01:00 14,8 C 19,4 C 78 % 1012,1 hPa 0,0 l/m 8,9 km/h (2 Bft) SW 226 0 min 0,051 mm 0,0 UV-I 0 W/m 11,0 C 13,4 C 12,9 km/h (3 Bft) 100,00 %
26.04.2018 01:01 14,7 C 19,4 C 78 % 1012,1 hPa 0,0 l/m 8,8 km/h (2 Bft) W-SW 248 0 min 0,000 mm 0,0 UV-I 0 W/m 10,9 C 13,4 C 12,9 km/h (3 Bft) 95,65 %
26.04.2018 01:02 14,7 C 19,4 C 78 % 1012,1 hPa 0,0 l/m 8,7 km/h (2 Bft) W-SW 240 0 min 0,000 mm 0,0 UV-I 0 W/m 10,9 C 13,4 C 12,9 km/h (3 Bft) 100,00 %
26.04.2018 01:03 14,8 C 19,4 C 78 % 1012,1 hPa 0,0 l/m 7,6 km/h (2 Bft) W-SW 240 0 min 0,000 mm 0,0 UV-I 0 W/m 11,0 C 14,1 C 9,7 km/h (2 Bft) 100,00 %
26.04.2018 01:04 14,8 C 19,4 C 78 % 1012,1 hPa 0,0 l/m 7,0 km/h (2 Bft) W-SW 242 0 min 0,000 mm 0,0 UV-I 0 W/m 11,0 C 14,5 C 8,0 km/h (2 Bft) 100,00 %
26.04.2018 01:05 14,8 C 19,4 C 78 % 1012,1 hPa 0,0 l/m 8,0 km/h (2 Bft) W 261 0 min 0,000 mm 0,0 UV-I 0 W/m 11,0 C 13,9 C 11,3 km/h (2 Bft) 100,00 %
26.04.2018 01:06 14,8 C 19,4 C 77 % 1012,2 hPa 0,0 l/m 8,5 km/h (2 Bft) W-SW 248 0 min 0,000 mm 0,0 UV-I 0 W/m 10,8 C 13,6 C 12,9 km/h (3 Bft) 95,83 %
26.04.2018 01:07 14,8 C 19,4 C 77 % 1012,1 hPa 0,0 l/m 7,6 km/h (2 Bft) W-SW 243 0 min 0,000 mm 0,0 UV-I 0 W/m 10,8 C 14,1 C 11,3 km/h (2 Bft) 100,00 %
26.04.2018 01:08 14,8 C 19,4 C 77 % 1012,2 hPa 0,0 l/m 6,8 km/h (2 Bft) W-SW 251 0 min 0,000 mm 0,0 UV-I 0 W/m 10,8 C 14,6 C 11,3 km/h (2 Bft) 100,00 %
26.04.2018 01:09 14,8 C 19,4 C 77 % 1012,2 hPa 0,0 l/m 7,1 km/h (2 Bft) W-SW 255 0 min 0,000 mm 0,0 UV-I 0 W/m 10,8 C 14,4 C 9,7 km/h (2 Bft) 100,00 %
26.04.2018 01:10 14,8 C 19,4 C 77 % 1012,2 hPa 0,0 l/m 6,6 km/h (2 Bft) SW 236 0 min 0,000 mm 0,0 UV-I 0 W/m 10,8 C 14,7 C 11,3 km/h (2 Bft) 100,00 %
26.04.2018 01:11 14,8 C 19,4 C 77 % 1012,2 hPa 0,0 l/m 9,0 km/h (2 Bft) W-SW 245 0 min 0,000 mm 0,0 UV-I 0 W/m 10,8 C 13,4 C 14,5 km/h (3 Bft) 100,00 %
26.04.2018 01:12 14,8 C 19,4 C 77 % 1012,2 hPa 0,0 l/m 9,4 km/h (2 Bft) SW 223 0 min 0,000 mm 0,0 UV-I 0 W/m 10,8 C 13,2 C 12,9 km/h (3 Bft) 100,00 %
26.04.2018 01:13 14,8 C 19,4 C 77 % 1012,2 hPa 0,0 l/m 8,7 km/h (2 Bft) W-SW 240 0 min 0,000 mm 0,0 UV-I 0 W/m 10,8 C 13,5 C 11,3 km/h (2 Bft) 100,00 %
26.04.2018 01:14 14,8 C 19,4 C 78 % 1012,1 hPa 0,0 l/m 10,6 km/h (2 Bft) SW 236 0 min 0,000 mm 0,0 UV-I 0 W/m 11,0 C 12,6 C 16,1 km/h (3 Bft) 100,00 %
26.04.2018 01:15 14,8 C 19,4 C 78 % 1012,2 hPa 0,0 l/m 7,9 km/h (2 Bft) W-SW 248 0 min 0,000 mm 0,0 UV-I 0 W/m 11,0 C 13,9 C 11,3 km/h (2 Bft) 100,00 %
26.04.2018 01:16 14,8 C 19,4 C 78 % 1012,2 hPa 0,0 l/m 5,8 km/h (2 Bft) W-SW 242 0 min 0,000 mm 0,0 UV-I 0 W/m 11,0 C 14,8 C 8,0 km/h (2 Bft) 92,86 %
26.04.2018 01:17 14,8 C 19,4 C 77 % 1012,2 hPa 0,0 l/m 8,0 km/h (2 Bft) W-SW 241 0 min 0,000 mm 0,0 UV-I 0 W/m 10,8 C 13,9 C 11,3 km/h (2 Bft) 100,00 %
26.04.2018 01:18 14,8 C 19,4 C 77 % 1012,2 hPa 0,0 l/m 6,0 km/h (2 Bft) W-SW 242 0 min 0,000 mm 0,0 UV-I 0 W/m 10,8 C 14,8 C 8,0 km/h (2 Bft) 95,65 %
26.04.2018 01:19 14,7 C 19,4 C 78 % 1012,2 hPa 0,0 l/m 5,4 km/h (1 Bft) W-SW 241 0 min 0,000 mm 0,0 UV-I 0 W/m 10,9 C 14,7 C 8,0 km/h (2 Bft) 100,00 %
26.04.2018 01:20 14,7 C 19,4 C 78 % 1012,2 hPa 0,0 l/m 7,3 km/h (2 Bft) SW 230 0 min 0,000 mm 0,0 UV-I 0 W/m 10,9 C 14,2 C 11,3 km/h (2 Bft) 100,00 %
26.04.2018 01:21 14,7 C 19,4 C 78 % 1012,2 hPa 0,0 l/m 5,5 km/h (1 Bft) W-SW 244 0 min 0,000 mm 0,0 UV-I 0 W/m 10,9 C 14,7 C 8,0 km/h (2 Bft) 100,00 %
26.04.2018 01:22 14,7 C 19,4 C 79 % 1012,2 hPa 0,0 l/m 5,3 km/h (1 Bft) SW 236 0 min 0,000 mm 0,0 UV-I 0 W/m 11,1 C 14,7 C 8,0 km/h (2 Bft) 100,00 %
26.04.2018 01:23 14,7 C 19,4 C 78 % 1012,2 hPa 0,0 l/m 6,0 km/h (2 Bft) SW 227 0 min 0,000 mm 0,0 UV-I 0 W/m 10,9 C 14,7 C 8,0 km/h (2 Bft) 100,00 %
26.04.2018 01:24 14,7 C 19,4 C 78 % 1012,2 hPa 0,0 l/m 4,9 km/h (1 Bft) W-SW 240 0 min 0,000 mm 0,0 UV-I 0 W/m 10,9 C 14,7 C 6,4 km/h (2 Bft) 100,00 %
26.04.2018 01:25 14,7 C 19,4 C 78 % 1012,2 hPa 0,0 l/m 4,7 km/h (1 Bft) SW 229 0 min 0,000 mm 0,0 UV-I 0 W/m 10,9 C 14,7 C 8,0 km/h (2 Bft) 100,00 %
26.04.2018 01:26 14,7 C 19,4 C 78 % 1012,2 hPa 0,0 l/m 5,4 km/h (1 Bft) SW 233 0 min 0,000 mm 0,0 UV-I 0 W/m 10,9 C 14,7 C 6,4 km/h (2 Bft) 95,65 %
26.04.2018 01:27 14,6 C 19,4 C 78 % 1012,2 hPa 0,0 l/m 6,4 km/h (2 Bft) SW 221 0 min 0,000 mm 0,0 UV-I 0 W/m 10,8 C 14,6 C 8,0 km/h (2 Bft) 100,00 %
26.04.2018 01:28 14,6 C 19,4 C 79 % 1012,2 hPa 0,0 l/m 8,6 km/h (2 Bft) SW 220 0 min 0,000 mm 0,0 UV-I 0 W/m 11,0 C 13,4 C 9,7 km/h (2 Bft) 100,00 %
26.04.2018 01:29 14,6 C 19,4 C 79 % 1012,2 hPa 0,0 l/m 8,9 km/h (2 Bft) SW 229 0 min 0,000 mm 0,0 UV-I 0 W/m 11,0 C 13,2 C 11,3 km/h (2 Bft) 100,00 %
26.04.2018 01:30 14,6 C 19,4 C 78 % 1012,2 hPa 0,0 l/m 8,5 km/h (2 Bft) S-SW 209 0 min 0,000 mm 0,0 UV-I 0 W/m 10,8 C 13,4 C 11,3 km/h (2 Bft) 95,65 %
26.04.2018 01:31 14,6 C 19,4 C 78 % 1012,2 hPa 0,0 l/m 8,7 km/h (2 Bft) SW 229 0 min 0,000 mm 0,0 UV-I 0 W/m 10,8 C 13,3 C 9,7 km/h (2 Bft) 91,67 %
26.04.2018 01:32 14,6 C 19,4 C 78 % 1012,2 hPa 0,0 l/m 9,5 km/h (2 Bft) SW 222 0 min 0,000 mm 0,0 UV-I 0 W/m 10,8 C 12,9 C 12,9 km/h (3 Bft) 100,00 %
26.04.2018 01:33 14,6 C 19,4 C 78 % 1012,2 hPa 0,0 l/m 8,2 km/h (2 Bft) SW 217 0 min 0,000 mm 0,0 UV-I 0 W/m 10,8 C 13,6 C 11,3 km/h (2 Bft) 100,00 %
26.04.2018 01:34 14,6 C 19,4 C 78 % 1012,3 hPa 0,0 l/m 6,8 km/h (2 Bft) W-SW 242 0 min 0,000 mm 0,0 UV-I 0 W/m 10,8 C 14,4 C 9,7 km/h (2 Bft) 100,00 %
26.04.2018 01:35 14,6 C 19,4 C 78 % 1012,3 hPa 0,0 l/m 7,9 km/h (2 Bft) SW 226 0 min 0,000 mm 0,0 UV-I 0 W/m 10,8 C 13,7 C 9,7 km/h (2 Bft) 100,00 %
26.04.2018 01:36 14,6 C 19,4 C 78 % 1012,4 hPa 0,0 l/m 8,5 km/h (2 Bft) SW 215 0 min 0,000 mm 0,0 UV-I 0 W/m 10,8 C 13,4 C 11,3 km/h (2 Bft) 100,00 %
26.04.2018 01:37 14,6 C 19,4 C 79 % 1012,4 hPa 0,0 l/m 7,8 km/h (2 Bft) SW 225 0 min 0,000 mm 0,0 UV-I 0 W/m 11,0 C 13,8 C 11,3 km/h (2 Bft) 95,65 %
26.04.2018 01:38 14,6 C 19,4 C 79 % 1012,4 hPa 0,0 l/m 7,4 km/h (2 Bft) SW 225 0 min 0,000 mm 0,0 UV-I 0 W/m 11,0 C 14,0 C 9,7 km/h (2 Bft) 100,00 %
26.04.2018 01:39 14,6 C 19,4 C 78 % 1012,4 hPa 0,0 l/m 8,4 km/h (2 Bft) SW 234 0 min 0,000 mm 0,0 UV-I 0 W/m 10,8 C 13,5 C 9,7 km/h (2 Bft) 95,83 %
26.04.2018 01:40 14,6 C 19,4 C 78 % 1012,4 hPa 0,0 l/m 7,7 km/h (2 Bft) SW 223 0 min 0,000 mm 0,0 UV-I 0 W/m 10,8 C 13,8 C 9,7 km/h (2 Bft) 100,00 %
26.04.2018 01:41 14,6 C 19,4 C 78 % 1012,4 hPa 0,0 l/m 6,1 km/h (2 Bft) W-SW 246 0 min 0,000 mm 0,0 UV-I 0 W/m 10,8 C 14,6 C 8,0 km/h (2 Bft) 100,00 %
26.04.2018 01:42 14,6 C 19,4 C 79 % 1012,3 hPa 0,0 l/m 6,7 km/h (2 Bft) SW 218 0 min 0,000 mm 0,0 UV-I 0 W/m 11,0 C 14,4 C 8,0 km/h (2 Bft) 100,00 %
26.04.2018 01:43 14,6 C 19,4 C 79 % 1012,4 hPa 0,0 l/m 6,6 km/h (2 Bft) SW 232 0 min 0,000 mm 0,0 UV-I 0 W/m 11,0 C 14,5 C 9,7 km/h (2 Bft) 100,00 %
26.04.2018 01:44 14,6 C 19,4 C 79 % 1012,4 hPa 0,0 l/m 6,8 km/h (2 Bft) W-SW 248 0 min 0,000 mm 0,0 UV-I 0 W/m 11,0 C 14,4 C 9,7 km/h (2 Bft) 100,00 %
26.04.2018 01:45 14,6 C 19,4 C 78 % 1012,4 hPa 0,0 l/m 4,6 km/h (1 Bft) W-SW 240 0 min 0,000 mm 0,0 UV-I 0 W/m 10,8 C 14,6 C 4,8 km/h (1 Bft) 100,00 %
26.04.2018 01:46 14,6 C 19,4 C 78 % 1012,3 hPa 0,0 l/m 4,8 km/h (1 Bft) SW 230 0 min 0,000 mm 0,0 UV-I 0 W/m 10,8 C 14,6 C 6,4 km/h (2 Bft) 100,00 %
26.04.2018 01:47 14,6 C 19,4 C 79 % 1012,4 hPa 0,0 l/m 5,6 km/h (1 Bft) SW 236 0 min 0,000 mm 0,0 UV-I 0 W/m 11,0 C 14,6 C 8,0 km/h (2 Bft) 100,00 %
26.04.2018 01:48 14,6 C 19,4 C 79 % 1012,4 hPa 0,0 l/m 6,5 km/h (2 Bft) W-SW 257 0 min 0,000 mm 0,0 UV-I 0 W/m 11,0 C 14,6 C 8,0 km/h (2 Bft) 100,00 %
26.04.2018 01:49 14,6 C 19,4 C 79 % 1012,4 hPa 0,0 l/m 6,2 km/h (2 Bft) SW 229 0 min 0,000 mm 0,0 UV-I 0 W/m 11,0 C 14,6 C 8,0 km/h (2 Bft) 100,00 %
26.04.2018 01:50 14,6 C 19,4 C 79 % 1012,4 hPa 0,0 l/m 4,7 km/h (1 Bft) SW 227 0 min 0,000 mm 0,0 UV-I 0 W/m 11,0 C 14,6 C 6,4 km/h (2 Bft) 100,00 %
26.04.2018 01:51 14,6 C 19,4 C 79 % 1012,3 hPa 0,0 l/m 8,9 km/h (2 Bft) SW 218 0 min 0,000 mm 0,0 UV-I 0 W/m 11,0 C 13,2 C 11,3 km/h (2 Bft) 100,00 %
26.04.2018 01:52 14,5 C 19,4 C 79 % 1012,3 hPa 0,0 l/m 8,4 km/h (2 Bft) SW 217 0 min 0,000 mm 0,0 UV-I 0 W/m 10,9 C 13,4 C 9,7 km/h (2 Bft) 95,65 %
26.04.2018 01:53 14,4 C 19,4 C 79 % 1012,3 hPa 0,0 l/m 8,2 km/h (2 Bft) SW 218 0 min 0,000 mm 0,0 UV-I 0 W/m 10,8 C 13,4 C 9,7 km/h (2 Bft) 100,00 %
26.04.2018 01:54 14,4 C 19,4 C 80 % 1012,2 hPa 0,0 l/m 6,9 km/h (2 Bft) SW 218 0 min 0,000 mm 0,0 UV-I 0 W/m 11,0 C 14,1 C 8,0 km/h (2 Bft) 95,65 %
26.04.2018 01:55 14,4 C 19,4 C 80 % 1012,3 hPa 0,0 l/m 4,8 km/h (1 Bft) S-SW 211 0 min 0,000 mm 0,0 UV-I 0 W/m 11,0 C 14,4 C 6,4 km/h (2 Bft) 100,00 %
26.04.2018 01:56 14,4 C 19,4 C 80 % 1012,3 hPa 0,0 l/m 2,7 km/h (1 Bft) SW 223 0 min 0,000 mm 0,0 UV-I 0 W/m 11,0 C 14,4 C 4,8 km/h (1 Bft) 100,00 %
26.04.2018 01:57 14,4 C 19,4 C 80 % 1012,2 hPa 0,0 l/m 4,5 km/h (1 Bft) SW 229 0 min 0,000 mm 0,0 UV-I 0 W/m 11,0 C 14,4 C 6,4 km/h (2 Bft) 100,00 %
26.04.2018 01:58 14,4 C 19,4 C 81 % 1012,2 hPa 0,0 l/m 3,8 km/h (1 Bft) W-SW 256 0 min 0,000 mm 0,0 UV-I 0 W/m 11,2 C 14,4 C 4,8 km/h (1 Bft) 100,00 %
26.04.2018 01:59 14,4 C 19,4 C 79 % 1012,3 hPa 0,0 l/m 4,1 km/h (1 Bft) W-SW 239 0 min 0,000 mm 0,0 UV-I 0 W/m 10,8 C 14,4 C 6,4 km/h (2 Bft) 96,00 %
26.04.2018 02:00 14,4 C 19,4 C 79 % 1012,3 hPa 0,0 l/m 5,5 km/h (1 Bft) SW 234 0 min 0,025 mm 0,0 UV-I 0 W/m 10,8 C 14,4 C 6,4 km/h (2 Bft) 100,00 %
26.04.2018 02:01 14,4 C 19,4 C 79 % 1012,4 hPa 0,0 l/m 5,4 km/h (1 Bft) SW 234 0 min 0,000 mm 0,0 UV-I 0 W/m 10,8 C 14,4 C 6,4 km/h (2 Bft) 100,00 %
26.04.2018 02:02 14,5 C 19,4 C 79 % 1012,3 hPa 0,0 l/m 6,0 km/h (2 Bft) S-SW 211 0 min 0,000 mm 0,0 UV-I 0 W/m 10,9 C 14,5 C 6,4 km/h (2 Bft) 100,00 %
26.04.2018 02:03 14,4 C 19,4 C 79 % 1012,3 hPa 0,0 l/m 8,4 km/h (2 Bft) SW 229 0 min 0,000 mm 0,0 UV-I 0 W/m 10,8 C 13,3 C 11,3 km/h (2 Bft) 100,00 %
26.04.2018 02:04 14,4 C 19,4 C 79 % 1012,3 hPa 0,0 l/m 9,0 km/h (2 Bft) SW 219 0 min 0,000 mm 0,0 UV-I 0 W/m 10,8 C 12,9 C 9,7 km/h (2 Bft) 100,00 %
26.04.2018 02:05 14,4 C 18,9 C 79 % 1012,3 hPa 0,0 l/m 8,6 km/h (2 Bft) SW 215 0 min 0,000 mm 0,0 UV-I 0 W/m 10,8 C 13,1 C 11,3 km/h (2 Bft) 100,00 %
26.04.2018 02:06 14,4 C 18,9 C 79 % 1012,3 hPa 0,0 l/m 8,2 km/h (2 Bft) S-SW 210 0 min 0,000 mm 0,0 UV-I 0 W/m 10,8 C 13,4 C 9,7 km/h (2 Bft) 100,00 %
26.04.2018 02:07 14,4 C 18,9 C 79 % 1012,3 hPa 0,0 l/m 6,4 km/h (2 Bft) S-SW 210 0 min 0,000 mm 0,0 UV-I 0 W/m 10,8 C 14,4 C 9,7 km/h (2 Bft) 95,83 %
26.04.2018 02:08 14,4 C 18,9 C 79 % 1012,2 hPa 0,0 l/m 5,8 km/h (2 Bft) S-SW 208 0 min 0,000 mm 0,0 UV-I 0 W/m 10,8 C 14,4 C 8,0 km/h (2 Bft) 95,83 %
26.04.2018 02:09 14,4 C 18,9 C 79 % 1012,2 hPa 0,0 l/m 5,7 km/h (1 Bft) SW 215 0 min 0,000 mm 0,0 UV-I 0 W/m 10,8 C 14,4 C 8,0 km/h (2 Bft) 96,15 %
26.04.2018 02:10 14,4 C 18,9 C 80 % 1012,3 hPa 0,0 l/m 5,7 km/h (1 Bft) SW 217 0 min 0,000 mm 0,0 UV-I 0 W/m 11,0 C 14,4 C 8,0 km/h (2 Bft) 95,65 %
26.04.2018 02:11 14,4 C 18,9 C 79 % 1012,3 hPa 0,0 l/m 6,9 km/h (2 Bft) SW 227 0 min 0,000 mm 0,0 UV-I 0 W/m 10,8 C 14,1 C 9,7 km/h (2 Bft) 100,00 %
26.04.2018 02:12 14,4 C 18,9 C 79 % 1012,3 hPa 0,0 l/m 5,9 km/h (2 Bft) W-SW 238 0 min 0,000 mm 0,0 UV-I 0 W/m 10,8 C 14,4 C 8,0 km/h (2 Bft) 95,83 %
26.04.2018 02:13 14,4 C 18,9 C 79 % 1012,3 hPa 0,0 l/m 6,1 km/h (2 Bft) SW 226 0 min 0,000 mm 0,0 UV-I 0 W/m 10,8 C 14,4 C 9,7 km/h (2 Bft) 100,00 %
26.04.2018 02:14 14,4 C 18,9 C 78 % 1012,4 hPa 0,0 l/m 8,0 km/h (2 Bft) SW 225 0 min 0,000 mm 0,0 UV-I 0 W/m 10,6 C 13,5 C 11,3 km/h (2 Bft) 91,67 %
26.04.2018 02:15 14,5 C 18,9 C 79 % 1012,4 hPa 0,0 l/m 7,6 km/h (2 Bft) SW 219 0 min 0,000 mm 0,0 UV-I 0 W/m 10,9 C 13,8 C 9,7 km/h (2 Bft) 95,65 %
26.04.2018 02:16 14,4 C 18,9 C 79 % 1012,4 hPa 0,0 l/m 7,9 km/h (2 Bft) SW 215 0 min 0,000 mm 0,0 UV-I 0 W/m 10,8 C 13,5 C 9,7 km/h (2 Bft) 100,00 %
26.04.2018 02:17 14,4 C 18,9 C 79 % 1012,5 hPa 0,0 l/m 6,6 km/h (2 Bft) SW 215 0 min 0,000 mm 0,0 UV-I 0 W/m 10,8 C 14,3 C 8,0 km/h (2 Bft) 95,65 %
26.04.2018 02:18 14,4 C 18,9 C 80 % 1012,4 hPa 0,0 l/m 7,4 km/h (2 Bft) SW 232 0 min 0,000 mm 0,0 UV-I 0 W/m 11,0 C 13,8 C 11,3 km/h (2 Bft) 100,00 %
26.04.2018 02:19 14,5 C 18,9 C 79 % 1012,4 hPa 0,0 l/m 6,8 km/h (2 Bft) W-SW 243 0 min 0,000 mm 0,0 UV-I 0 W/m 10,9 C 14,3 C 11,3 km/h (2 Bft) 95,65 %
26.04.2018 02:20 14,5 C 18,9 C 78 % 1012,4 hPa 0,0 l/m 8,4 km/h (2 Bft) W-SW 239 0 min 0,000 mm 0,0 UV-I 0 W/m 10,7 C 13,4 C 11,3 km/h (2 Bft) 100,00 %
26.04.2018 02:21 14,5 C 18,9 C 78 % 1012,4 hPa 0,0 l/m 8,2 km/h (2 Bft) W-SW 248 0 min 0,000 mm 0,0 UV-I 0 W/m 10,7 C 13,5 C 12,9 km/h (3 Bft) 95,65 %
26.04.2018 02:22 14,5 C 18,9 C 79 % 1012,4 hPa 0,0 l/m 8,0 km/h (2 Bft) SW 216 0 min 0,000 mm 0,0 UV-I 0 W/m 10,9 C 13,6 C 11,3 km/h (2 Bft) 95,83 %
26.04.2018 02:23 14,5 C 18,9 C 79 % 1012,4 hPa 0,0 l/m 8,6 km/h (2 Bft) SW 231 0 min 0,000 mm 0,0 UV-I 0 W/m 10,9 C 13,3 C 11,3 km/h (2 Bft) 91,67 %
26.04.2018 02:24 14,5 C 18,9 C 79 % 1012,4 hPa 0,0 l/m 9,0 km/h (2 Bft) W-SW 246 0 min 0,000 mm 0,0 UV-I 0 W/m 10,9 C 13,1 C 12,9 km/h (3 Bft) 100,00 %
26.04.2018 02:25 14,5 C 18,9 C 80 % 1012,3 hPa 0,0 l/m 7,6 km/h (2 Bft) S-SW 205 0 min 0,000 mm 0,0 UV-I 0 W/m 11,1 C 13,8 C 11,3 km/h (2 Bft) 92,31 %
26.04.2018 02:26 14,5 C 18,9 C 80 % 1012,3 hPa 0,0 l/m 8,9 km/h (2 Bft) W-SW 238 0 min 0,000 mm 0,0 UV-I 0 W/m 11,1 C 13,1 C 11,3 km/h (2 Bft) 95,83 %
26.04.2018 02:27 14,4 C 18,9 C 79 % 1012,2 hPa 0,0 l/m 7,3 km/h (2 Bft) SW 235 0 min 0,000 mm 0,0 UV-I 0 W/m 10,8 C 13,9 C 9,7 km/h (2 Bft) 100,00 %
26.04.2018 02:28 14,4 C 18,9 C 79 % 1012,2 hPa 0,0 l/m 5,2 km/h (1 Bft) SW 214 0 min 0,000 mm 0,0 UV-I 0 W/m 10,8 C 14,4 C 8,0 km/h (2 Bft) 95,65 %
26.04.2018 02:29 14,4 C 18,9 C 79 % 1012,2 hPa 0,0 l/m 8,0 km/h (2 Bft) S-SW 211 0 min 0,000 mm 0,0 UV-I 0 W/m 10,8 C 13,5 C 12,9 km/h (3 Bft) 100,00 %
26.04.2018 02:30 14,4 C 18,9 C 79 % 1012,2 hPa 0,0 l/m 7,8 km/h (2 Bft) S-SW 206 0 min 0,000 mm 0,0 UV-I 0 W/m 10,8 C 13,6 C 9,7 km/h (2 Bft) 96,15 %
26.04.2018 02:31 14,4 C 18,9 C 79 % 1012,2 hPa 0,0 l/m 8,3 km/h (2 Bft) S-SW 210 0 min 0,000 mm 0,0 UV-I 0 W/m 10,8 C 13,3 C 11,3 km/h (2 Bft) 100,00 %
26.04.2018 02:32 14,4 C 18,9 C 79 % 1012,2 hPa 0,0 l/m 7,1 km/h (2 Bft) SW 236 0 min 0,000 mm 0,0 UV-I 0 W/m 10,8 C 14,0 C 12,9 km/h (3 Bft) 91,30 %
26.04.2018 02:33 14,4 C 18,9 C 79 % 1012,3 hPa 0,0 l/m 6,3 km/h (2 Bft) W-SW 238 0 min 0,000 mm 0,0 UV-I 0 W/m 10,8 C 14,4 C 9,7 km/h (2 Bft) 91,67 %
26.04.2018 02:34 14,4 C 18,9 C 80 % 1012,3 hPa 0,0 l/m 4,7 km/h (1 Bft) SW 236 0 min 0,000 mm 0,0 UV-I 0 W/m 11,0 C 14,4 C 6,4 km/h (2 Bft) 95,65 %
26.04.2018 02:35 14,4 C 18,9 C 80 % 1012,3 hPa 0,0 l/m 6,6 km/h (2 Bft) W-SW 242 0 min 0,000 mm 0,0 UV-I 0 W/m 11,0 C 14,3 C 12,9 km/h (3 Bft) 95,83 %
26.04.2018 02:36 14,4 C 18,9 C 80 % 1012,3 hPa 0,0 l/m 6,4 km/h (2 Bft) SW 235 0 min 0,000 mm 0,0 UV-I 0 W/m 11,0 C 14,4 C 9,7 km/h (2 Bft) 100,00 %
26.04.2018 02:37 14,4 C 18,9 C 80 % 1012,2 hPa 0,0 l/m 6,4 km/h (2 Bft) SW 223 0 min 0,000 mm 0,0 UV-I 0 W/m 11,0 C 14,4 C 8,0 km/h (2 Bft) 95,83 %
26.04.2018 02:38 14,4 C 18,9 C 80 % 1012,3 hPa 0,0 l/m 6,6 km/h (2 Bft) SW 224 0 min 0,000 mm 0,0 UV-I 0 W/m 11,0 C 14,3 C 11,3 km/h (2 Bft) 95,65 %
26.04.2018 02:39 14,4 C 18,9 C 80 % 1012,3 hPa 0,0 l/m 7,0 km/h (2 Bft) SW 223 0 min 0,000 mm 0,0 UV-I 0 W/m 11,0 C 14,1 C 8,0 km/h (2 Bft) 95,83 %
26.04.2018 02:40 14,4 C 18,9 C 80 % 1012,3 hPa 0,0 l/m 5,5 km/h (1 Bft) W-SW 242 0 min 0,000 mm 0,0 UV-I 0 W/m 11,0 C 14,4 C 8,0 km/h (2 Bft) 100,00 %
26.04.2018 02:41 14,4 C 18,9 C 79 % 1012,3 hPa 0,0 l/m 6,0 km/h (2 Bft) W-SW 242 0 min 0,000 mm 0,0 UV-I 0 W/m 10,8 C 14,4 C 9,7 km/h (2 Bft) 95,83 %
26.04.2018 02:42 14,4 C 18,9 C 79 % 1012,3 hPa 0,0 l/m 7,2 km/h (2 Bft) W-SW 254 0 min 0,000 mm 0,0 UV-I 0 W/m 10,8 C 13,9 C 9,7 km/h (2 Bft) 100,00 %
26.04.2018 02:43 14,4 C 18,9 C 79 % 1012,3 hPa 0,0 l/m 9,0 km/h (2 Bft) SW 229 0 min 0,000 mm 0,0 UV-I 0 W/m 10,8 C 12,9 C 12,9 km/h (3 Bft) 96,55 %
26.04.2018 02:44 14,4 C 18,9 C 79 % 1012,3 hPa 0,0 l/m 9,6 km/h (2 Bft) SW 236 0 min 0,000 mm 0,0 UV-I 0 W/m 10,8 C 12,6 C 11,3 km/h (2 Bft) 100,00 %
26.04.2018 02:45 14,4 C 18,9 C 79 % 1012,3 hPa 0,0 l/m 10,1 km/h (2 Bft) SW 234 0 min 0,000 mm 0,0 UV-I 0 W/m 10,8 C 12,4 C 12,9 km/h (3 Bft) 100,00 %
26.04.2018 02:46 14,4 C 18,9 C 80 % 1012,3 hPa 0,0 l/m 8,5 km/h (2 Bft) SW 230 0 min 0,000 mm 0,0 UV-I 0 W/m 11,0 C 13,2 C 11,3 km/h (2 Bft) 100,00 %
26.04.2018 02:47 14,4 C 18,9 C 80 % 1012,2 hPa 0,0 l/m 8,4 km/h (2 Bft) W-SW 250 0 min 0,000 mm 0,0 UV-I 0 W/m 11,0 C 13,3 C 11,3 km/h (2 Bft) 100,00 %
26.04.2018 02:48 14,4 C 18,9 C 79 % 1012,2 hPa 0,0 l/m 9,5 km/h (2 Bft) W 267 0 min 0,000 mm 0,0 UV-I 0 W/m 10,8 C 12,7 C 14,5 km/h (3 Bft) 100,00 %
26.04.2018 02:49 14,4 C 18,9 C 80 % 1012,2 hPa 0,0 l/m 8,6 km/h (2 Bft) SW 230 0 min 0,000 mm 0,0 UV-I 0 W/m 11,0 C 13,1 C 14,5 km/h (3 Bft) 95,65 %
26.04.2018 02:50 14,4 C 18,9 C 80 % 1012,2 hPa 0,0 l/m 8,1 km/h (2 Bft) W 261 0 min 0,000 mm 0,0 UV-I 0 W/m 11,0 C 13,4 C 11,3 km/h (2 Bft) 91,67 %
26.04.2018 02:51 14,3 C 18,9 C 80 % 1012,2 hPa 0,0 l/m 11,2 km/h (2 Bft) SW 232 0 min 0,000 mm 0,0 UV-I 0 W/m 10,9 C 11,8 C 14,5 km/h (3 Bft) 96,15 %
26.04.2018 02:52 14,3 C 18,9 C 80 % 1012,2 hPa 0,0 l/m 8,5 km/h (2 Bft) SW 233 0 min 0,000 mm 0,0 UV-I 0 W/m 10,9 C 13,1 C 14,5 km/h (3 Bft) 100,00 %
26.04.2018 02:53 14,3 C 18,9 C 80 % 1012,1 hPa 0,0 l/m 8,0 km/h (2 Bft) W-SW 240 0 min 0,000 mm 0,0 UV-I 0 W/m 10,9 C 13,4 C 9,7 km/h (2 Bft) 100,00 %
26.04.2018 02:54 14,3 C 18,9 C 80 % 1012,0 hPa 0,0 l/m 8,5 km/h (2 Bft) W 275 0 min 0,000 mm 0,0 UV-I 0 W/m 10,9 C 13,1 C 12,9 km/h (3 Bft) 100,00 %
26.04.2018 02:55 14,3 C 18,9 C 80 % 1012,0 hPa 0,0 l/m 6,5 km/h (2 Bft) W-SW 238 0 min 0,000 mm 0,0 UV-I 0 W/m 10,9 C 14,3 C 8,0 km/h (2 Bft) 100,00 %
26.04.2018 02:56 14,3 C 18,9 C 80 % 1012,0 hPa 0,0 l/m 8,0 km/h (2 Bft) W-SW 240 0 min 0,000 mm 0,0 UV-I 0 W/m 10,9 C 13,4 C 9,7 km/h (2 Bft) 100,00 %
26.04.2018 02:57 14,3 C 18,9 C 79 % 1012,0 hPa 0,0 l/m 9,1 km/h (2 Bft) SW 233 0 min 0,000 mm 0,0 UV-I 0 W/m 10,7 C 12,8 C 11,3 km/h (2 Bft) 100,00 %
26.04.2018 02:58 14,3 C 18,9 C 79 % 1012,0 hPa 0,0 l/m 5,2 km/h (1 Bft) W 263 0 min 0,000 mm 0,0 UV-I 0 W/m 10,7 C 14,3 C 6,4 km/h (2 Bft) 100,00 %
26.04.2018 02:59 14,4 C 18,9 C 80 % 1012,0 hPa 0,0 l/m 4,1 km/h (1 Bft) W 265 0 min 0,000 mm 0,0 UV-I 0 W/m 11,0 C 14,4 C 6,4 km/h (2 Bft) 95,65 %
26.04.2018 03:00 14,4 C 18,9 C 80 % 1012,0 hPa 0,0 l/m 5,7 km/h (1 Bft) W 269 0 min 0,026 mm 0,0 UV-I 0 W/m 11,0 C 14,4 C 9,7 km/h (2 Bft) 100,00 %
26.04.2018 03:01 14,4 C 18,9 C 80 % 1011,9 hPa 0,0 l/m 6,8 km/h (2 Bft) W 273 0 min 0,000 mm 0,0 UV-I 0 W/m 11,0 C 14,2 C 9,7 km/h (2 Bft) 100,00 %
26.04.2018 03:02 14,4 C 18,9 C 80 % 1011,9 hPa 0,0 l/m 6,4 km/h (2 Bft) W 266 0 min 0,000 mm 0,0 UV-I 0 W/m 11,0 C 14,4 C 11,3 km/h (2 Bft) 95,83 %
26.04.2018 03:03 14,4 C 18,9 C 80 % 1012,0 hPa 0,0 l/m 7,2 km/h (2 Bft) W 267 0 min 0,000 mm 0,0 UV-I 0 W/m 11,0 C 13,9 C 9,7 km/h (2 Bft) 100,00 %
26.04.2018 03:04 14,4 C 18,9 C 80 % 1012,0 hPa 0,0 l/m 5,6 km/h (1 Bft) W 262 0 min 0,000 mm 0,0 UV-I 0 W/m 11,0 C 14,4 C 6,4 km/h (2 Bft) 100,00 %
26.04.2018 03:05 14,4 C 18,9 C 80 % 1012,0 hPa 0,0 l/m 5,9 km/h (2 Bft) W 268 0 min 0,000 mm 0,0 UV-I 0 W/m 11,0 C 14,4 C 8,0 km/h (2 Bft) 100,00 %
26.04.2018 03:06 14,4 C 18,9 C 80 % 1012,1 hPa 0,0 l/m 9,3 km/h (2 Bft) W 259 0 min 0,000 mm 0,0 UV-I 0 W/m 11,0 C 12,8 C 12,9 km/h (3 Bft) 95,65 %
26.04.2018 03:07 14,4 C 18,9 C 80 % 1012,1 hPa 0,0 l/m 6,5 km/h (2 Bft) W 270 0 min 0,000 mm 0,0 UV-I 0 W/m 11,0 C 14,4 C 9,7 km/h (2 Bft) 100,00 %
26.04.2018 03:08 14,5 C 18,9 C 79 % 1012,1 hPa 0,0 l/m 6,4 km/h (2 Bft) W 260 0 min 0,000 mm 0,0 UV-I 0 W/m 10,9 C 14,5 C 9,7 km/h (2 Bft) 100,00 %
26.04.2018 03:09 14,5 C 18,9 C 78 % 1012,1 hPa 0,0 l/m 4,9 km/h (1 Bft) W-SW 256 0 min 0,000 mm 0,0 UV-I 0 W/m 10,7 C 14,5 C 6,4 km/h (2 Bft) 100,00 %
26.04.2018 03:10 14,5 C 18,9 C 78 % 1012,1 hPa 0,0 l/m 5,5 km/h (1 Bft) W-SW 249 0 min 0,000 mm 0,0 UV-I 0 W/m 10,7 C 14,5 C 6,4 km/h (2 Bft) 100,00 %
26.04.2018 03:11 14,5 C 18,9 C 78 % 1012,1 hPa 0,0 l/m 6,6 km/h (2 Bft) W 266 0 min 0,000 mm 0,0 UV-I 0 W/m 10,7 C 14,4 C 11,3 km/h (2 Bft) 100,00 %
26.04.2018 03:12 14,5 C 18,9 C 78 % 1012,1 hPa 0,0 l/m 7,2 km/h (2 Bft) W-SW 245 0 min 0,000 mm 0,0 UV-I 0 W/m 10,7 C 14,0 C 11,3 km/h (2 Bft) 100,00 %
26.04.2018 03:13 14,5 C 18,9 C 78 % 1012,1 hPa 0,0 l/m 6,8 km/h (2 Bft) W-SW 243 0 min 0,000 mm 0,0 UV-I 0 W/m 10,7 C 14,3 C 12,9 km/h (3 Bft) 100,00 %
26.04.2018 03:14 14,4 C 18,9 C 77 % 1012,1 hPa 0,0 l/m 7,3 km/h (2 Bft) W 268 0 min 0,000 mm 0,0 UV-I 0 W/m 10,4 C 13,9 C 11,3 km/h (2 Bft) 100,00 %
26.04.2018 03:15 14,4 C 18,9 C 77 % 1012,1 hPa 0,0 l/m 9,9 km/h (2 Bft) W-SW 248 0 min 0,000 mm 0,0 UV-I 0 W/m 10,4 C 12,5 C 14,5 km/h (3 Bft) 95,83 %
26.04.2018 03:16 14,5 C 18,9 C 77 % 1012,1 hPa 0,0 l/m 5,6 km/h (1 Bft) W-SW 238 0 min 0,000 mm 0,0 UV-I 0 W/m 10,5 C 14,5 C 8,0 km/h (2 Bft) 100,00 %
26.04.2018 03:17 14,4 C 18,9 C 77 % 1012,2 hPa 0,0 l/m 8,3 km/h (2 Bft) SW 232 0 min 0,000 mm 0,0 UV-I 0 W/m 10,4 C 13,3 C 14,5 km/h (3 Bft) 100,00 %
26.04.2018 03:18 14,4 C 18,9 C 77 % 1012,2 hPa 0,0 l/m 6,3 km/h (2 Bft) W 261 0 min 0,000 mm 0,0 UV-I 0 W/m 10,4 C 14,4 C 9,7 km/h (2 Bft) 100,00 %
26.04.2018 03:19 14,4 C 18,9 C 77 % 1012,2 hPa 0,0 l/m 7,9 km/h (2 Bft) W-SW 256 0 min 0,000 mm 0,0 UV-I 0 W/m 10,4 C 13,5 C 11,3 km/h (2 Bft) 100,00 %
26.04.2018 03:20 14,4 C 18,9 C 77 % 1012,2 hPa 0,0 l/m 4,9 km/h (1 Bft) W 261 0 min 0,000 mm 0,0 UV-I 0 W/m 10,4 C 14,4 C 6,4 km/h (2 Bft) 100,00 %
26.04.2018 03:21 14,4 C 18,9 C 77 % 1012,2 hPa 0,0 l/m 7,6 km/h (2 Bft) W-SW 250 0 min 0,000 mm 0,0 UV-I 0 W/m 10,4 C 13,7 C 11,3 km/h (2 Bft) 100,00 %
26.04.2018 03:22 14,4 C 18,9 C 77 % 1012,2 hPa 0,0 l/m 7,2 km/h (2 Bft) W 264 0 min 0,000 mm 0,0 UV-I 0 W/m 10,4 C 13,9 C 11,3 km/h (2 Bft) 100,00 %
26.04.2018 03:23 14,4 C 18,9 C 76 % 1012,2 hPa 0,0 l/m 10,1 km/h (2 Bft) W 271 0 min 0,000 mm 0,0 UV-I 0 W/m 10,2 C 12,4 C 12,9 km/h (3 Bft) 100,00 %
26.04.2018 03:24 14,4 C 18,9 C 76 % 1012,2 hPa 0,0 l/m 8,0 km/h (2 Bft) W-SW 242 0 min 0,000 mm 0,0 UV-I 0 W/m 10,2 C 13,5 C 11,3 km/h (2 Bft) 100,00 %
26.04.2018 03:25 14,4 C 18,9 C 76 % 1012,2 hPa 0,0 l/m 8,6 km/h (2 Bft) W-SW 253 0 min 0,000 mm 0,0 UV-I 0 W/m 10,2 C 13,1 C 12,9 km/h (3 Bft) 95,65 %
26.04.2018 03:26 14,4 C 18,9 C 76 % 1012,2 hPa 0,0 l/m 8,3 km/h (2 Bft) W-SW 251 0 min 0,000 mm 0,0 UV-I 0 W/m 10,2 C 13,3 C 11,3 km/h (2 Bft) 100,00 %
26.04.2018 03:27 14,4 C 18,9 C 76 % 1012,3 hPa 0,0 l/m 7,8 km/h (2 Bft) W 271 0 min 0,000 mm 0,0 UV-I 0 W/m 10,2 C 13,6 C 11,3 km/h (2 Bft) 100,00 %
26.04.2018 03:28 14,4 C 18,9 C 76 % 1012,3 hPa 0,0 l/m 6,3 km/h (2 Bft) W 265 0 min 0,000 mm 0,0 UV-I 0 W/m 10,2 C 14,4 C 9,7 km/h (2 Bft) 95,83 %
26.04.2018 03:29 14,4 C 18,9 C 76 % 1012,3 hPa 0,0 l/m 6,6 km/h (2 Bft) W 261 0 min 0,000 mm 0,0 UV-I 0 W/m 10,2 C 14,3 C 11,3 km/h (2 Bft) 100,00 %
26.04.2018 03:30 14,4 C 18,9 C 76 % 1012,3 hPa 0,0 l/m 7,5 km/h (2 Bft) W-SW 244 0 min 0,000 mm 0,0 UV-I 0 W/m 10,2 C 13,8 C 9,7 km/h (2 Bft) 95,83 %
26.04.2018 03:31 14,4 C 18,9 C 76 % 1012,3 hPa 0,0 l/m 9,1 km/h (2 Bft) W 269 0 min 0,000 mm 0,0 UV-I 0 W/m 10,2 C 12,9 C 12,9 km/h (3 Bft) 96,15 %
26.04.2018 03:32 14,4 C 18,9 C 76 % 1012,3 hPa 0,0 l/m 8,5 km/h (2 Bft) W 267 0 min 0,000 mm 0,0 UV-I 0 W/m 10,2 C 13,2 C 11,3 km/h (2 Bft) 100,00 %
26.04.2018 03:33 14,4 C 18,9 C 76 % 1012,3 hPa 0,0 l/m 9,3 km/h (2 Bft) W 259 0 min 0,000 mm 0,0 UV-I 0 W/m 10,2 C 12,8 C 12,9 km/h (3 Bft) 100,00 %
26.04.2018 03:34 14,4 C 18,9 C 75 % 1012,2 hPa 0,0 l/m 7,9 km/h (2 Bft) W-SW 257 0 min 0,000 mm 0,0 UV-I 0 W/m 10,0 C 13,5 C 12,9 km/h (3 Bft) 100,00 %
26.04.2018 03:35 14,4 C 18,9 C 75 % 1012,2 hPa 0,0 l/m 5,5 km/h (1 Bft) W 265 0 min 0,000 mm 0,0 UV-I 0 W/m 10,0 C 14,4 C 6,4 km/h (2 Bft) 95,65 %
26.04.2018 03:36 14,4 C 18,9 C 75 % 1012,3 hPa 0,0 l/m 6,7 km/h (2 Bft) W 271 0 min 0,000 mm 0,0 UV-I 0 W/m 10,0 C 14,2 C 9,7 km/h (2 Bft) 93,33 %
26.04.2018 03:37 14,5 C 18,9 C 75 % 1012,2 hPa 0,0 l/m 5,3 km/h (1 Bft) W 265 0 min 0,000 mm 0,0 UV-I 0 W/m 10,1 C 14,5 C 6,4 km/h (2 Bft) 96,00 %
26.04.2018 03:38 14,5 C 18,9 C 75 % 1012,2 hPa 0,0 l/m 6,6 km/h (2 Bft) W 264 0 min 0,000 mm 0,0 UV-I 0 W/m 10,1 C 14,4 C 11,3 km/h (2 Bft) 95,83 %
26.04.2018 03:39 14,4 C 18,9 C 74 % 1012,3 hPa 0,0 l/m 7,4 km/h (2 Bft) W 261 0 min 0,000 mm 0,0 UV-I 0 W/m 9,8 C 13,8 C 12,9 km/h (3 Bft) 100,00 %
26.04.2018 03:40 14,4 C 18,9 C 74 % 1012,2 hPa 0,0 l/m 7,2 km/h (2 Bft) W 273 0 min 0,000 mm 0,0 UV-I 0 W/m 9,8 C 13,9 C 11,3 km/h (2 Bft) 95,83 %
26.04.2018 03:41 14,4 C 18,9 C 74 % 1012,3 hPa 0,0 l/m 8,9 km/h (2 Bft) W 259 0 min 0,000 mm 0,0 UV-I 0 W/m 9,8 C 13,0 C 14,5 km/h (3 Bft) 100,00 %
26.04.2018 03:42 14,4 C 18,9 C 74 % 1012,2 hPa 0,0 l/m 7,6 km/h (2 Bft) W-SW 244 0 min 0,000 mm 0,0 UV-I 0 W/m 9,8 C 13,7 C 11,3 km/h (2 Bft) 86,96 %
26.04.2018 03:43 14,5 C 18,9 C 74 % 1012,2 hPa 0,0 l/m 7,6 km/h (2 Bft) W 261 0 min 0,000 mm 0,0 UV-I 0 W/m 9,9 C 13,8 C 11,3 km/h (2 Bft) 100,00 %
26.04.2018 03:44 14,5 C 18,9 C 73 % 1012,2 hPa 0,0 l/m 9,8 km/h (2 Bft) W-SW 253 0 min 0,000 mm 0,0 UV-I 0 W/m 9,7 C 12,7 C 12,9 km/h (3 Bft) 95,65 %
26.04.2018 03:45 14,5 C 18,9 C 73 % 1012,2 hPa 0,0 l/m 6,2 km/h (2 Bft) W-SW 252 0 min 0,000 mm 0,0 UV-I 0 W/m 9,7 C 14,5 C 8,0 km/h (2 Bft) 100,00 %
26.04.2018 03:46 14,6 C 18,9 C 73 % 1012,2 hPa 0,0 l/m 5,8 km/h (2 Bft) W 280 0 min 0,000 mm 0,0 UV-I 0 W/m 9,8 C 14,6 C 12,9 km/h (3 Bft) 95,65 %
26.04.2018 03:47 14,6 C 18,9 C 71 % 1012,2 hPa 0,0 l/m 8,9 km/h (2 Bft) W-NW 294 0 min 0,000 mm 0,0 UV-I 0 W/m 9,4 C 13,2 C 12,9 km/h (3 Bft) 95,83 %
26.04.2018 03:48 14,6 C 18,9 C 70 % 1012,2 hPa 0,0 l/m 9,8 km/h (2 Bft) W 259 0 min 0,000 mm 0,0 UV-I 0 W/m 9,2 C 12,8 C 12,9 km/h (3 Bft) 95,65 %
26.04.2018 03:49 14,7 C 18,9 C 70 % 1012,2 hPa 0,0 l/m 4,5 km/h (1 Bft) W 265 0 min 0,000 mm 0,0 UV-I 0 W/m 9,3 C 14,7 C 8,0 km/h (2 Bft) 96,30 %
26.04.2018 03:50 14,7 C 18,9 C 71 % 1012,2 hPa 0,0 l/m 2,9 km/h (1 Bft) W 265 0 min 0,000 mm 0,0 UV-I 0 W/m 9,5 C 14,7 C 4,8 km/h (1 Bft) 100,00 %
26.04.2018 03:51 14,7 C 18,9 C 69 % 1012,2 hPa 0,0 l/m 7,0 km/h (2 Bft) W 274 0 min 0,000 mm 0,0 UV-I 0 W/m 9,1 C 14,4 C 12,9 km/h (3 Bft) 95,83 %
26.04.2018 03:52 14,7 C 18,9 C 69 % 1012,2 hPa 0,0 l/m 8,8 km/h (2 Bft) W-NW 288 0 min 0,000 mm 0,0 UV-I 0 W/m 9,1 C 13,4 C 11,3 km/h (2 Bft) 100,00 %
26.04.2018 03:53 14,7 C 18,9 C 68 % 1012,3 hPa 0,0 l/m 5,9 km/h (2 Bft) W 265 0 min 0,000 mm 0,0 UV-I 0 W/m 8,9 C 14,7 C 11,3 km/h (2 Bft) 95,83 %
26.04.2018 03:54 14,7 C 18,9 C 69 % 1012,3 hPa 0,0 l/m 5,9 km/h (2 Bft) W 265 0 min 0,000 mm 0,0 UV-I 0 W/m 9,1 C 14,7 C 9,7 km/h (2 Bft) 91,30 %
26.04.2018 03:55 14,7 C 18,9 C 68 % 1012,3 hPa 0,0 l/m 6,8 km/h (2 Bft) W 265 0 min 0,000 mm 0,0 UV-I 0 W/m 8,9 C 14,5 C 9,7 km/h (2 Bft) 100,00 %
26.04.2018 03:56 14,7 C 18,9 C 68 % 1012,3 hPa 0,0 l/m 7,3 km/h (2 Bft) W 263 0 min 0,000 mm 0,0 UV-I 0 W/m 8,9 C 14,2 C 11,3 km/h (2 Bft) 95,65 %
26.04.2018 03:57 14,7 C 18,9 C 69 % 1012,3 hPa 0,0 l/m 5,9 km/h (2 Bft) W 269 0 min 0,000 mm 0,0 UV-I 0 W/m 9,1 C 14,7 C 9,7 km/h (2 Bft) 100,00 %
26.04.2018 03:58 14,7 C 18,9 C 69 % 1012,3 hPa 0,0 l/m 7,4 km/h (2 Bft) W 275 0 min 0,000 mm 0,0 UV-I 0 W/m 9,1 C 14,1 C 11,3 km/h (2 Bft) 95,65 %
26.04.2018 03:59 14,7 C 18,9 C 68 % 1012,4 hPa 0,0 l/m 6,2 km/h (2 Bft) W 281 0 min 0,000 mm 0,0 UV-I 0 W/m 8,9 C 14,7 C 11,3 km/h (2 Bft) 100,00 %
26.04.2018 04:00 14,7 C 18,9 C 69 % 1012,4 hPa 0,0 l/m 6,3 km/h (2 Bft) W 277 0 min 0,025 mm 0,0 UV-I 0 W/m 9,1 C 14,7 C 9,7 km/h (2 Bft) 91,30 %
26.04.2018 04:01 14,7 C 18,9 C 69 % 1012,4 hPa 0,0 l/m 3,4 km/h (1 Bft) W 277 0 min 0,000 mm 0,0 UV-I 0 W/m 9,1 C 14,7 C 4,8 km/h (1 Bft) 100,00 %
26.04.2018 04:02 14,7 C 18,9 C 68 % 1012,4 hPa 0,0 l/m 3,8 km/h (1 Bft) W 274 0 min 0,000 mm 0,0 UV-I 0 W/m 8,9 C 14,7 C 6,4 km/h (2 Bft) 83,33 %
26.04.2018 04:03 14,7 C 18,9 C 68 % 1012,3 hPa 0,0 l/m 6,3 km/h (2 Bft) W 277 0 min 0,000 mm 0,0 UV-I 0 W/m 8,9 C 14,7 C 9,7 km/h (2 Bft) 100,00 %
26.04.2018 04:04 14,7 C 18,9 C 68 % 1012,3 hPa 0,0 l/m 4,8 km/h (1 Bft) W 264 0 min 0,000 mm 0,0 UV-I 0 W/m 8,9 C 14,7 C 9,7 km/h (2 Bft) 95,83 %
26.04.2018 04:05 14,7 C 18,9 C 68 % 1012,2 hPa 0,0 l/m 3,4 km/h (1 Bft) NW 311 0 min 0,000 mm 0,0 UV-I 0 W/m 8,9 C 14,7 C 4,8 km/h (1 Bft) 96,15 %
26.04.2018 04:06 14,7 C 18,9 C 68 % 1012,2 hPa 0,0 l/m 6,0 km/h (2 Bft) N 350 0 min 0,000 mm 0,0 UV-I 0 W/m 8,9 C 14,7 C 11,3 km/h (2 Bft) 96,30 %
26.04.2018 04:07 14,6 C 18,9 C 68 % 1012,2 hPa 0,0 l/m 4,4 km/h (1 Bft) N-NW 336 0 min 0,000 mm 0,0 UV-I 0 W/m 8,8 C 14,6 C 8,0 km/h (2 Bft) 95,65 %
26.04.2018 04:08 14,6 C 18,9 C 68 % 1012,2 hPa 0,0 l/m 7,2 km/h (2 Bft) N-NW 346 0 min 0,000 mm 0,0 UV-I 0 W/m 8,8 C 14,1 C 11,3 km/h (2 Bft) 100,00 %
26.04.2018 04:09 14,6 C 18,9 C 68 % 1012,3 hPa 0,0 l/m 5,7 km/h (1 Bft) NW 307 0 min 0,000 mm 0,0 UV-I 0 W/m 8,8 C 14,6 C 9,7 km/h (2 Bft) 92,31 %
26.04.2018 04:10 14,6 C 18,9 C 68 % 1012,3 hPa 0,0 l/m 2,7 km/h (1 Bft) W-SW 257 0 min 0,000 mm 0,0 UV-I 0 W/m 8,8 C 14,6 C 8,0 km/h (2 Bft) 95,83 %
26.04.2018 04:11 14,5 C 18,9 C 68 % 1012,3 hPa 0,0 l/m 5,8 km/h (2 Bft) W-SW 257 0 min 0,000 mm 0,0 UV-I 0 W/m 8,7 C 14,5 C 8,0 km/h (2 Bft) 78,57 %
26.04.2018 04:12 14,5 C 18,9 C 68 % 1012,3 hPa 0,0 l/m 3,6 km/h (1 Bft) W 276 0 min 0,000 mm 0,0 UV-I 0 W/m 8,7 C 14,5 C 4,8 km/h (1 Bft) 95,83 %
26.04.2018 04:13 14,5 C 18,9 C 68 % 1012,3 hPa 0,0 l/m 5,3 km/h (1 Bft) W-NW 298 0 min 0,000 mm 0,0 UV-I 0 W/m 8,7 C 14,5 C 8,0 km/h (2 Bft) 96,55 %
26.04.2018 04:14 14,4 C 18,9 C 69 % 1012,3 hPa 0,0 l/m 5,8 km/h (2 Bft) W-NW 284 0 min 0,000 mm 0,0 UV-I 0 W/m 8,8 C 14,4 C 9,7 km/h (2 Bft) 95,83 %
26.04.2018 04:15 14,4 C 18,9 C 69 % 1012,3 hPa 0,0 l/m 3,2 km/h (1 Bft) W 281 0 min 0,000 mm 0,0 UV-I 0 W/m 8,8 C 14,4 C 4,8 km/h (1 Bft) 91,30 %
26.04.2018 04:16 14,4 C 18,9 C 69 % 1012,3 hPa 0,0 l/m 4,0 km/h (1 Bft) W-NW 298 0 min 0,000 mm 0,0 UV-I 0 W/m 8,8 C 14,4 C 8,0 km/h (2 Bft) 91,67 %
26.04.2018 04:17 14,4 C 18,9 C 69 % 1012,3 hPa 0,0 l/m 5,0 km/h (1 Bft) W-NW 296 0 min 0,000 mm 0,0 UV-I 0 W/m 8,8 C 14,4 C 12,9 km/h (3 Bft) 91,30 %
26.04.2018 04:18 14,4 C 18,9 C 68 % 1012,3 hPa 0,0 l/m 5,2 km/h (1 Bft) W 281 0 min 0,000 mm 0,0 UV-I 0 W/m 8,6 C 14,4 C 11,3 km/h (2 Bft) 95,83 %
26.04.2018 04:19 14,4 C 18,9 C 68 % 1012,3 hPa 0,0 l/m 3,8 km/h (1 Bft) NW 305 0 min 0,000 mm 0,0 UV-I 0 W/m 8,6 C 14,4 C 4,8 km/h (1 Bft) 95,65 %
26.04.2018 04:20 14,4 C 18,9 C 68 % 1012,3 hPa 0,0 l/m 3,6 km/h (1 Bft) W-NW 294 0 min 0,000 mm 0,0 UV-I 0 W/m 8,6 C 14,4 C 6,4 km/h (2 Bft) 95,83 %
26.04.2018 04:21 14,4 C 18,9 C 68 % 1012,3 hPa 0,0 l/m 5,6 km/h (1 Bft) W 267 0 min 0,000 mm 0,0 UV-I 0 W/m 8,6 C 14,4 C 9,7 km/h (2 Bft) 96,00 %
26.04.2018 04:22 14,4 C 18,9 C 68 % 1012,4 hPa 0,0 l/m 5,5 km/h (1 Bft) W-NW 284 0 min 0,000 mm 0,0 UV-I 0 W/m 8,6 C 14,4 C 9,7 km/h (2 Bft) 95,83 %
26.04.2018 04:23 14,4 C 18,9 C 68 % 1012,4 hPa 0,0 l/m 6,3 km/h (2 Bft) W 270 0 min 0,000 mm 0,0 UV-I 0 W/m 8,6 C 14,4 C 11,3 km/h (2 Bft) 91,67 %
26.04.2018 04:24 14,3 C 18,9 C 69 % 1012,4 hPa 0,0 l/m 8,0 km/h (2 Bft) W-NW 296 0 min 0,000 mm 0,0 UV-I 0 W/m 8,7 C 13,4 C 14,5 km/h (3 Bft) 96,15 %
26.04.2018 04:25 14,4 C 18,9 C 68 % 1012,5 hPa 0,0 l/m 4,6 km/h (1 Bft) W-SW 248 0 min 0,000 mm 0,0 UV-I 0 W/m 8,6 C 14,4 C 6,4 km/h (2 Bft) 95,83 %
26.04.2018 04:26 14,4 C 18,9 C 68 % 1012,4 hPa 0,0 l/m 5,3 km/h (1 Bft) W-NW 298 0 min 0,000 mm 0,0 UV-I 0 W/m 8,6 C 14,4 C 8,0 km/h (2 Bft) 91,30 %
26.04.2018 04:27 14,4 C 18,9 C 68 % 1012,5 hPa 0,0 l/m 4,2 km/h (1 Bft) W 264 0 min 0,000 mm 0,0 UV-I 0 W/m 8,6 C 14,4 C 6,4 km/h (2 Bft) 95,83 %
26.04.2018 04:28 14,3 C 18,9 C 68 % 1012,5 hPa 0,0 l/m 6,6 km/h (2 Bft) W 268 0 min 0,000 mm 0,0 UV-I 0 W/m 8,5 C 14,2 C 9,7 km/h (2 Bft) 91,30 %
26.04.2018 04:29 14,3 C 18,9 C 68 % 1012,5 hPa 0,0 l/m 12,2 km/h (2 Bft) W 266 0 min 0,000 mm 0,0 UV-I 0 W/m 8,5 C 11,4 C 16,1 km/h (3 Bft) 100,00 %
26.04.2018 04:30 14,3 C 18,9 C 68 % 1012,5 hPa 0,0 l/m 6,3 km/h (2 Bft) W-NW 290 0 min 0,000 mm 0,0 UV-I 0 W/m 8,5 C 14,3 C 11,3 km/h (2 Bft) 91,30 %
26.04.2018 04:31 14,3 C 18,9 C 69 % 1012,5 hPa 0,0 l/m 4,0 km/h (1 Bft) W-NW 284 0 min 0,000 mm 0,0 UV-I 0 W/m 8,7 C 14,3 C 6,4 km/h (2 Bft) 100,00 %
26.04.2018 04:32 14,3 C 18,9 C 69 % 1012,5 hPa 0,0 l/m 4,2 km/h (1 Bft) NW 319 0 min 0,000 mm 0,0 UV-I 0 W/m 8,7 C 14,3 C 8,0 km/h (2 Bft) 91,30 %
26.04.2018 04:33 14,3 C 18,9 C 70 % 1012,4 hPa 0,0 l/m 5,0 km/h (1 Bft) W 275 0 min 0,000 mm 0,0 UV-I 0 W/m 8,9 C 14,3 C 9,7 km/h (2 Bft) 95,83 %
26.04.2018 04:34 14,3 C 18,9 C 69 % 1012,4 hPa 0,0 l/m 4,2 km/h (1 Bft) N-NW 327 0 min 0,000 mm 0,0 UV-I 0 W/m 8,7 C 14,3 C 9,7 km/h (2 Bft) 91,67 %
26.04.2018 04:35 14,3 C 18,9 C 69 % 1012,4 hPa 0,0 l/m 3,8 km/h (1 Bft) N-NW 327 0 min 0,000 mm 0,0 UV-I 0 W/m 8,7 C 14,3 C 6,4 km/h (2 Bft) 95,65 %
26.04.2018 04:36 14,2 C 18,9 C 70 % 1012,4 hPa 0,0 l/m 7,7 km/h (2 Bft) W-SW 249 0 min 0,000 mm 0,0 UV-I 0 W/m 8,8 C 13,4 C 16,1 km/h (3 Bft) 96,15 %
26.04.2018 04:37 14,2 C 18,9 C 70 % 1012,5 hPa 0,0 l/m 4,8 km/h (1 Bft) W 259 0 min 0,000 mm 0,0 UV-I 0 W/m 8,8 C 14,2 C 6,4 km/h (2 Bft) 91,67 %
26.04.2018 04:38 14,2 C 18,9 C 71 % 1012,5 hPa 0,0 l/m 5,5 km/h (1 Bft) W-NW 284 0 min 0,000 mm 0,0 UV-I 0 W/m 9,0 C 14,2 C 6,4 km/h (2 Bft) 100,00 %
26.04.2018 04:39 14,1 C 18,9 C 71 % 1012,5 hPa 0,0 l/m 4,1 km/h (1 Bft) W 279 0 min 0,000 mm 0,0 UV-I 0 W/m 8,9 C 14,1 C 6,4 km/h (2 Bft) 91,30 %
26.04.2018 04:40 14,1 C 18,9 C 72 % 1012,5 hPa 0,0 l/m 6,8 km/h (2 Bft) W 275 0 min 0,000 mm 0,0 UV-I 0 W/m 9,1 C 13,9 C 11,3 km/h (2 Bft) 95,83 %
26.04.2018 04:41 13,9 C 18,9 C 74 % 1012,6 hPa 0,0 l/m 5,6 km/h (1 Bft) W 275 0 min 0,000 mm 0,0 UV-I 0 W/m 9,3 C 13,9 C 8,0 km/h (2 Bft) 76,47 %
26.04.2018 04:42 13,8 C 18,9 C 74 % 1012,6 hPa 0,0 l/m 4,8 km/h (1 Bft) W-NW 285 0 min 0,000 mm 0,0 UV-I 0 W/m 9,2 C 13,8 C 8,0 km/h (2 Bft) 100,00 %
26.04.2018 04:43 13,7 C 18,9 C 75 % 1012,6 hPa 0,0 l/m 4,4 km/h (1 Bft) W 281 0 min 0,000 mm 0,0 UV-I 0 W/m 9,3 C 13,7 C 6,4 km/h (2 Bft) 91,30 %
26.04.2018 04:44 13,6 C 18,9 C 76 % 1012,7 hPa 0,0 l/m 6,9 km/h (2 Bft) W-NW 285 0 min 0,000 mm 0,0 UV-I 0 W/m 9,4 C 13,3 C 12,9 km/h (3 Bft) 100,00 %
26.04.2018 04:45 13,5 C 18,9 C 75 % 1012,6 hPa 0,0 l/m 6,9 km/h (2 Bft) NW 310 0 min 0,000 mm 0,0 UV-I 0 W/m 9,2 C 13,2 C 9,7 km/h (2 Bft) 100,00 %
26.04.2018 04:46 13,5 C 18,9 C 76 % 1012,7 hPa 0,0 l/m 4,7 km/h (1 Bft) NW 324 0 min 0,000 mm 0,0 UV-I 0 W/m 9,4 C 13,5 C 6,4 km/h (2 Bft) 95,83 %
26.04.2018 04:47 13,4 C 18,9 C 76 % 1012,7 hPa 0,0 l/m 4,2 km/h (1 Bft) W-SW 250 0 min 0,000 mm 0,0 UV-I 0 W/m 9,3 C 13,4 C 8,0 km/h (2 Bft) 95,65 %
26.04.2018 04:48 13,3 C 18,9 C 78 % 1012,7 hPa 0,0 l/m 5,3 km/h (1 Bft) W-SW 243 0 min 0,000 mm 0,0 UV-I 0 W/m 9,5 C 13,3 C 11,3 km/h (2 Bft) 95,83 %
26.04.2018 04:49 13,3 C 18,9 C 78 % 1012,6 hPa 0,2 l/m 7,5 km/h (2 Bft) W 271 0 min 0,000 mm 0,0 UV-I 0 W/m 9,5 C 12,6 C 11,3 km/h (2 Bft) 100,00 %
26.04.2018 04:50 13,2 C 18,9 C 78 % 1012,7 hPa 0,0 l/m 8,9 km/h (2 Bft) W-NW 302 0 min 0,000 mm 0,0 UV-I 0 W/m 9,4 C 11,7 C 12,9 km/h (3 Bft) 100,00 %
26.04.2018 04:51 13,2 C 18,9 C 78 % 1012,7 hPa 0,0 l/m 5,1 km/h (1 Bft) W 272 0 min 0,000 mm 0,0 UV-I 0 W/m 9,4 C 13,2 C 9,7 km/h (2 Bft) 100,00 %
26.04.2018 04:52 13,2 C 18,9 C 79 % 1012,7 hPa 0,0 l/m 5,2 km/h (1 Bft) W 271 0 min 0,000 mm 0,0 UV-I 0 W/m 9,6 C 13,2 C 6,4 km/h (2 Bft) 100,00 %
26.04.2018 04:53 13,1 C 18,9 C 79 % 1012,7 hPa 0,0 l/m 7,6 km/h (2 Bft) W-SW 248 0 min 0,000 mm 0,0 UV-I 0 W/m 9,5 C 12,3 C 11,3 km/h (2 Bft) 100,00 %
26.04.2018 04:54 13,0 C 18,9 C 80 % 1012,7 hPa 0,0 l/m 5,3 km/h (1 Bft) W-NW 292 0 min 0,000 mm 0,0 UV-I 0 W/m 9,6 C 13,0 C 9,7 km/h (2 Bft) 91,67 %
26.04.2018 04:55 12,9 C 18,9 C 82 % 1012,7 hPa 0,0 l/m 4,1 km/h (1 Bft) W-NW 291 0 min 0,000 mm 0,0 UV-I 0 W/m 9,9 C 12,9 C 6,4 km/h (2 Bft) 96,15 %
26.04.2018 04:56 12,8 C 18,9 C 82 % 1012,7 hPa 0,0 l/m 4,8 km/h (1 Bft) W-NW 290 0 min 0,000 mm 0,0 UV-I 0 W/m 9,8 C 12,8 C 9,7 km/h (2 Bft) 100,00 %
26.04.2018 04:57 12,7 C 18,9 C 82 % 1012,6 hPa 0,0 l/m 3,6 km/h (1 Bft) W-NW 290 0 min 0,000 mm 0,0 UV-I 0 W/m 9,7 C 12,7 C 4,8 km/h (1 Bft) 100,00 %
26.04.2018 04:58 12,7 C 18,9 C 83 % 1012,7 hPa 0,0 l/m 5,1 km/h (1 Bft) W-NW 297 0 min 0,000 mm 0,0 UV-I 0 W/m 9,9 C 12,7 C 11,3 km/h (2 Bft) 100,00 %
26.04.2018 04:59 12,6 C 18,9 C 84 % 1012,7 hPa 0,0 l/m 8,7 km/h (2 Bft) W 279 0 min 0,000 mm 0,0 UV-I 0 W/m 10,0 C 11,2 C 11,3 km/h (2 Bft) 100,00 %
26.04.2018 05:00 12,5 C 18,9 C 83 % 1012,7 hPa 0,0 l/m 6,0 km/h (2 Bft) W 267 0 min 0,025 mm 0,0 UV-I 0 W/m 9,7 C 12,5 C 9,7 km/h (2 Bft) 100,00 %
26.04.2018 05:01 12,5 C 18,9 C 84 % 1012,8 hPa 0,0 l/m 5,1 km/h (1 Bft) W 281 0 min 0,000 mm 0,0 UV-I 0 W/m 9,9 C 12,5 C 6,4 km/h (2 Bft) 100,00 %
26.04.2018 05:02 12,4 C 18,9 C 84 % 1012,8 hPa 0,2 l/m 5,8 km/h (2 Bft) W 279 0 min 0,000 mm 0,0 UV-I 0 W/m 9,8 C 12,4 C 9,7 km/h (2 Bft) 100,00 %
26.04.2018 05:03 12,4 C 18,9 C 84 % 1012,7 hPa 0,0 l/m 6,3 km/h (2 Bft) W-SW 257 0 min 0,000 mm 0,0 UV-I 0 W/m 9,8 C 12,4 C 9,7 km/h (2 Bft) 100,00 %
26.04.2018 05:04 12,4 C 18,9 C 85 % 1012,7 hPa 0,0 l/m 5,4 km/h (1 Bft) W 261 0 min 0,000 mm 0,0 UV-I 0 W/m 9,9 C 12,4 C 6,4 km/h (2 Bft) 95,65 %
26.04.2018 05:05 12,4 C 18,9 C 85 % 1012,7 hPa 0,0 l/m 5,2 km/h (1 Bft) W 263 0 min 0,000 mm 0,0 UV-I 0 W/m 9,9 C 12,4 C 6,4 km/h (2 Bft) 100,00 %
26.04.2018 05:06 12,4 C 18,9 C 85 % 1012,7 hPa 0,0 l/m 6,1 km/h (2 Bft) W 264 0 min 0,000 mm 0,0 UV-I 0 W/m 9,9 C 12,4 C 9,7 km/h (2 Bft) 95,65 %
26.04.2018 05:07 12,4 C 18,9 C 85 % 1012,7 hPa 0,0 l/m 5,5 km/h (1 Bft) W 267 0 min 0,000 mm 0,0 UV-I 0 W/m 9,9 C 12,4 C 9,7 km/h (2 Bft) 100,00 %
26.04.2018 05:08 12,3 C 18,9 C 85 % 1012,7 hPa 0,0 l/m 5,6 km/h (1 Bft) W 267 0 min 0,000 mm 0,0 UV-I 0 W/m 9,9 C 12,3 C 9,7 km/h (2 Bft) 100,00 %
26.04.2018 05:09 12,3 C 18,9 C 85 % 1012,6 hPa 0,0 l/m 5,0 km/h (1 Bft) W-NW 283 0 min 0,000 mm 0,0 UV-I 0 W/m 9,9 C 12,3 C 6,4 km/h (2 Bft) 100,00 %
26.04.2018 05:10 12,4 C 18,9 C 85 % 1012,7 hPa 0,0 l/m 4,5 km/h (1 Bft) W-SW 252 0 min 0,000 mm 0,0 UV-I 0 W/m 9,9 C 12,4 C 6,4 km/h (2 Bft) 95,65 %
26.04.2018 05:11 12,4 C 18,9 C 86 % 1012,7 hPa 0,0 l/m 3,8 km/h (1 Bft) W-SW 252 0 min 0,000 mm 0,0 UV-I 0 W/m 10,1 C 12,4 C 6,4 km/h (2 Bft) 100,00 %
26.04.2018 05:12 12,4 C 18,9 C 85 % 1012,7 hPa 0,0 l/m 4,4 km/h (1 Bft) W 261 0 min 0,000 mm 0,0 UV-I 0 W/m 9,9 C 12,4 C 6,4 km/h (2 Bft) 100,00 %
26.04.2018 05:13 12,4 C 18,9 C 86 % 1012,8 hPa 0,0 l/m 4,7 km/h (1 Bft) W 263 0 min 0,000 mm 0,0 UV-I 0 W/m 10,1 C 12,4 C 6,4 km/h (2 Bft) 100,00 %
26.04.2018 05:14 12,4 C 18,9 C 85 % 1012,8 hPa 0,0 l/m 6,9 km/h (2 Bft) W 274 0 min 0,000 mm 0,0 UV-I 0 W/m 9,9 C 12,1 C 11,3 km/h (2 Bft) 100,00 %
26.04.2018 05:15 12,4 C 18,9 C 85 % 1012,8 hPa 0,0 l/m 6,2 km/h (2 Bft) W 259 0 min 0,000 mm 0,0 UV-I 0 W/m 9,9 C 12,4 C 11,3 km/h (2 Bft) 100,00 %
26.04.2018 05:16 12,4 C 18,9 C 85 % 1012,8 hPa 0,0 l/m 5,2 km/h (1 Bft) W 270 0 min 0,000 mm 0,0 UV-I 0 W/m 9,9 C 12,4 C 6,4 km/h (2 Bft) 100,00 %
26.04.2018 05:17 12,4 C 18,9 C 85 % 1012,8 hPa 0,0 l/m 6,6 km/h (2 Bft) W 267 0 min 0,000 mm 0,0 UV-I 0 W/m 9,9 C 12,3 C 9,7 km/h (2 Bft) 100,00 %
26.04.2018 05:18 12,4 C 18,9 C 87 % 1012,8 hPa 0,0 l/m 6,0 km/h (2 Bft) W 269 0 min 0,000 mm 0,0 UV-I 0 W/m 10,3 C 12,4 C 9,7 km/h (2 Bft) 100,00 %
26.04.2018 05:19 12,3 C 18,9 C 87 % 1012,8 hPa 0,0 l/m 4,6 km/h (1 Bft) W 269 0 min 0,000 mm 0,0 UV-I 0 W/m 10,2 C 12,3 C 6,4 km/h (2 Bft) 100,00 %
26.04.2018 05:20 12,3 C 18,9 C 87 % 1012,7 hPa 0,0 l/m 6,4 km/h (2 Bft) W 274 0 min 0,000 mm 0,0 UV-I 0 W/m 10,2 C 12,3 C 9,7 km/h (2 Bft) 100,00 %
26.04.2018 05:21 12,3 C 18,9 C 88 % 1012,6 hPa 0,0 l/m 5,2 km/h (1 Bft) W-NW 288 0 min 0,000 mm 0,0 UV-I 0 W/m 10,4 C 12,3 C 9,7 km/h (2 Bft) 100,00 %
26.04.2018 05:22 12,2 C 18,9 C 87 % 1012,6 hPa 0,0 l/m 5,7 km/h (1 Bft) W 263 0 min 0,000 mm 0,0 UV-I 0 W/m 10,1 C 12,2 C 8,0 km/h (2 Bft) 95,83 %
26.04.2018 05:23 12,2 C 18,9 C 87 % 1012,5 hPa 0,0 l/m 5,6 km/h (1 Bft) W 267 0 min 0,000 mm 0,0 UV-I 0 W/m 10,1 C 12,2 C 9,7 km/h (2 Bft) 100,00 %
26.04.2018 05:24 12,2 C 18,9 C 87 % 1012,6 hPa 0,0 l/m 10,3 km/h (2 Bft) W-NW 302 0 min 0,000 mm 0,0 UV-I 0 W/m 10,1 C 9,9 C 12,9 km/h (3 Bft) 100,00 %
26.04.2018 05:25 12,2 C 18,9 C 87 % 1012,7 hPa 0,0 l/m 11,9 km/h (2 Bft) W 263 0 min 0,000 mm 0,0 UV-I 0 W/m 10,1 C 9,1 C 17,7 km/h (3 Bft) 100,00 %
26.04.2018 05:26 12,3 C 18,9 C 86 % 1012,7 hPa 0,0 l/m 9,7 km/h (2 Bft) W 279 0 min 0,000 mm 0,0 UV-I 0 W/m 10,0 C 10,3 C 14,5 km/h (3 Bft) 100,00 %
26.04.2018 05:27 12,3 C 18,9 C 86 % 1012,7 hPa 0,0 l/m 10,6 km/h (2 Bft) W 270 0 min 0,000 mm 0,0 UV-I 0 W/m 10,0 C 9,8 C 12,9 km/h (3 Bft) 95,65 %
26.04.2018 05:28 12,4 C 18,9 C 86 % 1012,8 hPa 0,0 l/m 5,9 km/h (2 Bft) W 261 0 min 0,000 mm 0,0 UV-I 0 W/m 10,1 C 12,4 C 11,3 km/h (2 Bft) 100,00 %
26.04.2018 05:29 12,3 C 18,9 C 86 % 1012,8 hPa 0,0 l/m 7,0 km/h (2 Bft) W 277 0 min 0,000 mm 0,0 UV-I 0 W/m 10,0 C 11,9 C 9,7 km/h (2 Bft) 100,00 %
26.04.2018 05:30 12,3 C 18,9 C 86 % 1012,8 hPa 0,0 l/m 6,6 km/h (2 Bft) W-NW 285 0 min 0,000 mm 0,0 UV-I 0 W/m 10,0 C 12,2 C 9,7 km/h (2 Bft) 100,00 %
26.04.2018 05:31 12,3 C 18,9 C 87 % 1012,8 hPa 0,0 l/m 8,8 km/h (2 Bft) W-NW 286 0 min 0,000 mm 0,0 UV-I 0 W/m 10,2 C 10,8 C 12,9 km/h (3 Bft) 95,65 %
26.04.2018 05:32 12,3 C 18,9 C 87 % 1012,8 hPa 0,0 l/m 5,9 km/h (2 Bft) W 265 0 min 0,000 mm 0,0 UV-I 0 W/m 10,2 C 12,3 C 9,7 km/h (2 Bft) 100,00 %
26.04.2018 05:33 12,2 C 18,9 C 87 % 1012,8 hPa 0,0 l/m 4,4 km/h (1 Bft) W 273 0 min 0,000 mm 0,0 UV-I 0 W/m 10,1 C 12,2 C 6,4 km/h (2 Bft) 95,65 %
26.04.2018 05:34 12,2 C 18,9 C 87 % 1012,8 hPa 0,0 l/m 6,2 km/h (2 Bft) W 259 0 min 0,000 mm 0,0 UV-I 0 W/m 10,1 C 12,2 C 9,7 km/h (2 Bft) 100,00 %
26.04.2018 05:35 12,1 C 18,9 C 87 % 1012,8 hPa 0,0 l/m 6,0 km/h (2 Bft) W-NW 284 0 min 0,000 mm 0,0 UV-I 0 W/m 10,0 C 12,1 C 9,7 km/h (2 Bft) 100,00 %
26.04.2018 05:36 12,1 C 18,9 C 88 % 1012,8 hPa 0,0 l/m 5,9 km/h (2 Bft) W 259 0 min 0,000 mm 0,0 UV-I 0 W/m 10,2 C 12,1 C 9,7 km/h (2 Bft) 100,00 %
26.04.2018 05:37 12,1 C 18,9 C 88 % 1012,8 hPa 0,0 l/m 5,9 km/h (2 Bft) W 274 0 min 0,000 mm 0,0 UV-I 0 W/m 10,2 C 12,1 C 9,7 km/h (2 Bft) 100,00 %
26.04.2018 05:38 12,1 C 18,9 C 87 % 1012,9 hPa 0,0 l/m 7,0 km/h (2 Bft) W 271 0 min 0,000 mm 0,0 UV-I 0 W/m 10,0 C 11,7 C 12,9 km/h (3 Bft) 100,00 %
26.04.2018 05:39 12,1 C 18,9 C 88 % 1012,9 hPa 0,2 l/m 8,3 km/h (2 Bft) W 261 0 min 0,000 mm 0,0 UV-I 0 W/m 10,2 C 10,9 C 12,9 km/h (3 Bft) 100,00 %
26.04.2018 05:40 12,2 C 18,9 C 87 % 1012,9 hPa 0,0 l/m 9,9 km/h (2 Bft) W 265 0 min 0,000 mm 0,0 UV-I 0 W/m 10,1 C 10,1 C 14,5 km/h (3 Bft) 100,00 %
26.04.2018 05:41 12,2 C 18,9 C 87 % 1012,9 hPa 0,0 l/m 7,9 km/h (2 Bft) W 269 0 min 0,000 mm 0,0 UV-I 0 W/m 10,1 C 11,2 C 12,9 km/h (3 Bft) 100,00 %
26.04.2018 05:42 12,2 C 18,9 C 87 % 1012,9 hPa 0,0 l/m 7,8 km/h (2 Bft) W 261 0 min 0,000 mm 0,0 UV-I 0 W/m 10,1 C 11,3 C 11,3 km/h (2 Bft) 95,65 %
26.04.2018 05:43 12,2 C 18,9 C 87 % 1013,0 hPa 0,0 l/m 8,2 km/h (2 Bft) W 274 0 min 0,000 mm 0,0 UV-I 0 W/m 10,1 C 11,0 C 11,3 km/h (2 Bft) 100,00 %
26.04.2018 05:44 12,2 C 18,9 C 87 % 1013,0 hPa 0,0 l/m 6,2 km/h (2 Bft) W 259 0 min 0,000 mm 0,0 UV-I 0 W/m 10,1 C 12,2 C 9,7 km/h (2 Bft) 100,00 %
26.04.2018 05:45 12,2 C 18,9 C 87 % 1013,0 hPa 0,0 l/m 6,1 km/h (2 Bft) W-SW 256 0 min 0,000 mm 0,0 UV-I 0 W/m 10,1 C 12,2 C 9,7 km/h (2 Bft) 96,30 %
26.04.2018 05:46 12,2 C 18,9 C 87 % 1013,0 hPa 0,0 l/m 7,6 km/h (2 Bft) W 269 0 min 0,000 mm 0,0 UV-I 0 W/m 10,1 C 11,4 C 9,7 km/h (2 Bft) 95,65 %
26.04.2018 05:47 12,2 C 18,9 C 87 % 1013,0 hPa 0,0 l/m 6,5 km/h (2 Bft) W-SW 240 0 min 0,000 mm 0,0 UV-I 0 W/m 10,1 C 12,2 C 9,7 km/h (2 Bft) 100,00 %
26.04.2018 05:48 12,2 C 18,9 C 87 % 1013,0 hPa 0,0 l/m 5,1 km/h (1 Bft) SW 235 0 min 0,000 mm 0,0 UV-I 0 W/m 10,1 C 12,2 C 6,4 km/h (2 Bft) 100,00 %
26.04.2018 05:49 12,2 C 18,9 C 88 % 1013,0 hPa 0,0 l/m 6,2 km/h (2 Bft) W 259 0 min 0,000 mm 0,0 UV-I 0 W/m 10,3 C 12,2 C 8,0 km/h (2 Bft) 100,00 %
26.04.2018 05:50 12,2 C 18,9 C 88 % 1013,0 hPa 0,0 l/m 4,4 km/h (1 Bft) W 275 0 min 0,000 mm 0,0 UV-I 0 W/m 10,3 C 12,2 C 6,4 km/h (2 Bft) 96,15 %
26.04.2018 05:51 12,2 C 18,9 C 88 % 1013,0 hPa 0,0 l/m 7,5 km/h (2 Bft) W 261 0 min 0,000 mm 0,0 UV-I 0 W/m 10,3 C 11,5 C 11,3 km/h (2 Bft) 95,83 %
26.04.2018 05:52 12,2 C 18,9 C 88 % 1013,0 hPa 0,0 l/m 6,1 km/h (2 Bft) W-SW 255 0 min 0,000 mm 0,0 UV-I 0 W/m 10,3 C 12,2 C 6,4 km/h (2 Bft) 100,00 %
26.04.2018 05:53 12,2 C 18,9 C 88 % 1013,0 hPa 0,0 l/m 5,5 km/h (1 Bft) SW 232 0 min 0,000 mm 0,0 UV-I 0 W/m 10,3 C 12,2 C 9,7 km/h (2 Bft) 100,00 %
26.04.2018 05:54 12,2 C 18,9 C 88 % 1013,0 hPa 0,0 l/m 6,8 km/h (2 Bft) W-SW 244 0 min 0,000 mm 0,0 UV-I 0 W/m 10,3 C 11,9 C 9,7 km/h (2 Bft) 100,00 %
26.04.2018 05:55 12,2 C 18,9 C 89 % 1013,0 hPa 0,0 l/m 6,1 km/h (2 Bft) W-SW 238 0 min 0,000 mm 0,0 UV-I 0 W/m 10,4 C 12,2 C 8,0 km/h (2 Bft) 100,00 %
26.04.2018 05:56 12,2 C 18,9 C 89 % 1013,0 hPa 0,0 l/m 7,6 km/h (2 Bft) W-SW 240 0 min 0,000 mm 0,0 UV-I 0 W/m 10,4 C 11,4 C 11,3 km/h (2 Bft) 100,00 %
26.04.2018 05:57 12,2 C 18,9 C 89 % 1013,0 hPa 0,0 l/m 9,0 km/h (2 Bft) SW 231 0 min 0,000 mm 0,0 UV-I 0 W/m 10,4 C 10,6 C 19,3 km/h (3 Bft) 100,00 %
26.04.2018 05:58 12,2 C 18,9 C 89 % 1013,0 hPa 0,0 l/m 7,8 km/h (2 Bft) W-SW 250 0 min 0,000 mm 0,0 UV-I 0 W/m 10,4 C 11,3 C 11,3 km/h (2 Bft) 100,00 %
26.04.2018 05:59 12,2 C 18,9 C 89 % 1013,0 hPa 0,0 l/m 11,7 km/h (2 Bft) W 263 0 min 0,000 mm 0,0 UV-I 0 W/m 10,4 C 9,2 C 16,1 km/h (3 Bft) 100,00 %
26.04.2018 06:00 12,2 C 18,9 C 89 % 1013,0 hPa 0,0 l/m 10,5 km/h (2 Bft) SW 229 0 min 0,000 mm 0,0 UV-I 0 W/m 10,4 C 9,8 C 14,5 km/h (3 Bft) 100,00 %
26.04.2018 06:01 12,2 C 18,9 C 89 % 1013,1 hPa 0,0 l/m 8,3 km/h (2 Bft) W 277 0 min 0,026 mm 0,0 UV-I 0 W/m 10,4 C 11,0 C 12,9 km/h (3 Bft) 96,88 %
26.04.2018 06:02 12,1 C 18,9 C 89 % 1013,1 hPa 0,0 l/m 9,5 km/h (2 Bft) SW 234 0 min 0,000 mm 0,0 UV-I 0 W/m 10,3 C 10,2 C 11,3 km/h (2 Bft) 100,00 %
26.04.2018 06:03 12,2 C 18,9 C 89 % 1013,1 hPa 0,0 l/m 9,6 km/h (2 Bft) SW 229 0 min 0,000 mm 0,0 UV-I 0 W/m 10,4 C 10,2 C 12,9 km/h (3 Bft) 100,00 %
26.04.2018 06:04 12,2 C 18,9 C 89 % 1013,2 hPa 0,0 l/m 8,9 km/h (2 Bft) W-SW 242 0 min 0,000 mm 0,0 UV-I 0 W/m 10,4 C 10,6 C 12,9 km/h (3 Bft) 100,00 %
26.04.2018 06:05 12,1 C 18,9 C 89 % 1013,2 hPa 0,0 l/m 8,8 km/h (2 Bft) W 259 0 min 0,000 mm 0,0 UV-I 0 W/m 10,3 C 10,6 C 12,9 km/h (3 Bft) 100,00 %
26.04.2018 06:06 12,1 C 18,9 C 89 % 1013,2 hPa 0,0 l/m 9,4 km/h (2 Bft) W 265 0 min 0,000 mm 0,0 UV-I 0 W/m 10,3 C 10,2 C 12,9 km/h (3 Bft) 100,00 %
26.04.2018 06:07 12,1 C 18,9 C 89 % 1013,2 hPa 0,0 l/m 9,0 km/h (2 Bft) W-SW 246 0 min 0,000 mm 0,0 UV-I 0 W/m 10,3 C 10,5 C 14,5 km/h (3 Bft) 100,00 %
26.04.2018 06:08 12,1 C 18,9 C 89 % 1013,3 hPa 0,0 l/m 9,7 km/h (2 Bft) W 263 0 min 0,000 mm 0,0 UV-I 5 W/m 10,3 C 10,1 C 14,5 km/h (3 Bft) 100,00 %
26.04.2018 06:09 12,1 C 18,9 C 89 % 1013,3 hPa 0,0 l/m 10,5 km/h (2 Bft) W-SW 258 0 min 0,000 mm 0,0 UV-I 5 W/m 10,3 C 9,7 C 16,1 km/h (3 Bft) 100,00 %
26.04.2018 06:10 12,1 C 18,9 C 89 % 1013,3 hPa 0,0 l/m 9,7 km/h (2 Bft) W-SW 257 0 min 0,000 mm 0,0 UV-I 5 W/m 10,3 C 10,1 C 16,1 km/h (3 Bft) 100,00 %
26.04.2018 06:11 12,1 C 18,9 C 90 % 1013,3 hPa 0,0 l/m 11,1 km/h (2 Bft) SW 226 0 min 0,000 mm 0,0 UV-I 5 W/m 10,5 C 9,4 C 16,1 km/h (3 Bft) 100,00 %
26.04.2018 06:12 12,1 C 18,9 C 90 % 1013,3 hPa 0,0 l/m 7,8 km/h (2 Bft) W 274 0 min 0,000 mm 0,0 UV-I 5 W/m 10,5 C 11,2 C 11,3 km/h (2 Bft) 100,00 %
26.04.2018 06:13 12,1 C 18,9 C 90 % 1013,3 hPa 0,0 l/m 10,7 km/h (2 Bft) W-SW 238 0 min 0,000 mm 0,0 UV-I 5 W/m 10,5 C 9,6 C 14,5 km/h (3 Bft) 100,00 %
26.04.2018 06:14 12,0 C 18,9 C 90 % 1013,3 hPa 0,0 l/m 11,7 km/h (2 Bft) W 269 0 min 0,000 mm 0,0 UV-I 5 W/m 10,4 C 9,0 C 14,5 km/h (3 Bft) 95,65 %
26.04.2018 06:15 12,0 C 18,9 C 90 % 1013,3 hPa 0,0 l/m 8,7 km/h (2 Bft) W 266 0 min 0,000 mm 0,0 UV-I 5 W/m 10,4 C 10,5 C 12,9 km/h (3 Bft) 100,00 %
26.04.2018 06:16 11,9 C 18,9 C 90 % 1013,3 hPa 0,0 l/m 5,9 km/h (2 Bft) W 278 0 min 0,000 mm 0,0 UV-I 5 W/m 10,3 C 11,9 C 9,7 km/h (2 Bft) 96,00 %
26.04.2018 06:17 11,9 C 18,9 C 90 % 1013,2 hPa 0,0 l/m 5,7 km/h (1 Bft) W-SW 247 0 min 0,000 mm 0,0 UV-I 6 W/m 10,3 C 11,9 C 9,7 km/h (2 Bft) 95,83 %
26.04.2018 06:18 11,9 C 18,9 C 90 % 1013,2 hPa 0,0 l/m 7,5 km/h (2 Bft) W 272 0 min 0,000 mm 0,0 UV-I 7 W/m 10,3 C 11,2 C 11,3 km/h (2 Bft) 100,00 %
26.04.2018 06:19 11,9 C 18,9 C 90 % 1013,2 hPa 0,0 l/m 7,8 km/h (2 Bft) W 278 0 min 0,000 mm 0,0 UV-I 7 W/m 10,3 C 11,0 C 9,7 km/h (2 Bft) 100,00 %
26.04.2018 06:20 11,9 C 18,9 C 91 % 1013,2 hPa 0,0 l/m 7,7 km/h (2 Bft) W-SW 253 0 min 0,000 mm 0,0 UV-I 7 W/m 10,5 C 11,0 C 11,3 km/h (2 Bft) 95,65 %
26.04.2018 06:21 11,9 C 18,9 C 91 % 1013,3 hPa 0,0 l/m 5,6 km/h (1 Bft) W 267 0 min 0,000 mm 0,0 UV-I 7 W/m 10,5 C 11,9 C 6,4 km/h (2 Bft) 95,83 %
26.04.2018 06:22 11,9 C 18,9 C 91 % 1013,3 hPa 0,0 l/m 7,0 km/h (2 Bft) W-SW 240 0 min 0,000 mm 0,0 UV-I 7 W/m 10,5 C 11,5 C 9,7 km/h (2 Bft) 100,00 %
26.04.2018 06:23 11,9 C 18,9 C 91 % 1013,3 hPa 0,0 l/m 7,9 km/h (2 Bft) W-SW 258 0 min 0,000 mm 0,0 UV-I 7 W/m 10,5 C 10,9 C 12,9 km/h (3 Bft) 95,83 %
26.04.2018 06:24 11,9 C 18,9 C 91 % 1013,3 hPa 0,0 l/m 6,0 km/h (2 Bft) W-SW 255 0 min 0,000 mm 0,0 UV-I 7 W/m 10,5 C 11,9 C 9,7 km/h (2 Bft) 100,00 %
26.04.2018 06:25 11,9 C 18,9 C 91 % 1013,3 hPa 0,0 l/m 5,3 km/h (1 Bft) SW 233 0 min 0,000 mm 0,0 UV-I 7 W/m 10,5 C 11,9 C 6,4 km/h (2 Bft) 95,83 %
26.04.2018 06:26 11,9 C 18,9 C 91 % 1013,4 hPa 0,0 l/m 6,4 km/h (2 Bft) W 277 0 min 0,000 mm 0,0 UV-I 7 W/m 10,5 C 11,9 C 9,7 km/h (2 Bft) 100,00 %
26.04.2018 06:27 11,8 C 18,9 C 91 % 1013,4 hPa 0,0 l/m 6,4 km/h (2 Bft) W-SW 256 0 min 0,000 mm 0,0 UV-I 7 W/m 10,4 C 11,8 C 11,3 km/h (2 Bft) 95,83 %
26.04.2018 06:28 11,8 C 18,9 C 92 % 1013,4 hPa 0,0 l/m 5,8 km/h (2 Bft) W-SW 246 0 min 0,000 mm 0,0 UV-I 7 W/m 10,5 C 11,8 C 8,0 km/h (2 Bft) 100,00 %
26.04.2018 06:29 11,8 C 18,9 C 91 % 1013,4 hPa 0,0 l/m 6,1 km/h (2 Bft) SW 236 0 min 0,000 mm 0,0 UV-I 8 W/m 10,4 C 11,8 C 8,0 km/h (2 Bft) 95,83 %
26.04.2018 06:30 11,8 C 18,9 C 91 % 1013,4 hPa 0,0 l/m 5,0 km/h (1 Bft) W 261 0 min 0,000 mm 0,0 UV-I 9 W/m 10,4 C 11,8 C 6,4 km/h (2 Bft) 95,83 %
26.04.2018 06:31 11,8 C 18,9 C 91 % 1013,4 hPa 0,2 l/m 6,6 km/h (2 Bft) W-SW 248 0 min 0,000 mm 0,0 UV-I 9 W/m 10,4 C 11,7 C 8,0 km/h (2 Bft) 100,00 %
26.04.2018 06:32 11,8 C 18,9 C 91 % 1013,4 hPa 0,0 l/m 5,6 km/h (1 Bft) W-SW 237 0 min 0,000 mm 0,0 UV-I 11 W/m 10,4 C 11,8 C 8,0 km/h (2 Bft) 91,67 %
26.04.2018 06:33 11,8 C 18,9 C 92 % 1013,5 hPa 0,0 l/m 6,8 km/h (2 Bft) W-SW 237 0 min 0,000 mm 0,0 UV-I 11 W/m 10,5 C 11,5 C 11,3 km/h (2 Bft) 100,00 %
26.04.2018 06:34 11,8 C 18,9 C 92 % 1013,4 hPa 0,0 l/m 6,4 km/h (2 Bft) W-SW 245 0 min 0,000 mm 0,0 UV-I 11 W/m 10,5 C 11,8 C 9,7 km/h (2 Bft) 95,83 %
26.04.2018 06:35 11,8 C 18,9 C 92 % 1013,4 hPa 0,0 l/m 7,5 km/h (2 Bft) W-SW 247 0 min 0,000 mm 0,0 UV-I 12 W/m 10,5 C 11,1 C 12,9 km/h (3 Bft) 100,00 %
26.04.2018 06:36 11,8 C 18,9 C 92 % 1013,4 hPa 0,0 l/m 6,1 km/h (2 Bft) W 261 0 min 0,000 mm 0,0 UV-I 12 W/m 10,5 C 11,8 C 8,0 km/h (2 Bft) 95,83 %
26.04.2018 06:37 11,8 C 18,9 C 92 % 1013,4 hPa 0,0 l/m 5,7 km/h (1 Bft) W 265 0 min 0,000 mm 0,0 UV-I 14 W/m 10,5 C 11,8 C 8,0 km/h (2 Bft) 95,65 %
26.04.2018 06:38 11,8 C 18,9 C 92 % 1013,4 hPa 0,0 l/m 5,8 km/h (2 Bft) W 262 0 min 0,000 mm 0,0 UV-I 16 W/m 10,5 C 11,8 C 11,3 km/h (2 Bft) 100,00 %
26.04.2018 06:39 11,8 C 18,9 C 92 % 1013,4 hPa 0,0 l/m 6,6 km/h (2 Bft) W-SW 240 0 min 0,000 mm 0,0 UV-I 16 W/m 10,5 C 11,7 C 9,7 km/h (2 Bft) 95,65 %
26.04.2018 06:40 11,8 C 18,9 C 92 % 1013,4 hPa 0,0 l/m 7,5 km/h (2 Bft) SW 234 0 min 0,000 mm 0,0 UV-I 16 W/m 10,5 C 11,1 C 11,3 km/h (2 Bft) 100,00 %
26.04.2018 06:41 11,8 C 18,9 C 92 % 1013,4 hPa 0,0 l/m 7,7 km/h (2 Bft) W 259 0 min 0,000 mm 0,0 UV-I 16 W/m 10,5 C 10,9 C 11,3 km/h (2 Bft) 95,65 %
26.04.2018 06:42 11,8 C 18,9 C 92 % 1013,4 hPa 0,0 l/m 8,2 km/h (2 Bft) W 269 0 min 0,000 mm 0,0 UV-I 16 W/m 10,5 C 10,6 C 12,9 km/h (3 Bft) 95,83 %
26.04.2018 06:43 11,8 C 18,9 C 92 % 1013,4 hPa 0,0 l/m 8,1 km/h (2 Bft) W-SW 242 0 min 0,000 mm 0,0 UV-I 14 W/m 10,5 C 10,7 C 12,9 km/h (3 Bft) 95,65 %
26.04.2018 06:44 11,8 C 18,9 C 92 % 1013,4 hPa 0,0 l/m 7,8 km/h (2 Bft) W 269 0 min 0,000 mm 0,0 UV-I 14 W/m 10,5 C 10,9 C 11,3 km/h (2 Bft) 100,00 %
26.04.2018 06:45 11,8 C 18,9 C 92 % 1013,4 hPa 0,0 l/m 6,3 km/h (2 Bft) W 262 0 min 0,000 mm 0,0 UV-I 14 W/m 10,5 C 11,8 C 9,7 km/h (2 Bft) 95,65 %
26.04.2018 06:46 11,8 C 18,9 C 92 % 1013,5 hPa 0,0 l/m 7,7 km/h (2 Bft) W 268 0 min 0,000 mm 0,0 UV-I 15 W/m 10,5 C 10,9 C 11,3 km/h (2 Bft) 95,83 %
26.04.2018 06:47 11,8 C 18,9 C 92 % 1013,5 hPa 0,0 l/m 5,6 km/h (1 Bft) W-SW 254 0 min 0,000 mm 0,0 UV-I 16 W/m 10,5 C 11,8 C 9,7 km/h (2 Bft) 100,00 %
26.04.2018 06:48 11,8 C 18,9 C 92 % 1013,5 hPa 0,0 l/m 7,0 km/h (2 Bft) W-SW 252 0 min 0,000 mm 0,0 UV-I 16 W/m 10,5 C 11,4 C 12,9 km/h (3 Bft) 100,00 %
26.04.2018 06:49 11,8 C 18,9 C 92 % 1013,5 hPa 0,0 l/m 11,1 km/h (2 Bft) W-SW 258 0 min 0,000 mm 0,0 UV-I 16 W/m 10,5 C 9,0 C 12,9 km/h (3 Bft) 100,00 %
26.04.2018 06:50 11,8 C 18,9 C 92 % 1013,5 hPa 0,0 l/m 9,2 km/h (2 Bft) W 269 0 min 0,000 mm 0,0 UV-I 16 W/m 10,5 C 10,0 C 14,5 km/h (3 Bft) 100,00 %
26.04.2018 06:51 11,8 C 18,9 C 92 % 1013,5 hPa 0,0 l/m 9,5 km/h (2 Bft) W-NW 286 0 min 0,000 mm 0,0 UV-I 17 W/m 10,5 C 9,9 C 11,3 km/h (2 Bft) 100,00 %
26.04.2018 06:52 11,8 C 18,9 C 92 % 1013,5 hPa 0,0 l/m 6,1 km/h (2 Bft) W 279 0 min 0,000 mm 0,0 UV-I 18 W/m 10,5 C 11,8 C 9,7 km/h (2 Bft) 95,65 %
26.04.2018 06:53 11,8 C 18,9 C 92 % 1013,5 hPa 0,0 l/m 6,4 km/h (2 Bft) W-SW 257 0 min 0,000 mm 0,0 UV-I 20 W/m 10,5 C 11,8 C 9,7 km/h (2 Bft) 100,00 %
26.04.2018 06:54 11,8 C 18,9 C 93 % 1013,5 hPa 0,0 l/m 10,3 km/h (2 Bft) W-SW 254 0 min 0,000 mm 0,0 UV-I 23 W/m 10,7 C 9,4 C 14,5 km/h (3 Bft) 100,00 %
26.04.2018 06:55 11,8 C 18,9 C 92 % 1013,5 hPa 0,0 l/m 5,6 km/h (1 Bft) W 275 0 min 0,000 mm 0,0 UV-I 23 W/m 10,5 C 11,8 C 9,7 km/h (2 Bft) 100,00 %
26.04.2018 06:56 11,8 C 18,9 C 92 % 1013,5 hPa 0,0 l/m 6,3 km/h (2 Bft) W 267 0 min 0,000 mm 0,0 UV-I 20 W/m 10,5 C 11,8 C 9,7 km/h (2 Bft) 100,00 %
26.04.2018 06:57 11,8 C 18,9 C 92 % 1013,5 hPa 0,0 l/m 5,8 km/h (2 Bft) W 265 0 min 0,000 mm 0,0 UV-I 18 W/m 10,5 C 11,8 C 11,3 km/h (2 Bft) 100,00 %
26.04.2018 06:58 11,8 C 18,9 C 92 % 1013,6 hPa 0,0 l/m 8,3 km/h (2 Bft) W 274 0 min 0,000 mm 0,0 UV-I 15 W/m 10,5 C 10,6 C 12,9 km/h (3 Bft) 100,00 %
26.04.2018 06:59 11,8 C 18,9 C 92 % 1013,6 hPa 0,0 l/m 12,2 km/h (2 Bft) W 277 0 min 0,000 mm 0,0 UV-I 16 W/m 10,5 C 8,5 C 16,1 km/h (3 Bft) 100,00 %
26.04.2018 07:00 11,8 C 18,9 C 92 % 1013,6 hPa 0,0 l/m 11,3 km/h (2 Bft) W 277 0 min 0,000 mm 0,0 UV-I 18 W/m 10,5 C 8,9 C 12,9 km/h (3 Bft) 100,00 %
26.04.2018 07:01 11,8 C 18,9 C 92 % 1013,6 hPa 0,0 l/m 8,5 km/h (2 Bft) W 266 0 min 0,025 mm 0,0 UV-I 18 W/m 10,5 C 10,4 C 12,9 km/h (3 Bft) 100,00 %
26.04.2018 07:02 11,8 C 18,9 C 93 % 1013,6 hPa 0,0 l/m 9,8 km/h (2 Bft) W 272 0 min 0,000 mm 0,0 UV-I 16 W/m 10,7 C 9,7 C 12,9 km/h (3 Bft) 100,00 %
26.04.2018 07:03 11,8 C 18,9 C 93 % 1013,7 hPa 0,0 l/m 7,3 km/h (2 Bft) W-SW 257 0 min 0,000 mm 0,0 UV-I 15 W/m 10,7 C 11,2 C 9,7 km/h (2 Bft) 100,00 %
26.04.2018 07:04 11,8 C 18,9 C 93 % 1013,7 hPa 0,0 l/m 10,9 km/h (2 Bft) W-SW 250 0 min 0,000 mm 0,0 UV-I 14 W/m 10,7 C 9,1 C 14,5 km/h (3 Bft) 100,00 %
26.04.2018 07:05 11,8 C 18,9 C 93 % 1013,8 hPa 0,2 l/m 10,6 km/h (2 Bft) W 269 0 min 0,000 mm 0,0 UV-I 14 W/m 10,7 C 9,3 C 12,9 km/h (3 Bft) 100,00 %
26.04.2018 07:06 11,8 C 18,9 C 93 % 1013,7 hPa 0,0 l/m 5,9 km/h (2 Bft) W 273 0 min 0,000 mm 0,0 UV-I 14 W/m 10,7 C 11,8 C 9,7 km/h (2 Bft) 100,00 %
26.04.2018 07:07 11,8 C 18,9 C 93 % 1013,7 hPa 0,0 l/m 5,4 km/h (1 Bft) W 261 0 min 0,000 mm 0,0 UV-I 13 W/m 10,7 C 11,8 C 9,7 km/h (2 Bft) 100,00 %
26.04.2018 07:08 11,8 C 18,9 C 93 % 1013,9 hPa 0,0 l/m 6,5 km/h (2 Bft) W 269 0 min 0,000 mm 0,0 UV-I 12 W/m 10,7 C 11,8 C 9,7 km/h (2 Bft) 100,00 %
26.04.2018 07:09 11,9 C 18,9 C 93 % 1013,9 hPa 0,0 l/m 7,9 km/h (2 Bft) W 269 0 min 0,000 mm 0,0 UV-I 12 W/m 10,8 C 10,9 C 12,9 km/h (3 Bft) 100,00 %
26.04.2018 07:10 11,8 C 18,9 C 93 % 1013,9 hPa 0,0 l/m 12,5 km/h (3 Bft) W 266 0 min 0,000 mm 0,0 UV-I 16 W/m 10,7 C 8,4 C 14,5 km/h (3 Bft) 100,00 %
26.04.2018 07:11 11,8 C 18,9 C 93 % 1013,9 hPa 0,0 l/m 9,7 km/h (2 Bft) W-SW 254 0 min 0,000 mm 0,0 UV-I 22 W/m 10,7 C 9,7 C 14,5 km/h (3 Bft) 100,00 %
26.04.2018 07:12 11,8 C 18,9 C 93 % 1013,8 hPa 0,2 l/m 4,4 km/h (1 Bft) W-SW 239 0 min 0,000 mm 0,0 UV-I 25 W/m 10,7 C 11,8 C 6,4 km/h (2 Bft) 100,00 %
26.04.2018 07:13 11,8 C 18,9 C 93 % 1013,7 hPa 0,0 l/m 7,1 km/h (2 Bft) W-SW 247 0 min 0,000 mm 0,0 UV-I 25 W/m 10,7 C 11,3 C 11,3 km/h (2 Bft) 100,00 %
26.04.2018 07:14 11,8 C 18,9 C 93 % 1013,7 hPa 0,0 l/m 4,6 km/h (1 Bft) W-SW 238 0 min 0,000 mm 0,0 UV-I 25 W/m 10,7 C 11,8 C 6,4 km/h (2 Bft) 100,00 %
26.04.2018 07:15 11,8 C 18,9 C 93 % 1013,7 hPa 0,0 l/m 7,1 km/h (2 Bft) W-SW 254 0 min 0,000 mm 0,0 UV-I 25 W/m 10,7 C 11,3 C 9,7 km/h (2 Bft) 100,00 %
26.04.2018 07:16 11,8 C 18,9 C 93 % 1013,7 hPa 0,0 l/m 11,0 km/h (2 Bft) W-SW 245 0 min 0,000 mm 0,0 UV-I 25 W/m 10,7 C 9,1 C 16,1 km/h (3 Bft) 100,00 %
26.04.2018 07:17 11,8 C 18,9 C 93 % 1013,7 hPa 0,2 l/m 11,7 km/h (2 Bft) W-SW 244 0 min 0,000 mm 0,0 UV-I 25 W/m 10,7 C 8,7 C 14,5 km/h (3 Bft) 96,15 %
26.04.2018 07:18 11,9 C 18,9 C 93 % 1013,7 hPa 0,0 l/m 9,9 km/h (2 Bft) W-SW 241 0 min 0,000 mm 0,0 UV-I 25 W/m 10,8 C 9,7 C 12,9 km/h (3 Bft) 100,00 %
26.04.2018 07:19 11,8 C 18,9 C 93 % 1013,7 hPa 0,0 l/m 10,0 km/h (2 Bft) W-SW 246 0 min 0,000 mm 0,0 UV-I 25 W/m 10,7 C 9,6 C 14,5 km/h (3 Bft) 100,00 %
26.04.2018 07:20 11,8 C 18,9 C 93 % 1013,7 hPa 0,0 l/m 9,4 km/h (2 Bft) SW 223 0 min 0,000 mm 0,0 UV-I 27 W/m 10,7 C 9,9 C 12,9 km/h (3 Bft) 95,83 %
26.04.2018 07:21 11,8 C 18,9 C 93 % 1013,7 hPa 0,0 l/m 9,6 km/h (2 Bft) SW 221 0 min 0,000 mm 0,0 UV-I 29 W/m 10,7 C 9,8 C 14,5 km/h (3 Bft) 100,00 %
26.04.2018 07:22 11,8 C 18,9 C 93 % 1013,6 hPa 0,0 l/m 7,7 km/h (2 Bft) SW 229 0 min 0,000 mm 0,0 UV-I 31 W/m 10,7 C 10,9 C 14,5 km/h (3 Bft) 91,67 %
26.04.2018 07:23 11,9 C 18,9 C 94 % 1013,6 hPa 0,0 l/m 7,5 km/h (2 Bft) SW 217 0 min 0,000 mm 0,0 UV-I 33 W/m 11,0 C 11,2 C 11,3 km/h (2 Bft) 95,83 %
26.04.2018 07:24 11,8 C 18,9 C 94 % 1013,6 hPa 0,0 l/m 7,4 km/h (2 Bft) SW 234 0 min 0,000 mm 0,0 UV-I 33 W/m 10,9 C 11,1 C 11,3 km/h (2 Bft) 100,00 %
26.04.2018 07:25 11,8 C 18,9 C 93 % 1013,6 hPa 0,2 l/m 9,4 km/h (2 Bft) SW 218 0 min 0,000 mm 0,0 UV-I 33 W/m 10,7 C 9,9 C 11,3 km/h (2 Bft) 91,67 %
26.04.2018 07:26 11,8 C 18,9 C 93 % 1013,6 hPa 0,0 l/m 9,8 km/h (2 Bft) S 188 0 min 0,000 mm 0,0 UV-I 32 W/m 10,7 C 9,7 C 12,9 km/h (3 Bft) 100,00 %
26.04.2018 07:27 11,8 C 18,9 C 94 % 1013,6 hPa 0,0 l/m 6,2 km/h (2 Bft) SW 219 0 min 0,000 mm 0,0 UV-I 33 W/m 10,9 C 11,8 C 9,7 km/h (2 Bft) 95,83 %
26.04.2018 07:28 11,8 C 18,9 C 94 % 1013,6 hPa 0,0 l/m 7,0 km/h (2 Bft) SW 236 0 min 0,000 mm 0,0 UV-I 34 W/m 10,9 C 11,4 C 11,3 km/h (2 Bft) 100,00 %
26.04.2018 07:29 11,8 C 18,9 C 94 % 1013,6 hPa 0,0 l/m 6,0 km/h (2 Bft) S-SW 213 0 min 0,000 mm 0,0 UV-I 39 W/m 10,9 C 11,8 C 9,7 km/h (2 Bft) 95,83 %
26.04.2018 07:30 11,8 C 18,9 C 94 % 1013,6 hPa 0,0 l/m 8,0 km/h (2 Bft) W-SW 252 0 min 0,000 mm 0,0 UV-I 40 W/m 10,9 C 10,7 C 12,9 km/h (3 Bft) 96,15 %
26.04.2018 07:31 11,8 C 18,9 C 94 % 1013,7 hPa 0,0 l/m 8,6 km/h (2 Bft) S-SW 211 0 min 0,000 mm 0,0 UV-I 40 W/m 10,9 C 10,4 C 11,3 km/h (2 Bft) 95,83 %
26.04.2018 07:32 11,8 C 18,9 C 94 % 1013,8 hPa 0,0 l/m 11,5 km/h (2 Bft) W-SW 252 0 min 0,000 mm 0,0 UV-I 39 W/m 10,9 C 8,8 C 14,5 km/h (3 Bft) 95,65 %
26.04.2018 07:33 11,8 C 18,9 C 94 % 1013,8 hPa 0,0 l/m 7,7 km/h (2 Bft) SW 226 0 min 0,000 mm 0,0 UV-I 33 W/m 10,9 C 10,9 C 11,3 km/h (2 Bft) 100,00 %
26.04.2018 07:34 11,8 C 18,9 C 94 % 1013,8 hPa 0,0 l/m 9,5 km/h (2 Bft) S-SW 205 0 min 0,000 mm 0,0 UV-I 27 W/m 10,9 C 9,9 C 12,9 km/h (3 Bft) 96,15 %
26.04.2018 07:35 11,7 C 18,9 C 94 % 1013,9 hPa 0,0 l/m 8,2 km/h (2 Bft) SW 233 0 min 0,000 mm 0,0 UV-I 25 W/m 10,8 C 10,5 C 11,3 km/h (2 Bft) 100,00 %
26.04.2018 07:36 11,7 C 18,9 C 94 % 1013,9 hPa 0,0 l/m 9,7 km/h (2 Bft) SW 223 0 min 0,000 mm 0,0 UV-I 23 W/m 10,8 C 9,6 C 12,9 km/h (3 Bft) 95,65 %
26.04.2018 07:37 11,7 C 18,9 C 94 % 1013,9 hPa 0,0 l/m 9,5 km/h (2 Bft) W-SW 246 0 min 0,000 mm 0,0 UV-I 21 W/m 10,8 C 9,7 C 14,5 km/h (3 Bft) 100,00 %
26.04.2018 07:38 11,7 C 18,9 C 94 % 1013,8 hPa 0,0 l/m 10,8 km/h (2 Bft) W 261 0 min 0,000 mm 0,0 UV-I 21 W/m 10,8 C 9,1 C 14,5 km/h (3 Bft) 95,65 %
26.04.2018 07:39 11,7 C 18,9 C 94 % 1013,8 hPa 0,0 l/m 7,5 km/h (2 Bft) W-SW 244 0 min 0,000 mm 0,0 UV-I 21 W/m 10,8 C 11,0 C 11,3 km/h (2 Bft) 95,83 %
26.04.2018 07:40 11,7 C 18,9 C 94 % 1013,9 hPa 0,0 l/m 9,2 km/h (2 Bft) S-SW 209 0 min 0,000 mm 0,0 UV-I 21 W/m 10,8 C 9,9 C 12,9 km/h (3 Bft) 100,00 %
26.04.2018 07:41 11,7 C 18,9 C 94 % 1013,9 hPa 0,2 l/m 8,3 km/h (2 Bft) W-SW 244 0 min 0,000 mm 0,0 UV-I 21 W/m 10,8 C 10,5 C 12,9 km/h (3 Bft) 100,00 %
26.04.2018 07:42 11,8 C 18,9 C 94 % 1013,9 hPa 0,0 l/m 10,3 km/h (2 Bft) SW 227 0 min 0,000 mm 0,0 UV-I 21 W/m 10,9 C 9,4 C 12,9 km/h (3 Bft) 95,65 %
26.04.2018 07:43 11,8 C 18,9 C 94 % 1013,9 hPa 0,0 l/m 10,6 km/h (2 Bft) SW 219 0 min 0,000 mm 0,0 UV-I 24 W/m 10,9 C 9,3 C 16,1 km/h (3 Bft) 95,83 %
26.04.2018 07:44 11,8 C 18,9 C 94 % 1013,9 hPa 0,0 l/m 7,8 km/h (2 Bft) SW 229 0 min 0,000 mm 0,0 UV-I 26 W/m 10,9 C 10,9 C 11,3 km/h (2 Bft) 95,83 %
26.04.2018 07:45 11,8 C 18,9 C 94 % 1013,9 hPa 0,0 l/m 8,1 km/h (2 Bft) S-SW 198 0 min 0,000 mm 0,0 UV-I 30 W/m 10,9 C 10,7 C 12,9 km/h (3 Bft) 95,65 %
26.04.2018 07:46 11,8 C 18,9 C 94 % 1013,9 hPa 0,0 l/m 9,0 km/h (2 Bft) SW 221 0 min 0,000 mm 0,0 UV-I 37 W/m 10,9 C 10,1 C 12,9 km/h (3 Bft) 100,00 %
26.04.2018 07:47 11,8 C 18,9 C 94 % 1013,8 hPa 0,0 l/m 5,8 km/h (2 Bft) S-SW 198 0 min 0,000 mm 0,0 UV-I 47 W/m 10,9 C 11,8 C 8,0 km/h (2 Bft) 96,15 %
26.04.2018 07:48 11,8 C 18,9 C 94 % 1013,8 hPa 0,0 l/m 8,3 km/h (2 Bft) S-SW 205 0 min 0,000 mm 0,0 UV-I 56 W/m 10,9 C 10,6 C 11,3 km/h (2 Bft) 100,00 %
26.04.2018 07:49 11,8 C 18,9 C 94 % 1013,9 hPa 0,0 l/m 10,7 km/h (2 Bft) SW 215 0 min 0,000 mm 0,0 UV-I 61 W/m 10,9 C 9,2 C 16,1 km/h (3 Bft) 95,65 %
26.04.2018 07:50 11,8 C 18,9 C 94 % 1014,0 hPa 0,0 l/m 10,0 km/h (2 Bft) SW 220 0 min 0,000 mm 0,0 UV-I 64 W/m 10,9 C 9,6 C 16,1 km/h (3 Bft) 95,83 %
26.04.2018 07:51 11,8 C 18,9 C 94 % 1014,0 hPa 0,0 l/m 11,5 km/h (2 Bft) S-SW 205 0 min 0,000 mm 0,0 UV-I 63 W/m 10,9 C 8,8 C 16,1 km/h (3 Bft) 100,00 %
26.04.2018 07:52 11,8 C 18,9 C 94 % 1014,0 hPa 0,0 l/m 6,6 km/h (2 Bft) S 176 0 min 0,000 mm 0,0 UV-I 62 W/m 10,9 C 11,7 C 9,7 km/h (2 Bft) 100,00 %
26.04.2018 07:53 11,8 C 18,9 C 94 % 1014,0 hPa 0,0 l/m 8,9 km/h (2 Bft) S-SW 198 0 min 0,000 mm 0,0 UV-I 60 W/m 10,9 C 10,2 C 12,9 km/h (3 Bft) 96,15 %
26.04.2018 07:54 11,8 C 18,9 C 94 % 1014,0 hPa 0,0 l/m 11,3 km/h (2 Bft) SW 217 0 min 0,000 mm 0,0 UV-I 62 W/m 10,9 C 8,9 C 16,1 km/h (3 Bft) 95,83 %
26.04.2018 07:55 11,8 C 18,9 C 94 % 1014,0 hPa 0,0 l/m 11,1 km/h (2 Bft) S 182 0 min 0,000 mm 0,0 UV-I 62 W/m 10,9 C 9,0 C 14,5 km/h (3 Bft) 100,00 %
26.04.2018 07:56 11,8 C 18,9 C 94 % 1014,0 hPa 0,0 l/m 9,0 km/h (2 Bft) W-SW 249 0 min 0,000 mm 0,0 UV-I 62 W/m 10,9 C 10,1 C 11,3 km/h (2 Bft) 95,83 %
26.04.2018 07:57 11,8 C 18,9 C 94 % 1014,0 hPa 0,0 l/m 8,4 km/h (2 Bft) S-SW 208 0 min 0,000 mm 0,0 UV-I 61 W/m 10,9 C 10,5 C 12,9 km/h (3 Bft) 100,00 %
26.04.2018 07:58 11,8 C 18,9 C 94 % 1014,0 hPa 0,0 l/m 8,2 km/h (2 Bft) W-SW 249 0 min 0,000 mm 0,0 UV-I 56 W/m 10,9 C 10,6 C 12,9 km/h (3 Bft) 96,30 %
26.04.2018 07:59 11,8 C 18,9 C 94 % 1014,0 hPa 0,0 l/m 9,0 km/h (2 Bft) SW 221 0 min 0,000 mm 0,0 UV-I 56 W/m 10,9 C 10,1 C 14,5 km/h (3 Bft) 100,00 %
26.04.2018 08:00 11,8 C 18,9 C 94 % 1014,0 hPa 0,0 l/m 8,8 km/h (2 Bft) SW 216 0 min 0,026 mm 0,0 UV-I 57 W/m 10,9 C 10,3 C 11,3 km/h (2 Bft) 95,83 %
26.04.2018 08:02 11,8 C 18,9 C 94 % 1013,9 hPa 0,0 l/m 9,7 km/h (2 Bft) S-SW 202 0 min 0,000 mm 0,0 UV-I 63 W/m 10,9 C 9,7 C 14,5 km/h (3 Bft) 94,74 %
26.04.2018 08:03 11,8 C 18,9 C 94 % 1013,9 hPa 0,0 l/m 7,4 km/h (2 Bft) SW 233 0 min 0,000 mm 0,0 UV-I 73 W/m 10,9 C 11,1 C 11,3 km/h (2 Bft) 96,30 %
26.04.2018 08:04 11,8 C 18,9 C 94 % 1013,9 hPa 0,0 l/m 7,7 km/h (2 Bft) SW 223 0 min 0,000 mm 0,0 UV-I 74 W/m 10,9 C 10,9 C 9,7 km/h (2 Bft) 95,65 %
26.04.2018 08:05 11,9 C 18,9 C 94 % 1013,9 hPa 0,0 l/m 11,1 km/h (2 Bft) W-SW 250 0 min 0,000 mm 0,0 UV-I 71 W/m 11,0 C 9,1 C 16,1 km/h (3 Bft) 95,83 %
26.04.2018 08:06 11,9 C 18,9 C 94 % 1014,0 hPa 0,0 l/m 10,6 km/h (2 Bft) S-SW 211 0 min 0,000 mm 0,0 UV-I 66 W/m 11,0 C 9,4 C 16,1 km/h (3 Bft) 100,00 %
26.04.2018 08:07 11,9 C 18,9 C 94 % 1014,0 hPa 0,0 l/m 10,0 km/h (2 Bft) W-SW 237 0 min 0,000 mm 0,0 UV-I 63 W/m 11,0 C 9,7 C 14,5 km/h (3 Bft) 95,83 %
26.04.2018 08:08 11,9 C 18,9 C 94 % 1014,0 hPa 0,0 l/m 8,9 km/h (2 Bft) SW 227 0 min 0,000 mm 0,0 UV-I 62 W/m 11,0 C 10,3 C 14,5 km/h (3 Bft) 100,00 %
26.04.2018 08:09 11,9 C 18,9 C 94 % 1014,0 hPa 0,0 l/m 11,7 km/h (2 Bft) S-SW 210 0 min 0,000 mm 0,0 UV-I 62 W/m 11,0 C 8,8 C 14,5 km/h (3 Bft) 95,83 %
26.04.2018 08:10 11,9 C 18,9 C 94 % 1014,0 hPa 0,0 l/m 12,1 km/h (2 Bft) S-SW 211 0 min 0,000 mm 0,0 UV-I 59 W/m 11,0 C 8,7 C 17,7 km/h (3 Bft) 100,00 %
26.04.2018 08:11 11,9 C 18,9 C 94 % 1014,0 hPa 0,0 l/m 11,1 km/h (2 Bft) W-SW 239 0 min 0,000 mm 0,0 UV-I 60 W/m 11,0 C 9,1 C 16,1 km/h (3 Bft) 95,83 %
26.04.2018 08:12 11,9 C 18,9 C 94 % 1014,0 hPa 0,0 l/m 9,1 km/h (2 Bft) SW 224 0 min 0,000 mm 0,0 UV-I 64 W/m 11,0 C 10,2 C 14,5 km/h (3 Bft) 100,00 %
26.04.2018 08:13 11,9 C 18,9 C 94 % 1014,0 hPa 0,0 l/m 8,7 km/h (2 Bft) SW 232 0 min 0,000 mm 0,0 UV-I 69 W/m 11,0 C 10,4 C 12,9 km/h (3 Bft) 95,83 %
26.04.2018 08:14 11,9 C 18,9 C 94 % 1014,0 hPa 0,0 l/m 6,6 km/h (2 Bft) W 267 0 min 0,000 mm 0,0 UV-I 76 W/m 11,0 C 11,8 C 11,3 km/h (2 Bft) 95,65 %
26.04.2018 08:15 11,9 C 18,9 C 94 % 1014,0 hPa 0,0 l/m 10,5 km/h (2 Bft) W-SW 255 0 min 0,000 mm 0,0 UV-I 82 W/m 11,0 C 9,4 C 16,1 km/h (3 Bft) 95,83 %
26.04.2018 08:16 11,9 C 18,9 C 94 % 1014,0 hPa 0,0 l/m 8,9 km/h (2 Bft) W-SW 244 0 min 0,000 mm 0,0 UV-I 81 W/m 11,0 C 10,3 C 14,5 km/h (3 Bft) 91,30 %
26.04.2018 08:17 11,9 C 18,9 C 94 % 1014,0 hPa 0,0 l/m 13,3 km/h (3 Bft) SW 235 0 min 0,000 mm 0,0 UV-I 78 W/m 11,0 C 8,1 C 17,7 km/h (3 Bft) 100,00 %
26.04.2018 08:18 11,9 C 18,9 C 94 % 1014,1 hPa 0,0 l/m 6,7 km/h (2 Bft) W-SW 253 0 min 0,000 mm 0,0 UV-I 76 W/m 11,0 C 11,7 C 11,3 km/h (2 Bft) 91,30 %
26.04.2018 08:19 11,9 C 18,9 C 94 % 1014,0 hPa 0,0 l/m 6,1 km/h (2 Bft) SW 236 0 min 0,000 mm 0,0 UV-I 74 W/m 11,0 C 11,9 C 9,7 km/h (2 Bft) 100,00 %
26.04.2018 08:20 12,0 C 18,9 C 94 % 1014,0 hPa 0,0 l/m 8,3 km/h (2 Bft) SW 223 0 min 0,000 mm 0,0 UV-I 74 W/m 11,1 C 10,8 C 12,9 km/h (3 Bft) 91,30 %
26.04.2018 08:21 12,0 C 18,9 C 94 % 1014,1 hPa 0,0 l/m 9,7 km/h (2 Bft) W-SW 255 0 min 0,000 mm 0,0 UV-I 71 W/m 11,1 C 10,0 C 14,5 km/h (3 Bft) 91,67 %
26.04.2018 08:22 12,0 C 18,9 C 94 % 1014,1 hPa 0,0 l/m 10,4 km/h (2 Bft) W-SW 237 0 min 0,000 mm 0,0 UV-I 65 W/m 11,1 C 9,6 C 16,1 km/h (3 Bft) 91,67 %
26.04.2018 08:23 12,0 C 18,9 C 94 % 1014,1 hPa 0,0 l/m 12,2 km/h (2 Bft) SW 235 0 min 0,000 mm 0,0 UV-I 62 W/m 11,1 C 8,7 C 19,3 km/h (3 Bft) 91,30 %
26.04.2018 08:24 12,0 C 18,9 C 94 % 1014,1 hPa 0,0 l/m 14,6 km/h (3 Bft) W-SW 247 0 min 0,000 mm 0,0 UV-I 61 W/m 11,1 C 7,7 C 19,3 km/h (3 Bft) 95,83 %
26.04.2018 08:25 12,0 C 18,9 C 94 % 1014,1 hPa 0,0 l/m 11,5 km/h (2 Bft) W-SW 251 0 min 0,000 mm 0,0 UV-I 64 W/m 11,1 C 9,1 C 16,1 km/h (3 Bft) 86,96 %
26.04.2018 08:26 12,0 C 18,9 C 94 % 1014,1 hPa 0,0 l/m 11,7 km/h (2 Bft) W-SW 245 0 min 0,000 mm 0,0 UV-I 70 W/m 11,1 C 9,0 C 16,1 km/h (3 Bft) 95,83 %
26.04.2018 08:27 12,0 C 18,9 C 94 % 1014,2 hPa 0,0 l/m 11,4 km/h (2 Bft) W-SW 250 0 min 0,000 mm 0,0 UV-I 76 W/m 11,1 C 9,1 C 19,3 km/h (3 Bft) 95,65 %
26.04.2018 08:28 12,1 C 18,9 C 94 % 1014,2 hPa 0,0 l/m 11,7 km/h (2 Bft) S-SW 212 0 min 0,000 mm 0,0 UV-I 83 W/m 11,2 C 9,1 C 17,7 km/h (3 Bft) 95,83 %
26.04.2018 08:29 12,0 C 18,9 C 94 % 1014,1 hPa 0,0 l/m 14,3 km/h (3 Bft) W-SW 255 0 min 0,000 mm 0,0 UV-I 86 W/m 11,1 C 7,8 C 19,3 km/h (3 Bft) 100,00 %
26.04.2018 08:30 12,0 C 18,9 C 94 % 1014,2 hPa 0,0 l/m 12,7 km/h (3 Bft) W-SW 252 0 min 0,000 mm 0,0 UV-I 86 W/m 11,1 C 8,5 C 16,1 km/h (3 Bft) 95,83 %
26.04.2018 08:31 12,0 C 18,9 C 94 % 1014,2 hPa 0,0 l/m 11,7 km/h (2 Bft) SW 223 0 min 0,000 mm 0,0 UV-I 85 W/m 11,1 C 9,0 C 17,7 km/h (3 Bft) 91,30 %
26.04.2018 08:32 12,1 C 18,9 C 94 % 1014,2 hPa 0,0 l/m 11,7 km/h (2 Bft) SW 219 0 min 0,000 mm 0,0 UV-I 88 W/m 11,2 C 9,1 C 16,1 km/h (3 Bft) 91,67 %
26.04.2018 08:33 12,1 C 18,9 C 94 % 1014,2 hPa 0,0 l/m 10,7 km/h (2 Bft) W-SW 238 0 min 0,000 mm 0,0 UV-I 97 W/m 11,2 C 9,6 C 16,1 km/h (3 Bft) 100,00 %
26.04.2018 08:34 12,1 C 18,9 C 94 % 1014,2 hPa 0,0 l/m 8,4 km/h (2 Bft) W 267 0 min 0,000 mm 0,0 UV-I 109 W/m 11,2 C 10,8 C 11,3 km/h (2 Bft) 95,83 %
26.04.2018 08:35 12,1 C 18,9 C 94 % 1014,3 hPa 0,0 l/m 11,3 km/h (2 Bft) W-SW 255 0 min 0,000 mm 0,0 UV-I 114 W/m 11,2 C 9,3 C 14,5 km/h (3 Bft) 100,00 %
26.04.2018 08:36 12,1 C 18,9 C 94 % 1014,3 hPa 0,0 l/m 9,1 km/h (2 Bft) W 263 0 min 0,000 mm 0,0 UV-I 112 W/m 11,2 C 10,4 C 14,5 km/h (3 Bft) 95,83 %
26.04.2018 08:37 12,1 C 18,9 C 94 % 1014,3 hPa 0,0 l/m 10,9 km/h (2 Bft) W-SW 246 0 min 0,000 mm 0,0 UV-I 106 W/m 11,2 C 9,5 C 14,5 km/h (3 Bft) 95,65 %
26.04.2018 08:38 12,1 C 18,9 C 94 % 1014,3 hPa 0,0 l/m 10,9 km/h (2 Bft) W 267 0 min 0,000 mm 0,0 UV-I 100 W/m 11,2 C 9,5 C 14,5 km/h (3 Bft) 95,83 %
26.04.2018 08:39 12,1 C 18,9 C 94 % 1014,3 hPa 0,0 l/m 16,0 km/h (3 Bft) W 276 0 min 0,000 mm 0,0 UV-I 97 W/m 11,2 C 7,3 C 20,9 km/h (4 Bft) 96,15 %
26.04.2018 08:40 12,1 C 18,9 C 93 % 1014,3 hPa 0,0 l/m 15,0 km/h (3 Bft) W 273 0 min 0,000 mm 0,0 UV-I 100 W/m 11,0 C 7,7 C 22,5 km/h (4 Bft) 100,00 %
26.04.2018 08:41 12,1 C 18,9 C 94 % 1014,4 hPa 0,0 l/m 16,6 km/h (3 Bft) W 261 0 min 0,000 mm 0,0 UV-I 103 W/m 11,2 C 7,1 C 20,9 km/h (4 Bft) 95,65 %
26.04.2018 08:42 12,1 C 18,9 C 94 % 1014,4 hPa 0,0 l/m 10,8 km/h (2 Bft) W-SW 248 0 min 0,000 mm 0,0 UV-I 110 W/m 11,2 C 9,5 C 14,5 km/h (3 Bft) 100,00 %
26.04.2018 08:43 12,1 C 18,9 C 93 % 1014,3 hPa 0,0 l/m 15,5 km/h (3 Bft) W-SW 240 0 min 0,000 mm 0,0 UV-I 116 W/m 11,0 C 7,5 C 19,3 km/h (3 Bft) 91,30 %
26.04.2018 08:44 12,1 C 18,9 C 93 % 1014,3 hPa 0,0 l/m 14,8 km/h (3 Bft) SW 232 0 min 0,000 mm 0,3 UV-I 122 W/m 11,0 C 7,8 C 20,9 km/h (4 Bft) 100,00 %
26.04.2018 08:45 12,1 C 18,9 C 93 % 1014,2 hPa 0,0 l/m 15,7 km/h (3 Bft) SW 227 0 min 0,000 mm 0,5 UV-I 127 W/m 11,0 C 7,4 C 20,9 km/h (4 Bft) 91,67 %
26.04.2018 08:46 12,1 C 18,9 C 93 % 1014,2 hPa 0,0 l/m 14,8 km/h (3 Bft) W 264 0 min 0,000 mm 0,5 UV-I 139 W/m 11,0 C 7,8 C 20,9 km/h (4 Bft) 92,86 %
26.04.2018 08:47 12,1 C 18,9 C 93 % 1014,2 hPa 0,0 l/m 9,8 km/h (2 Bft) W-SW 246 0 min 0,000 mm 0,6 UV-I 153 W/m 11,0 C 10,0 C 14,5 km/h (3 Bft) 95,83 %
26.04.2018 08:48 12,2 C 18,9 C 94 % 1014,2 hPa 0,0 l/m 8,5 km/h (2 Bft) SW 224 0 min 0,000 mm 0,6 UV-I 160 W/m 11,3 C 10,9 C 12,9 km/h (3 Bft) 96,15 %
26.04.2018 08:49 12,2 C 18,9 C 93 % 1014,3 hPa 0,0 l/m 18,4 km/h (3 Bft) W-SW 245 0 min 0,000 mm 0,6 UV-I 158 W/m 11,1 C 6,6 C 24,1 km/h (4 Bft) 100,00 %
26.04.2018 08:50 12,2 C 18,9 C 93 % 1014,3 hPa 0,0 l/m 13,3 km/h (3 Bft) SW 236 0 min 0,000 mm 0,5 UV-I 150 W/m 11,1 C 8,5 C 17,7 km/h (3 Bft) 100,00 %
26.04.2018 08:51 12,2 C 18,9 C 93 % 1014,4 hPa 0,0 l/m 14,5 km/h (3 Bft) W-SW 258 0 min 0,000 mm 0,5 UV-I 142 W/m 11,1 C 8,0 C 19,3 km/h (3 Bft) 100,00 %
26.04.2018 08:52 12,2 C 18,9 C 93 % 1014,3 hPa 0,0 l/m 10,9 km/h (2 Bft) SW 223 0 min 0,000 mm 0,5 UV-I 138 W/m 11,1 C 9,6 C 16,1 km/h (3 Bft) 100,00 %
26.04.2018 08:53 12,2 C 18,9 C 93 % 1014,3 hPa 0,0 l/m 10,3 km/h (2 Bft) W-SW 252 0 min 0,000 mm 0,5 UV-I 133 W/m 11,1 C 9,9 C 14,5 km/h (3 Bft) 100,00 %
26.04.2018 08:54 12,2 C 18,9 C 93 % 1014,4 hPa 0,0 l/m 11,5 km/h (2 Bft) W 281 0 min 0,000 mm 0,4 UV-I 122 W/m 11,1 C 9,3 C 16,1 km/h (3 Bft) 100,00 %
26.04.2018 08:55 12,2 C 18,9 C 93 % 1014,4 hPa 0,0 l/m 12,9 km/h (3 Bft) W 259 0 min 0,000 mm 0,0 UV-I 108 W/m 11,1 C 8,6 C 17,7 km/h (3 Bft) 100,00 %
26.04.2018 08:56 12,2 C 18,9 C 93 % 1014,4 hPa 0,0 l/m 15,7 km/h (3 Bft) W-SW 254 0 min 0,000 mm 0,0 UV-I 96 W/m 11,1 C 7,5 C 20,9 km/h (4 Bft) 100,00 %
26.04.2018 08:57 12,2 C 18,9 C 93 % 1014,5 hPa 0,0 l/m 12,3 km/h (3 Bft) W 273 0 min 0,000 mm 0,0 UV-I 85 W/m 11,1 C 8,9 C 16,1 km/h (3 Bft) 91,67 %
26.04.2018 08:58 12,2 C 18,9 C 93 % 1014,5 hPa 0,0 l/m 11,3 km/h (2 Bft) W 261 0 min 0,000 mm 0,0 UV-I 84 W/m 11,1 C 9,4 C 17,7 km/h (3 Bft) 95,65 %
26.04.2018 08:59 12,2 C 18,3 C 93 % 1014,5 hPa 0,0 l/m 12,6 km/h (3 Bft) W 277 0 min 0,000 mm 0,0 UV-I 90 W/m 11,1 C 8,8 C 16,1 km/h (3 Bft) 100,00 %
26.04.2018 09:00 12,2 C 18,3 C 93 % 1014,5 hPa 0,0 l/m 13,7 km/h (3 Bft) SW 217 0 min 0,050 mm 0,0 UV-I 92 W/m 11,1 C 8,3 C 17,7 km/h (3 Bft) 100,00 %
26.04.2018 09:01 12,2 C 18,9 C 93 % 1014,5 hPa 0,0 l/m 10,7 km/h (2 Bft) W-SW 250 0 min 0,000 mm 0,0 UV-I 87 W/m 11,1 C 9,7 C 14,5 km/h (3 Bft) 100,00 %
26.04.2018 09:02 12,2 C 18,3 C 93 % 1014,6 hPa 0,0 l/m 13,2 km/h (3 Bft) W-SW 256 0 min 0,000 mm 0,0 UV-I 79 W/m 11,1 C 8,5 C 17,7 km/h (3 Bft) 100,00 %
26.04.2018 09:03 12,2 C 18,3 C 93 % 1014,6 hPa 0,0 l/m 11,7 km/h (2 Bft) W-SW 238 0 min 0,000 mm 0,0 UV-I 80 W/m 11,1 C 9,2 C 16,1 km/h (3 Bft) 100,00 %
26.04.2018 09:04 12,2 C 18,3 C 93 % 1014,6 hPa 0,0 l/m 9,9 km/h (2 Bft) W-SW 244 0 min 0,000 mm 0,0 UV-I 87 W/m 11,1 C 10,1 C 14,5 km/h (3 Bft) 100,00 %
26.04.2018 09:05 12,2 C 18,3 C 93 % 1014,6 hPa 0,0 l/m 12,3 km/h (3 Bft) W-SW 251 0 min 0,000 mm 0,0 UV-I 92 W/m 11,1 C 8,9 C 20,9 km/h (4 Bft) 100,00 %
26.04.2018 09:06 12,2 C 18,3 C 93 % 1014,6 hPa 0,0 l/m 15,8 km/h (3 Bft) W-SW 246 0 min 0,000 mm 0,0 UV-I 96 W/m 11,1 C 7,5 C 22,5 km/h (4 Bft) 100,00 %
26.04.2018 09:07 12,2 C 18,3 C 93 % 1014,7 hPa 0,0 l/m 10,7 km/h (2 Bft) W-SW 254 0 min 0,000 mm 0,0 UV-I 96 W/m 11,1 C 9,7 C 16,1 km/h (3 Bft) 95,65 %
26.04.2018 09:08 12,2 C 18,3 C 93 % 1014,7 hPa 0,0 l/m 15,9 km/h (3 Bft) W-SW 257 0 min 0,000 mm 0,0 UV-I 93 W/m 11,1 C 7,5 C 20,9 km/h (4 Bft) 100,00 %
26.04.2018 09:09 12,2 C 18,3 C 93 % 1014,6 hPa 0,0 l/m 14,0 km/h (3 Bft) W-SW 256 0 min 0,000 mm 0,0 UV-I 93 W/m 11,1 C 8,2 C 19,3 km/h (3 Bft) 100,00 %
26.04.2018 09:10 12,2 C 18,3 C 93 % 1014,7 hPa 0,0 l/m 13,7 km/h (3 Bft) W 261 0 min 0,000 mm 0,0 UV-I 88 W/m 11,1 C 8,3 C 16,1 km/h (3 Bft) 100,00 %
26.04.2018 09:11 12,2 C 18,3 C 93 % 1014,7 hPa 0,0 l/m 9,5 km/h (2 Bft) W 272 0 min 0,000 mm 0,0 UV-I 82 W/m 11,1 C 10,3 C 12,9 km/h (3 Bft) 95,65 %
26.04.2018 09:12 12,2 C 18,3 C 93 % 1014,7 hPa 0,0 l/m 14,7 km/h (3 Bft) SW 226 0 min 0,000 mm 0,0 UV-I 78 W/m 11,1 C 7,9 C 27,4 km/h (4 Bft) 100,00 %
26.04.2018 09:13 12,2 C 18,3 C 93 % 1014,7 hPa 0,0 l/m 13,7 km/h (3 Bft) W 266 0 min 0,000 mm 0,0 UV-I 77 W/m 11,1 C 8,3 C 27,4 km/h (4 Bft) 100,00 %
26.04.2018 09:14 12,1 C 18,3 C 93 % 1014,7 hPa 0,2 l/m 11,5 km/h (2 Bft) W 266 0 min 0,000 mm 0,0 UV-I 75 W/m 11,0 C 9,2 C 20,9 km/h (4 Bft) 100,00 %
26.04.2018 09:15 12,1 C 18,3 C 92 % 1014,7 hPa 0,0 l/m 22,7 km/h (4 Bft) W-SW 253 0 min 0,000 mm 0,0 UV-I 69 W/m 10,8 C 5,2 C 32,2 km/h (5 Bft) 100,00 %
26.04.2018 09:16 12,0 C 18,3 C 92 % 1014,7 hPa 0,0 l/m 22,4 km/h (4 Bft) SW 227 0 min 0,000 mm 0,0 UV-I 66 W/m 10,7 C 5,2 C 27,4 km/h (4 Bft) 100,00 %
26.04.2018 09:17 12,0 C 18,3 C 91 % 1014,7 hPa 0,0 l/m 20,1 km/h (4 Bft) W-NW 289 0 min 0,000 mm 0,0 UV-I 64 W/m 10,6 C 5,8 C 27,4 km/h (4 Bft) 100,00 %
26.04.2018 09:18 11,9 C 18,3 C 91 % 1014,7 hPa 0,0 l/m 15,5 km/h (3 Bft) SW 236 0 min 0,000 mm 0,0 UV-I 72 W/m 10,5 C 7,2 C 19,3 km/h (3 Bft) 100,00 %
26.04.2018 09:19 11,9 C 18,3 C 91 % 1014,9 hPa 0,0 l/m 12,7 km/h (3 Bft) W-SW 257 0 min 0,000 mm 0,0 UV-I 85 W/m 10,5 C 8,4 C 16,1 km/h (3 Bft) 100,00 %
26.04.2018 09:20 11,9 C 18,3 C 91 % 1014,9 hPa 0,0 l/m 12,7 km/h (3 Bft) W-NW 282 0 min 0,000 mm 0,0 UV-I 94 W/m 10,5 C 8,4 C 19,3 km/h (3 Bft) 100,00 %
26.04.2018 09:21 11,8 C 18,3 C 90 % 1014,9 hPa 0,0 l/m 18,1 km/h (3 Bft) W 272 0 min 0,000 mm 0,0 UV-I 92 W/m 10,2 C 6,2 C 24,1 km/h (4 Bft) 100,00 %
26.04.2018 09:22 11,8 C 18,3 C 89 % 1014,9 hPa 0,0 l/m 16,2 km/h (3 Bft) SW 217 0 min 0,000 mm 0,0 UV-I 79 W/m 10,0 C 6,9 C 22,5 km/h (4 Bft) 95,65 %
26.04.2018 09:23 11,7 C 18,3 C 88 % 1014,9 hPa 0,0 l/m 11,1 km/h (2 Bft) W-NW 288 0 min 0,000 mm 0,0 UV-I 62 W/m 9,8 C 8,9 C 14,5 km/h (3 Bft) 95,83 %
26.04.2018 09:24 11,6 C 18,3 C 87 % 1014,9 hPa 0,0 l/m 13,5 km/h (3 Bft) NW 317 0 min 0,000 mm 0,0 UV-I 49 W/m 9,5 C 7,7 C 22,5 km/h (4 Bft) 100,00 %
26.04.2018 09:25 11,6 C 18,3 C 87 % 1014,9 hPa 0,0 l/m 11,9 km/h (2 Bft) W 269 0 min 0,000 mm 0,0 UV-I 43 W/m 9,5 C 8,4 C 16,1 km/h (3 Bft) 100,00 %
26.04.2018 09:26 11,4 C 18,3 C 87 % 1014,9 hPa 0,0 l/m 10,4 km/h (2 Bft) W 269 0 min 0,000 mm 0,0 UV-I 44 W/m 9,3 C 8,9 C 20,9 km/h (4 Bft) 100,00 %
26.04.2018 09:27 11,4 C 18,3 C 87 % 1014,9 hPa 0,0 l/m 9,7 km/h (2 Bft) W 280 0 min 0,000 mm 0,0 UV-I 49 W/m 9,3 C 9,3 C 16,1 km/h (3 Bft) 100,00 %
26.04.2018 09:28 11,3 C 18,3 C 87 % 1014,9 hPa 0,2 l/m 11,1 km/h (2 Bft) W-NW 287 0 min 0,000 mm 0,0 UV-I 62 W/m 9,2 C 8,5 C 16,1 km/h (3 Bft) 100,00 %
26.04.2018 09:29 11,2 C 18,3 C 87 % 1014,9 hPa 0,0 l/m 11,1 km/h (2 Bft) W 273 0 min 0,000 mm 0,0 UV-I 76 W/m 9,1 C 8,3 C 17,7 km/h (3 Bft) 100,00 %
26.04.2018 09:30 11,2 C 18,3 C 88 % 1015,0 hPa 0,0 l/m 9,3 km/h (2 Bft) W-NW 298 0 min 0,000 mm 0,2 UV-I 89 W/m 9,3 C 9,3 C 14,5 km/h (3 Bft) 100,00 %
26.04.2018 09:31 11,2 C 18,3 C 88 % 1015,0 hPa 0,0 l/m 13,9 km/h (3 Bft) W 274 0 min 0,000 mm 0,5 UV-I 98 W/m 9,3 C 7,0 C 19,3 km/h (3 Bft) 100,00 %
26.04.2018 09:32 11,2 C 18,3 C 87 % 1015,0 hPa 0,0 l/m 12,9 km/h (3 Bft) W 262 0 min 0,000 mm 0,5 UV-I 102 W/m 9,1 C 7,5 C 17,7 km/h (3 Bft) 100,00 %
26.04.2018 09:33 11,2 C 18,3 C 87 % 1015,0 hPa 0,0 l/m 12,4 km/h (3 Bft) W-NW 302 0 min 0,000 mm 0,5 UV-I 97 W/m 9,1 C 7,7 C 17,7 km/h (3 Bft) 100,00 %
26.04.2018 09:34 11,1 C 18,3 C 87 % 1015,0 hPa 0,0 l/m 9,9 km/h (2 Bft) N-NW 339 0 min 0,000 mm 0,4 UV-I 92 W/m 9,0 C 8,9 C 16,1 km/h (3 Bft) 100,00 %
26.04.2018 09:35 11,1 C 18,3 C 87 % 1015,0 hPa 0,0 l/m 15,8 km/h (3 Bft) NW 318 0 min 0,000 mm 0,1 UV-I 89 W/m 9,0 C 6,2 C 20,9 km/h (4 Bft) 100,00 %
26.04.2018 09:36 11,1 C 18,3 C 87 % 1015,0 hPa 0,0 l/m 12,0 km/h (2 Bft) W-NW 286 0 min 0,000 mm 0,5 UV-I 90 W/m 9,0 C 7,8 C 16,1 km/h (3 Bft) 100,00 %
26.04.2018 09:37 11,1 C 18,3 C 87 % 1015,0 hPa 0,0 l/m 14,1 km/h (3 Bft) W-NW 302 0 min 0,000 mm 0,6 UV-I 99 W/m 9,0 C 6,8 C 20,9 km/h (4 Bft) 100,00 %
26.04.2018 09:38 11,0 C 18,3 C 87 % 1015,0 hPa 0,0 l/m 13,8 km/h (3 Bft) W-NW 286 0 min 0,000 mm 0,7 UV-I 117 W/m 8,9 C 6,8 C 22,5 km/h (4 Bft) 100,00 %
26.04.2018 09:39 11,0 C 18,3 C 87 % 1015,0 hPa 0,0 l/m 8,2 km/h (2 Bft) W 275 0 min 0,000 mm 0,7 UV-I 136 W/m 8,9 C 9,8 C 14,5 km/h (3 Bft) 100,00 %
26.04.2018 09:40 11,0 C 18,3 C 87 % 1015,0 hPa 0,2 l/m 8,6 km/h (2 Bft) W 279 0 min 0,000 mm 0,8 UV-I 158 W/m 8,9 C 9,5 C 14,5 km/h (3 Bft) 100,00 %
26.04.2018 09:41 10,9 C 18,3 C 88 % 1015,0 hPa 0,0 l/m 6,4 km/h (2 Bft) W-NW 283 0 min 0,000 mm 0,9 UV-I 194 W/m 9,0 C 10,9 C 11,3 km/h (2 Bft) 100,00 %
26.04.2018 09:42 10,9 C 18,3 C 88 % 1015,0 hPa 0,0 l/m 10,2 km/h (2 Bft) W 269 0 min 0,000 mm 1,0 UV-I 227 W/m 9,0 C 8,5 C 14,5 km/h (3 Bft) 100,00 %
26.04.2018 09:43 11,0 C 18,3 C 89 % 1015,0 hPa 0,0 l/m 10,2 km/h (2 Bft) W 265 0 min 0,000 mm 1,1 UV-I 251 W/m 9,3 C 8,6 C 12,9 km/h (3 Bft) 100,00 %
26.04.2018 09:44 11,1 C 18,3 C 89 % 1015,1 hPa 0,0 l/m 9,5 km/h (2 Bft) W-NW 286 0 min 0,000 mm 1,1 UV-I 264 W/m 9,4 C 9,1 C 19,3 km/h (3 Bft) 100,00 %
26.04.2018 09:45 11,1 C 18,3 C 89 % 1015,1 hPa 0,0 l/m 12,3 km/h (3 Bft) NW 321 0 min 0,000 mm 1,1 UV-I 261 W/m 9,4 C 7,6 C 17,7 km/h (3 Bft) 95,65 %
26.04.2018 09:46 11,2 C 18,3 C 88 % 1015,0 hPa 0,0 l/m 11,7 km/h (2 Bft) W-NW 300 0 min 0,000 mm 1,1 UV-I 259 W/m 9,3 C 8,0 C 19,3 km/h (3 Bft) 100,00 %
26.04.2018 09:47 11,2 C 18,3 C 88 % 1015,0 hPa 0,0 l/m 13,2 km/h (3 Bft) W-NW 297 0 min 0,000 mm 1,2 UV-I 269 W/m 9,3 C 7,3 C 27,4 km/h (4 Bft) 100,00 %
26.04.2018 09:48 11,2 C 18,3 C 86 % 1015,0 hPa 0,0 l/m 17,2 km/h (3 Bft) W 279 0 min 0,000 mm 1,2 UV-I 277 W/m 8,9 C 5,8 C 24,1 km/h (4 Bft) 100,00 %
26.04.2018 09:49 11,3 C 18,3 C 86 % 1015,0 hPa 0,0 l/m 12,6 km/h (3 Bft) W-SW 253 0 min 0,000 mm 1,2 UV-I 271 W/m 9,0 C 7,7 C 19,3 km/h (3 Bft) 100,00 %
26.04.2018 09:50 11,3 C 18,3 C 86 % 1015,0 hPa 0,0 l/m 8,6 km/h (2 Bft) SW 233 0 min 0,000 mm 1,1 UV-I 245 W/m 9,0 C 9,8 C 16,1 km/h (3 Bft) 100,00 %
26.04.2018 09:51 11,3 C 18,3 C 86 % 1015,1 hPa 0,0 l/m 8,9 km/h (2 Bft) W 265 0 min 0,000 mm 0,9 UV-I 198 W/m 9,0 C 9,7 C 14,5 km/h (3 Bft) 100,00 %
26.04.2018 09:52 11,3 C 18,3 C 86 % 1015,1 hPa 0,0 l/m 8,4 km/h (2 Bft) W-NW 290 0 min 0,000 mm 0,8 UV-I 169 W/m 9,0 C 10,0 C 14,5 km/h (3 Bft) 100,00 %
26.04.2018 09:53 11,3 C 18,3 C 86 % 1015,2 hPa 0,0 l/m 9,7 km/h (2 Bft) W-NW 288 0 min 0,000 mm 0,8 UV-I 160 W/m 9,0 C 9,2 C 14,5 km/h (3 Bft) 100,00 %
26.04.2018 09:54 11,3 C 18,3 C 87 % 1015,2 hPa 0,0 l/m 6,6 km/h (2 Bft) W-SW 254 0 min 0,000 mm 0,7 UV-I 155 W/m 9,2 C 11,2 C 9,7 km/h (2 Bft) 95,83 %
26.04.2018 09:55 11,3 C 18,3 C 87 % 1015,2 hPa 0,0 l/m 7,7 km/h (2 Bft) W 271 0 min 0,000 mm 0,7 UV-I 149 W/m 9,2 C 10,4 C 17,7 km/h (3 Bft) 100,00 %
26.04.2018 09:56 11,3 C 18,3 C 87 % 1015,1 hPa 0,0 l/m 14,0 km/h (3 Bft) W 274 0 min 0,000 mm 0,7 UV-I 146 W/m 9,2 C 7,1 C 19,3 km/h (3 Bft) 95,65 %
26.04.2018 09:57 11,3 C 18,3 C 86 % 1015,1 hPa 0,0 l/m 7,7 km/h (2 Bft) W 277 0 min 0,000 mm 0,7 UV-I 144 W/m 9,0 C 10,4 C 11,3 km/h (2 Bft) 100,00 %
26.04.2018 09:58 11,3 C 18,3 C 87 % 1015,1 hPa 0,0 l/m 9,9 km/h (2 Bft) W-SW 243 0 min 0,000 mm 0,7 UV-I 144 W/m 9,2 C 9,1 C 14,5 km/h (3 Bft) 95,65 %
26.04.2018 09:59 11,3 C 18,3 C 86 % 1015,2 hPa 0,0 l/m 13,5 km/h (3 Bft) W 263 0 min 0,000 mm 0,7 UV-I 134 W/m 9,0 C 7,3 C 19,3 km/h (3 Bft) 100,00 %
26.04.2018 10:00 11,3 C 18,3 C 85 % 1015,2 hPa 0,0 l/m 10,2 km/h (2 Bft) W 265 0 min 0,077 mm 0,5 UV-I 115 W/m 8,9 C 8,9 C 16,1 km/h (3 Bft) 100,00 %
26.04.2018 10:01 11,3 C 18,3 C 86 % 1015,2 hPa 0,0 l/m 9,9 km/h (2 Bft) W 273 0 min 0,000 mm 0,5 UV-I 102 W/m 9,0 C 9,1 C 14,5 km/h (3 Bft) 100,00 %
26.04.2018 10:02 11,2 C 18,3 C 85 % 1015,2 hPa 0,0 l/m 9,9 km/h (2 Bft) W 281 0 min 0,000 mm 0,5 UV-I 92 W/m 8,8 C 9,0 C 14,5 km/h (3 Bft) 100,00 %
26.04.2018 10:03 11,2 C 18,3 C 85 % 1015,3 hPa 0,0 l/m 12,6 km/h (3 Bft) W 281 0 min 0,000 mm 0,0 UV-I 83 W/m 8,8 C 7,6 C 19,3 km/h (3 Bft) 100,00 %
26.04.2018 10:04 11,2 C 18,3 C 86 % 1015,3 hPa 0,0 l/m 10,1 km/h (2 Bft) W-SW 256 0 min 0,000 mm 0,0 UV-I 79 W/m 8,9 C 8,9 C 14,5 km/h (3 Bft) 100,00 %
26.04.2018 10:05 11,1 C 18,3 C 85 % 1015,3 hPa 0,0 l/m 10,1 km/h (2 Bft) W 266 0 min 0,000 mm 0,0 UV-I 75 W/m 8,7 C 8,8 C 14,5 km/h (3 Bft) 100,00 %
26.04.2018 10:06 11,1 C 18,3 C 85 % 1015,3 hPa 0,0 l/m 9,2 km/h (2 Bft) W 267 0 min 0,000 mm 0,0 UV-I 73 W/m 8,7 C 9,3 C 16,1 km/h (3 Bft) 100,00 %
26.04.2018 10:07 11,1 C 18,3 C 85 % 1015,3 hPa 0,0 l/m 10,1 km/h (2 Bft) W 271 0 min 0,000 mm 0,0 UV-I 72 W/m 8,7 C 8,8 C 12,9 km/h (3 Bft) 100,00 %
26.04.2018 10:08 11,1 C 18,3 C 86 % 1015,3 hPa 0,0 l/m 9,9 km/h (2 Bft) W 264 0 min 0,000 mm 0,0 UV-I 80 W/m 8,8 C 8,9 C 14,5 km/h (3 Bft) 100,00 %
26.04.2018 10:09 11,0 C 18,3 C 86 % 1015,3 hPa 0,0 l/m 11,1 km/h (2 Bft) W 261 0 min 0,000 mm 0,5 UV-I 96 W/m 8,7 C 8,1 C 14,5 km/h (3 Bft) 100,00 %
26.04.2018 10:10 11,0 C 18,3 C 86 % 1015,3 hPa 0,0 l/m 11,4 km/h (2 Bft) W 277 0 min 0,000 mm 0,6 UV-I 114 W/m 8,7 C 8,0 C 14,5 km/h (3 Bft) 100,00 %
26.04.2018 10:11 10,9 C 18,3 C 86 % 1015,4 hPa 0,0 l/m 20,9 km/h (4 Bft) W-NW 294 0 min 0,000 mm 0,6 UV-I 131 W/m 8,7 C 4,2 C 32,2 km/h (5 Bft) 100,00 %
26.04.2018 10:12 10,9 C 18,3 C 86 % 1015,3 hPa 0,0 l/m 13,6 km/h (3 Bft) W 259 0 min 0,000 mm 0,7 UV-I 142 W/m 8,7 C 6,8 C 17,7 km/h (3 Bft) 100,00 %
26.04.2018 10:13 10,9 C 18,3 C 86 % 1015,4 hPa 0,0 l/m 11,9 km/h (2 Bft) W 261 0 min 0,000 mm 0,7 UV-I 141 W/m 8,7 C 7,6 C 17,7 km/h (3 Bft) 100,00 %
26.04.2018 10:14 10,9 C 18,3 C 86 % 1015,3 hPa 0,0 l/m 12,1 km/h (2 Bft) W 266 0 min 0,000 mm 0,7 UV-I 138 W/m 8,7 C 7,5 C 17,7 km/h (3 Bft) 95,65 %
26.04.2018 10:15 10,9 C 18,3 C 87 % 1015,4 hPa 0,0 l/m 10,5 km/h (2 Bft) W-SW 248 0 min 0,000 mm 0,7 UV-I 142 W/m 8,8 C 8,3 C 17,7 km/h (3 Bft) 100,00 %
26.04.2018 10:16 10,9 C 18,3 C 87 % 1015,4 hPa 0,0 l/m 12,6 km/h (3 Bft) W-SW 248 0 min 0,000 mm 0,7 UV-I 145 W/m 8,8 C 7,3 C 17,7 km/h (3 Bft) 100,00 %
26.04.2018 10:17 10,8 C 18,3 C 86 % 1015,4 hPa 0,0 l/m 14,0 km/h (3 Bft) W-NW 292 0 min 0,000 mm 0,7 UV-I 146 W/m 8,6 C 6,5 C 20,9 km/h (4 Bft) 100,00 %
26.04.2018 10:18 10,8 C 18,3 C 86 % 1015,4 hPa 0,0 l/m 17,0 km/h (3 Bft) NW 313 0 min 0,000 mm 0,7 UV-I 141 W/m 8,6 C 5,3 C 22,5 km/h (4 Bft) 97,93 %
26.04.2018 10:19 10,8 C 18,3 C 86 % 1015,4 hPa 0,0 l/m 15,1 km/h (3 Bft) NW 314 0 min 0,000 mm 0,6 UV-I 131 W/m 8,6 C 6,1 C 19,3 km/h (3 Bft) 97,56 %
26.04.2018 10:20 10,8 C 18,3 C 86 % 1015,4 hPa 0,0 l/m 13,1 km/h (3 Bft) W 269 0 min 0,000 mm 0,6 UV-I 116 W/m 8,6 C 6,9 C 19,3 km/h (3 Bft) 91,67 %
26.04.2018 10:21 10,8 C 18,3 C 87 % 1015,5 hPa 0,0 l/m 13,1 km/h (3 Bft) W-NW 288 0 min 0,000 mm 0,6 UV-I 108 W/m 8,7 C 6,9 C 19,3 km/h (3 Bft) 100,00 %
26.04.2018 10:22 10,7 C 18,3 C 87 % 1015,5 hPa 0,0 l/m 13,6 km/h (3 Bft) W 266 0 min 0,000 mm 0,6 UV-I 105 W/m 8,6 C 6,6 C 17,7 km/h (3 Bft) 95,83 %
26.04.2018 10:23 10,7 C 18,3 C 86 % 1015,5 hPa 0,0 l/m 14,8 km/h (3 Bft) W-NW 288 0 min 0,000 mm 0,6 UV-I 106 W/m 8,5 C 6,1 C 22,5 km/h (4 Bft) 96,15 %
26.04.2018 10:24 10,7 C 18,3 C 86 % 1015,5 hPa 0,0 l/m 18,0 km/h (3 Bft) W 272 0 min 0,000 mm 0,6 UV-I 110 W/m 8,5 C 4,9 C 24,1 km/h (4 Bft) 100,00 %
26.04.2018 10:25 10,7 C 18,3 C 86 % 1015,6 hPa 0,0 l/m 14,6 km/h (3 Bft) W 271 0 min 0,000 mm 0,6 UV-I 107 W/m 8,5 C 6,1 C 19,3 km/h (3 Bft) 95,65 %
26.04.2018 10:26 10,7 C 18,3 C 87 % 1015,6 hPa 0,0 l/m 12,3 km/h (3 Bft) W 275 0 min 0,000 mm 0,5 UV-I 99 W/m 8,6 C 7,2 C 16,1 km/h (3 Bft) 100,00 %
26.04.2018 10:27 10,7 C 18,3 C 87 % 1015,6 hPa 0,0 l/m 17,3 km/h (3 Bft) W 281 0 min 0,000 mm 0,5 UV-I 94 W/m 8,6 C 5,1 C 24,1 km/h (4 Bft) 95,65 %
26.04.2018 10:28 10,7 C 18,3 C 87 % 1015,6 hPa 0,0 l/m 17,6 km/h (3 Bft) W-NW 284 0 min 0,000 mm 0,5 UV-I 93 W/m 8,6 C 5,0 C 29,0 km/h (5 Bft) 100,00 %
26.04.2018 10:29 10,7 C 18,3 C 86 % 1015,7 hPa 0,0 l/m 17,6 km/h (3 Bft) W-SW 248 0 min 0,000 mm 0,5 UV-I 96 W/m 8,5 C 5,0 C 25,7 km/h (4 Bft) 95,65 %
26.04.2018 10:30 10,7 C 18,3 C 86 % 1015,7 hPa 0,0 l/m 13,5 km/h (3 Bft) W 268 0 min 0,000 mm 0,5 UV-I 98 W/m 8,5 C 6,6 C 17,7 km/h (3 Bft) 95,83 %
26.04.2018 10:31 10,7 C 18,3 C 86 % 1015,6 hPa 0,0 l/m 11,2 km/h (2 Bft) W-SW 240 0 min 0,000 mm 0,5 UV-I 98 W/m 8,5 C 7,7 C 19,3 km/h (3 Bft) 100,00 %
26.04.2018 10:32 10,7 C 18,3 C 87 % 1015,7 hPa 0,0 l/m 10,9 km/h (2 Bft) W-NW 291 0 min 0,000 mm 0,6 UV-I 101 W/m 8,6 C 7,9 C 16,1 km/h (3 Bft) 95,83 %
26.04.2018 10:33 10,7 C 18,3 C 87 % 1015,7 hPa 0,0 l/m 8,0 km/h (2 Bft) W-SW 238 0 min 0,000 mm 0,6 UV-I 105 W/m 8,6 C 9,6 C 11,3 km/h (2 Bft) 100,00 %
26.04.2018 10:34 10,7 C 18,3 C 87 % 1015,7 hPa 0,0 l/m 11,6 km/h (2 Bft) W-SW 252 0 min 0,000 mm 0,6 UV-I 111 W/m 8,6 C 7,5 C 16,1 km/h (3 Bft) 93,33 %
26.04.2018 10:35 10,7 C 18,3 C 87 % 1015,7 hPa 0,0 l/m 12,4 km/h (3 Bft) W 263 0 min 0,000 mm 0,6 UV-I 113 W/m 8,6 C 7,1 C 20,9 km/h (4 Bft) 100,00 %
26.04.2018 10:36 10,7 C 18,3 C 87 % 1015,7 hPa 0,0 l/m 13,1 km/h (3 Bft) W 274 0 min 0,000 mm 0,6 UV-I 110 W/m 8,6 C 6,8 C 16,1 km/h (3 Bft) 95,65 %
26.04.2018 10:37 10,7 C 18,3 C 87 % 1015,7 hPa 0,0 l/m 9,5 km/h (2 Bft) W 260 0 min 0,000 mm 0,6 UV-I 105 W/m 8,6 C 8,7 C 16,1 km/h (3 Bft) 100,00 %
26.04.2018 10:38 10,7 C 18,3 C 87 % 1015,8 hPa 0,0 l/m 13,0 km/h (3 Bft) W 271 0 min 0,000 mm 0,5 UV-I 99 W/m 8,6 C 6,8 C 17,7 km/h (3 Bft) 95,65 %
26.04.2018 10:39 10,7 C 18,3 C 87 % 1015,8 hPa 0,0 l/m 10,1 km/h (2 Bft) W-NW 288 0 min 0,000 mm 0,5 UV-I 96 W/m 8,6 C 8,3 C 16,1 km/h (3 Bft) 100,00 %
26.04.2018 10:40 10,7 C 18,3 C 87 % 1015,9 hPa 0,0 l/m 6,0 km/h (2 Bft) W-SW 246 0 min 0,000 mm 0,5 UV-I 95 W/m 8,6 C 10,7 C 8,0 km/h (2 Bft) 95,65 %
26.04.2018 10:41 10,7 C 18,3 C 88 % 1015,9 hPa 0,0 l/m 8,6 km/h (2 Bft) W-SW 257 0 min 0,000 mm 0,5 UV-I 95 W/m 8,8 C 9,2 C 14,5 km/h (3 Bft) 95,83 %
26.04.2018 10:42 10,7 C 18,3 C 88 % 1015,8 hPa 0,0 l/m 7,9 km/h (2 Bft) W-SW 257 0 min 0,000 mm 0,5 UV-I 97 W/m 8,8 C 9,7 C 14,5 km/h (3 Bft) 100,00 %
26.04.2018 10:43 10,8 C 18,3 C 88 % 1015,8 hPa 0,0 l/m 9,8 km/h (2 Bft) W-SW 252 0 min 0,000 mm 0,6 UV-I 98 W/m 8,9 C 8,6 C 12,9 km/h (3 Bft) 95,83 %
26.04.2018 10:44 10,8 C 18,3 C 88 % 1015,9 hPa 0,0 l/m 12,5 km/h (3 Bft) W 266 0 min 0,000 mm 0,5 UV-I 97 W/m 8,9 C 7,2 C 14,5 km/h (3 Bft) 100,00 %
26.04.2018 10:45 10,8 C 18,3 C 88 % 1015,9 hPa 0,0 l/m 16,8 km/h (3 Bft) W 263 0 min 0,000 mm 0,5 UV-I 94 W/m 8,9 C 5,4 C 24,1 km/h (4 Bft) 96,30 %
26.04.2018 10:46 10,7 C 18,3 C 87 % 1015,9 hPa 0,0 l/m 13,4 km/h (3 Bft) W-SW 255 0 min 0,000 mm 0,5 UV-I 92 W/m 8,6 C 6,7 C 17,7 km/h (3 Bft) 92,31 %
26.04.2018 10:47 10,8 C 18,3 C 87 % 1016,0 hPa 0,0 l/m 11,8 km/h (2 Bft) W 277 0 min 0,000 mm 0,5 UV-I 91 W/m 8,7 C 7,5 C 14,5 km/h (3 Bft) 100,00 %
26.04.2018 10:48 10,8 C 18,3 C 87 % 1016,1 hPa 0,0 l/m 12,5 km/h (3 Bft) W-SW 252 0 min 0,000 mm 0,5 UV-I 90 W/m 8,7 C 7,2 C 20,9 km/h (4 Bft) 95,65 %
26.04.2018 10:49 10,7 C 18,3 C 87 % 1016,1 hPa 0,0 l/m 15,5 km/h (3 Bft) W 274 0 min 0,000 mm 0,5 UV-I 90 W/m 8,6 C 5,8 C 20,9 km/h (4 Bft) 100,00 %
26.04.2018 10:50 10,7 C 18,3 C 87 % 1016,1 hPa 0,0 l/m 15,2 km/h (3 Bft) W-SW 250 0 min 0,000 mm 0,5 UV-I 88 W/m 8,6 C 5,9 C 24,1 km/h (4 Bft) 91,30 %
26.04.2018 10:51 10,7 C 18,3 C 86 % 1016,1 hPa 0,0 l/m 16,1 km/h (3 Bft) W-SW 252 0 min 0,000 mm 0,5 UV-I 87 W/m 8,5 C 5,5 C 25,7 km/h (4 Bft) 100,00 %
26.04.2018 10:52 10,7 C 18,3 C 87 % 1016,1 hPa 0,0 l/m 15,3 km/h (3 Bft) SW 232 0 min 0,000 mm 0,5 UV-I 86 W/m 8,6 C 5,9 C 20,9 km/h (4 Bft) 95,83 %
26.04.2018 10:53 10,7 C 18,3 C 87 % 1016,1 hPa 0,0 l/m 19,2 km/h (3 Bft) W-SW 252 0 min 0,000 mm 0,5 UV-I 85 W/m 8,6 C 4,4 C 25,7 km/h (4 Bft) 100,00 %
26.04.2018 10:54 10,7 C 18,3 C 86 % 1016,2 hPa 0,0 l/m 15,6 km/h (3 Bft) W 274 0 min 0,000 mm 0,5 UV-I 83 W/m 8,5 C 5,7 C 19,3 km/h (3 Bft) 91,67 %
26.04.2018 10:55 10,7 C 18,3 C 87 % 1016,1 hPa 0,0 l/m 14,2 km/h (3 Bft) W-SW 250 0 min 0,000 mm 0,5 UV-I 84 W/m 8,6 C 6,3 C 17,7 km/h (3 Bft) 100,00 %
26.04.2018 10:56 10,7 C 18,3 C 87 % 1016,1 hPa 0,0 l/m 10,2 km/h (2 Bft) W-SW 243 0 min 0,000 mm 0,5 UV-I 89 W/m 8,6 C 8,3 C 12,9 km/h (3 Bft) 100,00 %
26.04.2018 10:57 10,7 C 18,3 C 87 % 1016,2 hPa 0,0 l/m 10,3 km/h (2 Bft) W-SW 244 0 min 0,000 mm 0,5 UV-I 96 W/m 8,6 C 8,2 C 20,9 km/h (4 Bft) 100,00 %
26.04.2018 10:58 10,6 C 18,3 C 87 % 1016,2 hPa 0,0 l/m 11,9 km/h (2 Bft) W-SW 255 0 min 0,000 mm 0,6 UV-I 106 W/m 8,5 C 7,3 C 19,3 km/h (3 Bft) 100,00 %
26.04.2018 10:59 10,7 C 18,3 C 87 % 1016,2 hPa 0,0 l/m 16,4 km/h (3 Bft) W-SW 246 0 min 0,000 mm 0,7 UV-I 116 W/m 8,6 C 5,4 C 24,1 km/h (4 Bft) 95,65 %
26.04.2018 11:00 10,6 C 18,3 C 87 % 1016,2 hPa 0,0 l/m 12,8 km/h (3 Bft) W 274 0 min 0,076 mm 0,7 UV-I 126 W/m 8,5 C 6,8 C 19,3 km/h (3 Bft) 100,00 %
26.04.2018 11:01 10,6 C 18,3 C 86 % 1016,2 hPa 0,0 l/m 16,1 km/h (3 Bft) W 273 0 min 0,000 mm 0,7 UV-I 130 W/m 8,4 C 5,4 C 25,7 km/h (4 Bft) 95,65 %
26.04.2018 11:02 10,6 C 18,3 C 86 % 1016,2 hPa 0,0 l/m 15,9 km/h (3 Bft) W 272 0 min 0,000 mm 0,7 UV-I 128 W/m 8,4 C 5,5 C 24,1 km/h (4 Bft) 100,00 %
26.04.2018 11:03 10,6 C 18,3 C 86 % 1016,2 hPa 0,0 l/m 11,9 km/h (2 Bft) W-SW 246 0 min 0,000 mm 0,7 UV-I 126 W/m 8,4 C 7,3 C 16,1 km/h (3 Bft) 96,15 %
26.04.2018 11:04 10,6 C 18,3 C 86 % 1016,2 hPa 0,0 l/m 11,6 km/h (2 Bft) W-SW 254 0 min 0,000 mm 0,7 UV-I 122 W/m 8,4 C 7,4 C 16,1 km/h (3 Bft) 100,00 %
26.04.2018 11:05 10,6 C 18,3 C 87 % 1016,3 hPa 0,0 l/m 11,8 km/h (2 Bft) W 263 0 min 0,000 mm 0,7 UV-I 121 W/m 8,5 C 7,3 C 16,1 km/h (3 Bft) 95,65 %
26.04.2018 11:06 10,6 C 18,3 C 87 % 1016,3 hPa 0,0 l/m 16,8 km/h (3 Bft) W 274 0 min 0,000 mm 0,7 UV-I 117 W/m 8,5 C 5,2 C 25,7 km/h (4 Bft) 100,00 %
26.04.2018 11:07 10,6 C 18,3 C 86 % 1016,3 hPa 0,0 l/m 15,9 km/h (3 Bft) SW 223 0 min 0,000 mm 0,7 UV-I 119 W/m 8,4 C 5,5 C 19,3 km/h (3 Bft) 100,00 %
26.04.2018 11:08 10,6 C 18,3 C 86 % 1016,3 hPa 0,0 l/m 12,1 km/h (2 Bft) W 265 0 min 0,000 mm 0,7 UV-I 122 W/m 8,4 C 7,2 C 19,3 km/h (3 Bft) 95,83 %
26.04.2018 11:09 10,6 C 18,3 C 87 % 1016,3 hPa 0,2 l/m 9,7 km/h (2 Bft) W 261 0 min 0,000 mm 0,7 UV-I 126 W/m 8,5 C 8,4 C 14,5 km/h (3 Bft) 96,15 %
26.04.2018 11:10 10,6 C 18,3 C 88 % 1016,3 hPa 0,0 l/m 7,3 km/h (2 Bft) W-SW 251 0 min 0,000 mm 0,7 UV-I 127 W/m 8,7 C 10,0 C 11,3 km/h (2 Bft) 95,83 %
26.04.2018 11:11 10,6 C 18,3 C 88 % 1016,3 hPa 0,0 l/m 16,2 km/h (3 Bft) W-NW 286 0 min 0,000 mm 0,7 UV-I 124 W/m 8,7 C 5,4 C 25,7 km/h (4 Bft) 95,65 %
26.04.2018 11:12 10,6 C 18,3 C 87 % 1016,3 hPa 0,0 l/m 13,7 km/h (3 Bft) NW 313 0 min 0,000 mm 0,7 UV-I 125 W/m 8,5 C 6,4 C 19,3 km/h (3 Bft) 91,67 %
26.04.2018 11:13 10,6 C 18,3 C 87 % 1016,3 hPa 0,0 l/m 11,3 km/h (2 Bft) W-SW 258 0 min 0,000 mm 0,8 UV-I 128 W/m 8,5 C 7,6 C 19,3 km/h (3 Bft) 95,65 %
26.04.2018 11:14 10,5 C 18,3 C 87 % 1016,3 hPa 0,0 l/m 13,2 km/h (3 Bft) W 277 0 min 0,000 mm 0,8 UV-I 139 W/m 8,4 C 6,5 C 17,7 km/h (3 Bft) 100,00 %
26.04.2018 11:15 10,5 C 18,3 C 87 % 1016,3 hPa 0,0 l/m 18,3 km/h (3 Bft) W-SW 253 0 min 0,000 mm 0,9 UV-I 142 W/m 8,4 C 4,5 C 22,5 km/h (4 Bft) 100,00 %
26.04.2018 11:16 10,5 C 18,3 C 87 % 1016,4 hPa 0,0 l/m 13,9 km/h (3 Bft) W 262 0 min 0,000 mm 0,8 UV-I 140 W/m 8,4 C 6,2 C 19,3 km/h (3 Bft) 96,15 %
26.04.2018 11:17 10,5 C 18,3 C 87 % 1016,4 hPa 0,0 l/m 18,9 km/h (3 Bft) SW 234 0 min 0,000 mm 0,8 UV-I 135 W/m 8,4 C 4,3 C 25,7 km/h (4 Bft) 95,83 %
26.04.2018 11:18 10,5 C 18,3 C 87 % 1016,4 hPa 0,0 l/m 13,9 km/h (3 Bft) W-SW 247 0 min 0,000 mm 0,8 UV-I 130 W/m 8,4 C 6,2 C 20,9 km/h (4 Bft) 100,00 %
26.04.2018 11:19 10,5 C 18,3 C 86 % 1016,4 hPa 0,0 l/m 18,0 km/h (3 Bft) W 261 0 min 0,000 mm 0,8 UV-I 131 W/m 8,3 C 4,6 C 22,5 km/h (4 Bft) 96,30 %
26.04.2018 11:20 10,5 C 18,3 C 86 % 1016,3 hPa 0,0 l/m 12,6 km/h (3 Bft) SW 217 0 min 0,000 mm 0,8 UV-I 134 W/m 8,3 C 6,8 C 19,3 km/h (3 Bft) 100,00 %
26.04.2018 11:21 10,5 C 18,3 C 87 % 1016,4 hPa 0,0 l/m 12,6 km/h (3 Bft) W 281 0 min 0,000 mm 0,8 UV-I 133 W/m 8,4 C 6,8 C 17,7 km/h (3 Bft) 95,83 %
26.04.2018 11:22 10,4 C 18,3 C 86 % 1016,4 hPa 0,0 l/m 18,0 km/h (3 Bft) W 261 0 min 0,000 mm 0,8 UV-I 132 W/m 8,2 C 4,5 C 25,7 km/h (4 Bft) 100,00 %
26.04.2018 11:23 10,4 C 18,3 C 87 % 1016,4 hPa 0,0 l/m 16,8 km/h (3 Bft) SW 234 0 min 0,000 mm 0,8 UV-I 128 W/m 8,3 C 4,9 C 20,9 km/h (4 Bft) 95,83 %
26.04.2018 11:24 10,4 C 18,3 C 87 % 1016,4 hPa 0,0 l/m 21,1 km/h (4 Bft) SW 231 0 min 0,000 mm 0,7 UV-I 125 W/m 8,3 C 3,5 C 37,0 km/h (5 Bft) 91,30 %
26.04.2018 11:25 10,4 C 18,3 C 86 % 1016,5 hPa 0,0 l/m 23,0 km/h (4 Bft) W-SW 257 0 min 0,000 mm 0,8 UV-I 126 W/m 8,2 C 2,9 C 35,4 km/h (5 Bft) 100,00 %
26.04.2018 11:26 10,3 C 18,3 C 86 % 1016,4 hPa 0,0 l/m 20,7 km/h (4 Bft) W-NW 292 0 min 0,000 mm 0,8 UV-I 127 W/m 8,1 C 3,5 C 27,4 km/h (4 Bft) 95,65 %
26.04.2018 11:27 10,3 C 18,3 C 86 % 1016,4 hPa 0,0 l/m 20,9 km/h (4 Bft) SW 227 0 min 0,000 mm 0,8 UV-I 129 W/m 8,1 C 3,4 C 30,6 km/h (5 Bft) 100,00 %
26.04.2018 11:28 10,3 C 18,3 C 85 % 1016,4 hPa 0,0 l/m 26,6 km/h (4 Bft) W-SW 252 0 min 0,000 mm 0,8 UV-I 130 W/m 7,9 C 1,8 C 32,2 km/h (5 Bft) 95,65 %
26.04.2018 11:29 10,3 C 18,3 C 85 % 1016,4 hPa 0,0 l/m 19,5 km/h (3 Bft) W 269 0 min 0,000 mm 0,8 UV-I 130 W/m 7,9 C 3,8 C 29,0 km/h (5 Bft) 100,00 %
26.04.2018 11:30 10,3 C 18,3 C 86 % 1016,4 hPa 0,0 l/m 15,1 km/h (3 Bft) W-SW 251 0 min 0,000 mm 0,8 UV-I 132 W/m 8,1 C 5,5 C 19,3 km/h (3 Bft) 93,33 %
26.04.2018 11:31 10,2 C 18,3 C 86 % 1016,4 hPa 0,0 l/m 18,9 km/h (3 Bft) W 265 0 min 0,000 mm 0,8 UV-I 129 W/m 8,0 C 3,9 C 24,1 km/h (4 Bft) 100,00 %
26.04.2018 11:32 10,2 C 18,3 C 86 % 1016,5 hPa 0,0 l/m 14,6 km/h (3 Bft) W-SW 254 0 min 0,000 mm 0,8 UV-I 127 W/m 8,0 C 5,5 C 20,9 km/h (4 Bft) 95,83 %
26.04.2018 11:33 10,2 C 18,3 C 86 % 1016,5 hPa 0,0 l/m 17,7 km/h (3 Bft) W 266 0 min 0,000 mm 0,8 UV-I 127 W/m 8,0 C 4,3 C 25,7 km/h (4 Bft) 95,65 %
26.04.2018 11:34 10,2 C 18,3 C 86 % 1016,5 hPa 0,0 l/m 19,0 km/h (3 Bft) W-SW 247 0 min 0,000 mm 0,8 UV-I 128 W/m 8,0 C 3,9 C 27,4 km/h (4 Bft) 95,83 %
26.04.2018 11:35 10,2 C 18,3 C 86 % 1016,5 hPa 0,0 l/m 20,5 km/h (4 Bft) SW 236 0 min 0,000 mm 0,8 UV-I 127 W/m 8,0 C 3,4 C 29,0 km/h (5 Bft) 100,00 %
26.04.2018 11:36 10,2 C 18,3 C 86 % 1016,5 hPa 0,0 l/m 18,8 km/h (3 Bft) W 264 0 min 0,000 mm 0,8 UV-I 125 W/m 8,0 C 3,9 C 25,7 km/h (4 Bft) 95,83 %
26.04.2018 11:37 10,2 C 18,3 C 86 % 1016,6 hPa 0,0 l/m 21,3 km/h (4 Bft) W 280 0 min 0,000 mm 0,8 UV-I 126 W/m 8,0 C 3,1 C 25,7 km/h (4 Bft) 95,65 %
26.04.2018 11:38 10,2 C 18,3 C 86 % 1016,6 hPa 0,0 l/m 18,0 km/h (3 Bft) W-SW 243 0 min 0,000 mm 0,8 UV-I 130 W/m 8,0 C 4,2 C 22,5 km/h (4 Bft) 95,83 %
26.04.2018 11:39 10,2 C 18,3 C 86 % 1016,6 hPa 0,0 l/m 15,9 km/h (3 Bft) W 259 0 min 0,000 mm 0,8 UV-I 139 W/m 8,0 C 5,0 C 20,9 km/h (4 Bft) 96,15 %
26.04.2018 11:40 10,1 C 18,3 C 86 % 1016,5 hPa 0,0 l/m 20,2 km/h (4 Bft) W-SW 242 0 min 0,000 mm 0,9 UV-I 150 W/m 7,9 C 3,4 C 27,4 km/h (4 Bft) 100,00 %
26.04.2018 11:41 10,1 C 18,3 C 86 % 1016,5 hPa 0,0 l/m 17,7 km/h (3 Bft) W-SW 242 0 min 0,000 mm 1,0 UV-I 168 W/m 7,9 C 4,2 C 25,7 km/h (4 Bft) 88,46 %
26.04.2018 11:42 10,2 C 18,3 C 87 % 1016,6 hPa 0,0 l/m 14,6 km/h (3 Bft) W-SW 244 0 min 0,000 mm 1,1 UV-I 185 W/m 8,1 C 5,5 C 20,9 km/h (4 Bft) 100,00 %
26.04.2018 11:43 10,2 C 18,3 C 87 % 1016,5 hPa 0,0 l/m 12,8 km/h (3 Bft) W-NW 290 0 min 0,000 mm 1,1 UV-I 195 W/m 8,1 C 6,4 C 19,3 km/h (3 Bft) 95,65 %
26.04.2018 11:44 10,2 C 18,3 C 87 % 1016,5 hPa 0,0 l/m 16,2 km/h (3 Bft) W 272 0 min 0,000 mm 1,2 UV-I 202 W/m 8,1 C 4,9 C 22,5 km/h (4 Bft) 100,00 %
26.04.2018 11:45 10,2 C 18,3 C 87 % 1016,5 hPa 0,0 l/m 12,2 km/h (2 Bft) W 267 0 min 0,000 mm 1,2 UV-I 209 W/m 8,1 C 6,6 C 17,7 km/h (3 Bft) 90,91 %
26.04.2018 11:46 10,2 C 18,3 C 88 % 1016,4 hPa 0,0 l/m 15,4 km/h (3 Bft) SW 230 0 min 0,000 mm 1,3 UV-I 218 W/m 8,3 C 5,2 C 20,9 km/h (4 Bft) 94,44 %
26.04.2018 11:47 10,2 C 18,3 C 87 % 1016,4 hPa 0,0 l/m 16,2 km/h (3 Bft) W 267 0 min 0,000 mm 1,4 UV-I 232 W/m 8,1 C 4,9 C 22,5 km/h (4 Bft) 100,00 %
26.04.2018 11:48 10,2 C 18,3 C 87 % 1016,4 hPa 0,0 l/m 13,6 km/h (3 Bft) W-SW 247 0 min 0,000 mm 1,4 UV-I 246 W/m 8,1 C 6,0 C 20,9 km/h (4 Bft) 100,00 %
26.04.2018 11:49 10,2 C 18,3 C 87 % 1016,5 hPa 0,0 l/m 15,6 km/h (3 Bft) W 267 0 min 0,000 mm 1,5 UV-I 258 W/m 8,1 C 5,1 C 22,5 km/h (4 Bft) 92,31 %
26.04.2018 11:50 10,3 C 18,3 C 87 % 1016,4 hPa 0,0 l/m 16,6 km/h (3 Bft) W-SW 256 0 min 0,000 mm 1,6 UV-I 272 W/m 8,2 C 4,9 C 22,5 km/h (4 Bft) 95,83 %
26.04.2018 11:51 10,3 C 18,3 C 87 % 1016,5 hPa 0,0 l/m 17,6 km/h (3 Bft) W-SW 254 0 min 0,000 mm 1,7 UV-I 284 W/m 8,2 C 4,5 C 22,5 km/h (4 Bft) 100,00 %
26.04.2018 11:52 10,3 C 18,3 C 87 % 1016,5 hPa 0,0 l/m 13,9 km/h (3 Bft) W 267 0 min 0,000 mm 1,6 UV-I 284 W/m 8,2 C 6,0 C 19,3 km/h (3 Bft) 95,65 %
26.04.2018 11:53 10,3 C 18,3 C 88 % 1016,5 hPa 0,0 l/m 11,9 km/h (2 Bft) W-SW 247 0 min 0,000 mm 1,5 UV-I 260 W/m 8,4 C 6,9 C 14,5 km/h (3 Bft) 100,00 %
26.04.2018 11:54 10,4 C 18,3 C 88 % 1016,5 hPa 0,0 l/m 17,2 km/h (3 Bft) SW 236 0 min 0,000 mm 1,3 UV-I 231 W/m 8,5 C 4,8 C 22,5 km/h (4 Bft) 95,83 %
26.04.2018 11:55 10,4 C 18,3 C 87 % 1016,5 hPa 0,0 l/m 13,6 km/h (3 Bft) W-SW 240 0 min 0,000 mm 1,3 UV-I 223 W/m 8,3 C 6,2 C 17,7 km/h (3 Bft) 100,00 %
26.04.2018 11:56 10,4 C 18,3 C 87 % 1016,5 hPa 0,0 l/m 18,6 km/h (3 Bft) W-SW 249 0 min 0,000 mm 1,3 UV-I 230 W/m 8,3 C 4,3 C 22,5 km/h (4 Bft) 95,65 %
26.04.2018 11:57 10,4 C 18,3 C 87 % 1016,6 hPa 0,0 l/m 13,6 km/h (3 Bft) W-SW 248 0 min 0,000 mm 1,4 UV-I 231 W/m 8,3 C 6,2 C 17,7 km/h (3 Bft) 95,83 %
26.04.2018 11:58 10,4 C 18,3 C 87 % 1016,6 hPa 0,0 l/m 15,2 km/h (3 Bft) SW 224 0 min 0,000 mm 1,4 UV-I 228 W/m 8,3 C 5,5 C 24,1 km/h (4 Bft) 100,00 %
26.04.2018 11:59 10,4 C 18,3 C 87 % 1016,6 hPa 0,0 l/m 17,6 km/h (3 Bft) SW 234 0 min 0,000 mm 1,4 UV-I 227 W/m 8,3 C 4,6 C 27,4 km/h (4 Bft) 95,83 %
26.04.2018 12:00 10,4 C 18,3 C 87 % 1016,6 hPa 0,0 l/m 15,0 km/h (3 Bft) SW 218 0 min 0,101 mm 1,4 UV-I 224 W/m 8,3 C 5,6 C 25,7 km/h (4 Bft) 95,65 %
26.04.2018 12:01 10,4 C 18,3 C 87 % 1016,6 hPa 0,0 l/m 18,6 km/h (3 Bft) W-SW 238 0 min 0,000 mm 1,3 UV-I 221 W/m 8,3 C 4,3 C 25,7 km/h (4 Bft) 95,83 %
26.04.2018 12:02 10,4 C 18,3 C 86 % 1016,5 hPa 0,0 l/m 17,0 km/h (3 Bft) W-NW 292 0 min 0,000 mm 1,3 UV-I 217 W/m 8,2 C 4,8 C 20,9 km/h (4 Bft) 100,00 %
26.04.2018 12:03 10,4 C 18,3 C 86 % 1016,5 hPa 0,0 l/m 16,7 km/h (3 Bft) W-SW 237 0 min 0,000 mm 1,4 UV-I 219 W/m 8,2 C 4,9 C 20,9 km/h (4 Bft) 93,33 %
26.04.2018 12:04 10,4 C 18,3 C 86 % 1016,5 hPa 0,0 l/m 19,7 km/h (3 Bft) W 271 0 min 0,000 mm 1,4 UV-I 232 W/m 8,2 C 3,9 C 27,4 km/h (4 Bft) 100,00 %
26.04.2018 12:05 10,4 C 18,3 C 86 % 1016,5 hPa 0,0 l/m 18,8 km/h (3 Bft) SW 231 0 min 0,000 mm 1,4 UV-I 238 W/m 8,2 C 4,2 C 25,7 km/h (4 Bft) 95,83 %
26.04.2018 12:06 10,5 C 18,3 C 86 % 1016,7 hPa 0,0 l/m 20,2 km/h (4 Bft) SW 216 0 min 0,000 mm 1,4 UV-I 231 W/m 8,3 C 3,9 C 27,4 km/h (4 Bft) 100,00 %
26.04.2018 12:07 10,5 C 18,3 C 86 % 1016,6 hPa 0,0 l/m 15,6 km/h (3 Bft) SW 226 0 min 0,000 mm 1,4 UV-I 229 W/m 8,3 C 5,5 C 24,1 km/h (4 Bft) 100,00 %
26.04.2018 12:08 10,5 C 18,3 C 86 % 1016,6 hPa 0,0 l/m 16,8 km/h (3 Bft) W 269 0 min 0,000 mm 1,3 UV-I 230 W/m 8,3 C 5,0 C 22,5 km/h (4 Bft) 100,00 %
26.04.2018 12:09 10,6 C 18,3 C 86 % 1016,6 hPa 0,0 l/m 13,2 km/h (3 Bft) SW 232 0 min 0,000 mm 1,4 UV-I 231 W/m 8,4 C 6,6 C 17,7 km/h (3 Bft) 100,00 %
26.04.2018 12:10 10,6 C 18,3 C 86 % 1016,6 hPa 0,0 l/m 14,1 km/h (3 Bft) SW 235 0 min 0,000 mm 1,4 UV-I 235 W/m 8,4 C 6,2 C 19,3 km/h (3 Bft) 100,00 %
26.04.2018 12:11 10,6 C 18,3 C 87 % 1016,6 hPa 0,0 l/m 14,9 km/h (3 Bft) SW 230 0 min 0,000 mm 1,4 UV-I 237 W/m 8,5 C 5,9 C 25,7 km/h (4 Bft) 100,00 %
26.04.2018 12:12 10,6 C 18,3 C 86 % 1016,6 hPa 0,0 l/m 13,4 km/h (3 Bft) W-SW 256 0 min 0,000 mm 1,4 UV-I 237 W/m 8,4 C 6,5 C 20,9 km/h (4 Bft) 100,00 %
26.04.2018 12:13 10,6 C 18,3 C 86 % 1016,6 hPa 0,0 l/m 13,9 km/h (3 Bft) W-SW 252 0 min 0,000 mm 1,4 UV-I 240 W/m 8,4 C 6,3 C 24,1 km/h (4 Bft) 100,00 %
26.04.2018 12:14 10,6 C 18,3 C 87 % 1016,5 hPa 0,0 l/m 18,0 km/h (3 Bft) SW 223 0 min 0,000 mm 1,4 UV-I 251 W/m 8,5 C 4,7 C 24,1 km/h (4 Bft) 100,00 %
26.04.2018 12:15 10,6 C 18,3 C 87 % 1016,5 hPa 0,0 l/m 18,0 km/h (3 Bft) SW 227 0 min 0,000 mm 1,6 UV-I 267 W/m 8,5 C 4,7 C 24,1 km/h (4 Bft) 100,00 %
26.04.2018 12:16 10,6 C 18,3 C 87 % 1016,6 hPa 0,0 l/m 18,8 km/h (3 Bft) SW 234 0 min 0,000 mm 1,7 UV-I 290 W/m 8,5 C 4,5 C 30,6 km/h (5 Bft) 100,00 %
26.04.2018 12:17 10,6 C 18,3 C 87 % 1016,6 hPa 0,0 l/m 25,2 km/h (4 Bft) SW 232 0 min 0,000 mm 1,8 UV-I 307 W/m 8,5 C 2,6 C 33,8 km/h (5 Bft) 100,00 %
26.04.2018 12:18 10,7 C 18,3 C 87 % 1016,5 hPa 0,0 l/m 21,2 km/h (4 Bft) W-SW 252 0 min 0,000 mm 1,8 UV-I 310 W/m 8,6 C 3,8 C 27,4 km/h (4 Bft) 100,00 %
26.04.2018 12:19 10,7 C 18,3 C 87 % 1016,5 hPa 0,0 l/m 12,9 km/h (3 Bft) W 272 0 min 0,000 mm 1,8 UV-I 308 W/m 8,6 C 6,9 C 19,3 km/h (3 Bft) 100,00 %
26.04.2018 12:20 10,7 C 18,3 C 87 % 1016,5 hPa 0,0 l/m 10,5 km/h (2 Bft) W-SW 247 0 min 0,000 mm 1,8 UV-I 307 W/m 8,6 C 8,1 C 16,1 km/h (3 Bft) 100,00 %
26.04.2018 12:21 10,7 C 18,3 C 88 % 1016,4 hPa 0,0 l/m 18,5 km/h (3 Bft) SW 223 0 min 0,000 mm 1,6 UV-I 296 W/m 8,8 C 4,7 C 27,4 km/h (4 Bft) 100,00 %
26.04.2018 12:22 10,7 C 18,3 C 87 % 1016,5 hPa 0,0 l/m 23,7 km/h (4 Bft) S-SW 211 0 min 0,000 mm 1,6 UV-I 281 W/m 8,6 C 3,1 C 33,8 km/h (5 Bft) 95,83 %
26.04.2018 12:23 10,7 C 18,3 C 87 % 1016,5 hPa 0,0 l/m 11,7 km/h (2 Bft) W-SW 238 0 min 0,000 mm 1,6 UV-I 280 W/m 8,6 C 7,5 C 16,1 km/h (3 Bft) 92,31 %
26.04.2018 12:24 10,8 C 18,3 C 87 % 1016,5 hPa 0,0 l/m 14,3 km/h (3 Bft) SW 227 0 min 0,000 mm 1,6 UV-I 282 W/m 8,7 C 6,4 C 19,3 km/h (3 Bft) 100,00 %
26.04.2018 12:25 10,8 C 18,3 C 87 % 1016,5 hPa 0,0 l/m 21,0 km/h (4 Bft) W-SW 244 0 min 0,000 mm 1,6 UV-I 279 W/m 8,7 C 4,0 C 29,0 km/h (5 Bft) 93,33 %
26.04.2018 12:26 10,8 C 18,3 C 86 % 1016,5 hPa 0,0 l/m 17,5 km/h (3 Bft) W-SW 249 0 min 0,000 mm 1,5 UV-I 263 W/m 8,6 C 5,2 C 24,1 km/h (4 Bft) 100,00 %
26.04.2018 12:27 10,8 C 18,3 C 86 % 1016,5 hPa 0,0 l/m 14,8 km/h (3 Bft) SW 236 0 min 0,000 mm 1,4 UV-I 247 W/m 8,6 C 6,2 C 24,1 km/h (4 Bft) 95,83 %
26.04.2018 12:28 10,8 C 18,3 C 87 % 1016,5 hPa 0,0 l/m 20,9 km/h (4 Bft) W-SW 248 0 min 0,000 mm 1,4 UV-I 246 W/m 8,7 C 4,0 C 29,0 km/h (5 Bft) 100,00 %
26.04.2018 12:29 10,8 C 18,3 C 86 % 1016,5 hPa 0,0 l/m 19,0 km/h (3 Bft) W-SW 238 0 min 0,000 mm 1,4 UV-I 245 W/m 8,6 C 4,6 C 25,7 km/h (4 Bft) 95,83 %
26.04.2018 12:30 10,8 C 18,3 C 86 % 1016,5 hPa 0,0 l/m 21,3 km/h (4 Bft) S-SW 197 0 min 0,000 mm 1,4 UV-I 243 W/m 8,6 C 3,9 C 25,7 km/h (4 Bft) 100,00 %
26.04.2018 12:31 10,8 C 18,3 C 86 % 1016,5 hPa 0,0 l/m 21,5 km/h (4 Bft) SW 221 0 min 0,000 mm 1,4 UV-I 241 W/m 8,6 C 3,9 C 32,2 km/h (5 Bft) 95,83 %
26.04.2018 12:32 10,8 C 18,3 C 85 % 1016,6 hPa 0,0 l/m 23,5 km/h (4 Bft) SW 227 0 min 0,000 mm 1,4 UV-I 239 W/m 8,4 C 3,3 C 32,2 km/h (5 Bft) 95,65 %
26.04.2018 12:33 10,8 C 18,3 C 85 % 1016,5 hPa 0,0 l/m 19,2 km/h (3 Bft) W-SW 250 0 min 0,000 mm 1,5 UV-I 246 W/m 8,4 C 4,6 C 30,6 km/h (5 Bft) 100,00 %
26.04.2018 12:34 10,8 C 18,3 C 84 % 1016,5 hPa 0,0 l/m 20,6 km/h (4 Bft) S-SW 213 0 min 0,000 mm 1,5 UV-I 260 W/m 8,2 C 4,1 C 30,6 km/h (5 Bft) 95,65 %
26.04.2018 12:35 10,8 C 18,3 C 85 % 1016,5 hPa 0,0 l/m 16,6 km/h (3 Bft) W 263 0 min 0,000 mm 1,5 UV-I 258 W/m 8,4 C 5,5 C 24,1 km/h (4 Bft) 95,83 %
26.04.2018 12:36 10,8 C 18,3 C 84 % 1016,5 hPa 0,0 l/m 14,3 km/h (3 Bft) W-SW 240 0 min 0,000 mm 1,4 UV-I 236 W/m 8,2 C 6,4 C 17,7 km/h (3 Bft) 91,30 %
26.04.2018 12:37 10,8 C 18,3 C 84 % 1016,5 hPa 0,0 l/m 20,5 km/h (4 Bft) W-SW 242 0 min 0,000 mm 1,3 UV-I 214 W/m 8,2 C 4,2 C 25,7 km/h (4 Bft) 100,00 %
26.04.2018 12:38 10,8 C 18,3 C 85 % 1016,6 hPa 0,0 l/m 19,0 km/h (3 Bft) W 277 0 min 0,000 mm 1,2 UV-I 197 W/m 8,4 C 4,6 C 30,6 km/h (5 Bft) 95,65 %
26.04.2018 12:39 10,8 C 18,3 C 84 % 1016,6 hPa 0,0 l/m 26,5 km/h (4 Bft) W-SW 257 0 min 0,000 mm 1,1 UV-I 187 W/m 8,2 C 2,6 C 41,8 km/h (6 Bft) 100,00 %
26.04.2018 12:40 10,8 C 18,3 C 84 % 1016,5 hPa 0,0 l/m 23,4 km/h (4 Bft) W 281 0 min 0,000 mm 1,1 UV-I 186 W/m 8,2 C 3,3 C 29,0 km/h (5 Bft) 95,65 %
26.04.2018 12:41 10,7 C 18,3 C 83 % 1016,5 hPa 0,0 l/m 25,5 km/h (4 Bft) SW 223 0 min 0,000 mm 1,1 UV-I 194 W/m 7,9 C 2,7 C 33,8 km/h (5 Bft) 95,83 %
26.04.2018 12:42 10,7 C 18,3 C 83 % 1016,5 hPa 0,0 l/m 19,9 km/h (4 Bft) W-SW 248 0 min 0,000 mm 1,2 UV-I 210 W/m 7,9 C 4,2 C 30,6 km/h (5 Bft) 95,65 %
26.04.2018 12:43 10,7 C 18,3 C 83 % 1016,5 hPa 0,0 l/m 24,9 km/h (4 Bft) SW 219 0 min 0,000 mm 1,3 UV-I 221 W/m 7,9 C 2,8 C 35,4 km/h (5 Bft) 95,83 %
26.04.2018 12:44 10,6 C 18,3 C 83 % 1016,5 hPa 0,0 l/m 19,2 km/h (3 Bft) W-SW 246 0 min 0,000 mm 1,5 UV-I 252 W/m 7,8 C 4,3 C 25,7 km/h (4 Bft) 100,00 %
26.04.2018 12:45 10,6 C 18,3 C 83 % 1016,4 hPa 0,0 l/m 23,3 km/h (4 Bft) SW 229 0 min 0,000 mm 1,6 UV-I 288 W/m 7,8 C 3,1 C 37,0 km/h (5 Bft) 95,83 %
26.04.2018 12:46 10,6 C 18,3 C 83 % 1016,6 hPa 0,0 l/m 27,6 km/h (4 Bft) W-SW 239 0 min 0,000 mm 1,9 UV-I 317 W/m 7,8 C 2,0 C 33,8 km/h (5 Bft) 100,00 %
26.04.2018 12:47 10,7 C 18,3 C 83 % 1016,5 hPa 0,0 l/m 24,9 km/h (4 Bft) W 269 0 min 0,000 mm 1,9 UV-I 336 W/m 7,9 C 2,8 C 32,2 km/h (5 Bft) 95,83 %
26.04.2018 12:48 10,7 C 18,3 C 83 % 1016,5 hPa 0,0 l/m 22,9 km/h (4 Bft) W-SW 242 0 min 0,000 mm 2,1 UV-I 353 W/m 7,9 C 3,3 C 29,0 km/h (5 Bft) 100,00 %
26.04.2018 12:49 10,7 C 18,3 C 84 % 1016,5 hPa 0,0 l/m 18,1 km/h (3 Bft) SW 231 0 min 0,000 mm 2,2 UV-I 369 W/m 8,1 C 4,8 C 25,7 km/h (4 Bft) 95,65 %
26.04.2018 12:50 10,8 C 18,3 C 84 % 1016,5 hPa 0,0 l/m 20,1 km/h (4 Bft) SW 218 0 min 0,000 mm 2,2 UV-I 375 W/m 8,2 C 4,3 C 27,4 km/h (4 Bft) 95,83 %
26.04.2018 12:51 10,9 C 18,3 C 84 % 1016,4 hPa 0,0 l/m 12,0 km/h (2 Bft) SW 236 0 min 0,000 mm 2,3 UV-I 394 W/m 8,3 C 7,6 C 16,1 km/h (3 Bft) 100,00 %
26.04.2018 12:52 10,9 C 18,3 C 84 % 1016,5 hPa 0,0 l/m 22,8 km/h (4 Bft) SW 232 0 min 0,000 mm 2,4 UV-I 418 W/m 8,3 C 3,6 C 40,2 km/h (6 Bft) 95,83 %
26.04.2018 12:53 11,0 C 18,3 C 84 % 1016,4 hPa 0,0 l/m 24,3 km/h (4 Bft) SW 223 0 min 0,000 mm 2,5 UV-I 424 W/m 8,4 C 3,4 C 33,8 km/h (5 Bft) 100,00 %
26.04.2018 12:54 11,0 C 18,3 C 83 % 1016,4 hPa 0,0 l/m 22,5 km/h (4 Bft) S 182 0 min 0,000 mm 2,6 UV-I 437 W/m 8,2 C 3,8 C 32,2 km/h (5 Bft) 95,83 %
26.04.2018 12:55 11,0 C 18,3 C 82 % 1016,5 hPa 0,0 l/m 24,2 km/h (4 Bft) SW 236 0 min 0,000 mm 2,6 UV-I 441 W/m 8,0 C 3,4 C 33,8 km/h (5 Bft) 100,00 %
26.04.2018 12:56 11,1 C 18,3 C 82 % 1016,5 hPa 0,0 l/m 22,0 km/h (4 Bft) W-SW 245 0 min 0,000 mm 2,4 UV-I 425 W/m 8,1 C 4,1 C 35,4 km/h (5 Bft) 100,00 %
26.04.2018 12:57 11,1 C 18,3 C 83 % 1016,4 hPa 0,0 l/m 17,0 km/h (3 Bft) W-SW 241 0 min 0,000 mm 2,4 UV-I 414 W/m 8,3 C 5,7 C 27,4 km/h (4 Bft) 100,00 %
26.04.2018 12:58 11,1 C 18,3 C 83 % 1016,4 hPa 0,0 l/m 21,2 km/h (4 Bft) W-SW 255 0 min 0,000 mm 2,3 UV-I 388 W/m 8,3 C 4,3 C 30,6 km/h (5 Bft) 100,00 %
26.04.2018 12:59 11,2 C 18,3 C 83 % 1016,4 hPa 0,0 l/m 20,4 km/h (4 Bft) S-SW 207 0 min 0,000 mm 2,2 UV-I 370 W/m 8,4 C 4,7 C 25,7 km/h (4 Bft) 86,96 %
26.04.2018 13:00 11,3 C 18,3 C 83 % 1016,4 hPa 0,0 l/m 19,4 km/h (3 Bft) W-SW 257 0 min 0,153 mm 2,1 UV-I 356 W/m 8,5 C 5,2 C 25,7 km/h (4 Bft) 100,00 %
26.04.2018 13:02 11,3 C 18,3 C 82 % 1016,5 hPa 0,0 l/m 22,8 km/h (4 Bft) SW 229 0 min 0,000 mm 2,0 UV-I 343 W/m 8,3 C 4,2 C 40,2 km/h (6 Bft) 100,00 %
26.04.2018 13:03 11,3 C 18,3 C 81 % 1016,5 hPa 0,0 l/m 26,8 km/h (4 Bft) SW 228 0 min 0,000 mm 2,0 UV-I 338 W/m 8,2 C 3,2 C 38,6 km/h (5 Bft) 100,00 %
26.04.2018 13:04 11,3 C 18,3 C 80 % 1016,5 hPa 0,0 l/m 27,5 km/h (4 Bft) SW 231 0 min 0,000 mm 2,1 UV-I 349 W/m 8,0 C 3,0 C 37,0 km/h (5 Bft) 95,83 %
26.04.2018 13:05 11,2 C 18,3 C 81 % 1016,5 hPa 0,0 l/m 25,1 km/h (4 Bft) S-SW 204 0 min 0,000 mm 2,1 UV-I 362 W/m 8,1 C 3,4 C 30,6 km/h (5 Bft) 100,00 %
26.04.2018 13:06 11,2 C 18,3 C 80 % 1016,5 hPa 0,0 l/m 27,7 km/h (4 Bft) SW 215 0 min 0,000 mm 2,3 UV-I 389 W/m 7,9 C 2,8 C 40,2 km/h (6 Bft) 95,65 %
26.04.2018 13:07 11,2 C 18,3 C 80 % 1016,5 hPa 0,0 l/m 25,6 km/h (4 Bft) S-SW 211 0 min 0,000 mm 2,3 UV-I 398 W/m 7,9 C 3,3 C 35,4 km/h (5 Bft) 100,00 %
26.04.2018 13:08 11,2 C 18,3 C 80 % 1016,5 hPa 0,0 l/m 18,5 km/h (3 Bft) S-SW 212 0 min 0,000 mm 2,1 UV-I 339 W/m 7,9 C 5,3 C 30,6 km/h (5 Bft) 95,65 %
26.04.2018 13:09 11,3 C 18,3 C 81 % 1016,4 hPa 0,0 l/m 18,8 km/h (3 Bft) SW 236 0 min 0,000 mm 2,0 UV-I 311 W/m 8,2 C 5,3 C 35,4 km/h (5 Bft) 100,00 %
26.04.2018 13:10 11,3 C 18,3 C 80 % 1016,6 hPa 0,0 l/m 28,8 km/h (4 Bft) SW 231 0 min 0,000 mm 2,1 UV-I 354 W/m 8,0 C 2,7 C 40,2 km/h (6 Bft) 100,00 %
26.04.2018 13:11 11,3 C 18,3 C 80 % 1016,5 hPa 0,0 l/m 29,2 km/h (5 Bft) SW 223 0 min 0,000 mm 2,4 UV-I 445 W/m 8,0 C 2,6 C 41,8 km/h (6 Bft) 100,00 %
26.04.2018 13:12 11,3 C 18,3 C 80 % 1016,4 hPa 0,0 l/m 27,7 km/h (4 Bft) SW 236 1 min 0,000 mm 2,6 UV-I 482 W/m 8,0 C 3,0 C 43,5 km/h (6 Bft) 95,65 %
26.04.2018 13:13 11,3 C 18,3 C 79 % 1016,5 hPa 0,0 l/m 27,8 km/h (4 Bft) W-SW 243 1 min 0,000 mm 2,6 UV-I 467 W/m 7,8 C 2,9 C 37,0 km/h (5 Bft) 100,00 %
26.04.2018 13:14 11,4 C 18,3 C 79 % 1016,4 hPa 0,0 l/m 24,6 km/h (4 Bft) W-SW 258 1 min 0,000 mm 2,7 UV-I 458 W/m 7,9 C 3,8 C 32,2 km/h (5 Bft) 100,00 %
26.04.2018 13:15 11,4 C 18,3 C 79 % 1016,4 hPa 0,0 l/m 26,9 km/h (4 Bft) W-SW 248 0 min 0,000 mm 2,5 UV-I 410 W/m 7,9 C 3,3 C 37,0 km/h (5 Bft) 95,83 %
26.04.2018 13:16 11,5 C 18,3 C 79 % 1016,4 hPa 0,0 l/m 21,8 km/h (4 Bft) W-SW 252 0 min 0,000 mm 2,4 UV-I 391 W/m 8,0 C 4,7 C 33,8 km/h (5 Bft) 95,65 %
26.04.2018 13:17 11,5 C 18,3 C 79 % 1016,4 hPa 0,0 l/m 20,6 km/h (4 Bft) SW 235 0 min 0,000 mm 2,5 UV-I 415 W/m 8,0 C 5,0 C 27,4 km/h (4 Bft) 100,00 %
26.04.2018 13:18 11,6 C 18,3 C 79 % 1016,4 hPa 0,0 l/m 23,6 km/h (4 Bft) W-NW 294 0 min 0,000 mm 2,6 UV-I 440 W/m 8,1 C 4,3 C 30,6 km/h (5 Bft) 100,00 %
26.04.2018 13:19 11,6 C 18,3 C 79 % 1016,4 hPa 0,0 l/m 18,8 km/h (3 Bft) W-SW 248 1 min 0,000 mm 2,7 UV-I 452 W/m 8,1 C 5,7 C 25,7 km/h (4 Bft) 100,00 %
26.04.2018 13:20 11,7 C 18,3 C 80 % 1016,4 hPa 0,0 l/m 23,3 km/h (4 Bft) W 277 0 min 0,000 mm 2,7 UV-I 447 W/m 8,4 C 4,6 C 33,8 km/h (5 Bft) 100,00 %
26.04.2018 13:21 11,7 C 18,3 C 79 % 1016,3 hPa 0,0 l/m 21,9 km/h (4 Bft) SW 234 0 min 0,000 mm 2,7 UV-I 442 W/m 8,2 C 4,9 C 33,8 km/h (5 Bft) 100,00 %
26.04.2018 13:22 11,8 C 18,3 C 79 % 1016,3 hPa 0,0 l/m 21,8 km/h (4 Bft) W-SW 256 0 min 0,000 mm 2,7 UV-I 441 W/m 8,3 C 5,1 C 30,6 km/h (5 Bft) 100,00 %
26.04.2018 13:23 11,8 C 18,3 C 78 % 1016,4 hPa 0,0 l/m 25,5 km/h (4 Bft) SW 228 1 min 0,000 mm 2,9 UV-I 490 W/m 8,1 C 4,2 C 35,4 km/h (5 Bft) 100,00 %
26.04.2018 13:24 11,8 C 18,3 C 77 % 1016,4 hPa 0,0 l/m 24,6 km/h (4 Bft) S-SW 209 1 min 0,000 mm 3,0 UV-I 497 W/m 7,9 C 4,4 C 45,1 km/h (6 Bft) 100,00 %
26.04.2018 13:25 11,8 C 18,3 C 76 % 1016,3 hPa 0,0 l/m 20,7 km/h (4 Bft) W-SW 248 1 min 0,000 mm 3,0 UV-I 478 W/m 7,7 C 5,4 C 32,2 km/h (5 Bft) 96,15 %
26.04.2018 13:26 11,8 C 18,3 C 76 % 1016,3 hPa 0,0 l/m 21,9 km/h (4 Bft) W-SW 241 0 min 0,000 mm 2,6 UV-I 389 W/m 7,7 C 5,1 C 29,0 km/h (5 Bft) 100,00 %
26.04.2018 13:27 11,8 C 18,3 C 76 % 1016,2 hPa 0,0 l/m 21,8 km/h (4 Bft) SW 225 0 min 0,000 mm 2,3 UV-I 327 W/m 7,7 C 5,1 C 30,6 km/h (5 Bft) 100,00 %
26.04.2018 13:28 11,8 C 18,3 C 76 % 1016,3 hPa 0,0 l/m 25,0 km/h (4 Bft) W-SW 256 0 min 0,000 mm 2,2 UV-I 308 W/m 7,7 C 4,3 C 32,2 km/h (5 Bft) 100,00 %
26.04.2018 13:29 11,8 C 18,3 C 76 % 1016,3 hPa 0,0 l/m 22,0 km/h (4 Bft) SW 235 0 min 0,000 mm 2,1 UV-I 307 W/m 7,7 C 5,0 C 35,4 km/h (5 Bft) 100,00 %
26.04.2018 13:30 11,7 C 18,3 C 75 % 1016,3 hPa 0,0 l/m 20,3 km/h (4 Bft) W-SW 244 0 min 0,000 mm 2,1 UV-I 325 W/m 7,4 C 5,4 C 27,4 km/h (4 Bft) 100,00 %
26.04.2018 13:31 11,8 C 18,3 C 76 % 1016,3 hPa 0,0 l/m 22,1 km/h (4 Bft) W-SW 242 0 min 0,000 mm 2,1 UV-I 340 W/m 7,7 C 5,0 C 35,4 km/h (5 Bft) 95,65 %
26.04.2018 13:32 11,8 C 18,3 C 77 % 1016,3 hPa 0,0 l/m 21,6 km/h (4 Bft) W-SW 242 0 min 0,000 mm 2,0 UV-I 339 W/m 7,9 C 5,2 C 37,0 km/h (5 Bft) 100,00 %
26.04.2018 13:34 11,8 C 18,3 C 77 % 1016,4 hPa 0,0 l/m 24,3 km/h (4 Bft) W 265 0 min 0,000 mm 1,9 UV-I 316 W/m 7,9 C 4,4 C 33,8 km/h (5 Bft) 98,11 %
26.04.2018 13:35 11,8 C 18,3 C 76 % 1016,4 hPa 0,0 l/m 14,4 km/h (3 Bft) W-SW 248 0 min 0,000 mm 1,8 UV-I 323 W/m 7,7 C 7,6 C 20,9 km/h (4 Bft) 100,00 %
26.04.2018 13:36 11,8 C 18,3 C 76 % 1016,3 hPa 0,0 l/m 19,0 km/h (3 Bft) SW 223 0 min 0,000 mm 2,0 UV-I 374 W/m 7,7 C 5,9 C 27,4 km/h (4 Bft) 100,00 %
26.04.2018 13:37 11,8 C 18,3 C 76 % 1016,3 hPa 0,0 l/m 16,6 km/h (3 Bft) SW 220 1 min 0,000 mm 2,3 UV-I 466 W/m 7,7 C 6,7 C 22,5 km/h (4 Bft) 92,31 %
26.04.2018 13:38 11,8 C 18,3 C 76 % 1016,3 hPa 0,0 l/m 18,8 km/h (3 Bft) W 265 1 min 0,000 mm 2,4 UV-I 447 W/m 7,7 C 6,0 C 29,0 km/h (5 Bft) 100,00 %
26.04.2018 13:39 11,9 C 18,3 C 77 % 1016,4 hPa 0,0 l/m 20,0 km/h (4 Bft) SW 226 1 min 0,000 mm 2,5 UV-I 447 W/m 8,0 C 5,7 C 32,2 km/h (5 Bft) 100,00 %
26.04.2018 13:40 11,9 C 18,3 C 76 % 1016,3 hPa 0,0 l/m 21,1 km/h (4 Bft) SW 234 1 min 0,000 mm 2,5 UV-I 467 W/m 7,8 C 5,4 C 32,2 km/h (5 Bft) 100,00 %
26.04.2018 13:41 12,0 C 18,3 C 76 % 1016,4 hPa 0,0 l/m 26,4 km/h (4 Bft) SW 225 1 min 0,000 mm 2,7 UV-I 484 W/m 7,9 C 4,2 C 35,4 km/h (5 Bft) 100,00 %
26.04.2018 13:42 12,0 C 18,3 C 75 % 1016,3 hPa 0,0 l/m 18,5 km/h (3 Bft) W-SW 256 1 min 0,000 mm 2,6 UV-I 458 W/m 7,7 C 6,3 C 29,0 km/h (5 Bft) 100,00 %
26.04.2018 13:43 12,1 C 18,3 C 75 % 1016,3 hPa 0,0 l/m 15,0 km/h (3 Bft) W-SW 244 0 min 0,000 mm 2,4 UV-I 407 W/m 7,8 C 7,7 C 22,5 km/h (4 Bft) 100,00 %
26.04.2018 13:44 12,1 C 18,3 C 76 % 1016,3 hPa 0,0 l/m 15,6 km/h (3 Bft) W 259 0 min 0,000 mm 2,2 UV-I 373 W/m 8,0 C 7,5 C 20,9 km/h (4 Bft) 97,37 %
26.04.2018 13:45 12,1 C 18,3 C 75 % 1016,3 hPa 0,0 l/m 22,1 km/h (4 Bft) SW 235 0 min 0,000 mm 2,1 UV-I 354 W/m 7,8 C 5,4 C 32,2 km/h (5 Bft) 100,00 %
26.04.2018 13:46 12,1 C 18,3 C 74 % 1016,2 hPa 0,0 l/m 25,5 km/h (4 Bft) W-SW 240 0 min 0,000 mm 2,0 UV-I 346 W/m 7,6 C 4,6 C 37,0 km/h (5 Bft) 100,00 %
26.04.2018 13:47 12,1 C 18,3 C 74 % 1016,3 hPa 0,0 l/m 21,5 km/h (4 Bft) W-SW 240 0 min 0,000 mm 1,8 UV-I 321 W/m 7,6 C 5,6 C 29,0 km/h (5 Bft) 100,00 %
26.04.2018 13:48 12,1 C 18,3 C 75 % 1016,3 hPa 0,0 l/m 21,2 km/h (4 Bft) SW 221 0 min 0,000 mm 1,7 UV-I 296 W/m 7,8 C 5,7 C 29,0 km/h (5 Bft) 100,00 %
26.04.2018 13:49 12,1 C 18,3 C 75 % 1016,3 hPa 0,0 l/m 17,0 km/h (3 Bft) W-SW 254 0 min 0,000 mm 1,6 UV-I 286 W/m 7,8 C 7,0 C 25,7 km/h (4 Bft) 100,00 %
26.04.2018 13:50 12,1 C 18,3 C 75 % 1016,3 hPa 0,0 l/m 19,8 km/h (3 Bft) S-SW 201 0 min 0,000 mm 1,5 UV-I 268 W/m 7,8 C 6,1 C 27,4 km/h (4 Bft) 95,65 %
26.04.2018 13:51 12,1 C 18,3 C 75 % 1016,3 hPa 0,0 l/m 22,3 km/h (4 Bft) W-SW 239 0 min 0,000 mm 1,4 UV-I 242 W/m 7,8 C 5,4 C 35,4 km/h (5 Bft) 100,00 %
26.04.2018 13:52 12,1 C 18,3 C 76 % 1016,3 hPa 0,0 l/m 23,0 km/h (4 Bft) SW 230 0 min 0,000 mm 1,3 UV-I 222 W/m 8,0 C 5,2 C 33,8 km/h (5 Bft) 95,65 %
26.04.2018 13:53 12,0 C 18,3 C 75 % 1016,4 hPa 0,0 l/m 23,3 km/h (4 Bft) W-SW 238 0 min 0,000 mm 1,2 UV-I 204 W/m 7,7 C 5,0 C 37,0 km/h (5 Bft) 95,83 %
26.04.2018 13:54 11,9 C 18,3 C 74 % 1016,4 hPa 0,0 l/m 22,6 km/h (4 Bft) W-SW 250 0 min 0,000 mm 1,1 UV-I 190 W/m 7,4 C 5,0 C 33,8 km/h (5 Bft) 95,65 %
26.04.2018 13:55 11,9 C 18,3 C 74 % 1016,3 hPa 0,0 l/m 26,0 km/h (4 Bft) W 266 0 min 0,000 mm 1,0 UV-I 181 W/m 7,4 C 4,2 C 40,2 km/h (6 Bft) 100,00 %
26.04.2018 13:56 11,8 C 18,3 C 75 % 1016,3 hPa 0,0 l/m 25,4 km/h (4 Bft) W-SW 248 0 min 0,000 mm 1,0 UV-I 167 W/m 7,5 C 4,2 C 35,4 km/h (5 Bft) 100,00 %
26.04.2018 13:57 11,7 C 18,3 C 75 % 1016,8 hPa 0,0 l/m 28,2 km/h (4 Bft) S-SW 204 0 min 0,000 mm 0,9 UV-I 154 W/m 7,4 C 3,4 C 41,8 km/h (6 Bft) 100,00 %
26.04.2018 13:58 11,7 C 18,3 C 75 % 1016,4 hPa 0,0 l/m 23,3 km/h (4 Bft) SW 227 0 min 0,000 mm 0,8 UV-I 145 W/m 7,4 C 4,6 C 32,2 km/h (5 Bft) 100,00 %
26.04.2018 13:59 11,6 C 18,3 C 75 % 1016,4 hPa 0,0 l/m 25,9 km/h (4 Bft) W-SW 257 0 min 0,000 mm 0,8 UV-I 139 W/m 7,3 C 3,8 C 33,8 km/h (5 Bft) 100,00 %
26.04.2018 14:00 11,6 C 18,3 C 75 % 1016,4 hPa 0,0 l/m 23,8 km/h (4 Bft) W 264 0 min 0,000 mm 0,8 UV-I 135 W/m 7,3 C 4,3 C 32,2 km/h (5 Bft) 96,15 %
26.04.2018 14:02 11,4 C 18,3 C 75 % 1016,4 hPa 0,0 l/m 25,0 km/h (4 Bft) W-SW 253 0 min 0,228 mm 0,7 UV-I 133 W/m 7,1 C 3,7 C 38,6 km/h (5 Bft) 100,00 %
26.04.2018 14:03 11,4 C 18,3 C 76 % 1016,4 hPa 0,0 l/m 21,2 km/h (4 Bft) W 260 0 min 0,000 mm 0,7 UV-I 140 W/m 7,3 C 4,7 C 27,4 km/h (4 Bft) 100,00 %
26.04.2018 14:04 11,4 C 18,3 C 76 % 1016,4 hPa 0,0 l/m 23,3 km/h (4 Bft) W-SW 251 0 min 0,000 mm 0,8 UV-I 154 W/m 7,3 C 4,2 C 29,0 km/h (5 Bft) 100,00 %
26.04.2018 14:05 11,3 C 18,3 C 77 % 1016,3 hPa 0,0 l/m 17,2 km/h (3 Bft) W-SW 257 0 min 0,000 mm 0,9 UV-I 173 W/m 7,4 C 5,9 C 24,1 km/h (4 Bft) 100,00 %
26.04.2018 14:06 11,3 C 18,3 C 77 % 1016,4 hPa 0,0 l/m 24,8 km/h (4 Bft) SW 217 0 min 0,000 mm 1,0 UV-I 187 W/m 7,4 C 3,6 C 32,2 km/h (5 Bft) 96,30 %
26.04.2018 14:07 11,3 C 18,3 C 77 % 1016,3 hPa 0,0 l/m 27,3 km/h (4 Bft) W-SW 243 0 min 0,000 mm 1,1 UV-I 194 W/m 7,4 C 3,1 C 35,4 km/h (5 Bft) 96,15 %
26.04.2018 14:08 11,3 C 18,3 C 76 % 1016,6 hPa 0,0 l/m 29,0 km/h (5 Bft) SW 227 0 min 0,000 mm 1,1 UV-I 193 W/m 7,2 C 2,7 C 40,2 km/h (6 Bft) 100,00 %
26.04.2018 14:09 11,3 C 18,3 C 76 % 1016,6 hPa 0,0 l/m 27,1 km/h (4 Bft) W-SW 255 0 min 0,000 mm 1,0 UV-I 178 W/m 7,2 C 3,1 C 35,4 km/h (5 Bft) 95,65 %
26.04.2018 14:10 11,3 C 18,3 C 77 % 1016,4 hPa 0,0 l/m 17,8 km/h (3 Bft) W-NW 287 0 min 0,000 mm 0,9 UV-I 152 W/m 7,4 C 5,7 C 25,7 km/h (4 Bft) 100,00 %
26.04.2018 14:11 11,3 C 18,3 C 78 % 1016,5 hPa 0,0 l/m 19,1 km/h (3 Bft) W-SW 242 0 min 0,000 mm 0,8 UV-I 128 W/m 7,6 C 5,2 C 24,1 km/h (4 Bft) 100,00 %
26.04.2018 14:12 11,3 C 18,3 C 78 % 1016,5 hPa 0,0 l/m 17,6 km/h (3 Bft) W-SW 241 0 min 0,000 mm 0,6 UV-I 110 W/m 7,6 C 5,7 C 29,0 km/h (5 Bft) 100,00 %
26.04.2018 14:13 11,3 C 18,3 C 78 % 1016,5 hPa 0,0 l/m 27,8 km/h (4 Bft) W-SW 257 0 min 0,000 mm 0,6 UV-I 105 W/m 7,6 C 2,9 C 35,4 km/h (5 Bft) 100,00 %
26.04.2018 14:14 11,2 C 18,3 C 79 % 1016,5 hPa 0,0 l/m 20,3 km/h (4 Bft) S-SW 211 0 min 0,000 mm 0,6 UV-I 110 W/m 7,7 C 4,7 C 27,4 km/h (4 Bft) 95,83 %
26.04.2018 14:15 11,2 C 18,3 C 79 % 1016,4 hPa 0,0 l/m 19,3 km/h (3 Bft) SW 234 0 min 0,000 mm 0,6 UV-I 116 W/m 7,7 C 5,1 C 25,7 km/h (4 Bft) 100,00 %
26.04.2018 14:16 11,2 C 18,3 C 79 % 1016,5 hPa 0,0 l/m 23,3 km/h (4 Bft) SW 217 0 min 0,000 mm 0,7 UV-I 120 W/m 7,7 C 3,9 C 29,0 km/h (5 Bft) 100,00 %
26.04.2018 14:17 11,2 C 18,3 C 79 % 1016,5 hPa 0,0 l/m 32,3 km/h (5 Bft) SW 230 0 min 0,000 mm 0,7 UV-I 123 W/m 7,7 C 1,9 C 43,5 km/h (6 Bft) 100,00 %
26.04.2018 14:18 11,1 C 18,3 C 79 % 1016,5 hPa 0,0 l/m 24,1 km/h (4 Bft) W-SW 252 0 min 0,000 mm 0,8 UV-I 132 W/m 7,6 C 3,6 C 33,8 km/h (5 Bft) 100,00 %
26.04.2018 14:19 11,1 C 18,3 C 79 % 1016,5 hPa 0,0 l/m 22,6 km/h (4 Bft) W-SW 244 0 min 0,000 mm 0,8 UV-I 145 W/m 7,6 C 3,9 C 35,4 km/h (5 Bft) 95,65 %
26.04.2018 14:20 11,1 C 18,3 C 80 % 1016,5 hPa 0,0 l/m 25,8 km/h (4 Bft) W-SW 248 0 min 0,000 mm 0,9 UV-I 157 W/m 7,8 C 3,1 C 33,8 km/h (5 Bft) 95,83 %
26.04.2018 14:21 11,1 C 18,3 C 79 % 1016,5 hPa 0,0 l/m 25,2 km/h (4 Bft) SW 223 0 min 0,000 mm 0,9 UV-I 160 W/m 7,6 C 3,3 C 35,4 km/h (5 Bft) 100,00 %
26.04.2018 14:22 11,0 C 18,3 C 79 % 1016,5 hPa 0,0 l/m 20,5 km/h (4 Bft) W-SW 249 0 min 0,000 mm 0,9 UV-I 164 W/m 7,5 C 4,4 C 32,2 km/h (5 Bft) 96,15 %
26.04.2018 14:23 11,0 C 18,3 C 80 % 1016,5 hPa 0,0 l/m 17,5 km/h (3 Bft) W-SW 251 0 min 0,000 mm 1,0 UV-I 170 W/m 7,7 C 5,4 C 24,1 km/h (4 Bft) 95,83 %
26.04.2018 14:24 10,9 C 18,3 C 80 % 1016,5 hPa 0,0 l/m 20,6 km/h (4 Bft) W-SW 238 0 min 0,000 mm 0,9 UV-I 163 W/m 7,6 C 4,3 C 37,0 km/h (5 Bft) 95,65 %
26.04.2018 14:25 10,9 C 18,3 C 79 % 1016,5 hPa 0,0 l/m 23,3 km/h (4 Bft) W-SW 238 0 min 0,000 mm 0,8 UV-I 133 W/m 7,4 C 3,5 C 33,8 km/h (5 Bft) 95,83 %
26.04.2018 14:26 10,9 C 18,3 C 80 % 1016,5 hPa 0,0 l/m 25,0 km/h (4 Bft) SW 219 0 min 0,000 mm 0,6 UV-I 99 W/m 7,6 C 3,1 C 33,8 km/h (5 Bft) 100,00 %
26.04.2018 14:27 10,9 C 18,3 C 79 % 1016,5 hPa 0,0 l/m 28,0 km/h (4 Bft) SW 229 0 min 0,000 mm 0,5 UV-I 84 W/m 7,4 C 2,3 C 37,0 km/h (5 Bft) 95,83 %
26.04.2018 14:28 10,9 C 18,3 C 79 % 1016,5 hPa 0,0 l/m 20,2 km/h (4 Bft) SW 236 0 min 0,000 mm 0,5 UV-I 80 W/m 7,4 C 4,4 C 27,4 km/h (4 Bft) 100,00 %
26.04.2018 14:29 10,9 C 18,3 C 79 % 1016,6 hPa 0,0 l/m 19,0 km/h (3 Bft) SW 229 0 min 0,000 mm 0,3 UV-I 79 W/m 7,4 C 4,8 C 27,4 km/h (4 Bft) 95,83 %
26.04.2018 14:30 10,9 C 18,3 C 80 % 1016,5 hPa 0,0 l/m 14,9 km/h (3 Bft) W-SW 250 0 min 0,000 mm 0,0 UV-I 80 W/m 7,6 C 6,3 C 19,3 km/h (3 Bft) 95,65 %
26.04.2018 14:31 10,8 C 18,3 C 80 % 1016,6 hPa 0,0 l/m 19,0 km/h (3 Bft) W 273 0 min 0,000 mm 0,0 UV-I 81 W/m 7,5 C 4,6 C 25,7 km/h (4 Bft) 95,83 %
26.04.2018 14:32 10,8 C 18,3 C 79 % 1016,6 hPa 0,0 l/m 19,2 km/h (3 Bft) W-SW 237 0 min 0,000 mm 0,0 UV-I 84 W/m 7,3 C 4,6 C 25,7 km/h (4 Bft) 95,65 %
26.04.2018 14:33 10,8 C 18,3 C 80 % 1016,6 hPa 0,0 l/m 15,7 km/h (3 Bft) SW 228 0 min 0,000 mm 0,1 UV-I 87 W/m 7,5 C 5,8 C 24,1 km/h (4 Bft) 95,83 %
26.04.2018 14:34 10,8 C 18,3 C 80 % 1016,5 hPa 0,0 l/m 18,3 km/h (3 Bft) W-NW 293 0 min 0,000 mm 0,5 UV-I 89 W/m 7,5 C 4,9 C 27,4 km/h (4 Bft) 96,15 %
26.04.2018 14:35 10,8 C 18,3 C 80 % 1016,5 hPa 0,0 l/m 17,7 km/h (3 Bft) W-SW 251 0 min 0,000 mm 0,5 UV-I 93 W/m 7,5 C 5,1 C 24,1 km/h (4 Bft) 100,00 %
26.04.2018 14:36 10,8 C 18,3 C 81 % 1016,5 hPa 0,0 l/m 14,1 km/h (3 Bft) SW 232 0 min 0,000 mm 0,5 UV-I 102 W/m 7,7 C 6,5 C 17,7 km/h (3 Bft) 91,30 %
26.04.2018 14:37 10,8 C 18,3 C 81 % 1016,5 hPa 0,0 l/m 15,1 km/h (3 Bft) SW 232 0 min 0,000 mm 0,6 UV-I 116 W/m 7,7 C 6,1 C 24,1 km/h (4 Bft) 100,00 %
26.04.2018 14:38 10,8 C 18,3 C 81 % 1016,5 hPa 0,0 l/m 18,7 km/h (3 Bft) SW 221 0 min 0,000 mm 0,7 UV-I 137 W/m 7,7 C 4,7 C 24,1 km/h (4 Bft) 93,33 %
26.04.2018 14:39 10,8 C 18,3 C 81 % 1016,5 hPa 0,0 l/m 15,4 km/h (3 Bft) S-SW 202 0 min 0,000 mm 0,8 UV-I 162 W/m 7,7 C 5,9 C 20,9 km/h (4 Bft) 95,65 %
26.04.2018 14:40 10,8 C 18,3 C 82 % 1016,6 hPa 0,0 l/m 19,2 km/h (3 Bft) S-SW 204 0 min 0,000 mm 0,9 UV-I 184 W/m 7,9 C 4,6 C 30,6 km/h (5 Bft) 95,83 %
26.04.2018 14:41 10,8 C 18,3 C 81 % 1016,6 hPa 0,0 l/m 20,3 km/h (4 Bft) W-SW 248 0 min 0,000 mm 1,1 UV-I 200 W/m 7,7 C 4,2 C 25,7 km/h (4 Bft) 100,00 %
26.04.2018 14:42 10,8 C 18,3 C 82 % 1016,7 hPa 0,0 l/m 15,2 km/h (3 Bft) S-SW 209 0 min 0,000 mm 1,1 UV-I 206 W/m 7,9 C 6,0 C 22,5 km/h (4 Bft) 95,83 %
26.04.2018 14:43 10,8 C 18,3 C 82 % 1016,6 hPa 0,0 l/m 16,2 km/h (3 Bft) W-SW 241 0 min 0,000 mm 1,1 UV-I 200 W/m 7,9 C 5,6 C 22,5 km/h (4 Bft) 95,65 %
26.04.2018 14:44 10,9 C 18,3 C 82 % 1016,6 hPa 0,0 l/m 12,1 km/h (2 Bft) W-SW 252 0 min 0,000 mm 1,1 UV-I 181 W/m 7,9 C 7,5 C 20,9 km/h (4 Bft) 100,00 %
26.04.2018 14:45 10,9 C 18,3 C 82 % 1016,6 hPa 0,0 l/m 18,7 km/h (3 Bft) SW 234 0 min 0,000 mm 1,0 UV-I 160 W/m 7,9 C 4,9 C 30,6 km/h (5 Bft) 95,65 %
26.04.2018 14:46 10,9 C 18,3 C 82 % 1016,6 hPa 0,0 l/m 15,6 km/h (3 Bft) SW 220 0 min 0,000 mm 0,9 UV-I 146 W/m 7,9 C 6,0 C 20,9 km/h (4 Bft) 100,00 %
26.04.2018 14:47 10,8 C 18,3 C 82 % 1016,6 hPa 0,0 l/m 16,7 km/h (3 Bft) W 271 0 min 0,000 mm 0,8 UV-I 140 W/m 7,9 C 5,4 C 24,1 km/h (4 Bft) 95,65 %
26.04.2018 14:48 10,8 C 18,3 C 82 % 1016,6 hPa 0,2 l/m 19,4 km/h (3 Bft) SW 234 0 min 0,000 mm 0,8 UV-I 143 W/m 7,9 C 4,5 C 24,1 km/h (4 Bft) 100,00 %
26.04.2018 14:49 10,8 C 18,3 C 82 % 1016,6 hPa 0,0 l/m 18,5 km/h (3 Bft) SW 236 0 min 0,000 mm 0,8 UV-I 152 W/m 7,9 C 4,8 C 24,1 km/h (4 Bft) 95,65 %
26.04.2018 14:50 10,8 C 18,3 C 82 % 1016,6 hPa 0,0 l/m 16,1 km/h (3 Bft) S-SW 213 0 min 0,000 mm 0,8 UV-I 168 W/m 7,9 C 5,7 C 27,4 km/h (4 Bft) 100,00 %
26.04.2018 14:51 10,8 C 18,3 C 82 % 1016,5 hPa 0,0 l/m 17,9 km/h (3 Bft) SW 220 0 min 0,000 mm 0,9 UV-I 191 W/m 7,9 C 5,0 C 27,4 km/h (4 Bft) 95,65 %
26.04.2018 14:52 10,7 C 18,3 C 81 % 1016,5 hPa 0,0 l/m 21,2 km/h (4 Bft) W-SW 245 0 min 0,000 mm 1,1 UV-I 228 W/m 7,6 C 3,8 C 30,6 km/h (5 Bft) 92,59 %
26.04.2018 14:53 10,7 C 18,3 C 82 % 1016,5 hPa 0,0 l/m 14,8 km/h (3 Bft) W-SW 249 0 min 0,000 mm 1,2 UV-I 250 W/m 7,8 C 6,1 C 22,5 km/h (4 Bft) 100,00 %
26.04.2018 14:54 10,7 C 18,3 C 83 % 1016,5 hPa 0,0 l/m 13,8 km/h (3 Bft) SW 215 0 min 0,000 mm 1,3 UV-I 261 W/m 7,9 C 6,5 C 20,9 km/h (4 Bft) 100,00 %
26.04.2018 14:55 10,8 C 18,3 C 83 % 1016,5 hPa 0,0 l/m 13,7 km/h (3 Bft) W-SW 241 0 min 0,000 mm 1,3 UV-I 272 W/m 8,0 C 6,7 C 20,9 km/h (4 Bft) 95,65 %
26.04.2018 14:56 10,8 C 18,3 C 83 % 1016,5 hPa 0,0 l/m 16,8 km/h (3 Bft) SW 214 0 min 0,000 mm 1,5 UV-I 280 W/m 8,0 C 5,4 C 29,0 km/h (5 Bft) 95,83 %
26.04.2018 14:57 10,8 C 18,3 C 82 % 1016,5 hPa 0,0 l/m 17,5 km/h (3 Bft) S-SW 205 0 min 0,000 mm 1,5 UV-I 278 W/m 7,9 C 5,2 C 24,1 km/h (4 Bft) 95,65 %
26.04.2018 14:58 10,8 C 18,3 C 83 % 1016,5 hPa 0,0 l/m 15,8 km/h (3 Bft) W-SW 241 0 min 0,000 mm 1,4 UV-I 269 W/m 8,0 C 5,8 C 20,9 km/h (4 Bft) 91,67 %
26.04.2018 14:59 10,9 C 18,3 C 83 % 1016,5 hPa 0,0 l/m 16,4 km/h (3 Bft) W-SW 254 0 min 0,000 mm 1,4 UV-I 261 W/m 8,1 C 5,7 C 20,9 km/h (4 Bft) 100,00 %
26.04.2018 15:00 10,9 C 18,3 C 82 % 1016,4 hPa 0,0 l/m 17,0 km/h (3 Bft) SW 232 0 min 0,127 mm 1,3 UV-I 258 W/m 7,9 C 5,5 C 22,5 km/h (4 Bft) 91,67 %
26.04.2018 15:02 10,9 C 18,3 C 82 % 1016,4 hPa 0,0 l/m 17,7 km/h (3 Bft) W-SW 242 0 min 0,000 mm 1,3 UV-I 261 W/m 7,9 C 5,2 C 29,0 km/h (5 Bft) 95,74 %
26.04.2018 15:03 10,9 C 18,3 C 82 % 1016,5 hPa 0,0 l/m 15,3 km/h (3 Bft) S-SW 199 0 min 0,000 mm 1,4 UV-I 279 W/m 7,9 C 6,1 C 22,5 km/h (4 Bft) 91,67 %
26.04.2018 15:04 10,9 C 18,3 C 81 % 1016,4 hPa 0,0 l/m 19,8 km/h (3 Bft) SW 225 0 min 0,000 mm 1,5 UV-I 317 W/m 7,8 C 4,5 C 29,0 km/h (5 Bft) 96,55 %
26.04.2018 15:05 10,9 C 18,3 C 82 % 1016,4 hPa 0,0 l/m 21,4 km/h (4 Bft) SW 225 0 min 0,000 mm 1,7 UV-I 341 W/m 7,9 C 4,0 C 30,6 km/h (5 Bft) 95,83 %
26.04.2018 15:06 11,0 C 18,3 C 81 % 1016,3 hPa 0,0 l/m 19,6 km/h (3 Bft) S-SW 211 0 min 0,000 mm 1,7 UV-I 343 W/m 7,9 C 4,7 C 25,7 km/h (4 Bft) 95,65 %
26.04.2018 15:07 11,0 C 18,3 C 81 % 1016,4 hPa 0,0 l/m 20,1 km/h (4 Bft) W-SW 253 0 min 0,000 mm 1,6 UV-I 343 W/m 7,9 C 4,5 C 27,4 km/h (4 Bft) 100,00 %
26.04.2018 15:08 11,1 C 18,3 C 81 % 1016,3 hPa 0,0 l/m 16,3 km/h (3 Bft) S-SW 211 0 min 0,000 mm 1,7 UV-I 364 W/m 8,0 C 6,0 C 25,7 km/h (4 Bft) 95,65 %
26.04.2018 15:09 11,1 C 18,3 C 81 % 1016,3 hPa 0,0 l/m 15,6 km/h (3 Bft) SW 230 0 min 0,000 mm 1,7 UV-I 381 W/m 8,0 C 6,2 C 22,5 km/h (4 Bft) 100,00 %
26.04.2018 15:10 11,2 C 18,3 C 81 % 1016,3 hPa 0,0 l/m 17,2 km/h (3 Bft) S-SW 195 0 min 0,000 mm 1,8 UV-I 391 W/m 8,1 C 5,8 C 24,1 km/h (4 Bft) 96,15 %
26.04.2018 15:11 11,2 C 18,3 C 81 % 1016,3 hPa 0,0 l/m 20,1 km/h (4 Bft) SW 232 0 min 0,000 mm 1,7 UV-I 390 W/m 8,1 C 4,8 C 27,4 km/h (4 Bft) 95,83 %
26.04.2018 15:12 11,3 C 18,3 C 80 % 1016,3 hPa 0,0 l/m 20,4 km/h (4 Bft) SW 225 0 min 0,000 mm 1,5 UV-I 332 W/m 8,0 C 4,8 C 27,4 km/h (4 Bft) 95,65 %
26.04.2018 15:13 11,3 C 18,3 C 80 % 1016,3 hPa 0,0 l/m 19,1 km/h (3 Bft) SW 229 0 min 0,000 mm 1,4 UV-I 311 W/m 8,0 C 5,2 C 29,0 km/h (5 Bft) 95,83 %
26.04.2018 15:14 11,3 C 18,3 C 80 % 1016,3 hPa 0,0 l/m 18,1 km/h (3 Bft) SW 229 0 min 0,000 mm 1,5 UV-I 327 W/m 8,0 C 5,6 C 30,6 km/h (5 Bft) 91,30 %
26.04.2018 15:15 11,3 C 18,3 C 80 % 1016,3 hPa 0,0 l/m 19,2 km/h (3 Bft) W-SW 252 0 min 0,000 mm 1,8 UV-I 390 W/m 8,0 C 5,2 C 33,8 km/h (5 Bft) 95,83 %
26.04.2018 15:16 11,4 C 18,3 C 79 % 1016,4 hPa 0,0 l/m 24,6 km/h (4 Bft) W 259 1 min 0,000 mm 2,0 UV-I 432 W/m 7,9 C 3,8 C 33,8 km/h (5 Bft) 95,65 %
26.04.2018 15:17 11,4 C 18,3 C 79 % 1016,3 hPa 0,0 l/m 19,2 km/h (3 Bft) W-SW 250 1 min 0,000 mm 2,0 UV-I 438 W/m 7,9 C 5,3 C 27,4 km/h (4 Bft) 95,83 %
26.04.2018 15:18 11,4 C 18,3 C 79 % 1016,3 hPa 0,0 l/m 17,6 km/h (3 Bft) SW 220 0 min 0,000 mm 2,0 UV-I 379 W/m 7,9 C 5,9 C 27,4 km/h (4 Bft) 95,65 %
26.04.2018 15:19 11,4 C 18,3 C 80 % 1016,3 hPa 0,0 l/m 13,5 km/h (3 Bft) SW 222 0 min 0,000 mm 2,0 UV-I 357 W/m 8,1 C 7,4 C 17,7 km/h (3 Bft) 95,83 %
26.04.2018 15:20 11,5 C 18,3 C 80 % 1016,3 hPa 0,0 l/m 17,6 km/h (3 Bft) SW 236 0 min 0,000 mm 2,0 UV-I 347 W/m 8,2 C 6,0 C 20,9 km/h (4 Bft) 100,00 %
26.04.2018 15:21 11,5 C 18,3 C 78 % 1016,3 hPa 0,0 l/m 23,9 km/h (4 Bft) W-SW 247 0 min 0,000 mm 2,0 UV-I 350 W/m 7,8 C 4,1 C 33,8 km/h (5 Bft) 92,31 %
26.04.2018 15:22 11,4 C 18,3 C 78 % 1016,3 hPa 0,0 l/m 21,9 km/h (4 Bft) W-SW 237 0 min 0,000 mm 1,8 UV-I 328 W/m 7,7 C 4,5 C 29,0 km/h (5 Bft) 95,83 %
26.04.2018 15:23 11,5 C 18,3 C 79 % 1016,3 hPa 0,0 l/m 18,3 km/h (3 Bft) W-SW 248 0 min 0,000 mm 1,8 UV-I 316 W/m 8,0 C 5,8 C 29,0 km/h (5 Bft) 100,00 %
26.04.2018 15:24 11,4 C 18,3 C 78 % 1016,4 hPa 0,0 l/m 19,6 km/h (3 Bft) W-SW 253 0 min 0,000 mm 1,8 UV-I 329 W/m 7,7 C 5,2 C 30,6 km/h (5 Bft) 95,83 %
26.04.2018 15:25 11,4 C 18,3 C 78 % 1016,3 hPa 0,0 l/m 24,2 km/h (4 Bft) S-SW 213 0 min 0,000 mm 1,8 UV-I 351 W/m 7,7 C 3,9 C 32,2 km/h (5 Bft) 95,65 %
26.04.2018 15:26 11,4 C 18,3 C 78 % 1016,3 hPa 0,0 l/m 20,2 km/h (4 Bft) S-SW 205 0 min 0,000 mm 1,8 UV-I 360 W/m 7,7 C 5,0 C 30,6 km/h (5 Bft) 93,33 %
26.04.2018 15:27 11,4 C 18,3 C 78 % 1016,3 hPa 0,0 l/m 19,0 km/h (3 Bft) W-SW 250 0 min 0,000 mm 1,8 UV-I 349 W/m 7,7 C 5,4 C 29,0 km/h (5 Bft) 100,00 %
26.04.2018 15:28 11,5 C 18,3 C 78 % 1016,3 hPa 0,0 l/m 18,3 km/h (3 Bft) SW 231 0 min 0,000 mm 1,7 UV-I 343 W/m 7,8 C 5,8 C 25,7 km/h (4 Bft) 95,83 %
26.04.2018 15:29 11,5 C 18,3 C 78 % 1016,3 hPa 0,0 l/m 21,2 km/h (4 Bft) W-SW 245 0 min 0,000 mm 1,7 UV-I 346 W/m 7,8 C 4,9 C 25,7 km/h (4 Bft) 95,65 %
26.04.2018 15:30 11,5 C 18,3 C 78 % 1016,3 hPa 0,0 l/m 25,3 km/h (4 Bft) W-SW 243 0 min 0,000 mm 1,6 UV-I 346 W/m 7,8 C 3,8 C 35,4 km/h (5 Bft) 95,83 %
26.04.2018 15:31 11,5 C 18,3 C 77 % 1016,2 hPa 0,0 l/m 22,5 km/h (4 Bft) W 274 0 min 0,000 mm 1,6 UV-I 348 W/m 7,6 C 4,5 C 33,8 km/h (5 Bft) 95,65 %
26.04.2018 15:32 11,6 C 18,3 C 77 % 1016,3 hPa 0,0 l/m 24,1 km/h (4 Bft) W-SW 241 0 min 0,000 mm 1,6 UV-I 354 W/m 7,7 C 4,2 C 35,4 km/h (5 Bft) 95,83 %
26.04.2018 15:33 11,6 C 18,3 C 78 % 1016,2 hPa 0,0 l/m 21,1 km/h (4 Bft) SW 219 0 min 0,000 mm 1,7 UV-I 348 W/m 7,9 C 5,0 C 27,4 km/h (4 Bft) 95,65 %
26.04.2018 15:34 11,6 C 18,3 C 77 % 1016,2 hPa 0,0 l/m 24,3 km/h (4 Bft) W 279 0 min 0,000 mm 1,6 UV-I 330 W/m 7,7 C 4,2 C 30,6 km/h (5 Bft) 95,83 %
26.04.2018 15:35 11,6 C 18,3 C 77 % 1016,3 hPa 0,0 l/m 20,7 km/h (4 Bft) W-SW 242 0 min 0,000 mm 1,5 UV-I 314 W/m 7,7 C 5,1 C 27,4 km/h (4 Bft) 95,83 %
26.04.2018 15:36 11,6 C 18,3 C 77 % 1016,3 hPa 0,0 l/m 18,5 km/h (3 Bft) SW 222 0 min 0,000 mm 1,5 UV-I 303 W/m 7,7 C 5,8 C 24,1 km/h (4 Bft) 100,00 %
26.04.2018 15:37 11,6 C 18,3 C 77 % 1016,2 hPa 0,0 l/m 20,5 km/h (4 Bft) W 275 0 min 0,000 mm 1,4 UV-I 297 W/m 7,7 C 5,2 C 30,6 km/h (5 Bft) 95,65 %
26.04.2018 15:38 11,6 C 18,3 C 76 % 1016,2 hPa 0,0 l/m 21,8 km/h (4 Bft) SW 225 0 min 0,000 mm 1,4 UV-I 287 W/m 7,5 C 4,8 C 37,0 km/h (5 Bft) 100,00 %
26.04.2018 15:39 11,6 C 18,3 C 76 % 1016,2 hPa 0,0 l/m 16,7 km/h (3 Bft) W-SW 248 0 min 0,000 mm 1,3 UV-I 270 W/m 7,5 C 6,4 C 22,5 km/h (4 Bft) 92,31 %
26.04.2018 15:40 11,6 C 18,3 C 77 % 1016,2 hPa 0,0 l/m 21,2 km/h (4 Bft) W-SW 244 0 min 0,000 mm 1,2 UV-I 253 W/m 7,7 C 5,0 C 27,4 km/h (4 Bft) 100,00 %
26.04.2018 15:41 11,6 C 18,3 C 77 % 1016,2 hPa 0,0 l/m 24,8 km/h (4 Bft) W 267 0 min 0,000 mm 1,1 UV-I 238 W/m 7,7 C 4,0 C 37,0 km/h (5 Bft) 95,83 %
26.04.2018 15:42 11,6 C 18,3 C 77 % 1016,2 hPa 0,0 l/m 21,1 km/h (4 Bft) W-SW 247 0 min 0,000 mm 1,1 UV-I 232 W/m 7,7 C 5,0 C 30,6 km/h (5 Bft) 100,00 %
26.04.2018 15:43 11,5 C 18,3 C 77 % 1016,3 hPa 0,0 l/m 26,4 km/h (4 Bft) W-SW 244 0 min 0,000 mm 1,1 UV-I 228 W/m 7,6 C 3,5 C 41,8 km/h (6 Bft) 95,83 %
26.04.2018 15:44 11,5 C 18,3 C 76 % 1016,2 hPa 0,0 l/m 24,7 km/h (4 Bft) SW 227 0 min 0,000 mm 1,1 UV-I 227 W/m 7,4 C 3,9 C 32,2 km/h (5 Bft) 95,65 %
26.04.2018 15:45 11,5 C 18,3 C 77 % 1016,2 hPa 0,0 l/m 24,0 km/h (4 Bft) S 185 0 min 0,000 mm 1,1 UV-I 230 W/m 7,6 C 4,1 C 38,6 km/h (5 Bft) 100,00 %
26.04.2018 15:46 11,4 C 18,3 C 76 % 1016,2 hPa 0,0 l/m 22,5 km/h (4 Bft) SW 225 0 min 0,000 mm 1,1 UV-I 236 W/m 7,3 C 4,4 C 32,2 km/h (5 Bft) 100,00 %
26.04.2018 15:47 11,4 C 18,3 C 76 % 1016,3 hPa 0,0 l/m 20,4 km/h (4 Bft) W-SW 238 0 min 0,000 mm 1,1 UV-I 236 W/m 7,3 C 5,0 C 29,0 km/h (5 Bft) 95,83 %
26.04.2018 15:48 11,4 C 18,3 C 76 % 1016,2 hPa 0,0 l/m 23,6 km/h (4 Bft) W-SW 238 0 min 0,000 mm 1,0 UV-I 220 W/m 7,3 C 4,1 C 32,2 km/h (5 Bft) 95,65 %
26.04.2018 15:49 11,4 C 18,3 C 76 % 1016,2 hPa 0,0 l/m 15,3 km/h (3 Bft) S-SW 205 0 min 0,000 mm 0,9 UV-I 202 W/m 7,3 C 6,7 C 22,5 km/h (4 Bft) 100,00 %
26.04.2018 15:50 11,4 C 18,3 C 76 % 1016,2 hPa 0,0 l/m 20,6 km/h (4 Bft) W-SW 253 0 min 0,000 mm 0,9 UV-I 192 W/m 7,3 C 4,9 C 32,2 km/h (5 Bft) 96,15 %
26.04.2018 15:51 11,4 C 18,3 C 76 % 1016,2 hPa 0,0 l/m 22,9 km/h (4 Bft) S-SW 207 0 min 0,000 mm 0,9 UV-I 187 W/m 7,3 C 4,3 C 33,8 km/h (5 Bft) 100,00 %
26.04.2018 15:52 11,3 C 18,3 C 76 % 1016,2 hPa 0,0 l/m 23,8 km/h (4 Bft) W-SW 238 0 min 0,000 mm 0,8 UV-I 183 W/m 7,2 C 3,9 C 32,2 km/h (5 Bft) 95,65 %
26.04.2018 15:53 11,3 C 18,3 C 75 % 1016,2 hPa 0,0 l/m 19,6 km/h (3 Bft) W 263 0 min 0,000 mm 0,8 UV-I 185 W/m 7,0 C 5,1 C 27,4 km/h (4 Bft) 96,30 %
26.04.2018 15:54 11,3 C 18,3 C 76 % 1016,2 hPa 0,0 l/m 21,9 km/h (4 Bft) W-SW 246 0 min 0,000 mm 0,9 UV-I 186 W/m 7,2 C 4,4 C 32,2 km/h (5 Bft) 100,00 %
26.04.2018 15:55 11,3 C 18,3 C 77 % 1016,2 hPa 0,0 l/m 22,7 km/h (4 Bft) SW 227 0 min 0,000 mm 0,9 UV-I 191 W/m 7,4 C 4,2 C 30,6 km/h (5 Bft) 91,67 %
26.04.2018 15:56 11,3 C 18,3 C 77 % 1016,2 hPa 0,0 l/m 24,1 km/h (4 Bft) W-SW 242 0 min 0,000 mm 0,9 UV-I 199 W/m 7,4 C 3,8 C 30,6 km/h (5 Bft) 96,67 %
26.04.2018 15:57 11,3 C 18,3 C 76 % 1016,2 hPa 0,0 l/m 21,8 km/h (4 Bft) W-SW 250 0 min 0,000 mm 0,9 UV-I 212 W/m 7,2 C 4,4 C 29,0 km/h (5 Bft) 91,30 %
26.04.2018 15:58 11,3 C 18,3 C 76 % 1016,2 hPa 0,0 l/m 19,5 km/h (3 Bft) W-SW 246 0 min 0,000 mm 1,1 UV-I 229 W/m 7,2 C 5,1 C 29,0 km/h (5 Bft) 100,00 %
26.04.2018 15:59 11,4 C 18,3 C 76 % 1016,2 hPa 0,0 l/m 27,0 km/h (4 Bft) W-SW 255 0 min 0,000 mm 1,1 UV-I 248 W/m 7,3 C 3,3 C 32,2 km/h (5 Bft) 96,15 %
26.04.2018 16:00 11,4 C 18,3 C 76 % 1016,2 hPa 0,0 l/m 23,2 km/h (4 Bft) W 259 0 min 0,000 mm 1,2 UV-I 266 W/m 7,3 C 4,2 C 32,2 km/h (5 Bft) 93,33 %
26.04.2018 16:02 11,4 C 18,3 C 76 % 1016,2 hPa 0,0 l/m 19,7 km/h (3 Bft) W-SW 245 0 min 0,178 mm 1,3 UV-I 299 W/m 7,3 C 5,2 C 27,4 km/h (4 Bft) 98,00 %
26.04.2018 16:03 11,5 C 18,3 C 76 % 1016,2 hPa 0,0 l/m 16,6 km/h (3 Bft) SW 217 0 min 0,000 mm 1,4 UV-I 315 W/m 7,4 C 6,3 C 24,1 km/h (4 Bft) 95,65 %
26.04.2018 16:04 11,6 C 18,3 C 76 % 1016,2 hPa 0,0 l/m 17,6 km/h (3 Bft) SW 223 0 min 0,000 mm 1,4 UV-I 315 W/m 7,5 C 6,1 C 27,4 km/h (4 Bft) 100,00 %
26.04.2018 16:05 11,6 C 18,3 C 75 % 1016,3 hPa 0,0 l/m 20,3 km/h (4 Bft) W-SW 242 0 min 0,000 mm 1,3 UV-I 300 W/m 7,3 C 5,3 C 32,2 km/h (5 Bft) 100,00 %
26.04.2018 16:06 11,6 C 18,3 C 75 % 1016,3 hPa 0,0 l/m 19,0 km/h (3 Bft) W 259 0 min 0,000 mm 1,3 UV-I 287 W/m 7,3 C 5,7 C 29,0 km/h (5 Bft) 100,00 %
26.04.2018 16:07 11,7 C 18,3 C 75 % 1016,2 hPa 0,0 l/m 19,8 km/h (3 Bft) SW 224 0 min 0,000 mm 1,3 UV-I 280 W/m 7,4 C 5,5 C 35,4 km/h (5 Bft) 100,00 %
26.04.2018 16:08 11,7 C 18,3 C 75 % 1016,2 hPa 0,0 l/m 16,2 km/h (3 Bft) S-SW 207 0 min 0,000 mm 1,2 UV-I 268 W/m 7,4 C 6,7 C 20,9 km/h (4 Bft) 100,00 %
26.04.2018 16:09 11,7 C 18,3 C 75 % 1016,2 hPa 0,0 l/m 16,3 km/h (3 Bft) S-SW 211 0 min 0,000 mm 1,2 UV-I 266 W/m 7,4 C 6,7 C 22,5 km/h (4 Bft) 100,00 %
26.04.2018 16:10 11,7 C 18,3 C 75 % 1016,2 hPa 0,0 l/m 26,3 km/h (4 Bft) SW 236 0 min 0,000 mm 1,1 UV-I 269 W/m 7,4 C 3,8 C 38,6 km/h (5 Bft) 100,00 %
26.04.2018 16:11 11,7 C 18,3 C 75 % 1016,2 hPa 0,0 l/m 24,5 km/h (4 Bft) SW 221 0 min 0,000 mm 1,1 UV-I 267 W/m 7,4 C 4,3 C 33,8 km/h (5 Bft) 96,15 %
26.04.2018 16:12 11,7 C 18,3 C 74 % 1016,2 hPa 0,0 l/m 23,1 km/h (4 Bft) SW 227 0 min 0,000 mm 1,1 UV-I 269 W/m 7,2 C 4,6 C 33,8 km/h (5 Bft) 100,00 %
26.04.2018 16:13 11,7 C 18,3 C 74 % 1016,1 hPa 0,0 l/m 23,1 km/h (4 Bft) W-SW 241 0 min 0,000 mm 1,1 UV-I 268 W/m 7,2 C 4,6 C 30,6 km/h (5 Bft) 100,00 %
26.04.2018 16:14 11,7 C 18,3 C 74 % 1016,1 hPa 0,0 l/m 19,7 km/h (3 Bft) W-SW 251 0 min 0,000 mm 1,1 UV-I 268 W/m 7,2 C 5,6 C 29,0 km/h (5 Bft) 100,00 %
26.04.2018 16:15 11,7 C 18,3 C 75 % 1016,2 hPa 0,0 l/m 15,3 km/h (3 Bft) SW 219 0 min 0,000 mm 1,1 UV-I 269 W/m 7,4 C 7,1 C 25,7 km/h (4 Bft) 100,00 %
26.04.2018 16:16 11,7 C 18,3 C 75 % 1016,2 hPa 0,0 l/m 16,6 km/h (3 Bft) S-SW 213 0 min 0,000 mm 1,1 UV-I 269 W/m 7,4 C 6,6 C 20,9 km/h (4 Bft) 96,30 %
26.04.2018 16:17 11,8 C 18,3 C 76 % 1016,2 hPa 0,0 l/m 16,2 km/h (3 Bft) W-SW 242 0 min 0,000 mm 1,1 UV-I 262 W/m 7,7 C 6,9 C 29,0 km/h (5 Bft) 100,00 %
26.04.2018 16:18 11,8 C 18,3 C 76 % 1016,2 hPa 0,0 l/m 24,8 km/h (4 Bft) SW 233 0 min 0,000 mm 1,1 UV-I 253 W/m 7,7 C 4,3 C 32,2 km/h (5 Bft) 100,00 %
26.04.2018 16:19 11,8 C 18,3 C 75 % 1016,2 hPa 0,0 l/m 23,0 km/h (4 Bft) S-SW 195 0 min 0,000 mm 1,0 UV-I 252 W/m 7,5 C 4,8 C 35,4 km/h (5 Bft) 96,55 %
26.04.2018 16:20 11,8 C 18,3 C 74 % 1016,2 hPa 0,0 l/m 25,5 km/h (4 Bft) W-SW 246 0 min 0,000 mm 1,0 UV-I 250 W/m 7,3 C 4,2 C 33,8 km/h (5 Bft) 95,65 %
26.04.2018 16:21 11,8 C 18,3 C 74 % 1016,2 hPa 0,0 l/m 23,6 km/h (4 Bft) SW 236 0 min 0,000 mm 1,0 UV-I 240 W/m 7,3 C 4,6 C 29,0 km/h (5 Bft) 100,00 %
26.04.2018 16:22 11,8 C 18,3 C 74 % 1016,2 hPa 0,0 l/m 19,5 km/h (3 Bft) W-SW 238 0 min 0,000 mm 1,0 UV-I 237 W/m 7,3 C 5,8 C 27,4 km/h (4 Bft) 95,65 %
26.04.2018 16:23 11,8 C 18,3 C 74 % 1016,2 hPa 0,0 l/m 19,1 km/h (3 Bft) W-SW 257 0 min 0,000 mm 1,0 UV-I 249 W/m 7,3 C 5,9 C 33,8 km/h (5 Bft) 100,00 %
26.04.2018 16:24 11,8 C 18,3 C 74 % 1016,2 hPa 0,0 l/m 26,6 km/h (4 Bft) S-SW 200 0 min 0,000 mm 1,0 UV-I 267 W/m 7,3 C 3,9 C 33,8 km/h (5 Bft) 95,65 %
26.04.2018 16:25 11,8 C 18,3 C 74 % 1016,2 hPa 0,0 l/m 19,9 km/h (4 Bft) SW 221 0 min 0,000 mm 1,1 UV-I 283 W/m 7,3 C 5,6 C 35,4 km/h (5 Bft) 100,00 %
26.04.2018 16:26 11,8 C 18,3 C 75 % 1016,2 hPa 0,0 l/m 24,0 km/h (4 Bft) SW 234 0 min 0,000 mm 1,1 UV-I 285 W/m 7,5 C 4,5 C 30,6 km/h (5 Bft) 95,65 %
26.04.2018 16:27 11,8 C 18,3 C 74 % 1016,1 hPa 0,0 l/m 20,1 km/h (4 Bft) W-SW 250 0 min 0,000 mm 1,1 UV-I 275 W/m 7,3 C 5,6 C 27,4 km/h (4 Bft) 95,83 %
26.04.2018 16:28 11,8 C 18,3 C 74 % 1016,2 hPa 0,0 l/m 23,4 km/h (4 Bft) W-SW 240 0 min 0,000 mm 1,1 UV-I 267 W/m 7,3 C 4,7 C 30,6 km/h (5 Bft) 95,65 %
26.04.2018 16:29 11,8 C 18,3 C 74 % 1016,2 hPa 0,0 l/m 18,2 km/h (3 Bft) W-SW 247 0 min 0,000 mm 1,1 UV-I 258 W/m 7,3 C 6,2 C 22,5 km/h (4 Bft) 95,83 %
26.04.2018 16:30 11,8 C 18,3 C 75 % 1016,2 hPa 0,0 l/m 23,4 km/h (4 Bft) W-SW 254 0 min 0,000 mm 1,1 UV-I 250 W/m 7,5 C 4,7 C 37,0 km/h (5 Bft) 95,65 %
26.04.2018 16:31 11,8 C 18,3 C 74 % 1016,1 hPa 0,0 l/m 19,8 km/h (3 Bft) S-SW 213 0 min 0,000 mm 1,1 UV-I 242 W/m 7,3 C 5,7 C 25,7 km/h (4 Bft) 95,83 %
26.04.2018 16:32 11,8 C 18,3 C 74 % 1016,1 hPa 0,0 l/m 21,7 km/h (4 Bft) W-SW 238 0 min 0,000 mm 1,1 UV-I 219 W/m 7,3 C 5,1 C 29,0 km/h (5 Bft) 95,65 %
26.04.2018 16:33 11,8 C 18,3 C 74 % 1016,1 hPa 0,0 l/m 24,3 km/h (4 Bft) SW 232 0 min 0,000 mm 1,0 UV-I 190 W/m 7,3 C 4,4 C 33,8 km/h (5 Bft) 92,59 %
26.04.2018 16:34 11,8 C 18,3 C 74 % 1016,2 hPa 0,0 l/m 22,9 km/h (4 Bft) SW 235 0 min 0,000 mm 1,0 UV-I 191 W/m 7,3 C 4,8 C 33,8 km/h (5 Bft) 95,65 %
26.04.2018 16:35 11,8 C 18,3 C 74 % 1016,1 hPa 0,0 l/m 23,4 km/h (4 Bft) SW 223 0 min 0,000 mm 1,0 UV-I 233 W/m 7,3 C 4,7 C 33,8 km/h (5 Bft) 95,83 %
26.04.2018 16:36 11,8 C 18,3 C 74 % 1016,1 hPa 0,0 l/m 22,4 km/h (4 Bft) SW 221 0 min 0,000 mm 1,1 UV-I 272 W/m 7,3 C 4,9 C 30,6 km/h (5 Bft) 95,65 %
26.04.2018 16:37 11,8 C 18,3 C 74 % 1016,1 hPa 0,0 l/m 21,5 km/h (4 Bft) W-SW 248 0 min 0,000 mm 1,1 UV-I 275 W/m 7,3 C 5,2 C 29,0 km/h (5 Bft) 95,83 %
26.04.2018 16:38 11,8 C 18,3 C 74 % 1016,2 hPa 0,0 l/m 27,0 km/h (4 Bft) W-SW 240 0 min 0,000 mm 1,1 UV-I 267 W/m 7,3 C 3,8 C 33,8 km/h (5 Bft) 95,83 %
26.04.2018 16:39 11,8 C 18,3 C 74 % 1016,2 hPa 0,0 l/m 17,3 km/h (3 Bft) SW 227 0 min 0,000 mm 1,0 UV-I 237 W/m 7,3 C 6,5 C 24,1 km/h (4 Bft) 91,30 %
26.04.2018 16:40 11,8 C 18,3 C 74 % 1016,2 hPa 0,0 l/m 15,8 km/h (3 Bft) W 281 0 min 0,000 mm 0,9 UV-I 226 W/m 7,3 C 7,0 C 24,1 km/h (4 Bft) 95,83 %
26.04.2018 16:41 11,8 C 18,3 C 73 % 1016,2 hPa 0,0 l/m 18,3 km/h (3 Bft) SW 214 0 min 0,000 mm 0,9 UV-I 234 W/m 7,1 C 6,1 C 22,5 km/h (4 Bft) 100,00 %
26.04.2018 16:42 11,8 C 18,3 C 74 % 1016,2 hPa 0,0 l/m 19,6 km/h (3 Bft) SW 227 0 min 0,000 mm 0,9 UV-I 242 W/m 7,3 C 5,7 C 27,4 km/h (4 Bft) 96,30 %
26.04.2018 16:43 11,9 C 18,3 C 73 % 1016,2 hPa 0,0 l/m 28,0 km/h (4 Bft) W-SW 243 0 min 0,000 mm 0,9 UV-I 241 W/m 7,2 C 3,7 C 33,8 km/h (5 Bft) 95,65 %
26.04.2018 16:44 11,8 C 18,3 C 74 % 1016,2 hPa 0,0 l/m 21,6 km/h (4 Bft) W-SW 252 0 min 0,000 mm 0,8 UV-I 231 W/m 7,3 C 5,2 C 29,0 km/h (5 Bft) 95,83 %
26.04.2018 16:45 11,8 C 18,3 C 74 % 1016,2 hPa 0,0 l/m 19,1 km/h (3 Bft) W 266 0 min 0,000 mm 0,8 UV-I 218 W/m 7,3 C 5,9 C 27,4 km/h (4 Bft) 91,30 %
26.04.2018 16:46 11,8 C 18,3 C 74 % 1016,2 hPa 0,0 l/m 24,5 km/h (4 Bft) W-SW 255 0 min 0,000 mm 0,8 UV-I 213 W/m 7,3 C 4,4 C 35,4 km/h (5 Bft) 100,00 %
26.04.2018 16:47 11,8 C 18,3 C 73 % 1016,2 hPa 0,0 l/m 27,1 km/h (4 Bft) SW 223 0 min 0,000 mm 0,8 UV-I 210 W/m 7,1 C 3,8 C 38,6 km/h (5 Bft) 96,15 %
26.04.2018 16:48 11,8 C 18,3 C 74 % 1016,2 hPa 0,0 l/m 23,8 km/h (4 Bft) S-SW 209 0 min 0,000 mm 0,8 UV-I 207 W/m 7,3 C 4,6 C 33,8 km/h (5 Bft) 100,00 %
26.04.2018 16:49 11,8 C 18,3 C 74 % 1016,2 hPa 0,0 l/m 20,5 km/h (4 Bft) SW 228 0 min 0,000 mm 0,8 UV-I 208 W/m 7,3 C 5,5 C 30,6 km/h (5 Bft) 95,65 %
26.04.2018 16:50 11,8 C 18,3 C 74 % 1016,1 hPa 0,0 l/m 23,8 km/h (4 Bft) W-SW 251 0 min 0,000 mm 0,8 UV-I 205 W/m 7,3 C 4,6 C 35,4 km/h (5 Bft) 100,00 %
26.04.2018 16:51 11,8 C 18,3 C 73 % 1016,3 hPa 0,0 l/m 20,2 km/h (4 Bft) SW 215 0 min 0,000 mm 0,8 UV-I 194 W/m 7,1 C 5,6 C 30,6 km/h (5 Bft) 95,65 %
26.04.2018 16:52 11,8 C 18,3 C 74 % 1016,3 hPa 0,0 l/m 14,8 km/h (3 Bft) SW 233 0 min 0,000 mm 0,7 UV-I 185 W/m 7,3 C 7,4 C 24,1 km/h (4 Bft) 95,83 %
26.04.2018 16:53 11,8 C 18,3 C 74 % 1016,2 hPa 0,0 l/m 17,5 km/h (3 Bft) S-SW 193 0 min 0,000 mm 0,7 UV-I 184 W/m 7,3 C 6,4 C 27,4 km/h (4 Bft) 100,00 %
26.04.2018 16:54 11,8 C 18,3 C 74 % 1016,2 hPa 0,0 l/m 19,2 km/h (3 Bft) S-SW 211 0 min 0,000 mm 0,7 UV-I 183 W/m 7,3 C 5,9 C 30,6 km/h (5 Bft) 100,00 %
26.04.2018 16:55 11,8 C 18,3 C 74 % 1016,2 hPa 0,0 l/m 26,6 km/h (4 Bft) SW 236 0 min 0,000 mm 0,7 UV-I 180 W/m 7,3 C 3,9 C 38,6 km/h (5 Bft) 100,00 %
26.04.2018 16:56 11,8 C 18,3 C 74 % 1016,2 hPa 0,0 l/m 22,8 km/h (4 Bft) SW 223 0 min 0,000 mm 0,6 UV-I 177 W/m 7,3 C 4,8 C 33,8 km/h (5 Bft) 100,00 %
26.04.2018 16:57 11,8 C 18,3 C 73 % 1016,3 hPa 0,0 l/m 19,0 km/h (3 Bft) S-SW 202 0 min 0,000 mm 0,6 UV-I 172 W/m 7,1 C 5,9 C 29,0 km/h (5 Bft) 100,00 %
26.04.2018 16:58 11,8 C 18,3 C 73 % 1016,3 hPa 0,0 l/m 19,3 km/h (3 Bft) SW 227 0 min 0,000 mm 0,6 UV-I 168 W/m 7,1 C 5,8 C 30,6 km/h (5 Bft) 95,65 %
26.04.2018 16:59 11,8 C 18,3 C 73 % 1016,3 hPa 0,0 l/m 24,1 km/h (4 Bft) W-SW 250 0 min 0,000 mm 0,6 UV-I 160 W/m 7,1 C 4,5 C 30,6 km/h (5 Bft) 100,00 %
26.04.2018 17:00 11,8 C 18,3 C 74 % 1016,2 hPa 0,0 l/m 22,5 km/h (4 Bft) SW 231 0 min 0,000 mm 0,5 UV-I 149 W/m 7,3 C 4,9 C 32,2 km/h (5 Bft) 100,00 %
26.04.2018 17:02 11,8 C 18,3 C 74 % 1016,3 hPa 0,0 l/m 20,6 km/h (4 Bft) W-SW 237 0 min 0,178 mm 0,5 UV-I 136 W/m 7,3 C 5,4 C 29,0 km/h (5 Bft) 98,00 %
26.04.2018 17:03 11,7 C 17,8 C 74 % 1016,3 hPa 0,0 l/m 20,8 km/h (4 Bft) SW 227 0 min 0,000 mm 0,5 UV-I 128 W/m 7,2 C 5,2 C 29,0 km/h (5 Bft) 100,00 %
26.04.2018 17:04 11,7 C 17,8 C 74 % 1016,3 hPa 0,0 l/m 18,8 km/h (3 Bft) SW 220 0 min 0,000 mm 0,1 UV-I 125 W/m 7,2 C 5,9 C 30,6 km/h (5 Bft) 100,00 %
26.04.2018 17:05 11,7 C 17,8 C 74 % 1016,3 hPa 0,0 l/m 23,4 km/h (4 Bft) W-SW 242 0 min 0,000 mm 0,0 UV-I 121 W/m 7,2 C 4,5 C 30,6 km/h (5 Bft) 100,00 %
26.04.2018 17:06 11,7 C 17,8 C 73 % 1016,2 hPa 0,0 l/m 27,6 km/h (4 Bft) SW 217 0 min 0,000 mm 0,0 UV-I 116 W/m 7,0 C 3,5 C 38,6 km/h (5 Bft) 100,00 %
26.04.2018 17:07 11,7 C 17,8 C 73 % 1016,3 hPa 0,0 l/m 28,2 km/h (4 Bft) SW 230 0 min 0,000 mm 0,0 UV-I 113 W/m 7,0 C 3,4 C 40,2 km/h (6 Bft) 100,00 %
26.04.2018 17:08 11,7 C 17,8 C 73 % 1016,3 hPa 0,0 l/m 23,2 km/h (4 Bft) SW 219 0 min 0,000 mm 0,0 UV-I 112 W/m 7,0 C 4,6 C 33,8 km/h (5 Bft) 100,00 %
26.04.2018 17:09 11,7 C 17,8 C 72 % 1016,3 hPa 0,0 l/m 20,5 km/h (4 Bft) SW 236 0 min 0,000 mm 0,0 UV-I 109 W/m 6,8 C 5,3 C 30,6 km/h (5 Bft) 100,00 %
26.04.2018 17:10 11,6 C 17,8 C 73 % 1016,3 hPa 0,0 l/m 20,2 km/h (4 Bft) SW 229 0 min 0,000 mm 0,0 UV-I 106 W/m 6,9 C 5,3 C 24,1 km/h (4 Bft) 100,00 %
26.04.2018 17:11 11,7 C 17,8 C 73 % 1016,3 hPa 0,0 l/m 20,9 km/h (4 Bft) W 274 0 min 0,000 mm 0,0 UV-I 103 W/m 7,0 C 5,2 C 30,6 km/h (5 Bft) 100,00 %
26.04.2018 17:12 11,6 C 17,8 C 74 % 1016,4 hPa 0,0 l/m 23,7 km/h (4 Bft) SW 221 0 min 0,000 mm 0,0 UV-I 96 W/m 7,1 C 4,3 C 40,2 km/h (6 Bft) 100,00 %
26.04.2018 17:13 11,6 C 17,8 C 74 % 1016,4 hPa 0,0 l/m 22,3 km/h (4 Bft) W 267 0 min 0,000 mm 0,0 UV-I 91 W/m 7,1 C 4,7 C 32,2 km/h (5 Bft) 100,00 %
26.04.2018 17:14 11,6 C 17,8 C 73 % 1016,4 hPa 0,0 l/m 18,2 km/h (3 Bft) W-SW 242 0 min 0,000 mm 0,0 UV-I 91 W/m 6,9 C 5,9 C 29,0 km/h (5 Bft) 95,83 %
26.04.2018 17:15 11,6 C 17,8 C 73 % 1016,4 hPa 0,0 l/m 19,5 km/h (3 Bft) SW 232 0 min 0,000 mm 0,0 UV-I 93 W/m 6,9 C 5,5 C 29,0 km/h (5 Bft) 95,65 %
26.04.2018 17:16 11,6 C 17,8 C 74 % 1016,4 hPa 0,0 l/m 20,5 km/h (4 Bft) W-SW 250 0 min 0,000 mm 0,0 UV-I 90 W/m 7,1 C 5,2 C 29,0 km/h (5 Bft) 100,00 %
26.04.2018 17:17 11,6 C 17,8 C 74 % 1016,4 hPa 0,0 l/m 21,4 km/h (4 Bft) SW 217 0 min 0,000 mm 0,0 UV-I 85 W/m 7,1 C 4,9 C 33,8 km/h (5 Bft) 96,15 %
26.04.2018 17:18 11,6 C 17,8 C 74 % 1016,4 hPa 0,0 l/m 25,1 km/h (4 Bft) W-SW 256 0 min 0,000 mm 0,0 UV-I 81 W/m 7,1 C 4,0 C 35,4 km/h (5 Bft) 100,00 %
26.04.2018 17:19 11,6 C 17,8 C 73 % 1016,4 hPa 0,0 l/m 21,9 km/h (4 Bft) SW 223 0 min 0,000 mm 0,0 UV-I 76 W/m 6,9 C 4,8 C 27,4 km/h (4 Bft) 100,00 %
26.04.2018 17:20 11,6 C 17,8 C 72 % 1016,4 hPa 0,0 l/m 23,3 km/h (4 Bft) SW 233 0 min 0,000 mm 0,0 UV-I 71 W/m 6,7 C 4,4 C 35,4 km/h (5 Bft) 100,00 %
26.04.2018 17:21 11,6 C 17,8 C 73 % 1016,4 hPa 0,0 l/m 16,7 km/h (3 Bft) W-SW 250 0 min 0,000 mm 0,0 UV-I 65 W/m 6,9 C 6,4 C 27,4 km/h (4 Bft) 100,00 %
26.04.2018 17:22 11,6 C 17,8 C 73 % 1016,4 hPa 0,0 l/m 20,5 km/h (4 Bft) W-SW 238 0 min 0,000 mm 0,0 UV-I 63 W/m 6,9 C 5,2 C 27,4 km/h (4 Bft) 100,00 %
26.04.2018 17:23 11,6 C 17,8 C 73 % 1016,4 hPa 0,0 l/m 20,0 km/h (4 Bft) SW 222 0 min 0,000 mm 0,0 UV-I 64 W/m 6,9 C 5,4 C 27,4 km/h (4 Bft) 100,00 %
26.04.2018 17:24 11,5 C 17,8 C 73 % 1016,4 hPa 0,0 l/m 24,1 km/h (4 Bft) SW 231 0 min 0,000 mm 0,0 UV-I 68 W/m 6,8 C 4,1 C 35,4 km/h (5 Bft) 100,00 %
26.04.2018 17:25 11,5 C 17,8 C 73 % 1016,4 hPa 0,0 l/m 19,0 km/h (3 Bft) SW 226 0 min 0,000 mm 0,0 UV-I 70 W/m 6,8 C 5,5 C 24,1 km/h (4 Bft) 100,00 %
26.04.2018 17:26 11,5 C 17,8 C 73 % 1016,3 hPa 0,0 l/m 20,3 km/h (4 Bft) W-SW 247 0 min 0,000 mm 0,0 UV-I 70 W/m 6,8 C 5,1 C 25,7 km/h (4 Bft) 93,33 %
26.04.2018 17:27 11,5 C 17,8 C 73 % 1016,4 hPa 0,0 l/m 16,1 km/h (3 Bft) SW 228 0 min 0,000 mm 0,0 UV-I 70 W/m 6,8 C 6,5 C 20,9 km/h (4 Bft) 100,00 %
26.04.2018 17:28 11,5 C 17,8 C 73 % 1016,3 hPa 0,0 l/m 19,6 km/h (3 Bft) SW 236 0 min 0,000 mm 0,0 UV-I 70 W/m 6,8 C 5,3 C 32,2 km/h (5 Bft) 100,00 %
26.04.2018 17:29 11,5 C 17,8 C 73 % 1016,4 hPa 0,0 l/m 20,0 km/h (4 Bft) W-SW 258 0 min 0,000 mm 0,0 UV-I 72 W/m 6,8 C 5,2 C 27,4 km/h (4 Bft) 100,00 %
26.04.2018 17:30 11,5 C 17,8 C 74 % 1016,4 hPa 0,0 l/m 16,9 km/h (3 Bft) W-SW 252 0 min 0,000 mm 0,0 UV-I 73 W/m 7,0 C 6,2 C 20,9 km/h (4 Bft) 100,00 %
26.04.2018 17:31 11,5 C 17,8 C 74 % 1016,4 hPa 0,0 l/m 18,5 km/h (3 Bft) W-SW 240 0 min 0,000 mm 0,0 UV-I 75 W/m 7,0 C 5,7 C 29,0 km/h (5 Bft) 95,83 %
26.04.2018 17:32 11,5 C 17,8 C 73 % 1016,3 hPa 0,0 l/m 24,7 km/h (4 Bft) SW 229 0 min 0,000 mm 0,0 UV-I 77 W/m 6,8 C 3,9 C 32,2 km/h (5 Bft) 100,00 %
26.04.2018 17:33 11,5 C 17,8 C 73 % 1016,4 hPa 0,0 l/m 19,1 km/h (3 Bft) W-SW 250 0 min 0,000 mm 0,0 UV-I 75 W/m 6,8 C 5,5 C 29,0 km/h (5 Bft) 100,00 %
26.04.2018 17:34 11,5 C 17,8 C 73 % 1016,4 hPa 0,0 l/m 16,5 km/h (3 Bft) W-SW 252 0 min 0,000 mm 0,0 UV-I 71 W/m 6,8 C 6,4 C 25,7 km/h (4 Bft) 91,30 %
26.04.2018 17:35 11,5 C 17,8 C 73 % 1016,4 hPa 0,0 l/m 22,7 km/h (4 Bft) SW 229 0 min 0,000 mm 0,0 UV-I 67 W/m 6,8 C 4,5 C 29,0 km/h (5 Bft) 100,00 %
26.04.2018 17:36 11,5 C 17,8 C 72 % 1016,4 hPa 0,0 l/m 24,2 km/h (4 Bft) SW 221 0 min 0,000 mm 0,0 UV-I 63 W/m 6,6 C 4,1 C 32,2 km/h (5 Bft) 100,00 %
26.04.2018 17:37 11,5 C 17,8 C 73 % 1016,4 hPa 0,0 l/m 19,7 km/h (3 Bft) W-SW 257 0 min 0,000 mm 0,0 UV-I 63 W/m 6,8 C 5,3 C 25,7 km/h (4 Bft) 100,00 %
26.04.2018 17:38 11,5 C 17,8 C 73 % 1016,4 hPa 0,0 l/m 22,3 km/h (4 Bft) W-SW 248 0 min 0,000 mm 0,0 UV-I 68 W/m 6,8 C 4,6 C 30,6 km/h (5 Bft) 100,00 %
26.04.2018 17:39 11,5 C 17,8 C 73 % 1016,3 hPa 0,0 l/m 20,6 km/h (4 Bft) W-SW 238 0 min 0,000 mm 0,0 UV-I 68 W/m 6,8 C 5,0 C 25,7 km/h (4 Bft) 100,00 %
26.04.2018 17:40 11,5 C 17,8 C 73 % 1016,4 hPa 0,0 l/m 21,0 km/h (4 Bft) W-SW 238 0 min 0,000 mm 0,0 UV-I 72 W/m 6,8 C 4,9 C 29,0 km/h (5 Bft) 100,00 %
26.04.2018 17:41 11,5 C 17,8 C 72 % 1016,3 hPa 0,0 l/m 22,7 km/h (4 Bft) S-SW 212 0 min 0,000 mm 0,0 UV-I 79 W/m 6,6 C 4,5 C 30,6 km/h (5 Bft) 100,00 %
26.04.2018 17:42 11,5 C 17,8 C 73 % 1016,3 hPa 0,0 l/m 16,9 km/h (3 Bft) W-SW 255 0 min 0,000 mm 0,0 UV-I 82 W/m 6,8 C 6,2 C 27,4 km/h (4 Bft) 100,00 %
26.04.2018 17:43 11,5 C 17,8 C 72 % 1016,3 hPa 0,0 l/m 24,8 km/h (4 Bft) SW 232 0 min 0,000 mm 0,0 UV-I 80 W/m 6,6 C 3,9 C 37,0 km/h (5 Bft) 100,00 %
26.04.2018 17:44 11,5 C 17,8 C 72 % 1016,3 hPa 0,0 l/m 12,9 km/h (3 Bft) SW 221 0 min 0,000 mm 0,0 UV-I 77 W/m 6,6 C 7,8 C 16,1 km/h (3 Bft) 100,00 %
26.04.2018 17:45 11,5 C 17,8 C 72 % 1016,3 hPa 0,0 l/m 22,0 km/h (4 Bft) SW 233 0 min 0,000 mm 0,0 UV-I 76 W/m 6,6 C 4,6 C 32,2 km/h (5 Bft) 100,00 %
26.04.2018 17:46 11,5 C 17,8 C 72 % 1016,3 hPa 0,0 l/m 16,9 km/h (3 Bft) SW 223 0 min 0,000 mm 0,0 UV-I 71 W/m 6,6 C 6,2 C 22,5 km/h (4 Bft) 96,55 %
26.04.2018 17:47 11,5 C 17,8 C 72 % 1016,3 hPa 0,0 l/m 16,2 km/h (3 Bft) W-SW 246 0 min 0,000 mm 0,0 UV-I 70 W/m 6,6 C 6,5 C 24,1 km/h (4 Bft) 97,79 %
26.04.2018 17:48 11,5 C 17,8 C 72 % 1016,3 hPa 0,0 l/m 20,0 km/h (4 Bft) SW 216 0 min 0,000 mm 0,0 UV-I 76 W/m 6,6 C 5,2 C 30,6 km/h (5 Bft) 97,44 %
26.04.2018 17:49 11,5 C 17,8 C 73 % 1016,3 hPa 0,0 l/m 19,6 km/h (3 Bft) W-SW 244 0 min 0,000 mm 0,0 UV-I 83 W/m 6,8 C 5,3 C 25,7 km/h (4 Bft) 100,00 %
26.04.2018 17:50 11,6 C 17,8 C 73 % 1016,3 hPa 0,0 l/m 21,7 km/h (4 Bft) W-SW 252 0 min 0,000 mm 0,0 UV-I 84 W/m 6,9 C 4,9 C 30,6 km/h (5 Bft) 100,00 %
26.04.2018 17:51 11,6 C 17,8 C 72 % 1016,3 hPa 0,0 l/m 23,0 km/h (4 Bft) W 272 0 min 0,000 mm 0,0 UV-I 90 W/m 6,7 C 4,5 C 29,0 km/h (5 Bft) 95,65 %
26.04.2018 17:52 11,6 C 17,8 C 72 % 1016,4 hPa 0,0 l/m 23,7 km/h (4 Bft) SW 234 0 min 0,000 mm 0,0 UV-I 90 W/m 6,7 C 4,3 C 30,6 km/h (5 Bft) 100,00 %
26.04.2018 17:53 11,6 C 17,8 C 72 % 1016,4 hPa 0,0 l/m 20,5 km/h (4 Bft) W-SW 243 0 min 0,000 mm 0,0 UV-I 84 W/m 6,7 C 5,2 C 24,1 km/h (4 Bft) 92,86 %
26.04.2018 17:54 11,6 C 17,8 C 73 % 1016,3 hPa 0,0 l/m 21,3 km/h (4 Bft) SW 230 0 min 0,000 mm 0,0 UV-I 78 W/m 6,9 C 5,0 C 29,0 km/h (5 Bft) 100,00 %
26.04.2018 17:55 11,6 C 17,8 C 72 % 1016,3 hPa 0,0 l/m 24,4 km/h (4 Bft) W-SW 250 0 min 0,000 mm 0,0 UV-I 74 W/m 6,7 C 4,1 C 30,6 km/h (5 Bft) 100,00 %
26.04.2018 17:56 11,6 C 17,8 C 72 % 1016,3 hPa 0,0 l/m 18,0 km/h (3 Bft) SW 232 0 min 0,000 mm 0,0 UV-I 77 W/m 6,7 C 6,0 C 24,1 km/h (4 Bft) 100,00 %
26.04.2018 17:57 11,6 C 17,8 C 72 % 1016,3 hPa 0,0 l/m 13,5 km/h (3 Bft) SW 231 0 min 0,000 mm 0,0 UV-I 84 W/m 6,7 C 7,7 C 22,5 km/h (4 Bft) 100,00 %
26.04.2018 17:58 11,6 C 17,8 C 72 % 1016,4 hPa 0,0 l/m 14,4 km/h (3 Bft) SW 217 0 min 0,000 mm 0,0 UV-I 93 W/m 6,7 C 7,3 C 17,7 km/h (3 Bft) 100,00 %
26.04.2018 17:59 11,6 C 17,8 C 72 % 1016,4 hPa 0,0 l/m 12,9 km/h (3 Bft) W-SW 256 0 min 0,000 mm 0,0 UV-I 99 W/m 6,7 C 7,9 C 17,7 km/h (3 Bft) 100,00 %
26.04.2018 18:00 11,6 C 17,8 C 74 % 1016,4 hPa 0,0 l/m 19,7 km/h (3 Bft) SW 236 0 min 0,102 mm 0,0 UV-I 97 W/m 7,1 C 5,4 C 24,1 km/h (4 Bft) 100,00 %
26.04.2018 18:02 11,6 C 17,8 C 73 % 1016,4 hPa 0,0 l/m 17,8 km/h (3 Bft) W-SW 238 0 min 0,000 mm 0,0 UV-I 86 W/m 6,9 C 6,1 C 25,7 km/h (4 Bft) 100,00 %
26.04.2018 18:03 11,6 C 17,8 C 73 % 1016,4 hPa 0,0 l/m 13,7 km/h (3 Bft) W-SW 240 0 min 0,000 mm 0,0 UV-I 81 W/m 6,9 C 7,6 C 19,3 km/h (3 Bft) 100,00 %
26.04.2018 18:04 11,6 C 17,8 C 73 % 1016,4 hPa 0,0 l/m 16,2 km/h (3 Bft) W-SW 244 0 min 0,000 mm 0,0 UV-I 83 W/m 6,9 C 6,6 C 20,9 km/h (4 Bft) 95,83 %
26.04.2018 18:05 11,6 C 17,8 C 73 % 1016,4 hPa 0,0 l/m 13,7 km/h (3 Bft) S-SW 204 0 min 0,000 mm 0,0 UV-I 85 W/m 6,9 C 7,6 C 22,5 km/h (4 Bft) 100,00 %
26.04.2018 18:06 11,6 C 17,8 C 73 % 1016,4 hPa 0,0 l/m 13,1 km/h (3 Bft) W-SW 252 0 min 0,000 mm 0,0 UV-I 87 W/m 6,9 C 7,9 C 20,9 km/h (4 Bft) 100,00 %
26.04.2018 18:07 11,6 C 17,8 C 73 % 1016,4 hPa 0,0 l/m 12,2 km/h (2 Bft) W 266 0 min 0,000 mm 0,0 UV-I 90 W/m 6,9 C 8,3 C 20,9 km/h (4 Bft) 100,00 %
26.04.2018 18:08 11,6 C 17,8 C 73 % 1016,4 hPa 0,0 l/m 19,7 km/h (3 Bft) W-SW 241 0 min 0,000 mm 0,0 UV-I 95 W/m 6,9 C 5,4 C 27,4 km/h (4 Bft) 100,00 %
26.04.2018 18:09 11,6 C 17,8 C 73 % 1016,4 hPa 0,0 l/m 22,5 km/h (4 Bft) SW 225 0 min 0,000 mm 0,0 UV-I 93 W/m 6,9 C 4,6 C 30,6 km/h (5 Bft) 100,00 %
26.04.2018 18:10 11,6 C 17,8 C 72 % 1016,4 hPa 0,0 l/m 26,1 km/h (4 Bft) W-NW 291 0 min 0,000 mm 0,0 UV-I 93 W/m 6,7 C 3,7 C 33,8 km/h (5 Bft) 100,00 %
26.04.2018 18:11 11,6 C 17,8 C 72 % 1016,4 hPa 0,0 l/m 18,3 km/h (3 Bft) W-SW 240 0 min 0,000 mm 0,0 UV-I 92 W/m 6,7 C 5,9 C 27,4 km/h (4 Bft) 100,00 %
26.04.2018 18:12 11,6 C 17,8 C 72 % 1016,4 hPa 0,0 l/m 18,9 km/h (3 Bft) W-NW 286 0 min 0,000 mm 0,0 UV-I 90 W/m 6,7 C 5,7 C 24,1 km/h (4 Bft) 96,15 %
26.04.2018 18:13 11,6 C 17,8 C 73 % 1016,5 hPa 0,0 l/m 18,7 km/h (3 Bft) W-SW 250 0 min 0,000 mm 0,0 UV-I 88 W/m 6,9 C 5,8 C 22,5 km/h (4 Bft) 95,83 %
26.04.2018 18:14 11,6 C 17,8 C 74 % 1016,5 hPa 0,0 l/m 22,1 km/h (4 Bft) W-SW 242 0 min 0,000 mm 0,0 UV-I 87 W/m 7,1 C 4,7 C 30,6 km/h (5 Bft) 95,65 %
26.04.2018 18:15 11,6 C 17,8 C 73 % 1016,5 hPa 0,0 l/m 19,3 km/h (3 Bft) W-SW 255 0 min 0,000 mm 0,0 UV-I 82 W/m 6,9 C 5,6 C 25,7 km/h (4 Bft) 95,83 %
26.04.2018 18:16 11,6 C 17,8 C 72 % 1016,5 hPa 0,0 l/m 21,7 km/h (4 Bft) SW 218 0 min 0,000 mm 0,0 UV-I 78 W/m 6,7 C 4,9 C 29,0 km/h (5 Bft) 95,65 %
26.04.2018 18:17 11,6 C 17,8 C 72 % 1016,5 hPa 0,0 l/m 18,6 km/h (3 Bft) SW 232 0 min 0,000 mm 0,0 UV-I 74 W/m 6,7 C 5,8 C 25,7 km/h (4 Bft) 100,00 %
26.04.2018 18:18 11,6 C 17,8 C 73 % 1016,5 hPa 0,0 l/m 14,8 km/h (3 Bft) SW 225 0 min 0,000 mm 0,0 UV-I 71 W/m 6,9 C 7,2 C 24,1 km/h (4 Bft) 95,65 %
26.04.2018 18:19 11,6 C 17,8 C 73 % 1016,5 hPa 0,0 l/m 18,8 km/h (3 Bft) W-SW 244 0 min 0,000 mm 0,0 UV-I 69 W/m 6,9 C 5,7 C 27,4 km/h (4 Bft) 100,00 %
26.04.2018 18:20 11,6 C 17,8 C 72 % 1016,5 hPa 0,0 l/m 22,2 km/h (4 Bft) W-SW 238 0 min 0,000 mm 0,0 UV-I 69 W/m 6,7 C 4,7 C 30,6 km/h (5 Bft) 95,65 %
26.04.2018 18:21 11,6 C 17,8 C 73 % 1016,5 hPa 0,0 l/m 16,2 km/h (3 Bft) W-SW 257 0 min 0,000 mm 0,0 UV-I 68 W/m 6,9 C 6,6 C 22,5 km/h (4 Bft) 95,83 %
26.04.2018 18:22 11,6 C 17,8 C 72 % 1016,5 hPa 0,0 l/m 18,6 km/h (3 Bft) W-SW 245 0 min 0,000 mm 0,0 UV-I 66 W/m 6,7 C 5,8 C 25,7 km/h (4 Bft) 95,83 %
26.04.2018 18:23 11,6 C 17,8 C 73 % 1016,5 hPa 0,0 l/m 16,0 km/h (3 Bft) W-SW 244 0 min 0,000 mm 0,0 UV-I 63 W/m 6,9 C 6,7 C 22,5 km/h (4 Bft) 95,65 %
26.04.2018 18:24 11,6 C 17,8 C 73 % 1016,5 hPa 0,0 l/m 16,8 km/h (3 Bft) SW 236 0 min 0,000 mm 0,0 UV-I 60 W/m 6,9 C 6,4 C 24,1 km/h (4 Bft) 95,83 %
26.04.2018 18:25 11,5 C 17,8 C 73 % 1016,6 hPa 0,0 l/m 19,6 km/h (3 Bft) W-SW 241 0 min 0,000 mm 0,0 UV-I 58 W/m 6,8 C 5,3 C 24,1 km/h (4 Bft) 100,00 %
26.04.2018 18:26 11,5 C 17,8 C 73 % 1016,6 hPa 0,0 l/m 19,7 km/h (3 Bft) W-SW 248 0 min 0,000 mm 0,0 UV-I 58 W/m 6,8 C 5,3 C 30,6 km/h (5 Bft) 91,67 %
26.04.2018 18:27 11,5 C 17,8 C 73 % 1016,5 hPa 0,0 l/m 19,2 km/h (3 Bft) SW 236 0 min 0,000 mm 0,0 UV-I 61 W/m 6,8 C 5,5 C 27,4 km/h (4 Bft) 92,31 %
26.04.2018 18:28 11,5 C 17,8 C 73 % 1016,6 hPa 0,0 l/m 17,1 km/h (3 Bft) SW 230 0 min 0,000 mm 0,0 UV-I 61 W/m 6,8 C 6,2 C 24,1 km/h (4 Bft) 100,00 %
26.04.2018 18:29 11,5 C 17,8 C 72 % 1016,6 hPa 0,0 l/m 15,6 km/h (3 Bft) W-SW 241 0 min 0,000 mm 0,0 UV-I 59 W/m 6,6 C 6,7 C 20,9 km/h (4 Bft) 95,65 %
26.04.2018 18:30 11,5 C 17,8 C 73 % 1016,5 hPa 0,0 l/m 16,8 km/h (3 Bft) W-SW 242 0 min 0,000 mm 0,0 UV-I 60 W/m 6,8 C 6,3 C 24,1 km/h (4 Bft) 100,00 %
26.04.2018 18:31 11,5 C 17,8 C 73 % 1016,5 hPa 0,0 l/m 13,1 km/h (3 Bft) S-SW 197 0 min 0,000 mm 0,0 UV-I 64 W/m 6,8 C 7,7 C 22,5 km/h (4 Bft) 86,96 %
26.04.2018 18:33 11,5 C 17,8 C 73 % 1016,5 hPa 0,0 l/m 17,0 km/h (3 Bft) SW 231 0 min 0,000 mm 0,0 UV-I 67 W/m 6,8 C 6,2 C 25,7 km/h (4 Bft) 95,12 %
26.04.2018 18:34 11,4 C 17,8 C 73 % 1016,5 hPa 0,0 l/m 20,6 km/h (4 Bft) W-SW 243 0 min 0,000 mm 0,0 UV-I 65 W/m 6,7 C 4,9 C 24,1 km/h (4 Bft) 100,00 %
26.04.2018 18:35 11,4 C 17,8 C 73 % 1016,5 hPa 0,0 l/m 15,0 km/h (3 Bft) W-SW 244 0 min 0,000 mm 0,0 UV-I 66 W/m 6,7 C 6,8 C 20,9 km/h (4 Bft) 95,65 %
26.04.2018 18:36 11,4 C 17,8 C 73 % 1016,5 hPa 0,0 l/m 20,2 km/h (4 Bft) SW 228 0 min 0,000 mm 0,0 UV-I 67 W/m 6,7 C 5,0 C 29,0 km/h (5 Bft) 95,83 %
26.04.2018 18:37 11,4 C 17,8 C 73 % 1016,5 hPa 0,0 l/m 12,0 km/h (2 Bft) SW 225 0 min 0,000 mm 0,0 UV-I 67 W/m 6,7 C 8,1 C 19,3 km/h (3 Bft) 100,00 %
26.04.2018 18:38 11,4 C 17,8 C 73 % 1016,5 hPa 0,0 l/m 15,5 km/h (3 Bft) SW 219 0 min 0,000 mm 0,0 UV-I 65 W/m 6,7 C 6,6 C 24,1 km/h (4 Bft) 96,30 %
26.04.2018 18:39 11,4 C 17,8 C 73 % 1016,5 hPa 0,0 l/m 16,8 km/h (3 Bft) SW 222 0 min 0,000 mm 0,0 UV-I 65 W/m 6,7 C 6,2 C 24,1 km/h (4 Bft) 100,00 %
26.04.2018 18:40 11,4 C 17,8 C 73 % 1016,5 hPa 0,0 l/m 12,4 km/h (3 Bft) SW 234 0 min 0,000 mm 0,0 UV-I 64 W/m 6,7 C 7,9 C 19,3 km/h (3 Bft) 91,67 %
26.04.2018 18:41 11,4 C 17,8 C 72 % 1016,5 hPa 0,0 l/m 14,5 km/h (3 Bft) W-SW 246 0 min 0,000 mm 0,0 UV-I 62 W/m 6,5 C 7,0 C 22,5 km/h (4 Bft) 100,00 %
26.04.2018 18:42 11,4 C 17,8 C 73 % 1016,6 hPa 0,0 l/m 13,5 km/h (3 Bft) W-SW 247 0 min 0,000 mm 0,0 UV-I 60 W/m 6,7 C 7,4 C 20,9 km/h (4 Bft) 95,83 %
26.04.2018 18:43 11,4 C 17,8 C 73 % 1016,6 hPa 0,0 l/m 14,8 km/h (3 Bft) S-SW 213 0 min 0,000 mm 0,0 UV-I 58 W/m 6,7 C 6,9 C 19,3 km/h (3 Bft) 100,00 %
26.04.2018 18:44 11,4 C 17,8 C 73 % 1016,6 hPa 0,0 l/m 12,3 km/h (3 Bft) W-SW 239 0 min 0,000 mm 0,0 UV-I 53 W/m 6,7 C 8,0 C 16,1 km/h (3 Bft) 95,65 %
26.04.2018 18:45 11,4 C 17,8 C 74 % 1016,6 hPa 0,0 l/m 16,1 km/h (3 Bft) W-SW 242 0 min 0,000 mm 0,0 UV-I 50 W/m 6,9 C 6,4 C 22,5 km/h (4 Bft) 96,15 %
26.04.2018 18:46 11,4 C 17,8 C 73 % 1016,7 hPa 0,0 l/m 15,0 km/h (3 Bft) W-SW 254 0 min 0,000 mm 0,0 UV-I 50 W/m 6,7 C 6,8 C 24,1 km/h (4 Bft) 100,00 %
26.04.2018 18:47 11,4 C 17,8 C 73 % 1016,6 hPa 0,0 l/m 14,7 km/h (3 Bft) S-SW 199 0 min 0,000 mm 0,0 UV-I 51 W/m 6,7 C 6,9 C 20,9 km/h (4 Bft) 100,00 %
26.04.2018 18:48 11,4 C 17,8 C 73 % 1016,6 hPa 0,0 l/m 16,2 km/h (3 Bft) SW 226 0 min 0,000 mm 0,0 UV-I 51 W/m 6,7 C 6,4 C 24,1 km/h (4 Bft) 95,65 %
26.04.2018 18:49 11,4 C 17,8 C 73 % 1016,6 hPa 0,0 l/m 17,2 km/h (3 Bft) W-SW 249 0 min 0,000 mm 0,0 UV-I 53 W/m 6,7 C 6,0 C 25,7 km/h (4 Bft) 95,83 %
26.04.2018 18:50 11,4 C 17,8 C 73 % 1016,6 hPa 0,0 l/m 17,7 km/h (3 Bft) SW 229 0 min 0,000 mm 0,0 UV-I 53 W/m 6,7 C 5,8 C 27,4 km/h (4 Bft) 100,00 %
26.04.2018 18:51 11,4 C 17,8 C 72 % 1016,6 hPa 0,0 l/m 17,8 km/h (3 Bft) W-SW 254 0 min 0,000 mm 0,0 UV-I 54 W/m 6,5 C 5,8 C 25,7 km/h (4 Bft) 95,83 %
26.04.2018 18:52 11,4 C 17,8 C 72 % 1016,6 hPa 0,0 l/m 20,0 km/h (4 Bft) W-SW 241 0 min 0,000 mm 0,0 UV-I 54 W/m 6,5 C 5,1 C 25,7 km/h (4 Bft) 100,00 %
26.04.2018 18:53 11,4 C 17,8 C 72 % 1016,6 hPa 0,0 l/m 18,0 km/h (3 Bft) W-SW 254 0 min 0,000 mm 0,0 UV-I 54 W/m 6,5 C 5,7 C 22,5 km/h (4 Bft) 100,00 %
26.04.2018 18:54 11,4 C 17,8 C 72 % 1016,6 hPa 0,0 l/m 16,8 km/h (3 Bft) W-SW 250 0 min 0,000 mm 0,0 UV-I 56 W/m 6,5 C 6,2 C 22,5 km/h (4 Bft) 95,65 %
26.04.2018 18:55 11,4 C 17,8 C 72 % 1016,6 hPa 0,0 l/m 16,9 km/h (3 Bft) W-SW 241 0 min 0,000 mm 0,0 UV-I 56 W/m 6,5 C 6,1 C 20,9 km/h (4 Bft) 100,00 %
26.04.2018 18:56 11,4 C 17,8 C 72 % 1016,6 hPa 0,0 l/m 15,0 km/h (3 Bft) W-SW 240 0 min 0,000 mm 0,0 UV-I 54 W/m 6,5 C 6,8 C 20,9 km/h (4 Bft) 91,30 %
26.04.2018 18:57 11,4 C 17,8 C 72 % 1016,6 hPa 0,0 l/m 16,2 km/h (3 Bft) W-SW 257 0 min 0,000 mm 0,0 UV-I 54 W/m 6,5 C 6,4 C 20,9 km/h (4 Bft) 100,00 %
26.04.2018 18:58 11,4 C 17,8 C 72 % 1016,6 hPa 0,0 l/m 18,3 km/h (3 Bft) SW 232 0 min 0,000 mm 0,0 UV-I 53 W/m 6,5 C 5,6 C 24,1 km/h (4 Bft) 95,65 %
26.04.2018 18:59 11,4 C 17,8 C 72 % 1016,7 hPa 0,0 l/m 18,3 km/h (3 Bft) SW 233 0 min 0,000 mm 0,0 UV-I 53 W/m 6,5 C 5,6 C 24,1 km/h (4 Bft) 100,00 %
26.04.2018 19:00 11,4 C 17,8 C 72 % 1016,7 hPa 0,0 l/m 15,0 km/h (3 Bft) W 281 0 min 0,000 mm 0,0 UV-I 51 W/m 6,5 C 6,8 C 19,3 km/h (3 Bft) 100,00 %
26.04.2018 19:02 11,4 C 17,8 C 72 % 1016,7 hPa 0,0 l/m 15,7 km/h (3 Bft) W-SW 238 0 min 0,076 mm 0,0 UV-I 49 W/m 6,5 C 6,6 C 27,4 km/h (4 Bft) 97,56 %
26.04.2018 19:03 11,4 C 17,8 C 72 % 1016,7 hPa 0,0 l/m 15,5 km/h (3 Bft) W 259 0 min 0,000 mm 0,0 UV-I 48 W/m 6,5 C 6,6 C 20,9 km/h (4 Bft) 95,83 %
26.04.2018 19:04 11,4 C 17,8 C 73 % 1016,7 hPa 0,0 l/m 16,2 km/h (3 Bft) SW 236 0 min 0,000 mm 0,0 UV-I 48 W/m 6,7 C 6,4 C 20,9 km/h (4 Bft) 95,83 %
26.04.2018 19:05 11,4 C 17,8 C 72 % 1016,7 hPa 0,0 l/m 11,6 km/h (2 Bft) SW 223 0 min 0,000 mm 0,0 UV-I 47 W/m 6,5 C 8,3 C 16,1 km/h (3 Bft) 96,15 %
26.04.2018 19:06 11,3 C 17,8 C 73 % 1016,7 hPa 0,0 l/m 12,8 km/h (3 Bft) SW 234 0 min 0,000 mm 0,0 UV-I 46 W/m 6,6 C 7,6 C 19,3 km/h (3 Bft) 91,67 %
26.04.2018 19:07 11,3 C 17,8 C 73 % 1016,7 hPa 0,0 l/m 11,1 km/h (2 Bft) W-SW 238 0 min 0,000 mm 0,0 UV-I 43 W/m 6,6 C 8,5 C 17,7 km/h (3 Bft) 97,22 %
26.04.2018 19:08 11,3 C 17,8 C 73 % 1016,8 hPa 0,0 l/m 12,4 km/h (3 Bft) SW 231 0 min 0,000 mm 0,0 UV-I 40 W/m 6,6 C 7,8 C 19,3 km/h (3 Bft) 100,00 %
26.04.2018 19:09 11,3 C 17,8 C 73 % 1016,8 hPa 0,0 l/m 10,4 km/h (2 Bft) S-SW 200 0 min 0,000 mm 0,0 UV-I 40 W/m 6,6 C 8,8 C 19,3 km/h (3 Bft) 100,00 %
26.04.2018 19:10 11,3 C 17,8 C 73 % 1016,8 hPa 0,0 l/m 11,5 km/h (2 Bft) S-SW 198 0 min 0,000 mm 0,0 UV-I 40 W/m 6,6 C 8,3 C 20,9 km/h (4 Bft) 95,83 %
26.04.2018 19:11 11,3 C 17,8 C 73 % 1016,7 hPa 0,0 l/m 15,7 km/h (3 Bft) W-SW 238 0 min 0,000 mm 0,0 UV-I 40 W/m 6,6 C 6,4 C 20,9 km/h (4 Bft) 95,65 %
26.04.2018 19:12 11,3 C 17,8 C 73 % 1016,8 hPa 0,0 l/m 14,3 km/h (3 Bft) W-SW 238 0 min 0,000 mm 0,0 UV-I 39 W/m 6,6 C 7,0 C 19,3 km/h (3 Bft) 100,00 %
26.04.2018 19:13 11,3 C 17,8 C 73 % 1016,8 hPa 0,0 l/m 14,3 km/h (3 Bft) S-SW 200 0 min 0,000 mm 0,0 UV-I 36 W/m 6,6 C 7,0 C 22,5 km/h (4 Bft) 95,65 %
26.04.2018 19:14 11,3 C 17,8 C 73 % 1016,8 hPa 0,0 l/m 14,9 km/h (3 Bft) SW 234 0 min 0,000 mm 0,0 UV-I 33 W/m 6,6 C 6,7 C 24,1 km/h (4 Bft) 100,00 %
26.04.2018 19:15 11,3 C 17,8 C 73 % 1016,8 hPa 0,0 l/m 15,2 km/h (3 Bft) SW 223 0 min 0,000 mm 0,0 UV-I 32 W/m 6,6 C 6,6 C 20,9 km/h (4 Bft) 91,30 %
26.04.2018 19:16 11,3 C 17,8 C 72 % 1016,7 hPa 0,0 l/m 13,8 km/h (3 Bft) SW 224 0 min 0,000 mm 0,0 UV-I 32 W/m 6,4 C 7,2 C 20,9 km/h (4 Bft) 95,83 %
26.04.2018 19:17 11,3 C 17,8 C 72 % 1016,7 hPa 0,0 l/m 14,5 km/h (3 Bft) W 264 0 min 0,000 mm 0,0 UV-I 32 W/m 6,4 C 6,9 C 22,5 km/h (4 Bft) 92,31 %
26.04.2018 19:18 11,3 C 17,8 C 72 % 1016,8 hPa 0,0 l/m 13,6 km/h (3 Bft) W 261 0 min 0,000 mm 0,0 UV-I 30 W/m 6,4 C 7,3 C 17,7 km/h (3 Bft) 96,30 %
26.04.2018 19:19 11,3 C 17,8 C 73 % 1016,7 hPa 0,0 l/m 12,9 km/h (3 Bft) SW 222 0 min 0,000 mm 0,0 UV-I 30 W/m 6,6 C 7,6 C 17,7 km/h (3 Bft) 100,00 %
26.04.2018 19:20 11,3 C 17,8 C 73 % 1016,7 hPa 0,0 l/m 16,6 km/h (3 Bft) W-SW 240 0 min 0,000 mm 0,0 UV-I 28 W/m 6,6 C 6,1 C 20,9 km/h (4 Bft) 95,83 %
26.04.2018 19:21 11,3 C 17,8 C 73 % 1016,7 hPa 0,0 l/m 16,7 km/h (3 Bft) SW 233 0 min 0,000 mm 0,0 UV-I 28 W/m 6,6 C 6,1 C 25,7 km/h (4 Bft) 100,00 %
26.04.2018 19:22 11,3 C 17,8 C 72 % 1016,7 hPa 0,0 l/m 15,6 km/h (3 Bft) SW 222 0 min 0,000 mm 0,0 UV-I 28 W/m 6,4 C 6,5 C 22,5 km/h (4 Bft) 95,83 %
26.04.2018 19:23 11,3 C 17,8 C 72 % 1016,7 hPa 0,0 l/m 16,9 km/h (3 Bft) SW 227 0 min 0,000 mm 0,0 UV-I 30 W/m 6,4 C 6,0 C 25,7 km/h (4 Bft) 97,76 %
26.04.2018 19:24 11,3 C 17,8 C 72 % 1016,7 hPa 0,0 l/m 14,1 km/h (3 Bft) W-SW 251 0 min 0,000 mm 0,0 UV-I 30 W/m 6,4 C 7,1 C 19,3 km/h (3 Bft) 94,74 %
26.04.2018 19:25 11,3 C 17,8 C 72 % 1016,7 hPa 0,0 l/m 11,1 km/h (2 Bft) W-SW 244 0 min 0,000 mm 0,0 UV-I 29 W/m 6,4 C 8,5 C 16,1 km/h (3 Bft) 91,67 %
26.04.2018 19:26 11,3 C 17,8 C 72 % 1016,7 hPa 0,0 l/m 12,5 km/h (3 Bft) SW 223 0 min 0,000 mm 0,0 UV-I 26 W/m 6,4 C 7,8 C 17,7 km/h (3 Bft) 95,65 %
26.04.2018 19:27 11,3 C 17,8 C 72 % 1016,7 hPa 0,0 l/m 16,6 km/h (3 Bft) SW 232 0 min 0,000 mm 0,0 UV-I 26 W/m 6,4 C 6,1 C 24,1 km/h (4 Bft) 100,00 %
26.04.2018 19:28 11,3 C 17,8 C 72 % 1016,7 hPa 0,0 l/m 12,3 km/h (3 Bft) SW 219 0 min 0,000 mm 0,0 UV-I 26 W/m 6,4 C 7,9 C 20,9 km/h (4 Bft) 91,30 %
26.04.2018 19:29 11,3 C 17,8 C 72 % 1016,8 hPa 0,0 l/m 16,6 km/h (3 Bft) W-SW 249 0 min 0,000 mm 0,0 UV-I 26 W/m 6,4 C 6,1 C 25,7 km/h (4 Bft) 100,00 %
26.04.2018 19:30 11,2 C 17,8 C 72 % 1016,8 hPa 0,0 l/m 13,3 km/h (3 Bft) W-SW 248 0 min 0,000 mm 0,0 UV-I 26 W/m 6,3 C 7,3 C 17,7 km/h (3 Bft) 86,96 %
26.04.2018 19:31 11,2 C 17,8 C 72 % 1016,8 hPa 0,0 l/m 10,1 km/h (2 Bft) SW 226 0 min 0,000 mm 0,0 UV-I 26 W/m 6,3 C 8,9 C 19,3 km/h (3 Bft) 96,30 %
26.04.2018 19:33 11,2 C 17,8 C 72 % 1016,7 hPa 0,0 l/m 12,2 km/h (2 Bft) SW 220 0 min 0,000 mm 0,0 UV-I 28 W/m 6,3 C 7,8 C 19,3 km/h (3 Bft) 97,87 %
26.04.2018 19:34 11,2 C 17,8 C 72 % 1016,7 hPa 0,0 l/m 13,7 km/h (3 Bft) W-SW 243 0 min 0,000 mm 0,0 UV-I 31 W/m 6,3 C 7,1 C 16,1 km/h (3 Bft) 100,00 %
26.04.2018 19:35 11,2 C 17,8 C 72 % 1016,7 hPa 0,0 l/m 12,7 km/h (3 Bft) SW 222 0 min 0,000 mm 0,0 UV-I 32 W/m 6,3 C 7,6 C 19,3 km/h (3 Bft) 95,83 %
26.04.2018 19:36 11,2 C 17,8 C 72 % 1016,7 hPa 0,0 l/m 9,6 km/h (2 Bft) W-SW 257 0 min 0,000 mm 0,0 UV-I 32 W/m 6,3 C 9,1 C 12,9 km/h (3 Bft) 95,65 %
26.04.2018 19:37 11,2 C 17,8 C 72 % 1016,7 hPa 0,0 l/m 11,6 km/h (2 Bft) SW 233 0 min 0,000 mm 0,0 UV-I 32 W/m 6,3 C 8,1 C 16,1 km/h (3 Bft) 96,30 %
26.04.2018 19:38 11,2 C 17,8 C 72 % 1016,7 hPa 0,0 l/m 10,1 km/h (2 Bft) SW 230 0 min 0,000 mm 0,0 UV-I 32 W/m 6,3 C 8,9 C 14,5 km/h (3 Bft) 100,00 %
26.04.2018 19:39 11,2 C 17,8 C 72 % 1016,7 hPa 0,0 l/m 12,5 km/h (3 Bft) W-SW 256 0 min 0,000 mm 0,0 UV-I 32 W/m 6,3 C 7,7 C 16,1 km/h (3 Bft) 93,33 %
26.04.2018 19:40 11,2 C 17,8 C 72 % 1016,8 hPa 0,0 l/m 9,8 km/h (2 Bft) W-SW 240 0 min 0,000 mm 0,0 UV-I 31 W/m 6,3 C 9,0 C 16,1 km/h (3 Bft) 100,00 %
26.04.2018 19:41 11,2 C 17,8 C 72 % 1016,8 hPa 0,0 l/m 10,3 km/h (2 Bft) W-SW 241 0 min 0,000 mm 0,0 UV-I 32 W/m 6,3 C 8,8 C 17,7 km/h (3 Bft) 95,65 %
26.04.2018 19:43 11,2 C 17,8 C 72 % 1016,8 hPa 0,0 l/m 11,0 km/h (2 Bft) W-SW 246 0 min 0,000 mm 0,0 UV-I 28 W/m 6,3 C 8,4 C 20,9 km/h (4 Bft) 96,00 %
26.04.2018 19:44 11,2 C 17,8 C 71 % 1016,8 hPa 0,0 l/m 11,9 km/h (2 Bft) SW 219 0 min 0,000 mm 0,0 UV-I 26 W/m 6,1 C 7,9 C 16,1 km/h (3 Bft) 95,83 %
26.04.2018 19:45 11,2 C 17,8 C 72 % 1016,8 hPa 0,0 l/m 11,6 km/h (2 Bft) W-SW 254 0 min 0,000 mm 0,0 UV-I 24 W/m 6,3 C 8,1 C 17,7 km/h (3 Bft) 100,00 %
26.04.2018 19:46 11,2 C 17,8 C 72 % 1016,9 hPa 0,0 l/m 10,9 km/h (2 Bft) SW 216 0 min 0,000 mm 0,0 UV-I 23 W/m 6,3 C 8,4 C 16,1 km/h (3 Bft) 96,30 %
26.04.2018 19:47 11,2 C 17,8 C 72 % 1016,9 hPa 0,0 l/m 10,5 km/h (2 Bft) W 262 0 min 0,000 mm 0,0 UV-I 21 W/m 6,3 C 8,7 C 16,1 km/h (3 Bft) 95,65 %
26.04.2018 19:48 11,2 C 17,8 C 71 % 1016,9 hPa 0,0 l/m 13,3 km/h (3 Bft) SW 222 0 min 0,000 mm 0,0 UV-I 21 W/m 6,1 C 7,3 C 19,3 km/h (3 Bft) 95,83 %
26.04.2018 19:49 11,2 C 17,8 C 71 % 1016,9 hPa 0,0 l/m 13,3 km/h (3 Bft) SW 219 0 min 0,000 mm 0,0 UV-I 20 W/m 6,1 C 7,3 C 19,3 km/h (3 Bft) 96,15 %
26.04.2018 19:50 11,2 C 17,8 C 71 % 1016,9 hPa 0,0 l/m 16,1 km/h (3 Bft) S-SW 196 0 min 0,000 mm 0,0 UV-I 19 W/m 6,1 C 6,2 C 20,9 km/h (4 Bft) 100,00 %
26.04.2018 19:51 11,2 C 17,8 C 72 % 1016,9 hPa 0,0 l/m 10,1 km/h (2 Bft) W-SW 238 0 min 0,000 mm 0,0 UV-I 19 W/m 6,3 C 8,9 C 12,9 km/h (3 Bft) 96,15 %
26.04.2018 19:52 11,2 C 17,8 C 72 % 1016,9 hPa 0,0 l/m 10,9 km/h (2 Bft) W 259 0 min 0,000 mm 0,0 UV-I 18 W/m 6,3 C 8,4 C 19,3 km/h (3 Bft) 91,67 %
26.04.2018 19:53 11,2 C 17,8 C 72 % 1016,9 hPa 0,0 l/m 10,5 km/h (2 Bft) SW 233 1 min 0,000 mm 0,0 UV-I 18 W/m 6,3 C 8,7 C 19,3 km/h (3 Bft) 97,37 %
26.04.2018 19:54 11,1 C 17,8 C 72 % 1016,9 hPa 0,0 l/m 13,0 km/h (3 Bft) SW 221 1 min 0,000 mm 0,0 UV-I 16 W/m 6,2 C 7,3 C 19,3 km/h (3 Bft) 100,00 %
26.04.2018 19:55 11,1 C 17,8 C 71 % 1016,9 hPa 0,0 l/m 10,9 km/h (2 Bft) SW 229 1 min 0,000 mm 0,0 UV-I 15 W/m 6,0 C 8,3 C 14,5 km/h (3 Bft) 95,65 %
26.04.2018 19:56 11,1 C 17,8 C 72 % 1017,0 hPa 0,0 l/m 10,2 km/h (2 Bft) W 260 1 min 0,000 mm 0,0 UV-I 14 W/m 6,2 C 8,7 C 12,9 km/h (3 Bft) 100,00 %
26.04.2018 19:58 11,1 C 17,8 C 72 % 1017,0 hPa 0,0 l/m 9,2 km/h (2 Bft) SW 215 2 min 0,000 mm 0,0 UV-I 14 W/m 6,2 C 9,3 C 14,5 km/h (3 Bft) 95,74 %
26.04.2018 19:59 11,1 C 17,8 C 71 % 1017,0 hPa 0,0 l/m 10,4 km/h (2 Bft) SW 218 0 min 0,000 mm 0,0 UV-I 14 W/m 6,0 C 8,6 C 17,7 km/h (3 Bft) 91,30 %
26.04.2018 20:00 11,1 C 17,8 C 72 % 1017,0 hPa 0,0 l/m 10,4 km/h (2 Bft) SW 216 0 min 0,000 mm 0,0 UV-I 12 W/m 6,2 C 8,6 C 14,5 km/h (3 Bft) 100,00 %
26.04.2018 20:02 11,1 C 17,8 C 72 % 1017,0 hPa 0,0 l/m 7,1 km/h (2 Bft) SW 223 0 min 0,051 mm 0,0 UV-I 12 W/m 6,2 C 10,6 C 11,3 km/h (2 Bft) 97,87 %
26.04.2018 20:03 11,0 C 17,8 C 72 % 1017,0 hPa 0,0 l/m 10,2 km/h (2 Bft) W-SW 241 0 min 0,000 mm 0,0 UV-I 10 W/m 6,2 C 8,6 C 16,1 km/h (3 Bft) 95,83 %
26.04.2018 20:04 11,0 C 17,8 C 72 % 1017,1 hPa 0,0 l/m 8,0 km/h (2 Bft) W-SW 242 0 min 0,000 mm 0,0 UV-I 9 W/m 6,2 C 9,9 C 12,9 km/h (3 Bft) 95,65 %
26.04.2018 20:05 11,0 C 17,8 C 72 % 1017,1 hPa 0,0 l/m 8,3 km/h (2 Bft) W-SW 243 0 min 0,000 mm 0,0 UV-I 9 W/m 6,2 C 9,7 C 12,9 km/h (3 Bft) 100,00 %
26.04.2018 20:06 11,0 C 17,8 C 72 % 1017,1 hPa 0,0 l/m 7,9 km/h (2 Bft) SW 220 0 min 0,000 mm 0,0 UV-I 7 W/m 6,2 C 10,0 C 11,3 km/h (2 Bft) 96,15 %
26.04.2018 20:08 11,0 C 17,8 C 72 % 1017,1 hPa 0,0 l/m 9,6 km/h (2 Bft) W-SW 238 0 min 0,000 mm 0,0 UV-I 7 W/m 6,2 C 8,9 C 14,5 km/h (3 Bft) 97,73 %
26.04.2018 20:09 11,0 C 17,8 C 72 % 1017,1 hPa 0,0 l/m 8,6 km/h (2 Bft) SW 227 0 min 0,000 mm 0,0 UV-I 7 W/m 6,2 C 9,5 C 12,9 km/h (3 Bft) 100,00 %
26.04.2018 20:10 10,9 C 17,8 C 72 % 1017,1 hPa 0,0 l/m 11,0 km/h (2 Bft) S-SW 204 0 min 0,000 mm 0,0 UV-I 7 W/m 6,1 C 8,1 C 16,1 km/h (3 Bft) 100,00 %
26.04.2018 20:11 11,0 C 17,8 C 72 % 1017,1 hPa 0,0 l/m 11,1 km/h (2 Bft) S-SW 208 0 min 0,000 mm 0,0 UV-I 7 W/m 6,2 C 8,1 C 16,1 km/h (3 Bft) 100,00 %
26.04.2018 20:12 11,0 C 17,8 C 72 % 1017,1 hPa 0,0 l/m 9,9 km/h (2 Bft) S-SW 213 0 min 0,000 mm 0,0 UV-I 7 W/m 6,2 C 8,8 C 12,9 km/h (3 Bft) 100,00 %
26.04.2018 20:13 10,9 C 17,8 C 72 % 1017,1 hPa 0,0 l/m 11,2 km/h (2 Bft) SW 235 0 min 0,000 mm 0,0 UV-I 6 W/m 6,1 C 7,9 C 14,5 km/h (3 Bft) 100,00 %
26.04.2018 20:14 10,9 C 17,8 C 72 % 1017,1 hPa 0,0 l/m 9,0 km/h (2 Bft) SW 229 0 min 0,000 mm 0,0 UV-I 5 W/m 6,1 C 9,2 C 12,9 km/h (3 Bft) 91,30 %
26.04.2018 20:15 10,9 C 17,8 C 72 % 1017,1 hPa 0,0 l/m 9,7 km/h (2 Bft) SW 227 0 min 0,000 mm 0,0 UV-I 5 W/m 6,1 C 8,8 C 14,5 km/h (3 Bft) 91,67 %
26.04.2018 20:16 10,9 C 17,8 C 72 % 1017,1 hPa 0,0 l/m 7,4 km/h (2 Bft) SW 231 0 min 0,000 mm 0,0 UV-I 5 W/m 6,1 C 10,2 C 11,3 km/h (2 Bft) 100,00 %
26.04.2018 20:17 10,9 C 17,8 C 72 % 1017,1 hPa 0,0 l/m 11,7 km/h (2 Bft) SW 225 0 min 0,000 mm 0,0 UV-I 5 W/m 6,1 C 7,7 C 19,3 km/h (3 Bft) 95,65 %
26.04.2018 20:18 10,9 C 17,8 C 72 % 1017,1 hPa 0,0 l/m 9,7 km/h (2 Bft) S-SW 204 0 min 0,000 mm 0,0 UV-I 5 W/m 6,1 C 8,8 C 14,5 km/h (3 Bft) 100,00 %
26.04.2018 20:19 10,9 C 17,8 C 71 % 1017,1 hPa 0,0 l/m 7,4 km/h (2 Bft) S-SW 196 0 min 0,000 mm 0,0 UV-I 5 W/m 5,9 C 10,2 C 12,9 km/h (3 Bft) 95,65 %
26.04.2018 20:20 10,9 C 17,8 C 72 % 1017,2 hPa 0,0 l/m 7,0 km/h (2 Bft) SW 221 0 min 0,000 mm 0,0 UV-I 5 W/m 6,1 C 10,5 C 9,7 km/h (2 Bft) 96,30 %
26.04.2018 20:21 10,9 C 17,8 C 72 % 1017,2 hPa 0,0 l/m 10,5 km/h (2 Bft) S-SW 205 0 min 0,000 mm 0,0 UV-I 5 W/m 6,1 C 8,3 C 14,5 km/h (3 Bft) 100,00 %
26.04.2018 20:22 10,9 C 17,8 C 72 % 1017,2 hPa 0,0 l/m 10,1 km/h (2 Bft) S-SW 203 0 min 0,000 mm 0,0 UV-I 1 W/m 6,1 C 8,5 C 16,1 km/h (3 Bft) 95,83 %
26.04.2018 20:23 10,9 C 17,8 C 72 % 1017,2 hPa 0,0 l/m 12,2 km/h (2 Bft) SW 221 0 min 0,000 mm 0,0 UV-I 0 W/m 6,1 C 7,5 C 17,7 km/h (3 Bft) 100,00 %
26.04.2018 20:24 10,8 C 17,8 C 72 % 1017,2 hPa 0,0 l/m 12,0 km/h (2 Bft) SW 217 0 min 0,000 mm 0,0 UV-I 0 W/m 6,0 C 7,4 C 16,1 km/h (3 Bft) 95,83 %
26.04.2018 20:25 10,9 C 17,8 C 72 % 1017,2 hPa 0,0 l/m 10,8 km/h (2 Bft) SW 217 0 min 0,000 mm 0,0 UV-I 0 W/m 6,1 C 8,2 C 16,1 km/h (3 Bft) 100,00 %
26.04.2018 20:26 10,8 C 17,8 C 72 % 1017,2 hPa 0,0 l/m 13,3 km/h (3 Bft) SW 229 0 min 0,000 mm 0,0 UV-I 0 W/m 6,0 C 6,8 C 17,7 km/h (3 Bft) 92,59 %
26.04.2018 20:27 10,9 C 17,8 C 72 % 1017,2 hPa 0,0 l/m 8,3 km/h (2 Bft) S-SW 205 0 min 0,000 mm 0,0 UV-I 0 W/m 6,1 C 9,6 C 16,1 km/h (3 Bft) 100,00 %
26.04.2018 20:28 10,9 C 17,8 C 72 % 1017,2 hPa 0,0 l/m 5,6 km/h (1 Bft) SW 221 0 min 0,000 mm 0,0 UV-I 0 W/m 6,1 C 10,9 C 8,0 km/h (2 Bft) 95,83 %
26.04.2018 20:29 10,8 C 17,8 C 72 % 1017,3 hPa 0,0 l/m 9,8 km/h (2 Bft) SW 234 0 min 0,000 mm 0,0 UV-I 0 W/m 6,0 C 8,6 C 14,5 km/h (3 Bft) 100,00 %
26.04.2018 20:30 10,8 C 17,8 C 73 % 1017,2 hPa 0,0 l/m 9,4 km/h (2 Bft) SW 215 0 min 0,000 mm 0,0 UV-I 0 W/m 6,2 C 8,8 C 14,5 km/h (3 Bft) 95,83 %
26.04.2018 20:31 10,8 C 17,8 C 73 % 1017,3 hPa 0,0 l/m 8,4 km/h (2 Bft) W-SW 247 0 min 0,000 mm 0,0 UV-I 0 W/m 6,2 C 9,4 C 17,7 km/h (3 Bft) 95,65 %
26.04.2018 20:32 10,8 C 17,8 C 73 % 1017,3 hPa 0,0 l/m 11,4 km/h (2 Bft) SW 218 0 min 0,000 mm 0,0 UV-I 0 W/m 6,2 C 7,7 C 14,5 km/h (3 Bft) 100,00 %
26.04.2018 20:33 10,8 C 17,8 C 72 % 1017,3 hPa 0,0 l/m 12,2 km/h (2 Bft) SW 227 0 min 0,000 mm 0,0 UV-I 0 W/m 6,0 C 7,3 C 17,7 km/h (3 Bft) 95,65 %
26.04.2018 20:34 10,8 C 17,8 C 73 % 1017,3 hPa 0,0 l/m 12,6 km/h (3 Bft) SW 217 0 min 0,000 mm 0,0 UV-I 0 W/m 6,2 C 7,1 C 19,3 km/h (3 Bft) 100,00 %
26.04.2018 20:35 10,8 C 17,8 C 72 % 1017,3 hPa 0,0 l/m 13,3 km/h (3 Bft) SW 227 0 min 0,000 mm 0,0 UV-I 0 W/m 6,0 C 6,8 C 19,3 km/h (3 Bft) 95,83 %
26.04.2018 20:36 10,8 C 17,8 C 72 % 1017,3 hPa 0,0 l/m 9,1 km/h (2 Bft) S-SW 210 0 min 0,000 mm 0,0 UV-I 0 W/m 6,0 C 9,0 C 12,9 km/h (3 Bft) 100,00 %
26.04.2018 20:37 10,8 C 17,8 C 72 % 1017,2 hPa 0,0 l/m 12,3 km/h (3 Bft) S-SW 210 0 min 0,000 mm 0,0 UV-I 0 W/m 6,0 C 7,3 C 19,3 km/h (3 Bft) 92,31 %
26.04.2018 20:38 10,8 C 17,8 C 73 % 1017,3 hPa 0,0 l/m 12,1 km/h (2 Bft) SW 226 0 min 0,000 mm 0,0 UV-I 0 W/m 6,2 C 7,4 C 16,1 km/h (3 Bft) 95,83 %
26.04.2018 20:39 10,8 C 17,8 C 73 % 1017,2 hPa 0,0 l/m 9,3 km/h (2 Bft) S-SW 209 0 min 0,000 mm 0,0 UV-I 0 W/m 6,2 C 8,9 C 14,5 km/h (3 Bft) 100,00 %
26.04.2018 20:40 10,8 C 17,8 C 73 % 1017,2 hPa 0,0 l/m 11,1 km/h (2 Bft) S-SW 208 0 min 0,000 mm 0,0 UV-I 0 W/m 6,2 C 7,9 C 16,1 km/h (3 Bft) 95,65 %
26.04.2018 20:41 10,8 C 17,8 C 72 % 1017,3 hPa 0,0 l/m 11,6 km/h (2 Bft) S-SW 209 0 min 0,000 mm 0,0 UV-I 0 W/m 6,0 C 7,6 C 17,7 km/h (3 Bft) 95,83 %
26.04.2018 20:43 10,8 C 17,2 C 72 % 1017,3 hPa 0,0 l/m 12,1 km/h (2 Bft) W-SW 240 0 min 0,000 mm 0,0 UV-I 0 W/m 6,0 C 7,4 C 19,3 km/h (3 Bft) 95,74 %
26.04.2018 20:44 10,8 C 17,2 C 73 % 1017,3 hPa 0,0 l/m 7,7 km/h (2 Bft) W-SW 241 0 min 0,000 mm 0,0 UV-I 0 W/m 6,2 C 9,9 C 12,9 km/h (3 Bft) 95,65 %
26.04.2018 20:45 10,8 C 17,8 C 73 % 1017,3 hPa 0,0 l/m 9,1 km/h (2 Bft) SW 233 0 min 0,000 mm 0,0 UV-I 0 W/m 6,2 C 9,0 C 16,1 km/h (3 Bft) 100,00 %
26.04.2018 20:46 10,8 C 17,8 C 73 % 1017,4 hPa 0,0 l/m 9,4 km/h (2 Bft) SW 221 0 min 0,000 mm 0,0 UV-I 0 W/m 6,2 C 8,8 C 16,1 km/h (3 Bft) 95,65 %
26.04.2018 20:47 10,8 C 17,8 C 72 % 1017,3 hPa 0,0 l/m 10,7 km/h (2 Bft) S-SW 212 0 min 0,000 mm 0,0 UV-I 0 W/m 6,0 C 8,1 C 20,9 km/h (4 Bft) 95,83 %
26.04.2018 20:48 10,8 C 17,2 C 73 % 1017,4 hPa 0,0 l/m 13,5 km/h (3 Bft) SW 217 0 min 0,000 mm 0,0 UV-I 0 W/m 6,2 C 6,7 C 19,3 km/h (3 Bft) 100,00 %
26.04.2018 20:49 10,8 C 17,2 C 73 % 1017,4 hPa 0,0 l/m 12,6 km/h (3 Bft) S-SW 207 0 min 0,000 mm 0,0 UV-I 0 W/m 6,2 C 7,1 C 19,3 km/h (3 Bft) 100,00 %
26.04.2018 20:50 10,8 C 17,2 C 72 % 1017,5 hPa 0,0 l/m 13,1 km/h (3 Bft) W-SW 245 0 min 0,000 mm 0,0 UV-I 0 W/m 6,0 C 6,9 C 19,3 km/h (3 Bft) 90,91 %
26.04.2018 20:51 10,8 C 17,2 C 73 % 1017,5 hPa 0,0 l/m 10,4 km/h (2 Bft) S-SW 209 0 min 0,000 mm 0,0 UV-I 0 W/m 6,2 C 8,3 C 14,5 km/h (3 Bft) 100,00 %
26.04.2018 20:52 10,8 C 17,2 C 73 % 1017,5 hPa 0,0 l/m 10,8 km/h (2 Bft) SW 222 0 min 0,000 mm 0,0 UV-I 0 W/m 6,2 C 8,0 C 14,5 km/h (3 Bft) 100,00 %
26.04.2018 20:53 10,8 C 17,8 C 72 % 1017,5 hPa 0,0 l/m 13,2 km/h (3 Bft) SW 215 0 min 0,000 mm 0,0 UV-I 0 W/m 6,0 C 6,9 C 17,7 km/h (3 Bft) 100,00 %
26.04.2018 20:54 10,8 C 17,2 C 73 % 1017,5 hPa 0,0 l/m 9,9 km/h (2 Bft) SW 229 0 min 0,000 mm 0,0 UV-I 0 W/m 6,2 C 8,5 C 14,5 km/h (3 Bft) 100,00 %
26.04.2018 20:55 10,8 C 17,8 C 73 % 1017,4 hPa 0,0 l/m 10,9 km/h (2 Bft) SW 232 0 min 0,000 mm 0,0 UV-I 0 W/m 6,2 C 8,0 C 17,7 km/h (3 Bft) 95,83 %
26.04.2018 20:56 10,8 C 17,2 C 73 % 1017,4 hPa 0,0 l/m 12,5 km/h (3 Bft) W-SW 237 0 min 0,000 mm 0,0 UV-I 0 W/m 6,2 C 7,2 C 20,9 km/h (4 Bft) 100,00 %
26.04.2018 20:57 10,8 C 17,2 C 73 % 1017,4 hPa 0,0 l/m 12,6 km/h (3 Bft) SW 224 0 min 0,000 mm 0,0 UV-I 0 W/m 6,2 C 7,1 C 17,7 km/h (3 Bft) 100,00 %
26.04.2018 20:58 10,8 C 17,2 C 73 % 1017,4 hPa 0,0 l/m 14,1 km/h (3 Bft) S-SW 211 0 min 0,000 mm 0,0 UV-I 0 W/m 6,2 C 6,5 C 20,9 km/h (4 Bft) 95,83 %
26.04.2018 20:59 10,8 C 17,2 C 72 % 1017,5 hPa 0,0 l/m 10,8 km/h (2 Bft) S-SW 207 0 min 0,000 mm 0,0 UV-I 0 W/m 6,0 C 8,0 C 12,9 km/h (3 Bft) 100,00 %
26.04.2018 21:00 10,8 C 17,2 C 72 % 1017,5 hPa 0,0 l/m 12,1 km/h (2 Bft) S-SW 211 0 min 0,025 mm 0,0 UV-I 0 W/m 6,0 C 7,4 C 16,1 km/h (3 Bft) 100,00 %
26.04.2018 21:02 10,8 C 17,2 C 71 % 1017,5 hPa 0,0 l/m 11,8 km/h (2 Bft) SW 233 0 min 0,000 mm 0,0 UV-I 0 W/m 5,8 C 7,5 C 17,7 km/h (3 Bft) 100,00 %
26.04.2018 21:03 10,8 C 17,2 C 72 % 1017,5 hPa 0,0 l/m 12,6 km/h (3 Bft) W-SW 241 0 min 0,000 mm 0,0 UV-I 0 W/m 6,0 C 7,1 C 14,5 km/h (3 Bft) 100,00 %
26.04.2018 21:04 10,8 C 17,2 C 72 % 1017,5 hPa 0,0 l/m 10,0 km/h (2 Bft) SW 236 0 min 0,000 mm 0,0 UV-I 0 W/m 6,0 C 8,5 C 12,9 km/h (3 Bft) 100,00 %
26.04.2018 21:05 10,8 C 17,2 C 72 % 1017,5 hPa 0,0 l/m 8,4 km/h (2 Bft) SW 223 0 min 0,000 mm 0,0 UV-I 0 W/m 6,0 C 9,4 C 14,5 km/h (3 Bft) 100,00 %
26.04.2018 21:06 10,8 C 17,2 C 72 % 1017,5 hPa 0,0 l/m 9,7 km/h (2 Bft) S-SW 210 0 min 0,000 mm 0,0 UV-I 0 W/m 6,0 C 8,6 C 16,1 km/h (3 Bft) 100,00 %
26.04.2018 21:08 10,8 C 17,2 C 72 % 1017,5 hPa 0,0 l/m 11,4 km/h (2 Bft) SW 221 0 min 0,000 mm 0,0 UV-I 0 W/m 6,0 C 7,7 C 19,3 km/h (3 Bft) 100,00 %
26.04.2018 21:09 10,8 C 17,2 C 72 % 1017,5 hPa 0,0 l/m 8,0 km/h (2 Bft) SW 236 0 min 0,000 mm 0,0 UV-I 0 W/m 6,0 C 9,7 C 11,3 km/h (2 Bft) 91,30 %
26.04.2018 21:10 10,7 C 17,2 C 72 % 1017,5 hPa 0,0 l/m 11,9 km/h (2 Bft) SW 217 0 min 0,000 mm 0,0 UV-I 0 W/m 5,9 C 7,4 C 14,5 km/h (3 Bft) 100,00 %
26.04.2018 21:11 10,7 C 17,2 C 72 % 1017,5 hPa 0,0 l/m 10,0 km/h (2 Bft) SW 225 0 min 0,000 mm 0,0 UV-I 0 W/m 5,9 C 8,4 C 14,5 km/h (3 Bft) 91,30 %
26.04.2018 21:13 10,7 C 17,2 C 72 % 1017,6 hPa 0,0 l/m 10,4 km/h (2 Bft) W-SW 252 0 min 0,000 mm 0,0 UV-I 0 W/m 5,9 C 8,1 C 17,7 km/h (3 Bft) 100,00 %
26.04.2018 21:14 10,7 C 17,2 C 72 % 1017,6 hPa 0,0 l/m 11,2 km/h (2 Bft) W-SW 242 0 min 0,000 mm 0,0 UV-I 0 W/m 5,9 C 7,7 C 16,1 km/h (3 Bft) 96,30 %
26.04.2018 21:15 10,7 C 17,2 C 72 % 1017,7 hPa 0,0 l/m 12,5 km/h (3 Bft) SW 226 0 min 0,000 mm 0,0 UV-I 0 W/m 5,9 C 7,1 C 16,1 km/h (3 Bft) 100,00 %
26.04.2018 21:16 10,7 C 17,2 C 72 % 1017,7 hPa 0,0 l/m 11,0 km/h (2 Bft) SW 222 0 min 0,000 mm 0,0 UV-I 0 W/m 5,9 C 7,8 C 16,1 km/h (3 Bft) 100,00 %
26.04.2018 21:18 10,7 C 17,2 C 72 % 1017,8 hPa 0,0 l/m 12,0 km/h (2 Bft) W-SW 240 0 min 0,000 mm 0,0 UV-I 0 W/m 5,9 C 7,3 C 16,1 km/h (3 Bft) 100,00 %
26.04.2018 21:19 10,7 C 17,2 C 72 % 1017,8 hPa 0,0 l/m 9,1 km/h (2 Bft) S-SW 213 0 min 0,000 mm 0,0 UV-I 0 W/m 5,9 C 8,9 C 14,5 km/h (3 Bft) 100,00 %
26.04.2018 21:20 10,7 C 17,2 C 72 % 1017,8 hPa 0,0 l/m 10,5 km/h (2 Bft) W 261 0 min 0,000 mm 0,0 UV-I 0 W/m 5,9 C 8,1 C 16,1 km/h (3 Bft) 100,00 %
26.04.2018 21:21 10,7 C 17,2 C 72 % 1017,7 hPa 0,0 l/m 11,1 km/h (2 Bft) SW 233 0 min 0,000 mm 0,0 UV-I 0 W/m 5,9 C 7,8 C 12,9 km/h (3 Bft) 95,83 %
26.04.2018 21:22 10,6 C 17,2 C 72 % 1017,8 hPa 0,0 l/m 11,0 km/h (2 Bft) W-SW 250 0 min 0,000 mm 0,0 UV-I 0 W/m 5,8 C 7,7 C 14,5 km/h (3 Bft) 100,00 %
26.04.2018 21:23 10,6 C 17,2 C 72 % 1017,7 hPa 0,0 l/m 10,4 km/h (2 Bft) W-SW 241 0 min 0,000 mm 0,0 UV-I 0 W/m 5,8 C 8,0 C 16,1 km/h (3 Bft) 100,00 %
26.04.2018 21:24 10,6 C 17,2 C 72 % 1017,8 hPa 0,0 l/m 11,6 km/h (2 Bft) SW 229 0 min 0,000 mm 0,0 UV-I 0 W/m 5,8 C 7,4 C 17,7 km/h (3 Bft) 95,65 %
26.04.2018 21:25 10,6 C 17,2 C 72 % 1017,8 hPa 0,0 l/m 8,9 km/h (2 Bft) SW 232 0 min 0,000 mm 0,0 UV-I 0 W/m 5,8 C 8,9 C 16,1 km/h (3 Bft) 100,00 %
26.04.2018 21:26 10,6 C 17,2 C 72 % 1017,8 hPa 0,0 l/m 12,9 km/h (3 Bft) S-SW 207 0 min 0,000 mm 0,0 UV-I 0 W/m 5,8 C 6,8 C 19,3 km/h (3 Bft) 100,00 %
26.04.2018 21:27 10,6 C 17,2 C 72 % 1017,9 hPa 0,0 l/m 12,1 km/h (2 Bft) SW 224 0 min 0,000 mm 0,0 UV-I 0 W/m 5,8 C 7,2 C 14,5 km/h (3 Bft) 100,00 %
26.04.2018 21:28 10,7 C 17,2 C 72 % 1017,9 hPa 0,0 l/m 11,8 km/h (2 Bft) SW 221 0 min 0,000 mm 0,0 UV-I 0 W/m 5,9 C 7,4 C 17,7 km/h (3 Bft) 100,00 %
26.04.2018 21:29 10,6 C 17,2 C 72 % 1017,8 hPa 0,0 l/m 11,7 km/h (2 Bft) W-SW 252 0 min 0,000 mm 0,0 UV-I 0 W/m 5,8 C 7,4 C 17,7 km/h (3 Bft) 100,00 %
26.04.2018 21:30 10,6 C 17,2 C 72 % 1017,9 hPa 0,0 l/m 12,2 km/h (2 Bft) SW 217 0 min 0,000 mm 0,0 UV-I 0 W/m 5,8 C 7,1 C 19,3 km/h (3 Bft) 100,00 %
26.04.2018 21:31 10,6 C 17,2 C 72 % 1018,0 hPa 0,0 l/m 11,1 km/h (2 Bft) SW 229 0 min 0,000 mm 0,0 UV-I 0 W/m 5,8 C 7,7 C 17,7 km/h (3 Bft) 100,00 %
26.04.2018 21:32 10,6 C 17,2 C 73 % 1018,0 hPa 0,0 l/m 10,7 km/h (2 Bft) W-SW 246 0 min 0,000 mm 0,0 UV-I 0 W/m 6,0 C 7,9 C 17,7 km/h (3 Bft) 100,00 %
26.04.2018 21:33 10,6 C 17,2 C 73 % 1018,0 hPa 0,0 l/m 10,4 km/h (2 Bft) SW 219 0 min 0,000 mm 0,0 UV-I 0 W/m 6,0 C 8,0 C 16,1 km/h (3 Bft) 100,00 %
26.04.2018 21:34 10,6 C 17,2 C 73 % 1018,0 hPa 0,0 l/m 12,2 km/h (2 Bft) W-SW 238 0 min 0,000 mm 0,0 UV-I 0 W/m 6,0 C 7,1 C 16,1 km/h (3 Bft) 100,00 %
26.04.2018 21:35 10,6 C 17,2 C 73 % 1018,0 hPa 0,0 l/m 9,1 km/h (2 Bft) W-SW 240 0 min 0,000 mm 0,0 UV-I 0 W/m 6,0 C 8,8 C 14,5 km/h (3 Bft) 100,00 %
26.04.2018 21:36 10,6 C 17,2 C 72 % 1018,0 hPa 0,0 l/m 10,3 km/h (2 Bft) S-SW 208 0 min 0,000 mm 0,0 UV-I 0 W/m 5,8 C 8,1 C 14,5 km/h (3 Bft) 100,00 %
26.04.2018 21:37 10,6 C 17,2 C 72 % 1018,0 hPa 0,0 l/m 9,0 km/h (2 Bft) W-SW 238 0 min 0,000 mm 0,0 UV-I 0 W/m 5,8 C 8,8 C 14,5 km/h (3 Bft) 100,00 %
26.04.2018 21:38 10,6 C 17,2 C 72 % 1018,0 hPa 0,0 l/m 9,6 km/h (2 Bft) SW 236 0 min 0,000 mm 0,0 UV-I 0 W/m 5,8 C 8,5 C 12,9 km/h (3 Bft) 100,00 %
26.04.2018 21:39 10,6 C 17,2 C 72 % 1018,0 hPa 0,0 l/m 10,3 km/h (2 Bft) W-SW 242 0 min 0,000 mm 0,0 UV-I 0 W/m 5,8 C 8,1 C 16,1 km/h (3 Bft) 100,00 %
26.04.2018 21:40 10,6 C 17,2 C 72 % 1018,1 hPa 0,0 l/m 12,1 km/h (2 Bft) SW 227 0 min 0,000 mm 0,0 UV-I 0 W/m 5,8 C 7,2 C 14,5 km/h (3 Bft) 100,00 %
26.04.2018 21:41 10,6 C 17,2 C 72 % 1018,1 hPa 0,0 l/m 11,3 km/h (2 Bft) SW 222 0 min 0,000 mm 0,0 UV-I 0 W/m 5,8 C 7,6 C 16,1 km/h (3 Bft) 100,00 %
26.04.2018 21:43 10,6 C 17,2 C 73 % 1018,1 hPa 0,0 l/m 9,9 km/h (2 Bft) W-SW 250 0 min 0,000 mm 0,0 UV-I 0 W/m 6,0 C 8,3 C 14,5 km/h (3 Bft) 100,00 %
26.04.2018 21:44 10,6 C 17,2 C 72 % 1018,1 hPa 0,0 l/m 8,1 km/h (2 Bft) W-SW 242 0 min 0,000 mm 0,0 UV-I 0 W/m 5,8 C 9,4 C 14,5 km/h (3 Bft) 100,00 %
26.04.2018 21:45 10,6 C 17,2 C 72 % 1018,1 hPa 0,0 l/m 10,1 km/h (2 Bft) W-SW 242 0 min 0,000 mm 0,0 UV-I 0 W/m 5,8 C 8,2 C 14,5 km/h (3 Bft) 100,00 %
26.04.2018 21:46 10,6 C 17,2 C 72 % 1018,1 hPa 0,0 l/m 7,2 km/h (2 Bft) SW 220 0 min 0,000 mm 0,0 UV-I 0 W/m 5,8 C 10,0 C 9,7 km/h (2 Bft) 100,00 %
26.04.2018 21:47 10,6 C 17,2 C 72 % 1018,0 hPa 0,0 l/m 8,5 km/h (2 Bft) W-SW 239 0 min 0,000 mm 0,0 UV-I 0 W/m 5,8 C 9,2 C 12,9 km/h (3 Bft) 86,96 %
26.04.2018 21:48 10,6 C 17,2 C 72 % 1018,1 hPa 0,0 l/m 10,4 km/h (2 Bft) SW 214 0 min 0,000 mm 0,0 UV-I 0 W/m 5,8 C 8,0 C 14,5 km/h (3 Bft) 100,00 %
26.04.2018 21:49 10,6 C 17,2 C 72 % 1018,0 hPa 0,0 l/m 10,3 km/h (2 Bft) W-SW 248 0 min 0,000 mm 0,0 UV-I 0 W/m 5,8 C 8,1 C 12,9 km/h (3 Bft) 95,65 %
26.04.2018 21:50 10,6 C 17,2 C 72 % 1018,1 hPa 0,0 l/m 8,4 km/h (2 Bft) SW 232 0 min 0,000 mm 0,0 UV-I 0 W/m 5,8 C 9,2 C 14,5 km/h (3 Bft) 100,00 %
26.04.2018 21:51 10,6 C 17,2 C 72 % 1018,1 hPa 0,0 l/m 8,7 km/h (2 Bft) W-SW 251 0 min 0,000 mm 0,0 UV-I 0 W/m 5,8 C 9,0 C 12,9 km/h (3 Bft) 100,00 %
26.04.2018 21:52 10,6 C 17,2 C 72 % 1018,2 hPa 0,0 l/m 7,6 km/h (2 Bft) W-SW 243 0 min 0,000 mm 0,0 UV-I 0 W/m 5,8 C 9,8 C 11,3 km/h (2 Bft) 95,83 %
26.04.2018 21:53 10,6 C 17,2 C 72 % 1018,2 hPa 0,0 l/m 9,4 km/h (2 Bft) W-SW 249 0 min 0,000 mm 0,0 UV-I 0 W/m 5,8 C 8,6 C 16,1 km/h (3 Bft) 100,00 %
26.04.2018 21:54 10,6 C 17,2 C 73 % 1018,1 hPa 0,0 l/m 9,5 km/h (2 Bft) W-SW 248 0 min 0,000 mm 0,0 UV-I 0 W/m 6,0 C 8,5 C 12,9 km/h (3 Bft) 100,00 %
26.04.2018 21:55 10,6 C 17,2 C 72 % 1018,1 hPa 0,0 l/m 7,6 km/h (2 Bft) W-SW 247 0 min 0,000 mm 0,0 UV-I 0 W/m 5,8 C 9,8 C 12,9 km/h (3 Bft) 100,00 %
26.04.2018 21:56 10,6 C 17,2 C 72 % 1018,2 hPa 0,0 l/m 8,4 km/h (2 Bft) SW 229 0 min 0,000 mm 0,0 UV-I 0 W/m 5,8 C 9,2 C 9,7 km/h (2 Bft) 100,00 %
26.04.2018 21:57 10,6 C 17,2 C 72 % 1018,2 hPa 0,0 l/m 9,1 km/h (2 Bft) SW 226 0 min 0,000 mm 0,0 UV-I 0 W/m 5,8 C 8,8 C 12,9 km/h (3 Bft) 100,00 %
26.04.2018 21:58 10,6 C 17,2 C 72 % 1018,1 hPa 0,0 l/m 8,2 km/h (2 Bft) W-SW 254 0 min 0,000 mm 0,0 UV-I 0 W/m 5,8 C 9,4 C 11,3 km/h (2 Bft) 100,00 %
26.04.2018 21:59 10,6 C 17,2 C 73 % 1018,2 hPa 0,0 l/m 8,6 km/h (2 Bft) W-SW 240 0 min 0,000 mm 0,0 UV-I 0 W/m 6,0 C 9,1 C 14,5 km/h (3 Bft) 100,00 %
26.04.2018 22:00 10,5 C 17,2 C 72 % 1018,2 hPa 0,0 l/m 9,1 km/h (2 Bft) SW 227 0 min 0,025 mm 0,0 UV-I 0 W/m 5,7 C 8,7 C 12,9 km/h (3 Bft) 100,00 %
26.04.2018 22:02 10,5 C 17,2 C 72 % 1018,2 hPa 0,0 l/m 8,4 km/h (2 Bft) W-SW 238 0 min 0,000 mm 0,0 UV-I 0 W/m 5,7 C 9,1 C 16,1 km/h (3 Bft) 100,00 %
26.04.2018 22:03 10,5 C 17,2 C 73 % 1018,1 hPa 0,0 l/m 7,2 km/h (2 Bft) S-SW 213 0 min 0,000 mm 0,0 UV-I 0 W/m 5,9 C 9,9 C 9,7 km/h (2 Bft) 100,00 %
26.04.2018 22:04 10,5 C 17,2 C 73 % 1018,1 hPa 0,0 l/m 8,4 km/h (2 Bft) SW 234 0 min 0,000 mm 0,0 UV-I 0 W/m 5,9 C 9,1 C 12,9 km/h (3 Bft) 100,00 %
26.04.2018 22:05 10,5 C 17,2 C 72 % 1018,2 hPa 0,0 l/m 9,5 km/h (2 Bft) W-SW 245 0 min 0,000 mm 0,0 UV-I 0 W/m 5,7 C 8,4 C 12,9 km/h (3 Bft) 95,83 %
26.04.2018 22:06 10,5 C 17,2 C 72 % 1018,2 hPa 0,0 l/m 6,2 km/h (2 Bft) W-SW 239 0 min 0,000 mm 0,0 UV-I 0 W/m 5,7 C 10,5 C 9,7 km/h (2 Bft) 100,00 %
26.04.2018 22:07 10,5 C 17,2 C 73 % 1018,1 hPa 0,0 l/m 9,1 km/h (2 Bft) SW 218 0 min 0,000 mm 0,0 UV-I 0 W/m 5,9 C 8,7 C 14,5 km/h (3 Bft) 100,00 %
26.04.2018 22:08 10,4 C 17,2 C 73 % 1018,1 hPa 0,0 l/m 6,2 km/h (2 Bft) SW 226 0 min 0,000 mm 0,0 UV-I 0 W/m 5,8 C 10,4 C 8,0 km/h (2 Bft) 100,00 %
26.04.2018 22:09 10,4 C 17,2 C 73 % 1018,1 hPa 0,0 l/m 6,0 km/h (2 Bft) SW 223 0 min 0,000 mm 0,0 UV-I 0 W/m 5,8 C 10,4 C 8,0 km/h (2 Bft) 100,00 %
26.04.2018 22:10 10,4 C 17,2 C 73 % 1018,1 hPa 0,0 l/m 7,8 km/h (2 Bft) SW 234 0 min 0,000 mm 0,0 UV-I 0 W/m 5,8 C 9,4 C 12,9 km/h (3 Bft) 100,00 %
26.04.2018 22:11 10,4 C 17,2 C 73 % 1018,2 hPa 0,0 l/m 7,7 km/h (2 Bft) W-SW 250 0 min 0,000 mm 0,0 UV-I 0 W/m 5,8 C 9,5 C 11,3 km/h (2 Bft) 100,00 %
26.04.2018 22:12 10,3 C 17,2 C 73 % 1018,2 hPa 0,0 l/m 7,7 km/h (2 Bft) W-SW 253 0 min 0,000 mm 0,0 UV-I 0 W/m 5,7 C 9,4 C 11,3 km/h (2 Bft) 100,00 %
26.04.2018 22:13 10,3 C 17,2 C 74 % 1018,2 hPa 0,0 l/m 7,2 km/h (2 Bft) W-SW 237 0 min 0,000 mm 0,0 UV-I 0 W/m 5,9 C 9,7 C 11,3 km/h (2 Bft) 100,00 %
26.04.2018 22:14 10,3 C 17,2 C 74 % 1018,2 hPa 0,0 l/m 7,0 km/h (2 Bft) SW 228 0 min 0,000 mm 0,0 UV-I 0 W/m 5,9 C 9,9 C 9,7 km/h (2 Bft) 100,00 %
26.04.2018 22:15 10,2 C 17,2 C 74 % 1018,2 hPa 0,0 l/m 8,0 km/h (2 Bft) W 265 0 min 0,000 mm 0,0 UV-I 0 W/m 5,8 C 9,1 C 11,3 km/h (2 Bft) 100,00 %
26.04.2018 22:16 10,2 C 17,2 C 75 % 1018,2 hPa 0,0 l/m 7,6 km/h (2 Bft) W-SW 244 0 min 0,000 mm 0,0 UV-I 0 W/m 6,0 C 9,3 C 9,7 km/h (2 Bft) 100,00 %
26.04.2018 22:17 10,2 C 17,2 C 75 % 1018,2 hPa 0,0 l/m 6,3 km/h (2 Bft) W-SW 238 0 min 0,000 mm 0,0 UV-I 0 W/m 6,0 C 10,2 C 8,0 km/h (2 Bft) 96,15 %
26.04.2018 22:18 10,1 C 17,2 C 75 % 1018,2 hPa 0,0 l/m 7,3 km/h (2 Bft) W-SW 257 0 min 0,000 mm 0,0 UV-I 0 W/m 5,9 C 9,4 C 11,3 km/h (2 Bft) 100,00 %
26.04.2018 22:19 10,1 C 17,2 C 75 % 1018,2 hPa 0,0 l/m 6,6 km/h (2 Bft) SW 234 0 min 0,000 mm 0,0 UV-I 0 W/m 5,9 C 10,0 C 11,3 km/h (2 Bft) 95,65 %
26.04.2018 22:20 10,1 C 17,2 C 76 % 1018,2 hPa 0,0 l/m 7,4 km/h (2 Bft) W-SW 244 0 min 0,000 mm 0,0 UV-I 0 W/m 6,1 C 9,4 C 11,3 km/h (2 Bft) 100,00 %
26.04.2018 22:21 10,0 C 17,2 C 76 % 1018,2 hPa 0,0 l/m 5,5 km/h (1 Bft) SW 236 0 min 0,000 mm 0,0 UV-I 0 W/m 6,0 C 10,0 C 8,0 km/h (2 Bft) 96,15 %
26.04.2018 22:22 10,0 C 17,2 C 76 % 1018,2 hPa 0,0 l/m 5,4 km/h (1 Bft) SW 234 0 min 0,000 mm 0,0 UV-I 0 W/m 6,0 C 10,0 C 8,0 km/h (2 Bft) 96,30 %
26.04.2018 22:23 9,9 C 17,2 C 75 % 1018,2 hPa 0,0 l/m 5,1 km/h (1 Bft) SW 223 0 min 0,000 mm 0,0 UV-I 0 W/m 5,7 C 9,9 C 9,7 km/h (2 Bft) 95,65 %
26.04.2018 22:24 9,9 C 17,2 C 75 % 1018,2 hPa 0,0 l/m 5,4 km/h (1 Bft) W-SW 240 0 min 0,000 mm 0,0 UV-I 0 W/m 5,7 C 9,9 C 11,3 km/h (2 Bft) 95,83 %
26.04.2018 22:25 9,9 C 17,2 C 75 % 1018,2 hPa 0,0 l/m 5,6 km/h (1 Bft) W-SW 249 0 min 0,000 mm 0,0 UV-I 0 W/m 5,7 C 9,9 C 6,4 km/h (2 Bft) 100,00 %
26.04.2018 22:26 9,9 C 17,2 C 76 % 1018,2 hPa 0,0 l/m 5,8 km/h (2 Bft) SW 230 0 min 0,000 mm 0,0 UV-I 0 W/m 5,9 C 9,9 C 8,0 km/h (2 Bft) 95,83 %
26.04.2018 22:27 9,9 C 17,2 C 76 % 1018,1 hPa 0,0 l/m 5,2 km/h (1 Bft) W-SW 238 0 min 0,000 mm 0,0 UV-I 0 W/m 5,9 C 9,9 C 8,0 km/h (2 Bft) 100,00 %
26.04.2018 22:28 9,9 C 17,2 C 76 % 1018,2 hPa 0,0 l/m 5,4 km/h (1 Bft) W-SW 245 0 min 0,000 mm 0,0 UV-I 0 W/m 5,9 C 9,9 C 6,4 km/h (2 Bft) 95,83 %
26.04.2018 22:29 9,9 C 17,2 C 76 % 1018,2 hPa 0,0 l/m 6,7 km/h (2 Bft) W-SW 243 0 min 0,000 mm 0,0 UV-I 0 W/m 5,9 C 9,7 C 9,7 km/h (2 Bft) 96,15 %
26.04.2018 22:30 9,9 C 17,2 C 76 % 1018,2 hPa 0,0 l/m 7,2 km/h (2 Bft) W-SW 241 0 min 0,000 mm 0,0 UV-I 0 W/m 5,9 C 9,3 C 8,0 km/h (2 Bft) 100,00 %
26.04.2018 22:31 9,9 C 17,2 C 76 % 1018,2 hPa 0,0 l/m 6,0 km/h (2 Bft) W-SW 237 0 min 0,000 mm 0,0 UV-I 0 W/m 5,9 C 9,9 C 8,0 km/h (2 Bft) 91,30 %
26.04.2018 22:32 9,9 C 17,2 C 76 % 1018,2 hPa 0,0 l/m 7,2 km/h (2 Bft) W-SW 238 0 min 0,000 mm 0,0 UV-I 0 W/m 5,9 C 9,3 C 11,3 km/h (2 Bft) 100,00 %
26.04.2018 22:33 9,8 C 17,2 C 76 % 1018,2 hPa 0,0 l/m 5,2 km/h (1 Bft) SW 222 0 min 0,000 mm 0,0 UV-I 0 W/m 5,8 C 9,8 C 6,4 km/h (2 Bft) 95,65 %
26.04.2018 22:34 9,8 C 17,2 C 76 % 1018,2 hPa 0,0 l/m 5,6 km/h (1 Bft) W-SW 242 0 min 0,000 mm 0,0 UV-I 0 W/m 5,8 C 9,8 C 6,4 km/h (2 Bft) 100,00 %
26.04.2018 22:35 9,8 C 17,2 C 76 % 1018,1 hPa 0,0 l/m 4,4 km/h (1 Bft) W-SW 246 0 min 0,000 mm 0,0 UV-I 0 W/m 5,8 C 9,8 C 6,4 km/h (2 Bft) 91,67 %
26.04.2018 22:36 9,7 C 17,2 C 77 % 1018,1 hPa 0,0 l/m 4,1 km/h (1 Bft) W-SW 243 0 min 0,000 mm 0,0 UV-I 0 W/m 5,9 C 9,7 C 4,8 km/h (1 Bft) 96,77 %
26.04.2018 22:37 9,7 C 17,2 C 77 % 1018,1 hPa 0,0 l/m 5,7 km/h (1 Bft) W-SW 237 0 min 0,000 mm 0,0 UV-I 0 W/m 5,9 C 9,7 C 6,4 km/h (2 Bft) 96,30 %
26.04.2018 22:38 9,7 C 17,2 C 77 % 1018,1 hPa 0,0 l/m 4,4 km/h (1 Bft) W-SW 238 0 min 0,000 mm 0,0 UV-I 0 W/m 5,9 C 9,7 C 6,4 km/h (2 Bft) 95,65 %
26.04.2018 22:39 9,7 C 17,2 C 77 % 1018,1 hPa 0,0 l/m 4,3 km/h (1 Bft) W-SW 242 0 min 0,000 mm 0,0 UV-I 0 W/m 5,9 C 9,7 C 6,4 km/h (2 Bft) 100,00 %
26.04.2018 22:40 9,7 C 17,2 C 77 % 1018,1 hPa 0,0 l/m 4,2 km/h (1 Bft) W-SW 242 0 min 0,000 mm 0,0 UV-I 0 W/m 5,9 C 9,7 C 6,4 km/h (2 Bft) 85,71 %
26.04.2018 22:41 9,6 C 17,2 C 77 % 1018,1 hPa 0,0 l/m 4,9 km/h (1 Bft) W-SW 242 0 min 0,000 mm 0,0 UV-I 0 W/m 5,8 C 9,6 C 6,4 km/h (2 Bft) 100,00 %
26.04.2018 22:43 9,6 C 17,2 C 77 % 1018,2 hPa 0,0 l/m 4,4 km/h (1 Bft) W-SW 243 0 min 0,000 mm 0,0 UV-I 0 W/m 5,8 C 9,6 C 6,4 km/h (2 Bft) 98,31 %
26.04.2018 22:44 9,6 C 17,2 C 78 % 1018,2 hPa 0,0 l/m 5,1 km/h (1 Bft) W-SW 238 0 min 0,000 mm 0,0 UV-I 0 W/m 6,0 C 9,6 C 6,4 km/h (2 Bft) 90,91 %
26.04.2018 22:45 9,6 C 17,2 C 77 % 1018,2 hPa 0,0 l/m 4,4 km/h (1 Bft) W-SW 238 0 min 0,000 mm 0,0 UV-I 0 W/m 5,8 C 9,6 C 6,4 km/h (2 Bft) 95,83 %
26.04.2018 22:46 9,6 C 17,2 C 78 % 1018,2 hPa 0,0 l/m 4,3 km/h (1 Bft) W-SW 242 0 min 0,000 mm 0,0 UV-I 0 W/m 6,0 C 9,6 C 6,4 km/h (2 Bft) 91,30 %
26.04.2018 22:47 9,6 C 17,2 C 78 % 1018,2 hPa 0,0 l/m 4,8 km/h (1 Bft) W-SW 239 0 min 0,000 mm 0,0 UV-I 0 W/m 6,0 C 9,6 C 6,4 km/h (2 Bft) 100,00 %
26.04.2018 22:48 9,5 C 17,2 C 78 % 1018,1 hPa 0,0 l/m 4,7 km/h (1 Bft) W-SW 242 0 min 0,000 mm 0,0 UV-I 0 W/m 5,9 C 9,5 C 6,4 km/h (2 Bft) 95,65 %
26.04.2018 22:49 9,5 C 17,2 C 79 % 1018,2 hPa 0,0 l/m 4,0 km/h (1 Bft) W-SW 241 0 min 0,000 mm 0,0 UV-I 0 W/m 6,0 C 9,5 C 6,4 km/h (2 Bft) 95,83 %
26.04.2018 22:50 9,5 C 17,2 C 79 % 1018,1 hPa 0,0 l/m 4,4 km/h (1 Bft) W-SW 241 0 min 0,000 mm 0,0 UV-I 0 W/m 6,0 C 9,5 C 6,4 km/h (2 Bft) 100,00 %
26.04.2018 22:51 9,5 C 17,2 C 79 % 1018,1 hPa 0,0 l/m 4,8 km/h (1 Bft) W-SW 240 0 min 0,000 mm 0,0 UV-I 0 W/m 6,0 C 9,5 C 6,4 km/h (2 Bft) 95,65 %
26.04.2018 22:52 9,5 C 17,2 C 78 % 1018,1 hPa 0,0 l/m 4,8 km/h (1 Bft) SW 229 0 min 0,000 mm 0,0 UV-I 0 W/m 5,9 C 9,5 C 6,4 km/h (2 Bft) 100,00 %
26.04.2018 22:53 9,4 C 17,2 C 78 % 1018,2 hPa 0,0 l/m 4,2 km/h (1 Bft) SW 229 0 min 0,000 mm 0,0 UV-I 0 W/m 5,8 C 9,4 C 6,4 km/h (2 Bft) 100,00 %
26.04.2018 22:54 9,4 C 17,2 C 78 % 1018,1 hPa 0,0 l/m 5,4 km/h (1 Bft) SW 232 0 min 0,000 mm 0,0 UV-I 0 W/m 5,8 C 9,4 C 6,4 km/h (2 Bft) 95,83 %
26.04.2018 22:55 9,4 C 17,2 C 79 % 1018,2 hPa 0,0 l/m 3,8 km/h (1 Bft) SW 232 0 min 0,000 mm 0,0 UV-I 0 W/m 5,9 C 9,4 C 4,8 km/h (1 Bft) 95,65 %
26.04.2018 22:56 9,3 C 17,2 C 79 % 1018,2 hPa 0,0 l/m 4,5 km/h (1 Bft) SW 232 0 min 0,000 mm 0,0 UV-I 0 W/m 5,8 C 9,3 C 6,4 km/h (2 Bft) 96,30 %
26.04.2018 22:57 9,3 C 17,2 C 80 % 1018,2 hPa 0,0 l/m 4,5 km/h (1 Bft) SW 231 0 min 0,000 mm 0,0 UV-I 0 W/m 6,0 C 9,3 C 4,8 km/h (1 Bft) 100,00 %
26.04.2018 22:58 9,3 C 17,2 C 80 % 1018,2 hPa 0,0 l/m 4,0 km/h (1 Bft) SW 231 0 min 0,000 mm 0,0 UV-I 0 W/m 6,0 C 9,3 C 6,4 km/h (2 Bft) 95,83 %
26.04.2018 22:59 9,2 C 17,2 C 80 % 1018,3 hPa 0,0 l/m 4,4 km/h (1 Bft) SW 232 0 min 0,000 mm 0,0 UV-I 0 W/m 5,9 C 9,2 C 6,4 km/h (2 Bft) 95,65 %
26.04.2018 23:00 9,2 C 17,2 C 80 % 1018,3 hPa 0,0 l/m 4,5 km/h (1 Bft) SW 232 0 min 0,000 mm 0,0 UV-I 0 W/m 5,9 C 9,2 C 4,8 km/h (1 Bft) 91,67 %
26.04.2018 23:02 9,2 C 17,2 C 80 % 1018,4 hPa 0,0 l/m 5,4 km/h (1 Bft) SW 228 0 min 0,026 mm 0,0 UV-I 0 W/m 5,9 C 9,2 C 6,4 km/h (2 Bft) 95,74 %
26.04.2018 23:03 9,2 C 17,2 C 80 % 1018,3 hPa 0,0 l/m 5,4 km/h (1 Bft) SW 217 0 min 0,000 mm 0,0 UV-I 0 W/m 5,9 C 9,2 C 8,0 km/h (2 Bft) 95,65 %
26.04.2018 23:04 9,2 C 17,2 C 80 % 1018,4 hPa 0,0 l/m 6,2 km/h (2 Bft) SW 229 0 min 0,000 mm 0,0 UV-I 0 W/m 5,9 C 9,2 C 8,0 km/h (2 Bft) 100,00 %
26.04.2018 23:05 9,2 C 17,2 C 80 % 1018,4 hPa 0,0 l/m 4,3 km/h (1 Bft) SW 229 0 min 0,000 mm 0,0 UV-I 0 W/m 5,9 C 9,2 C 6,4 km/h (2 Bft) 96,15 %
26.04.2018 23:06 9,2 C 17,2 C 80 % 1018,5 hPa 0,0 l/m 4,2 km/h (1 Bft) SW 229 0 min 0,000 mm 0,0 UV-I 0 W/m 5,9 C 9,2 C 6,4 km/h (2 Bft) 100,00 %
26.04.2018 23:07 9,2 C 17,2 C 80 % 1018,4 hPa 0,0 l/m 4,8 km/h (1 Bft) SW 227 0 min 0,000 mm 0,0 UV-I 0 W/m 5,9 C 9,2 C 6,4 km/h (2 Bft) 91,30 %
26.04.2018 23:08 9,2 C 17,2 C 80 % 1018,4 hPa 0,0 l/m 4,3 km/h (1 Bft) SW 227 0 min 0,000 mm 0,0 UV-I 0 W/m 5,9 C 9,2 C 6,4 km/h (2 Bft) 100,00 %
26.04.2018 23:09 9,2 C 17,2 C 80 % 1018,3 hPa 0,0 l/m 3,8 km/h (1 Bft) SW 227 0 min 0,000 mm 0,0 UV-I 0 W/m 5,9 C 9,2 C 4,8 km/h (1 Bft) 95,65 %
26.04.2018 23:10 9,2 C 17,2 C 81 % 1018,3 hPa 0,0 l/m 2,9 km/h (1 Bft) SW 227 0 min 0,000 mm 0,0 UV-I 0 W/m 6,1 C 9,2 C 4,8 km/h (1 Bft) 95,83 %
26.04.2018 23:11 9,2 C 17,2 C 81 % 1018,4 hPa 0,0 l/m 3,4 km/h (1 Bft) SW 227 0 min 0,000 mm 0,0 UV-I 0 W/m 6,1 C 9,2 C 4,8 km/h (1 Bft) 95,65 %
26.04.2018 23:12 9,2 C 17,2 C 81 % 1018,4 hPa 0,0 l/m 3,9 km/h (1 Bft) SW 227 0 min 0,000 mm 0,0 UV-I 0 W/m 6,1 C 9,2 C 4,8 km/h (1 Bft) 100,00 %
26.04.2018 23:13 9,2 C 17,2 C 81 % 1018,4 hPa 0,0 l/m 4,7 km/h (1 Bft) SW 227 0 min 0,000 mm 0,0 UV-I 0 W/m 6,1 C 9,2 C 6,4 km/h (2 Bft) 96,55 %
26.04.2018 23:14 9,1 C 17,2 C 81 % 1018,4 hPa 0,0 l/m 3,3 km/h (1 Bft) SW 227 0 min 0,000 mm 0,0 UV-I 0 W/m 6,0 C 9,1 C 4,8 km/h (1 Bft) 96,30 %
26.04.2018 23:15 9,1 C 17,2 C 81 % 1018,4 hPa 0,0 l/m 4,2 km/h (1 Bft) SW 227 0 min 0,000 mm 0,0 UV-I 0 W/m 6,0 C 9,1 C 4,8 km/h (1 Bft) 100,00 %
26.04.2018 23:16 9,1 C 17,2 C 81 % 1018,4 hPa 0,0 l/m 4,6 km/h (1 Bft) SW 227 0 min 0,000 mm 0,0 UV-I 0 W/m 6,0 C 9,1 C 4,8 km/h (1 Bft) 95,65 %
26.04.2018 23:17 9,1 C 17,2 C 81 % 1018,4 hPa 0,0 l/m 3,8 km/h (1 Bft) SW 227 0 min 0,000 mm 0,0 UV-I 0 W/m 6,0 C 9,1 C 4,8 km/h (1 Bft) 100,00 %
26.04.2018 23:18 9,1 C 17,2 C 81 % 1018,4 hPa 0,0 l/m 4,4 km/h (1 Bft) SW 227 0 min 0,000 mm 0,0 UV-I 0 W/m 6,0 C 9,1 C 6,4 km/h (2 Bft) 95,65 %
26.04.2018 23:19 9,1 C 17,2 C 81 % 1018,4 hPa 0,0 l/m 4,0 km/h (1 Bft) SW 227 0 min 0,000 mm 0,0 UV-I 0 W/m 6,0 C 9,1 C 4,8 km/h (1 Bft) 100,00 %
26.04.2018 23:20 9,1 C 17,2 C 81 % 1018,4 hPa 0,0 l/m 4,0 km/h (1 Bft) SW 227 0 min 0,000 mm 0,0 UV-I 0 W/m 6,0 C 9,1 C 4,8 km/h (1 Bft) 96,15 %
26.04.2018 23:21 9,1 C 17,2 C 81 % 1018,4 hPa 0,0 l/m 4,4 km/h (1 Bft) SW 227 0 min 0,000 mm 0,0 UV-I 0 W/m 6,0 C 9,1 C 6,4 km/h (2 Bft) 96,30 %
26.04.2018 23:22 9,1 C 17,2 C 81 % 1018,4 hPa 0,0 l/m 4,2 km/h (1 Bft) SW 227 0 min 0,000 mm 0,0 UV-I 0 W/m 6,0 C 9,1 C 4,8 km/h (1 Bft) 95,65 %
26.04.2018 23:23 9,1 C 17,2 C 80 % 1018,4 hPa 0,0 l/m 4,2 km/h (1 Bft) SW 227 0 min 0,000 mm 0,0 UV-I 0 W/m 5,8 C 9,1 C 4,8 km/h (1 Bft) 93,33 %
26.04.2018 23:24 9,1 C 17,2 C 80 % 1018,4 hPa 0,0 l/m 4,3 km/h (1 Bft) SW 226 0 min 0,000 mm 0,0 UV-I 0 W/m 5,8 C 9,1 C 4,8 km/h (1 Bft) 91,30 %
26.04.2018 23:25 9,1 C 17,2 C 80 % 1018,4 hPa 0,0 l/m 4,5 km/h (1 Bft) SW 226 0 min 0,000 mm 0,0 UV-I 0 W/m 5,8 C 9,1 C 4,8 km/h (1 Bft) 100,00 %
26.04.2018 23:26 9,1 C 17,2 C 80 % 1018,4 hPa 0,0 l/m 4,4 km/h (1 Bft) SW 226 0 min 0,000 mm 0,0 UV-I 0 W/m 5,8 C 9,1 C 4,8 km/h (1 Bft) 95,65 %
26.04.2018 23:27 9,1 C 17,2 C 80 % 1018,4 hPa 0,0 l/m 3,9 km/h (1 Bft) SW 226 0 min 0,000 mm 0,0 UV-I 0 W/m 5,8 C 9,1 C 4,8 km/h (1 Bft) 96,30 %
26.04.2018 23:28 9,1 C 17,2 C 80 % 1018,4 hPa 0,0 l/m 3,8 km/h (1 Bft) SW 226 0 min 0,000 mm 0,0 UV-I 0 W/m 5,8 C 9,1 C 4,8 km/h (1 Bft) 100,00 %
26.04.2018 23:29 9,1 C 17,2 C 80 % 1018,4 hPa 0,0 l/m 4,2 km/h (1 Bft) SW 226 0 min 0,000 mm 0,0 UV-I 0 W/m 5,8 C 9,1 C 4,8 km/h (1 Bft) 95,83 %
26.04.2018 23:30 9,1 C 17,2 C 80 % 1018,4 hPa 0,0 l/m 5,1 km/h (1 Bft) SW 226 0 min 0,000 mm 0,0 UV-I 0 W/m 5,8 C 9,1 C 6,4 km/h (2 Bft) 100,00 %
26.04.2018 23:31 9,1 C 17,2 C 80 % 1018,4 hPa 0,0 l/m 4,2 km/h (1 Bft) SW 226 0 min 0,000 mm 0,0 UV-I 0 W/m 5,8 C 9,1 C 4,8 km/h (1 Bft) 95,83 %
26.04.2018 23:32 9,1 C 17,2 C 80 % 1018,5 hPa 0,0 l/m 3,1 km/h (1 Bft) SW 226 0 min 0,000 mm 0,0 UV-I 0 W/m 5,8 C 9,1 C 4,8 km/h (1 Bft) 100,00 %
26.04.2018 23:33 9,1 C 17,2 C 80 % 1018,5 hPa 0,0 l/m 3,1 km/h (1 Bft) SW 226 0 min 0,000 mm 0,0 UV-I 0 W/m 5,8 C 9,1 C 4,8 km/h (1 Bft) 92,31 %
26.04.2018 23:34 9,1 C 17,2 C 80 % 1018,5 hPa 0,0 l/m 4,1 km/h (1 Bft) SW 226 0 min 0,000 mm 0,0 UV-I 0 W/m 5,8 C 9,1 C 6,4 km/h (2 Bft) 100,00 %
26.04.2018 23:35 9,1 C 17,2 C 80 % 1018,5 hPa 0,0 l/m 4,0 km/h (1 Bft) SW 226 0 min 0,000 mm 0,0 UV-I 0 W/m 5,8 C 9,1 C 4,8 km/h (1 Bft) 92,31 %
26.04.2018 23:36 9,1 C 17,2 C 80 % 1018,5 hPa 0,0 l/m 3,0 km/h (1 Bft) SW 226 0 min 0,000 mm 0,0 UV-I 0 W/m 5,8 C 9,1 C 4,8 km/h (1 Bft) 91,67 %
26.04.2018 23:37 9,1 C 17,2 C 80 % 1018,5 hPa 0,0 l/m 3,3 km/h (1 Bft) SW 226 0 min 0,000 mm 0,0 UV-I 0 W/m 5,8 C 9,1 C 4,8 km/h (1 Bft) 96,15 %
26.04.2018 23:38 9,1 C 17,2 C 80 % 1018,5 hPa 0,0 l/m 3,8 km/h (1 Bft) SW 226 0 min 0,000 mm 0,0 UV-I 0 W/m 5,8 C 9,1 C 4,8 km/h (1 Bft) 95,83 %
26.04.2018 23:39 9,1 C 17,2 C 81 % 1018,5 hPa 0,0 l/m 3,5 km/h (1 Bft) SW 226 0 min 0,000 mm 0,0 UV-I 0 W/m 6,0 C 9,1 C 4,8 km/h (1 Bft) 100,00 %
26.04.2018 23:40 9,1 C 17,2 C 80 % 1018,5 hPa 0,0 l/m 3,6 km/h (1 Bft) SW 226 0 min 0,000 mm 0,0 UV-I 0 W/m 5,8 C 9,1 C 4,8 km/h (1 Bft) 91,67 %
26.04.2018 23:41 9,1 C 17,2 C 80 % 1018,5 hPa 0,0 l/m 3,0 km/h (1 Bft) SW 226 0 min 0,000 mm 0,0 UV-I 0 W/m 5,8 C 9,1 C 4,8 km/h (1 Bft) 100,00 %
26.04.2018 23:42 9,1 C 17,2 C 81 % 1018,6 hPa 0,0 l/m 3,1 km/h (1 Bft) SW 226 0 min 0,000 mm 0,0 UV-I 0 W/m 6,0 C 9,1 C 4,8 km/h (1 Bft) 95,83 %
26.04.2018 23:43 9,1 C 17,2 C 81 % 1018,5 hPa 0,0 l/m 2,0 km/h (1 Bft) SW 226 0 min 0,000 mm 0,0 UV-I 0 W/m 6,0 C 9,1 C 3,2 km/h (1 Bft) 100,00 %
26.04.2018 23:44 9,1 C 17,2 C 81 % 1018,5 hPa 0,0 l/m 2,0 km/h (1 Bft) SW 226 0 min 0,000 mm 0,0 UV-I 0 W/m 6,0 C 9,1 C 3,2 km/h (1 Bft) 91,67 %
26.04.2018 23:45 8,9 C 17,2 C 82 % 1018,5 hPa 0,0 l/m 1,6 km/h (1 Bft) SW 226 0 min 0,000 mm 0,0 UV-I 0 W/m 6,0 C 8,9 C 3,2 km/h (1 Bft) 100,00 %
26.04.2018 23:46 8,8 C 17,2 C 83 % 1018,5 hPa 0,0 l/m 1,7 km/h (1 Bft) SW 226 0 min 0,000 mm 0,0 UV-I 0 W/m 6,1 C 8,8 C 3,2 km/h (1 Bft) 95,65 %
26.04.2018 23:47 8,8 C 17,2 C 84 % 1018,5 hPa 0,0 l/m 1,0 km/h (0 Bft) SW 226 0 min 0,000 mm 0,0 UV-I 0 W/m 6,2 C 8,8 C 1,6 km/h (1 Bft) 95,83 %
26.04.2018 23:48 8,7 C 17,2 C 84 % 1018,6 hPa 0,0 l/m 0,3 km/h (0 Bft) SW 226 0 min 0,000 mm 0,0 UV-I 0 W/m 6,2 C 8,7 C 1,6 km/h (1 Bft) 96,15 %
26.04.2018 23:49 8,7 C 17,2 C 84 % 1018,6 hPa 0,0 l/m 1,4 km/h (1 Bft) SW 226 0 min 0,000 mm 0,0 UV-I 0 W/m 6,2 C 8,7 C 3,2 km/h (1 Bft) 95,83 %
26.04.2018 23:50 8,7 C 17,2 C 84 % 1018,6 hPa 0,0 l/m 0,3 km/h (0 Bft) SW 226 0 min 0,000 mm 0,0 UV-I 0 W/m 6,2 C 8,7 C 1,6 km/h (1 Bft) 95,65 %
26.04.2018 23:51 8,8 C 17,2 C 83 % 1018,6 hPa 0,0 l/m 0,0 km/h (0 Bft) SW 226 0 min 0,000 mm 0,0 UV-I 0 W/m 6,1 C 8,8 C 0,0 km/h (0 Bft) 95,83 %
26.04.2018 23:52 8,8 C 17,2 C 83 % 1018,6 hPa 0,0 l/m 0,0 km/h (0 Bft) SW 226 0 min 0,000 mm 0,0 UV-I 0 W/m 6,1 C 8,8 C 0,0 km/h (0 Bft) 100,00 %
26.04.2018 23:53 8,8 C 17,2 C 83 % 1018,5 hPa 0,0 l/m 0,0 km/h (0 Bft) SW 226 0 min 0,000 mm 0,0 UV-I 0 W/m 6,1 C 8,8 C 0,0 km/h (0 Bft) 95,83 %
26.04.2018 23:54 8,9 C 17,2 C 82 % 1018,6 hPa 0,0 l/m 0,6 km/h (0 Bft) SW 226 0 min 0,000 mm 0,0 UV-I 0 W/m 6,0 C 8,9 C 3,2 km/h (1 Bft) 100,00 %
26.04.2018 23:55 8,9 C 17,2 C 82 % 1018,6 hPa 0,0 l/m 2,6 km/h (1 Bft) SW 226 0 min 0,000 mm 0,0 UV-I 0 W/m 6,0 C 8,9 C 3,2 km/h (1 Bft) 100,00 %
26.04.2018 23:56 8,8 C 17,2 C 82 % 1018,6 hPa 0,0 l/m 3,7 km/h (1 Bft) SW 226 0 min 0,000 mm 0,0 UV-I 0 W/m 5,9 C 8,8 C 4,8 km/h (1 Bft) 96,15 %
26.04.2018 23:57 8,8 C 17,2 C 83 % 1018,5 hPa 0,0 l/m 3,4 km/h (1 Bft) SW 226 0 min 0,000 mm 0,0 UV-I 0 W/m 6,1 C 8,8 C 4,8 km/h (1 Bft) 100,00 %
26.04.2018 23:58 8,7 C 17,2 C 84 % 1018,5 hPa 0,0 l/m 3,8 km/h (1 Bft) SW 227 0 min 0,000 mm 0,0 UV-I 0 W/m 6,2 C 8,7 C 4,8 km/h (1 Bft) 100,00 %
26.04.2018 23:59 8,6 C 17,2 C 85 % 1018,5 hPa 0,0 l/m 5,3 km/h (1 Bft) NO 53 0 min 0,000 mm 0,0 UV-I 0 W/m 6,2 C 8,6 C 6,4 km/h (2 Bft) 100,00 %
_ Min-Zeit 23:59 20:43 00:00 03:01 - 23:51 - - - - - - 22:00 11:28 23:51 04:41
Minimum _ 8,6 C 17,2 C 54 % 1011,9 hPa - 0,0 km/h (0 Bft) - - - - - - 5,7 C 1,8 C 0,0 km/h (0 Bft) 76,47 %
_ Max-Zeit 00:00 00:00 07:23 23:42 00:59 14:17 - - 19:58 14:02 13:24 13:24 08:48 00:04 13:24 00:02
Maximum _ 18,0 C 19,4 C 94 % 1018,6 hPa 0,2 l/m 32,3 km/h
SW (5 Bft)
- - 2 min 0,228 mm 3,0 UV-I 497 W/m 11,3 C 17,7 C 45,1 km/h
W-SW (6 Bft)
100,00 %
Durchschnitt _ 11,9 C 18,3 C 80 % 1015,2 hPa #3,0 l/m 12,3 km/h (3 Bft) W-SW - #21 min. #1,702 mm 1,2 UV-I 143 W/m 8,4 C 8,9 C 17,8 km/h (3 Bft) 97,65 %